<?xml version="1.0" encoding="UTF-8" standalone="no" ?>
<gpx xmlns="http://www.topografix.com/GPX/1/1" xmlns:xsi="http://www.w3.org/2001/XMLSchema-instance" xsi:schemaLocation="http://www.topografix.com/GPX/1/1 http://www.topografix.com/GPX/1/1/gpx.xsd" version="1.1" creator="VisuGPX - https://www.visugpx.com">
  <metadata>
    <name>Entraînement CCM</name>
    <desc><![CDATA[CCM entraînement club avec la team]]></desc>
  </metadata>
  <trk>
    <name><![CDATA[20180624130801-48Qdh]]></name>
    <trkseg>
      <trkpt lat="50.13411" lon="3.7772">
        <ele>177</ele>
        <time>2018-06-24T06:27:00Z</time>
      </trkpt>
      <trkpt lat="50.13426" lon="3.77633">
        <ele>177</ele>
        <time>2018-06-24T06:27:10Z</time>
      </trkpt>
      <trkpt lat="50.13447" lon="3.77548">
        <ele>176</ele>
        <time>2018-06-24T06:27:20Z</time>
      </trkpt>
      <trkpt lat="50.13448" lon="3.77539">
        <ele>176</ele>
        <time>2018-06-24T06:27:21Z</time>
      </trkpt>
      <trkpt lat="50.13447" lon="3.7752">
        <ele>176</ele>
        <time>2018-06-24T06:27:23Z</time>
      </trkpt>
      <trkpt lat="50.13431" lon="3.77451">
        <ele>176</ele>
        <time>2018-06-24T06:27:30Z</time>
      </trkpt>
      <trkpt lat="50.1343" lon="3.7743">
        <ele>176</ele>
        <time>2018-06-24T06:27:32Z</time>
      </trkpt>
      <trkpt lat="50.13439" lon="3.77345">
        <ele>175</ele>
        <time>2018-06-24T06:27:40Z</time>
      </trkpt>
      <trkpt lat="50.13449" lon="3.7725">
        <ele>174</ele>
        <time>2018-06-24T06:27:48Z</time>
      </trkpt>
      <trkpt lat="50.13456" lon="3.7716">
        <ele>171</ele>
        <time>2018-06-24T06:27:55Z</time>
      </trkpt>
      <trkpt lat="50.13458" lon="3.77065">
        <ele>169</ele>
        <time>2018-06-24T06:28:02Z</time>
      </trkpt>
      <trkpt lat="50.13462" lon="3.76985">
        <ele>168</ele>
        <time>2018-06-24T06:28:08Z</time>
      </trkpt>
      <trkpt lat="50.13454" lon="3.76922">
        <ele>167</ele>
        <time>2018-06-24T06:28:13Z</time>
      </trkpt>
      <trkpt lat="50.13455" lon="3.76897">
        <ele>166</ele>
        <time>2018-06-24T06:28:15Z</time>
      </trkpt>
      <trkpt lat="50.13472" lon="3.76814">
        <ele>166</ele>
        <time>2018-06-24T06:28:22Z</time>
      </trkpt>
      <trkpt lat="50.13483" lon="3.76765">
        <ele>165</ele>
        <time>2018-06-24T06:28:27Z</time>
      </trkpt>
      <trkpt lat="50.13485" lon="3.7667">
        <ele>165</ele>
        <time>2018-06-24T06:28:35Z</time>
      </trkpt>
      <trkpt lat="50.1349" lon="3.76577">
        <ele>163</ele>
        <time>2018-06-24T06:28:42Z</time>
      </trkpt>
      <trkpt lat="50.13492" lon="3.76485">
        <ele>161</ele>
        <time>2018-06-24T06:28:49Z</time>
      </trkpt>
      <trkpt lat="50.13503" lon="3.76391">
        <ele>158</ele>
        <time>2018-06-24T06:28:56Z</time>
      </trkpt>
      <trkpt lat="50.13517" lon="3.76304">
        <ele>156</ele>
        <time>2018-06-24T06:29:02Z</time>
      </trkpt>
      <trkpt lat="50.13533" lon="3.76221">
        <ele>154</ele>
        <time>2018-06-24T06:29:08Z</time>
      </trkpt>
      <trkpt lat="50.1354" lon="3.76169">
        <ele>154</ele>
        <time>2018-06-24T06:29:12Z</time>
      </trkpt>
      <trkpt lat="50.13539" lon="3.76143">
        <ele>153</ele>
        <time>2018-06-24T06:29:14Z</time>
      </trkpt>
      <trkpt lat="50.13534" lon="3.76119">
        <ele>153</ele>
        <time>2018-06-24T06:29:16Z</time>
      </trkpt>
      <trkpt lat="50.13524" lon="3.76098">
        <ele>152</ele>
        <time>2018-06-24T06:29:18Z</time>
      </trkpt>
      <trkpt lat="50.13509" lon="3.76083">
        <ele>151</ele>
        <time>2018-06-24T06:29:20Z</time>
      </trkpt>
      <trkpt lat="50.13454" lon="3.76045">
        <ele>149</ele>
        <time>2018-06-24T06:29:27Z</time>
      </trkpt>
      <trkpt lat="50.1341" lon="3.76014">
        <ele>147</ele>
        <time>2018-06-24T06:29:33Z</time>
      </trkpt>
      <trkpt lat="50.13398" lon="3.75996">
        <ele>146</ele>
        <time>2018-06-24T06:29:35Z</time>
      </trkpt>
      <trkpt lat="50.13394" lon="3.75973">
        <ele>145</ele>
        <time>2018-06-24T06:29:37Z</time>
      </trkpt>
      <trkpt lat="50.13399" lon="3.75956">
        <ele>145</ele>
        <time>2018-06-24T06:29:39Z</time>
      </trkpt>
      <trkpt lat="50.13413" lon="3.75938">
        <ele>145</ele>
        <time>2018-06-24T06:29:42Z</time>
      </trkpt>
      <trkpt lat="50.1342" lon="3.75925">
        <ele>146</ele>
        <time>2018-06-24T06:29:44Z</time>
      </trkpt>
      <trkpt lat="50.13416" lon="3.7593">
        <ele>145</ele>
        <time>2018-06-24T06:31:09Z</time>
      </trkpt>
      <trkpt lat="50.13396" lon="3.75936">
        <ele>145</ele>
        <time>2018-06-24T06:31:16Z</time>
      </trkpt>
      <trkpt lat="50.13392" lon="3.75924">
        <ele>144</ele>
        <time>2018-06-24T06:31:18Z</time>
      </trkpt>
      <trkpt lat="50.13389" lon="3.7584">
        <ele>142</ele>
        <time>2018-06-24T06:31:27Z</time>
      </trkpt>
      <trkpt lat="50.13384" lon="3.75821">
        <ele>141</ele>
        <time>2018-06-24T06:31:29Z</time>
      </trkpt>
      <trkpt lat="50.13375" lon="3.75805">
        <ele>140</ele>
        <time>2018-06-24T06:31:31Z</time>
      </trkpt>
      <trkpt lat="50.13364" lon="3.75792">
        <ele>140</ele>
        <time>2018-06-24T06:31:33Z</time>
      </trkpt>
      <trkpt lat="50.13351" lon="3.75787">
        <ele>140</ele>
        <time>2018-06-24T06:31:35Z</time>
      </trkpt>
      <trkpt lat="50.13297" lon="3.75802">
        <ele>137</ele>
        <time>2018-06-24T06:31:42Z</time>
      </trkpt>
      <trkpt lat="50.13289" lon="3.75807">
        <ele>137</ele>
        <time>2018-06-24T06:31:43Z</time>
      </trkpt>
      <trkpt lat="50.13271" lon="3.75832">
        <ele>136</ele>
        <time>2018-06-24T06:31:46Z</time>
      </trkpt>
      <trkpt lat="50.13266" lon="3.75856">
        <ele>137</ele>
        <time>2018-06-24T06:31:48Z</time>
      </trkpt>
      <trkpt lat="50.13259" lon="3.75884">
        <ele>137</ele>
        <time>2018-06-24T06:31:51Z</time>
      </trkpt>
      <trkpt lat="50.1325" lon="3.75893">
        <ele>136</ele>
        <time>2018-06-24T06:31:53Z</time>
      </trkpt>
      <trkpt lat="50.13208" lon="3.75921">
        <ele>135</ele>
        <time>2018-06-24T06:32:03Z</time>
      </trkpt>
      <trkpt lat="50.13154" lon="3.75948">
        <ele>135</ele>
        <time>2018-06-24T06:32:13Z</time>
      </trkpt>
      <trkpt lat="50.13104" lon="3.75985">
        <ele>136</ele>
        <time>2018-06-24T06:32:22Z</time>
      </trkpt>
      <trkpt lat="50.1305" lon="3.75998">
        <ele>135</ele>
        <time>2018-06-24T06:32:30Z</time>
      </trkpt>
      <trkpt lat="50.12992" lon="3.76004">
        <ele>134</ele>
        <time>2018-06-24T06:32:39Z</time>
      </trkpt>
      <trkpt lat="50.12934" lon="3.76006">
        <ele>134</ele>
        <time>2018-06-24T06:32:48Z</time>
      </trkpt>
      <trkpt lat="50.12875" lon="3.75995">
        <ele>135</ele>
        <time>2018-06-24T06:32:57Z</time>
      </trkpt>
      <trkpt lat="50.12821" lon="3.75953">
        <ele>135</ele>
        <time>2018-06-24T06:33:06Z</time>
      </trkpt>
      <trkpt lat="50.12775" lon="3.75897">
        <ele>135</ele>
        <time>2018-06-24T06:33:15Z</time>
      </trkpt>
      <trkpt lat="50.12749" lon="3.75874">
        <ele>135</ele>
        <time>2018-06-24T06:33:20Z</time>
      </trkpt>
      <trkpt lat="50.12738" lon="3.75871">
        <ele>135</ele>
        <time>2018-06-24T06:33:22Z</time>
      </trkpt>
      <trkpt lat="50.12681" lon="3.75884">
        <ele>135</ele>
        <time>2018-06-24T06:33:32Z</time>
      </trkpt>
      <trkpt lat="50.12623" lon="3.75897">
        <ele>136</ele>
        <time>2018-06-24T06:33:42Z</time>
      </trkpt>
      <trkpt lat="50.12587" lon="3.75905">
        <ele>137</ele>
        <time>2018-06-24T06:33:49Z</time>
      </trkpt>
      <trkpt lat="50.12571" lon="3.75903">
        <ele>137</ele>
        <time>2018-06-24T06:33:52Z</time>
      </trkpt>
      <trkpt lat="50.12562" lon="3.75897">
        <ele>137</ele>
        <time>2018-06-24T06:33:54Z</time>
      </trkpt>
      <trkpt lat="50.12533" lon="3.75874">
        <ele>137</ele>
        <time>2018-06-24T06:34:01Z</time>
      </trkpt>
      <trkpt lat="50.12479" lon="3.75859">
        <ele>137</ele>
        <time>2018-06-24T06:34:11Z</time>
      </trkpt>
      <trkpt lat="50.12425" lon="3.75836">
        <ele>138</ele>
        <time>2018-06-24T06:34:21Z</time>
      </trkpt>
      <trkpt lat="50.12377" lon="3.75793">
        <ele>139</ele>
        <time>2018-06-24T06:34:31Z</time>
      </trkpt>
      <trkpt lat="50.12331" lon="3.75743">
        <ele>139</ele>
        <time>2018-06-24T06:34:41Z</time>
      </trkpt>
      <trkpt lat="50.12291" lon="3.75681">
        <ele>139</ele>
        <time>2018-06-24T06:34:52Z</time>
      </trkpt>
      <trkpt lat="50.1228" lon="3.75668">
        <ele>139</ele>
        <time>2018-06-24T06:34:55Z</time>
      </trkpt>
      <trkpt lat="50.1227" lon="3.75663">
        <ele>139</ele>
        <time>2018-06-24T06:34:57Z</time>
      </trkpt>
      <trkpt lat="50.12261" lon="3.75666">
        <ele>139</ele>
        <time>2018-06-24T06:34:59Z</time>
      </trkpt>
      <trkpt lat="50.12249" lon="3.7568">
        <ele>141</ele>
        <time>2018-06-24T06:35:02Z</time>
      </trkpt>
      <trkpt lat="50.12212" lon="3.75749">
        <ele>142</ele>
        <time>2018-06-24T06:35:14Z</time>
      </trkpt>
      <trkpt lat="50.1218" lon="3.75817">
        <ele>143</ele>
        <time>2018-06-24T06:35:26Z</time>
      </trkpt>
      <trkpt lat="50.12145" lon="3.75881">
        <ele>142</ele>
        <time>2018-06-24T06:35:36Z</time>
      </trkpt>
      <trkpt lat="50.12109" lon="3.75945">
        <ele>140</ele>
        <time>2018-06-24T06:35:45Z</time>
      </trkpt>
      <trkpt lat="50.12079" lon="3.76022">
        <ele>140</ele>
        <time>2018-06-24T06:35:55Z</time>
      </trkpt>
      <trkpt lat="50.12056" lon="3.76072">
        <ele>140</ele>
        <time>2018-06-24T06:36:02Z</time>
      </trkpt>
      <trkpt lat="50.12008" lon="3.76122">
        <ele>141</ele>
        <time>2018-06-24T06:36:13Z</time>
      </trkpt>
      <trkpt lat="50.11985" lon="3.76138">
        <ele>143</ele>
        <time>2018-06-24T06:36:18Z</time>
      </trkpt>
      <trkpt lat="50.11946" lon="3.76166">
        <ele>143</ele>
        <time>2018-06-24T06:36:27Z</time>
      </trkpt>
      <trkpt lat="50.11919" lon="3.76205">
        <ele>142</ele>
        <time>2018-06-24T06:36:34Z</time>
      </trkpt>
      <trkpt lat="50.1191" lon="3.7621">
        <ele>143</ele>
        <time>2018-06-24T06:36:36Z</time>
      </trkpt>
      <trkpt lat="50.119" lon="3.76209">
        <ele>143</ele>
        <time>2018-06-24T06:36:38Z</time>
      </trkpt>
      <trkpt lat="50.1189" lon="3.76204">
        <ele>143</ele>
        <time>2018-06-24T06:36:40Z</time>
      </trkpt>
      <trkpt lat="50.11837" lon="3.76169">
        <ele>146</ele>
        <time>2018-06-24T06:36:51Z</time>
      </trkpt>
      <trkpt lat="50.11785" lon="3.76143">
        <ele>149</ele>
        <time>2018-06-24T06:37:03Z</time>
      </trkpt>
      <trkpt lat="50.11733" lon="3.76117">
        <ele>152</ele>
        <time>2018-06-24T06:37:16Z</time>
      </trkpt>
      <trkpt lat="50.11683" lon="3.76082">
        <ele>153</ele>
        <time>2018-06-24T06:37:29Z</time>
      </trkpt>
      <trkpt lat="50.1163" lon="3.76058">
        <ele>156</ele>
        <time>2018-06-24T06:37:43Z</time>
      </trkpt>
      <trkpt lat="50.11577" lon="3.76056">
        <ele>160</ele>
        <time>2018-06-24T06:37:57Z</time>
      </trkpt>
      <trkpt lat="50.11522" lon="3.76073">
        <ele>161</ele>
        <time>2018-06-24T06:38:11Z</time>
      </trkpt>
      <trkpt lat="50.11466" lon="3.76084">
        <ele>162</ele>
        <time>2018-06-24T06:38:25Z</time>
      </trkpt>
      <trkpt lat="50.11411" lon="3.76086">
        <ele>164</ele>
        <time>2018-06-24T06:38:38Z</time>
      </trkpt>
      <trkpt lat="50.11357" lon="3.76075">
        <ele>166</ele>
        <time>2018-06-24T06:38:51Z</time>
      </trkpt>
      <trkpt lat="50.11302" lon="3.76076">
        <ele>169</ele>
        <time>2018-06-24T06:39:03Z</time>
      </trkpt>
      <trkpt lat="50.11249" lon="3.761">
        <ele>170</ele>
        <time>2018-06-24T06:39:16Z</time>
      </trkpt>
      <trkpt lat="50.11194" lon="3.76125">
        <ele>170</ele>
        <time>2018-06-24T06:39:29Z</time>
      </trkpt>
      <trkpt lat="50.11142" lon="3.76157">
        <ele>170</ele>
        <time>2018-06-24T06:39:41Z</time>
      </trkpt>
      <trkpt lat="50.11093" lon="3.76194">
        <ele>170</ele>
        <time>2018-06-24T06:39:53Z</time>
      </trkpt>
      <trkpt lat="50.11043" lon="3.76234">
        <ele>171</ele>
        <time>2018-06-24T06:40:04Z</time>
      </trkpt>
      <trkpt lat="50.10989" lon="3.76268">
        <ele>169</ele>
        <time>2018-06-24T06:40:13Z</time>
      </trkpt>
      <trkpt lat="50.10943" lon="3.76294">
        <ele>168</ele>
        <time>2018-06-24T06:40:20Z</time>
      </trkpt>
      <trkpt lat="50.10883" lon="3.76292">
        <ele>167</ele>
        <time>2018-06-24T06:40:29Z</time>
      </trkpt>
      <trkpt lat="50.10827" lon="3.76287">
        <ele>168</ele>
        <time>2018-06-24T06:40:39Z</time>
      </trkpt>
      <trkpt lat="50.10768" lon="3.76278">
        <ele>168</ele>
        <time>2018-06-24T06:40:49Z</time>
      </trkpt>
      <trkpt lat="50.10714" lon="3.7627">
        <ele>167</ele>
        <time>2018-06-24T06:40:58Z</time>
      </trkpt>
      <trkpt lat="50.10656" lon="3.76285">
        <ele>168</ele>
        <time>2018-06-24T06:41:08Z</time>
      </trkpt>
      <trkpt lat="50.10599" lon="3.7631">
        <ele>169</ele>
        <time>2018-06-24T06:41:18Z</time>
      </trkpt>
      <trkpt lat="50.10545" lon="3.76346">
        <ele>169</ele>
        <time>2018-06-24T06:41:28Z</time>
      </trkpt>
      <trkpt lat="50.10495" lon="3.76378">
        <ele>170</ele>
        <time>2018-06-24T06:41:36Z</time>
      </trkpt>
      <trkpt lat="50.10438" lon="3.76379">
        <ele>171</ele>
        <time>2018-06-24T06:41:46Z</time>
      </trkpt>
      <trkpt lat="50.1038" lon="3.76375">
        <ele>172</ele>
        <time>2018-06-24T06:41:58Z</time>
      </trkpt>
      <trkpt lat="50.10324" lon="3.76373">
        <ele>175</ele>
        <time>2018-06-24T06:42:10Z</time>
      </trkpt>
      <trkpt lat="50.10268" lon="3.76372">
        <ele>176</ele>
        <time>2018-06-24T06:42:22Z</time>
      </trkpt>
      <trkpt lat="50.10211" lon="3.76369">
        <ele>179</ele>
        <time>2018-06-24T06:42:34Z</time>
      </trkpt>
      <trkpt lat="50.10155" lon="3.76368">
        <ele>181</ele>
        <time>2018-06-24T06:42:45Z</time>
      </trkpt>
      <trkpt lat="50.10096" lon="3.76371">
        <ele>181</ele>
        <time>2018-06-24T06:42:56Z</time>
      </trkpt>
      <trkpt lat="50.10039" lon="3.76367">
        <ele>182</ele>
        <time>2018-06-24T06:43:05Z</time>
      </trkpt>
      <trkpt lat="50.09983" lon="3.76353">
        <ele>183</ele>
        <time>2018-06-24T06:43:15Z</time>
      </trkpt>
      <trkpt lat="50.09926" lon="3.76335">
        <ele>185</ele>
        <time>2018-06-24T06:43:27Z</time>
      </trkpt>
      <trkpt lat="50.0987" lon="3.7632">
        <ele>187</ele>
        <time>2018-06-24T06:43:39Z</time>
      </trkpt>
      <trkpt lat="50.09814" lon="3.76305">
        <ele>188</ele>
        <time>2018-06-24T06:43:51Z</time>
      </trkpt>
      <trkpt lat="50.09761" lon="3.76289">
        <ele>189</ele>
        <time>2018-06-24T06:44:02Z</time>
      </trkpt>
      <trkpt lat="50.09703" lon="3.76274">
        <ele>190</ele>
        <time>2018-06-24T06:44:14Z</time>
      </trkpt>
      <trkpt lat="50.09647" lon="3.76267">
        <ele>190</ele>
        <time>2018-06-24T06:44:25Z</time>
      </trkpt>
      <trkpt lat="50.09592" lon="3.76263">
        <ele>190</ele>
        <time>2018-06-24T06:44:35Z</time>
      </trkpt>
      <trkpt lat="50.09535" lon="3.76263">
        <ele>190</ele>
        <time>2018-06-24T06:44:45Z</time>
      </trkpt>
      <trkpt lat="50.09476" lon="3.76271">
        <ele>190</ele>
        <time>2018-06-24T06:44:54Z</time>
      </trkpt>
      <trkpt lat="50.09419" lon="3.76277">
        <ele>190</ele>
        <time>2018-06-24T06:45:03Z</time>
      </trkpt>
      <trkpt lat="50.09363" lon="3.76282">
        <ele>190</ele>
        <time>2018-06-24T06:45:12Z</time>
      </trkpt>
      <trkpt lat="50.09308" lon="3.76289">
        <ele>190</ele>
        <time>2018-06-24T06:45:21Z</time>
      </trkpt>
      <trkpt lat="50.09248" lon="3.76295">
        <ele>192</ele>
        <time>2018-06-24T06:45:31Z</time>
      </trkpt>
      <trkpt lat="50.09193" lon="3.76302">
        <ele>193</ele>
        <time>2018-06-24T06:45:40Z</time>
      </trkpt>
      <trkpt lat="50.09136" lon="3.76308">
        <ele>195</ele>
        <time>2018-06-24T06:45:50Z</time>
      </trkpt>
      <trkpt lat="50.09082" lon="3.76317">
        <ele>196</ele>
        <time>2018-06-24T06:46:00Z</time>
      </trkpt>
      <trkpt lat="50.09024" lon="3.76327">
        <ele>195</ele>
        <time>2018-06-24T06:46:11Z</time>
      </trkpt>
      <trkpt lat="50.0897" lon="3.76345">
        <ele>195</ele>
        <time>2018-06-24T06:46:21Z</time>
      </trkpt>
      <trkpt lat="50.08916" lon="3.76369">
        <ele>194</ele>
        <time>2018-06-24T06:46:30Z</time>
      </trkpt>
      <trkpt lat="50.08858" lon="3.7638">
        <ele>193</ele>
        <time>2018-06-24T06:46:38Z</time>
      </trkpt>
      <trkpt lat="50.08804" lon="3.76375">
        <ele>191</ele>
        <time>2018-06-24T06:46:45Z</time>
      </trkpt>
      <trkpt lat="50.08747" lon="3.76372">
        <ele>189</ele>
        <time>2018-06-24T06:46:52Z</time>
      </trkpt>
      <trkpt lat="50.08689" lon="3.7638">
        <ele>189</ele>
        <time>2018-06-24T06:46:59Z</time>
      </trkpt>
      <trkpt lat="50.08634" lon="3.76393">
        <ele>187</ele>
        <time>2018-06-24T06:47:06Z</time>
      </trkpt>
      <trkpt lat="50.0859" lon="3.764">
        <ele>187</ele>
        <time>2018-06-24T06:47:12Z</time>
      </trkpt>
      <trkpt lat="50.08577" lon="3.76408">
        <ele>186</ele>
        <time>2018-06-24T06:47:14Z</time>
      </trkpt>
      <trkpt lat="50.08535" lon="3.76465">
        <ele>186</ele>
        <time>2018-06-24T06:47:22Z</time>
      </trkpt>
      <trkpt lat="50.08491" lon="3.76512">
        <ele>186</ele>
        <time>2018-06-24T06:47:30Z</time>
      </trkpt>
      <trkpt lat="50.08436" lon="3.76547">
        <ele>186</ele>
        <time>2018-06-24T06:47:39Z</time>
      </trkpt>
      <trkpt lat="50.08382" lon="3.76573">
        <ele>185</ele>
        <time>2018-06-24T06:47:47Z</time>
      </trkpt>
      <trkpt lat="50.08326" lon="3.76592">
        <ele>184</ele>
        <time>2018-06-24T06:47:54Z</time>
      </trkpt>
      <trkpt lat="50.0831" lon="3.76585">
        <ele>184</ele>
        <time>2018-06-24T06:47:56Z</time>
      </trkpt>
      <trkpt lat="50.08261" lon="3.76527">
        <ele>181</ele>
        <time>2018-06-24T06:48:03Z</time>
      </trkpt>
      <trkpt lat="50.0822" lon="3.76468">
        <ele>178</ele>
        <time>2018-06-24T06:48:11Z</time>
      </trkpt>
      <trkpt lat="50.08217" lon="3.76463">
        <ele>178</ele>
        <time>2018-06-24T06:48:12Z</time>
      </trkpt>
      <trkpt lat="50.08196" lon="3.76446">
        <ele>177</ele>
        <time>2018-06-24T06:48:19Z</time>
      </trkpt>
      <trkpt lat="50.08147" lon="3.76484">
        <ele>177</ele>
        <time>2018-06-24T06:48:29Z</time>
      </trkpt>
      <trkpt lat="50.08095" lon="3.7653">
        <ele>178</ele>
        <time>2018-06-24T06:48:39Z</time>
      </trkpt>
      <trkpt lat="50.08054" lon="3.76585">
        <ele>178</ele>
        <time>2018-06-24T06:48:49Z</time>
      </trkpt>
      <trkpt lat="50.0801" lon="3.76644">
        <ele>178</ele>
        <time>2018-06-24T06:49:01Z</time>
      </trkpt>
      <trkpt lat="50.07961" lon="3.76695">
        <ele>177</ele>
        <time>2018-06-24T06:49:12Z</time>
      </trkpt>
      <trkpt lat="50.07916" lon="3.76748">
        <ele>177</ele>
        <time>2018-06-24T06:49:20Z</time>
      </trkpt>
      <trkpt lat="50.07876" lon="3.76806">
        <ele>177</ele>
        <time>2018-06-24T06:49:28Z</time>
      </trkpt>
      <trkpt lat="50.07861" lon="3.76833">
        <ele>177</ele>
        <time>2018-06-24T06:49:32Z</time>
      </trkpt>
      <trkpt lat="50.07856" lon="3.76848">
        <ele>178</ele>
        <time>2018-06-24T06:49:34Z</time>
      </trkpt>
      <trkpt lat="50.0784" lon="3.76934">
        <ele>180</ele>
        <time>2018-06-24T06:49:45Z</time>
      </trkpt>
      <trkpt lat="50.07828" lon="3.77018">
        <ele>181</ele>
        <time>2018-06-24T06:49:57Z</time>
      </trkpt>
      <trkpt lat="50.0782" lon="3.77057">
        <ele>181</ele>
        <time>2018-06-24T06:50:03Z</time>
      </trkpt>
      <trkpt lat="50.07788" lon="3.77125">
        <ele>182</ele>
        <time>2018-06-24T06:50:14Z</time>
      </trkpt>
      <trkpt lat="50.07751" lon="3.77199">
        <ele>183</ele>
        <time>2018-06-24T06:50:24Z</time>
      </trkpt>
      <trkpt lat="50.07718" lon="3.77267">
        <ele>182</ele>
        <time>2018-06-24T06:50:33Z</time>
      </trkpt>
      <trkpt lat="50.07679" lon="3.77335">
        <ele>183</ele>
        <time>2018-06-24T06:50:43Z</time>
      </trkpt>
      <trkpt lat="50.07637" lon="3.77389">
        <ele>182</ele>
        <time>2018-06-24T06:50:52Z</time>
      </trkpt>
      <trkpt lat="50.07591" lon="3.7744">
        <ele>182</ele>
        <time>2018-06-24T06:51:03Z</time>
      </trkpt>
      <trkpt lat="50.07586" lon="3.77445">
        <ele>182</ele>
        <time>2018-06-24T06:51:04Z</time>
      </trkpt>
      <trkpt lat="50.07575" lon="3.77449">
        <ele>181</ele>
        <time>2018-06-24T06:51:06Z</time>
      </trkpt>
      <trkpt lat="50.07563" lon="3.77445">
        <ele>181</ele>
        <time>2018-06-24T06:51:08Z</time>
      </trkpt>
      <trkpt lat="50.07512" lon="3.77405">
        <ele>179</ele>
        <time>2018-06-24T06:51:16Z</time>
      </trkpt>
      <trkpt lat="50.07461" lon="3.77364">
        <ele>176</ele>
        <time>2018-06-24T06:51:23Z</time>
      </trkpt>
      <trkpt lat="50.07408" lon="3.7732">
        <ele>173</ele>
        <time>2018-06-24T06:51:30Z</time>
      </trkpt>
      <trkpt lat="50.07358" lon="3.77281">
        <ele>173</ele>
        <time>2018-06-24T06:51:37Z</time>
      </trkpt>
      <trkpt lat="50.07306" lon="3.77255">
        <ele>174</ele>
        <time>2018-06-24T06:51:45Z</time>
      </trkpt>
      <trkpt lat="50.07254" lon="3.77232">
        <ele>175</ele>
        <time>2018-06-24T06:51:54Z</time>
      </trkpt>
      <trkpt lat="50.072" lon="3.77209">
        <ele>177</ele>
        <time>2018-06-24T06:52:04Z</time>
      </trkpt>
      <trkpt lat="50.07147" lon="3.77182">
        <ele>179</ele>
        <time>2018-06-24T06:52:14Z</time>
      </trkpt>
      <trkpt lat="50.07092" lon="3.77151">
        <ele>180</ele>
        <time>2018-06-24T06:52:24Z</time>
      </trkpt>
      <trkpt lat="50.07036" lon="3.77122">
        <ele>181</ele>
        <time>2018-06-24T06:52:34Z</time>
      </trkpt>
      <trkpt lat="50.06982" lon="3.77099">
        <ele>182</ele>
        <time>2018-06-24T06:52:44Z</time>
      </trkpt>
      <trkpt lat="50.06925" lon="3.77071">
        <ele>183</ele>
        <time>2018-06-24T06:52:54Z</time>
      </trkpt>
      <trkpt lat="50.06872" lon="3.77042">
        <ele>184</ele>
        <time>2018-06-24T06:53:04Z</time>
      </trkpt>
      <trkpt lat="50.06819" lon="3.77015">
        <ele>186</ele>
        <time>2018-06-24T06:53:14Z</time>
      </trkpt>
      <trkpt lat="50.06765" lon="3.76993">
        <ele>187</ele>
        <time>2018-06-24T06:53:24Z</time>
      </trkpt>
      <trkpt lat="50.06708" lon="3.76971">
        <ele>187</ele>
        <time>2018-06-24T06:53:35Z</time>
      </trkpt>
      <trkpt lat="50.06654" lon="3.76948">
        <ele>188</ele>
        <time>2018-06-24T06:53:46Z</time>
      </trkpt>
      <trkpt lat="50.06598" lon="3.7692">
        <ele>189</ele>
        <time>2018-06-24T06:53:58Z</time>
      </trkpt>
      <trkpt lat="50.06541" lon="3.76891">
        <ele>190</ele>
        <time>2018-06-24T06:54:09Z</time>
      </trkpt>
      <trkpt lat="50.06489" lon="3.76865">
        <ele>191</ele>
        <time>2018-06-24T06:54:18Z</time>
      </trkpt>
      <trkpt lat="50.06434" lon="3.76838">
        <ele>191</ele>
        <time>2018-06-24T06:54:27Z</time>
      </trkpt>
      <trkpt lat="50.06381" lon="3.76816">
        <ele>193</ele>
        <time>2018-06-24T06:54:36Z</time>
      </trkpt>
      <trkpt lat="50.06326" lon="3.76794">
        <ele>194</ele>
        <time>2018-06-24T06:54:46Z</time>
      </trkpt>
      <trkpt lat="50.06272" lon="3.76776">
        <ele>194</ele>
        <time>2018-06-24T06:54:56Z</time>
      </trkpt>
      <trkpt lat="50.06215" lon="3.76761">
        <ele>194</ele>
        <time>2018-06-24T06:55:06Z</time>
      </trkpt>
      <trkpt lat="50.06158" lon="3.76748">
        <ele>195</ele>
        <time>2018-06-24T06:55:15Z</time>
      </trkpt>
      <trkpt lat="50.06101" lon="3.76736">
        <ele>195</ele>
        <time>2018-06-24T06:55:24Z</time>
      </trkpt>
      <trkpt lat="50.06044" lon="3.76725">
        <ele>196</ele>
        <time>2018-06-24T06:55:33Z</time>
      </trkpt>
      <trkpt lat="50.05989" lon="3.76713">
        <ele>197</ele>
        <time>2018-06-24T06:55:42Z</time>
      </trkpt>
      <trkpt lat="50.05936" lon="3.76703">
        <ele>197</ele>
        <time>2018-06-24T06:55:51Z</time>
      </trkpt>
      <trkpt lat="50.05879" lon="3.76697">
        <ele>199</ele>
        <time>2018-06-24T06:56:01Z</time>
      </trkpt>
      <trkpt lat="50.05821" lon="3.76694">
        <ele>200</ele>
        <time>2018-06-24T06:56:11Z</time>
      </trkpt>
      <trkpt lat="50.05766" lon="3.76694">
        <ele>200</ele>
        <time>2018-06-24T06:56:20Z</time>
      </trkpt>
      <trkpt lat="50.05709" lon="3.76701">
        <ele>201</ele>
        <time>2018-06-24T06:56:29Z</time>
      </trkpt>
      <trkpt lat="50.05655" lon="3.76707">
        <ele>200</ele>
        <time>2018-06-24T06:56:38Z</time>
      </trkpt>
      <trkpt lat="50.056" lon="3.76714">
        <ele>200</ele>
        <time>2018-06-24T06:56:46Z</time>
      </trkpt>
      <trkpt lat="50.05541" lon="3.7672">
        <ele>198</ele>
        <time>2018-06-24T06:56:54Z</time>
      </trkpt>
      <trkpt lat="50.05481" lon="3.76725">
        <ele>196</ele>
        <time>2018-06-24T06:57:02Z</time>
      </trkpt>
      <trkpt lat="50.0542" lon="3.76731">
        <ele>195</ele>
        <time>2018-06-24T06:57:10Z</time>
      </trkpt>
      <trkpt lat="50.05362" lon="3.76736">
        <ele>196</ele>
        <time>2018-06-24T06:57:18Z</time>
      </trkpt>
      <trkpt lat="50.05307" lon="3.76742">
        <ele>197</ele>
        <time>2018-06-24T06:57:26Z</time>
      </trkpt>
      <trkpt lat="50.05251" lon="3.76747">
        <ele>198</ele>
        <time>2018-06-24T06:57:35Z</time>
      </trkpt>
      <trkpt lat="50.05197" lon="3.76751">
        <ele>198</ele>
        <time>2018-06-24T06:57:44Z</time>
      </trkpt>
      <trkpt lat="50.05136" lon="3.76757">
        <ele>198</ele>
        <time>2018-06-24T06:57:54Z</time>
      </trkpt>
      <trkpt lat="50.05077" lon="3.76762">
        <ele>198</ele>
        <time>2018-06-24T06:58:03Z</time>
      </trkpt>
      <trkpt lat="50.05016" lon="3.7676">
        <ele>199</ele>
        <time>2018-06-24T06:58:12Z</time>
      </trkpt>
      <trkpt lat="50.04957" lon="3.76757">
        <ele>199</ele>
        <time>2018-06-24T06:58:21Z</time>
      </trkpt>
      <trkpt lat="50.04896" lon="3.76756">
        <ele>198</ele>
        <time>2018-06-24T06:58:30Z</time>
      </trkpt>
      <trkpt lat="50.04839" lon="3.76763">
        <ele>197</ele>
        <time>2018-06-24T06:58:38Z</time>
      </trkpt>
      <trkpt lat="50.04782" lon="3.76779">
        <ele>196</ele>
        <time>2018-06-24T06:58:45Z</time>
      </trkpt>
      <trkpt lat="50.04728" lon="3.76795">
        <ele>193</ele>
        <time>2018-06-24T06:58:51Z</time>
      </trkpt>
      <trkpt lat="50.0467" lon="3.76813">
        <ele>191</ele>
        <time>2018-06-24T06:58:57Z</time>
      </trkpt>
      <trkpt lat="50.0461" lon="3.76831">
        <ele>188</ele>
        <time>2018-06-24T06:59:03Z</time>
      </trkpt>
      <trkpt lat="50.04556" lon="3.76848">
        <ele>185</ele>
        <time>2018-06-24T06:59:08Z</time>
      </trkpt>
      <trkpt lat="50.04495" lon="3.76874">
        <ele>181</ele>
        <time>2018-06-24T06:59:14Z</time>
      </trkpt>
      <trkpt lat="50.0444" lon="3.769">
        <ele>180</ele>
        <time>2018-06-24T06:59:19Z</time>
      </trkpt>
      <trkpt lat="50.04386" lon="3.76925">
        <ele>177</ele>
        <time>2018-06-24T06:59:24Z</time>
      </trkpt>
      <trkpt lat="50.04329" lon="3.76962">
        <ele>176</ele>
        <time>2018-06-24T06:59:30Z</time>
      </trkpt>
      <trkpt lat="50.04282" lon="3.77002">
        <ele>177</ele>
        <time>2018-06-24T06:59:36Z</time>
      </trkpt>
      <trkpt lat="50.04229" lon="3.77041">
        <ele>179</ele>
        <time>2018-06-24T06:59:44Z</time>
      </trkpt>
      <trkpt lat="50.04176" lon="3.77069">
        <ele>180</ele>
        <time>2018-06-24T06:59:52Z</time>
      </trkpt>
      <trkpt lat="50.0412" lon="3.77082">
        <ele>182</ele>
        <time>2018-06-24T07:00:02Z</time>
      </trkpt>
      <trkpt lat="50.04064" lon="3.77089">
        <ele>184</ele>
        <time>2018-06-24T07:00:12Z</time>
      </trkpt>
      <trkpt lat="50.04006" lon="3.77101">
        <ele>186</ele>
        <time>2018-06-24T07:00:23Z</time>
      </trkpt>
      <trkpt lat="50.03951" lon="3.77121">
        <ele>188</ele>
        <time>2018-06-24T07:00:34Z</time>
      </trkpt>
      <trkpt lat="50.03895" lon="3.77141">
        <ele>191</ele>
        <time>2018-06-24T07:00:46Z</time>
      </trkpt>
      <trkpt lat="50.03838" lon="3.77161">
        <ele>192</ele>
        <time>2018-06-24T07:00:58Z</time>
      </trkpt>
      <trkpt lat="50.03784" lon="3.77181">
        <ele>192</ele>
        <time>2018-06-24T07:01:08Z</time>
      </trkpt>
      <trkpt lat="50.03726" lon="3.77203">
        <ele>190</ele>
        <time>2018-06-24T07:01:17Z</time>
      </trkpt>
      <trkpt lat="50.03672" lon="3.7722">
        <ele>189</ele>
        <time>2018-06-24T07:01:25Z</time>
      </trkpt>
      <trkpt lat="50.03617" lon="3.77236">
        <ele>188</ele>
        <time>2018-06-24T07:01:33Z</time>
      </trkpt>
      <trkpt lat="50.03563" lon="3.77252">
        <ele>188</ele>
        <time>2018-06-24T07:01:41Z</time>
      </trkpt>
      <trkpt lat="50.03506" lon="3.77275">
        <ele>189</ele>
        <time>2018-06-24T07:01:50Z</time>
      </trkpt>
      <trkpt lat="50.03452" lon="3.77298">
        <ele>191</ele>
        <time>2018-06-24T07:01:59Z</time>
      </trkpt>
      <trkpt lat="50.03399" lon="3.7732">
        <ele>194</ele>
        <time>2018-06-24T07:02:08Z</time>
      </trkpt>
      <trkpt lat="50.03345" lon="3.77342">
        <ele>196</ele>
        <time>2018-06-24T07:02:18Z</time>
      </trkpt>
      <trkpt lat="50.03289" lon="3.77363">
        <ele>197</ele>
        <time>2018-06-24T07:02:29Z</time>
      </trkpt>
      <trkpt lat="50.03233" lon="3.77384">
        <ele>198</ele>
        <time>2018-06-24T07:02:40Z</time>
      </trkpt>
      <trkpt lat="50.03175" lon="3.77408">
        <ele>199</ele>
        <time>2018-06-24T07:02:51Z</time>
      </trkpt>
      <trkpt lat="50.0312" lon="3.77431">
        <ele>201</ele>
        <time>2018-06-24T07:03:01Z</time>
      </trkpt>
      <trkpt lat="50.03063" lon="3.77448">
        <ele>202</ele>
        <time>2018-06-24T07:03:10Z</time>
      </trkpt>
      <trkpt lat="50.03004" lon="3.77454">
        <ele>202</ele>
        <time>2018-06-24T07:03:20Z</time>
      </trkpt>
      <trkpt lat="50.0295" lon="3.77461">
        <ele>202</ele>
        <time>2018-06-24T07:03:29Z</time>
      </trkpt>
      <trkpt lat="50.02894" lon="3.77481">
        <ele>202</ele>
        <time>2018-06-24T07:03:38Z</time>
      </trkpt>
      <trkpt lat="50.02844" lon="3.77525">
        <ele>201</ele>
        <time>2018-06-24T07:03:46Z</time>
      </trkpt>
      <trkpt lat="50.02797" lon="3.77572">
        <ele>201</ele>
        <time>2018-06-24T07:03:53Z</time>
      </trkpt>
      <trkpt lat="50.02751" lon="3.77618">
        <ele>200</ele>
        <time>2018-06-24T07:04:00Z</time>
      </trkpt>
      <trkpt lat="50.027" lon="3.77668">
        <ele>199</ele>
        <time>2018-06-24T07:04:08Z</time>
      </trkpt>
      <trkpt lat="50.02652" lon="3.77718">
        <ele>197</ele>
        <time>2018-06-24T07:04:16Z</time>
      </trkpt>
      <trkpt lat="50.02609" lon="3.77783">
        <ele>196</ele>
        <time>2018-06-24T07:04:25Z</time>
      </trkpt>
      <trkpt lat="50.02573" lon="3.77846">
        <ele>197</ele>
        <time>2018-06-24T07:04:33Z</time>
      </trkpt>
      <trkpt lat="50.02533" lon="3.77905">
        <ele>197</ele>
        <time>2018-06-24T07:04:41Z</time>
      </trkpt>
      <trkpt lat="50.02482" lon="3.77953">
        <ele>200</ele>
        <time>2018-06-24T07:04:50Z</time>
      </trkpt>
      <trkpt lat="50.02434" lon="3.77993">
        <ele>201</ele>
        <time>2018-06-24T07:04:58Z</time>
      </trkpt>
      <trkpt lat="50.02383" lon="3.78039">
        <ele>202</ele>
        <time>2018-06-24T07:05:07Z</time>
      </trkpt>
      <trkpt lat="50.02339" lon="3.78091">
        <ele>202</ele>
        <time>2018-06-24T07:05:15Z</time>
      </trkpt>
      <trkpt lat="50.02297" lon="3.7815">
        <ele>201</ele>
        <time>2018-06-24T07:05:23Z</time>
      </trkpt>
      <trkpt lat="50.02256" lon="3.7821">
        <ele>200</ele>
        <time>2018-06-24T07:05:31Z</time>
      </trkpt>
      <trkpt lat="50.02212" lon="3.78267">
        <ele>200</ele>
        <time>2018-06-24T07:05:39Z</time>
      </trkpt>
      <trkpt lat="50.02163" lon="3.78317">
        <ele>200</ele>
        <time>2018-06-24T07:05:48Z</time>
      </trkpt>
      <trkpt lat="50.0211" lon="3.78351">
        <ele>200</ele>
        <time>2018-06-24T07:05:56Z</time>
      </trkpt>
      <trkpt lat="50.02056" lon="3.78387">
        <ele>199</ele>
        <time>2018-06-24T07:06:03Z</time>
      </trkpt>
      <trkpt lat="50.01996" lon="3.78416">
        <ele>197</ele>
        <time>2018-06-24T07:06:10Z</time>
      </trkpt>
      <trkpt lat="50.01936" lon="3.78432">
        <ele>195</ele>
        <time>2018-06-24T07:06:17Z</time>
      </trkpt>
      <trkpt lat="50.01878" lon="3.78449">
        <ele>193</ele>
        <time>2018-06-24T07:06:24Z</time>
      </trkpt>
      <trkpt lat="50.01824" lon="3.78463">
        <ele>189</ele>
        <time>2018-06-24T07:06:31Z</time>
      </trkpt>
      <trkpt lat="50.01765" lon="3.78464">
        <ele>188</ele>
        <time>2018-06-24T07:06:38Z</time>
      </trkpt>
      <trkpt lat="50.01705" lon="3.78455">
        <ele>185</ele>
        <time>2018-06-24T07:06:45Z</time>
      </trkpt>
      <trkpt lat="50.0167" lon="3.78449">
        <ele>184</ele>
        <time>2018-06-24T07:06:55Z</time>
      </trkpt>
      <trkpt lat="50.01671" lon="3.78442">
        <ele>184</ele>
        <time>2018-06-24T07:07:15Z</time>
      </trkpt>
      <trkpt lat="50.01668" lon="3.784">
        <ele>184</ele>
        <time>2018-06-24T07:07:24Z</time>
      </trkpt>
      <trkpt lat="50.01658" lon="3.78396">
        <ele>181</ele>
        <time>2018-06-24T07:07:26Z</time>
      </trkpt>
      <trkpt lat="50.01601" lon="3.78396">
        <ele>179</ele>
        <time>2018-06-24T07:07:35Z</time>
      </trkpt>
      <trkpt lat="50.0159" lon="3.78394">
        <ele>179</ele>
        <time>2018-06-24T07:07:37Z</time>
      </trkpt>
      <trkpt lat="50.01543" lon="3.78392">
        <ele>175</ele>
        <time>2018-06-24T07:07:48Z</time>
      </trkpt>
      <trkpt lat="50.0154" lon="3.78376">
        <ele>174</ele>
        <time>2018-06-24T07:07:50Z</time>
      </trkpt>
      <trkpt lat="50.01534" lon="3.78298">
        <ele>174</ele>
        <time>2018-06-24T07:07:58Z</time>
      </trkpt>
      <trkpt lat="50.01536" lon="3.78277">
        <ele>175</ele>
        <time>2018-06-24T07:08:00Z</time>
      </trkpt>
      <trkpt lat="50.01556" lon="3.78197">
        <ele>176</ele>
        <time>2018-06-24T07:08:09Z</time>
      </trkpt>
      <trkpt lat="50.01565" lon="3.78174">
        <ele>176</ele>
        <time>2018-06-24T07:08:13Z</time>
      </trkpt>
      <trkpt lat="50.01562" lon="3.78142">
        <ele>176</ele>
        <time>2018-06-24T07:08:19Z</time>
      </trkpt>
      <trkpt lat="50.01509" lon="3.78107">
        <ele>174</ele>
        <time>2018-06-24T07:08:27Z</time>
      </trkpt>
      <trkpt lat="50.01457" lon="3.78073">
        <ele>171</ele>
        <time>2018-06-24T07:08:34Z</time>
      </trkpt>
      <trkpt lat="50.01402" lon="3.78034">
        <ele>172</ele>
        <time>2018-06-24T07:08:42Z</time>
      </trkpt>
      <trkpt lat="50.01348" lon="3.77998">
        <ele>171</ele>
        <time>2018-06-24T07:08:50Z</time>
      </trkpt>
      <trkpt lat="50.01296" lon="3.77955">
        <ele>173</ele>
        <time>2018-06-24T07:08:59Z</time>
      </trkpt>
      <trkpt lat="50.01247" lon="3.77908">
        <ele>176</ele>
        <time>2018-06-24T07:09:08Z</time>
      </trkpt>
      <trkpt lat="50.01198" lon="3.77862">
        <ele>178</ele>
        <time>2018-06-24T07:09:17Z</time>
      </trkpt>
      <trkpt lat="50.01149" lon="3.77815">
        <ele>179</ele>
        <time>2018-06-24T07:09:28Z</time>
      </trkpt>
      <trkpt lat="50.011" lon="3.77775">
        <ele>179</ele>
        <time>2018-06-24T07:09:39Z</time>
      </trkpt>
      <trkpt lat="50.01067" lon="3.77751">
        <ele>180</ele>
        <time>2018-06-24T07:09:46Z</time>
      </trkpt>
      <trkpt lat="50.01007" lon="3.77745">
        <ele>180</ele>
        <time>2018-06-24T07:09:55Z</time>
      </trkpt>
      <trkpt lat="50.00948" lon="3.77739">
        <ele>178</ele>
        <time>2018-06-24T07:10:02Z</time>
      </trkpt>
      <trkpt lat="50.00894" lon="3.77736">
        <ele>177</ele>
        <time>2018-06-24T07:10:08Z</time>
      </trkpt>
      <trkpt lat="50.00839" lon="3.77731">
        <ele>178</ele>
        <time>2018-06-24T07:10:15Z</time>
      </trkpt>
      <trkpt lat="50.00783" lon="3.77729">
        <ele>180</ele>
        <time>2018-06-24T07:10:24Z</time>
      </trkpt>
      <trkpt lat="50.00725" lon="3.77722">
        <ele>182</ele>
        <time>2018-06-24T07:10:35Z</time>
      </trkpt>
      <trkpt lat="50.00667" lon="3.77718">
        <ele>184</ele>
        <time>2018-06-24T07:10:47Z</time>
      </trkpt>
      <trkpt lat="50.0061" lon="3.77717">
        <ele>188</ele>
        <time>2018-06-24T07:10:58Z</time>
      </trkpt>
      <trkpt lat="50.00555" lon="3.77716">
        <ele>191</ele>
        <time>2018-06-24T07:11:09Z</time>
      </trkpt>
      <trkpt lat="50.00501" lon="3.77719">
        <ele>192</ele>
        <time>2018-06-24T07:11:20Z</time>
      </trkpt>
      <trkpt lat="50.00446" lon="3.77721">
        <ele>197</ele>
        <time>2018-06-24T07:11:31Z</time>
      </trkpt>
      <trkpt lat="50.00391" lon="3.77721">
        <ele>202</ele>
        <time>2018-06-24T07:11:43Z</time>
      </trkpt>
      <trkpt lat="50.00333" lon="3.77712">
        <ele>203</ele>
        <time>2018-06-24T07:11:55Z</time>
      </trkpt>
      <trkpt lat="50.00325" lon="3.77707">
        <ele>205</ele>
        <time>2018-06-24T07:11:57Z</time>
      </trkpt>
      <trkpt lat="50.00276" lon="3.77673">
        <ele>204</ele>
        <time>2018-06-24T07:12:08Z</time>
      </trkpt>
      <trkpt lat="50.00225" lon="3.77636">
        <ele>205</ele>
        <time>2018-06-24T07:12:19Z</time>
      </trkpt>
      <trkpt lat="50.00171" lon="3.77602">
        <ele>204</ele>
        <time>2018-06-24T07:12:28Z</time>
      </trkpt>
      <trkpt lat="50.00118" lon="3.77574">
        <ele>203</ele>
        <time>2018-06-24T07:12:37Z</time>
      </trkpt>
      <trkpt lat="50.00062" lon="3.77546">
        <ele>202</ele>
        <time>2018-06-24T07:12:46Z</time>
      </trkpt>
      <trkpt lat="50.00005" lon="3.77522">
        <ele>201</ele>
        <time>2018-06-24T07:12:55Z</time>
      </trkpt>
      <trkpt lat="49.99945" lon="3.77506">
        <ele>201</ele>
        <time>2018-06-24T07:13:04Z</time>
      </trkpt>
      <trkpt lat="49.99888" lon="3.77496">
        <ele>201</ele>
        <time>2018-06-24T07:13:12Z</time>
      </trkpt>
      <trkpt lat="49.99829" lon="3.77491">
        <ele>199</ele>
        <time>2018-06-24T07:13:21Z</time>
      </trkpt>
      <trkpt lat="49.99775" lon="3.77504">
        <ele>197</ele>
        <time>2018-06-24T07:13:30Z</time>
      </trkpt>
      <trkpt lat="49.99719" lon="3.77527">
        <ele>196</ele>
        <time>2018-06-24T07:13:39Z</time>
      </trkpt>
      <trkpt lat="49.9966" lon="3.77545">
        <ele>194</ele>
        <time>2018-06-24T07:13:48Z</time>
      </trkpt>
      <trkpt lat="49.99602" lon="3.7756">
        <ele>192</ele>
        <time>2018-06-24T07:13:55Z</time>
      </trkpt>
      <trkpt lat="49.99541" lon="3.77577">
        <ele>189</ele>
        <time>2018-06-24T07:14:02Z</time>
      </trkpt>
      <trkpt lat="49.9949" lon="3.77607">
        <ele>188</ele>
        <time>2018-06-24T07:14:09Z</time>
      </trkpt>
      <trkpt lat="49.99442" lon="3.77658">
        <ele>189</ele>
        <time>2018-06-24T07:14:17Z</time>
      </trkpt>
      <trkpt lat="49.99401" lon="3.77717">
        <ele>190</ele>
        <time>2018-06-24T07:14:25Z</time>
      </trkpt>
      <trkpt lat="49.99359" lon="3.77775">
        <ele>193</ele>
        <time>2018-06-24T07:14:33Z</time>
      </trkpt>
      <trkpt lat="49.9931" lon="3.77822">
        <ele>193</ele>
        <time>2018-06-24T07:14:41Z</time>
      </trkpt>
      <trkpt lat="49.99259" lon="3.77859">
        <ele>194</ele>
        <time>2018-06-24T07:14:49Z</time>
      </trkpt>
      <trkpt lat="49.99205" lon="3.77889">
        <ele>191</ele>
        <time>2018-06-24T07:14:57Z</time>
      </trkpt>
      <trkpt lat="49.99155" lon="3.77919">
        <ele>189</ele>
        <time>2018-06-24T07:15:05Z</time>
      </trkpt>
      <trkpt lat="49.99101" lon="3.77956">
        <ele>188</ele>
        <time>2018-06-24T07:15:14Z</time>
      </trkpt>
      <trkpt lat="49.99057" lon="3.78008">
        <ele>186</ele>
        <time>2018-06-24T07:15:22Z</time>
      </trkpt>
      <trkpt lat="49.99011" lon="3.78068">
        <ele>185</ele>
        <time>2018-06-24T07:15:30Z</time>
      </trkpt>
      <trkpt lat="49.98975" lon="3.78103">
        <ele>183</ele>
        <time>2018-06-24T07:15:35Z</time>
      </trkpt>
      <trkpt lat="49.9894" lon="3.78118">
        <ele>183</ele>
        <time>2018-06-24T07:15:39Z</time>
      </trkpt>
      <trkpt lat="49.98876" lon="3.78107">
        <ele>181</ele>
        <time>2018-06-24T07:15:45Z</time>
      </trkpt>
      <trkpt lat="49.98818" lon="3.78075">
        <ele>181</ele>
        <time>2018-06-24T07:15:51Z</time>
      </trkpt>
      <trkpt lat="49.98763" lon="3.78052">
        <ele>182</ele>
        <time>2018-06-24T07:15:58Z</time>
      </trkpt>
      <trkpt lat="49.98704" lon="3.78036">
        <ele>185</ele>
        <time>2018-06-24T07:16:06Z</time>
      </trkpt>
      <trkpt lat="49.98644" lon="3.78023">
        <ele>188</ele>
        <time>2018-06-24T07:16:15Z</time>
      </trkpt>
      <trkpt lat="49.98612" lon="3.78016">
        <ele>188</ele>
        <time>2018-06-24T07:16:20Z</time>
      </trkpt>
      <trkpt lat="49.98558" lon="3.77998">
        <ele>188</ele>
        <time>2018-06-24T07:16:29Z</time>
      </trkpt>
      <trkpt lat="49.98502" lon="3.77976">
        <ele>188</ele>
        <time>2018-06-24T07:16:38Z</time>
      </trkpt>
      <trkpt lat="49.98445" lon="3.77953">
        <ele>189</ele>
        <time>2018-06-24T07:16:47Z</time>
      </trkpt>
      <trkpt lat="49.98388" lon="3.77932">
        <ele>190</ele>
        <time>2018-06-24T07:16:56Z</time>
      </trkpt>
      <trkpt lat="49.98334" lon="3.77912">
        <ele>190</ele>
        <time>2018-06-24T07:17:05Z</time>
      </trkpt>
      <trkpt lat="49.98297" lon="3.77902">
        <ele>189</ele>
        <time>2018-06-24T07:17:10Z</time>
      </trkpt>
      <trkpt lat="49.9824" lon="3.77901">
        <ele>188</ele>
        <time>2018-06-24T07:17:17Z</time>
      </trkpt>
      <trkpt lat="49.98225" lon="3.77897">
        <ele>187</ele>
        <time>2018-06-24T07:17:18Z</time>
      </trkpt>
      <trkpt lat="49.98191" lon="3.77883">
        <ele>187</ele>
        <time>2018-06-24T07:17:25Z</time>
      </trkpt>
      <trkpt lat="49.98173" lon="3.77891">
        <ele>187</ele>
        <time>2018-06-24T07:17:28Z</time>
      </trkpt>
      <trkpt lat="49.98122" lon="3.77938">
        <ele>188</ele>
        <time>2018-06-24T07:17:37Z</time>
      </trkpt>
      <trkpt lat="49.9807" lon="3.77977">
        <ele>189</ele>
        <time>2018-06-24T07:17:47Z</time>
      </trkpt>
      <trkpt lat="49.98065" lon="3.77981">
        <ele>189</ele>
        <time>2018-06-24T07:17:48Z</time>
      </trkpt>
      <trkpt lat="49.98047" lon="3.78007">
        <ele>190</ele>
        <time>2018-06-24T07:17:52Z</time>
      </trkpt>
      <trkpt lat="49.98018" lon="3.78084">
        <ele>191</ele>
        <time>2018-06-24T07:18:01Z</time>
      </trkpt>
      <trkpt lat="49.97991" lon="3.78166">
        <ele>191</ele>
        <time>2018-06-24T07:18:10Z</time>
      </trkpt>
      <trkpt lat="49.9796" lon="3.78241">
        <ele>191</ele>
        <time>2018-06-24T07:18:18Z</time>
      </trkpt>
      <trkpt lat="49.97925" lon="3.78313">
        <ele>193</ele>
        <time>2018-06-24T07:18:26Z</time>
      </trkpt>
      <trkpt lat="49.97889" lon="3.78386">
        <ele>193</ele>
        <time>2018-06-24T07:18:34Z</time>
      </trkpt>
      <trkpt lat="49.97855" lon="3.78457">
        <ele>193</ele>
        <time>2018-06-24T07:18:43Z</time>
      </trkpt>
      <trkpt lat="49.9782" lon="3.78525">
        <ele>194</ele>
        <time>2018-06-24T07:18:52Z</time>
      </trkpt>
      <trkpt lat="49.9778" lon="3.78586">
        <ele>193</ele>
        <time>2018-06-24T07:19:01Z</time>
      </trkpt>
      <trkpt lat="49.97737" lon="3.78651">
        <ele>192</ele>
        <time>2018-06-24T07:19:10Z</time>
      </trkpt>
      <trkpt lat="49.97695" lon="3.78713">
        <ele>192</ele>
        <time>2018-06-24T07:19:18Z</time>
      </trkpt>
      <trkpt lat="49.97652" lon="3.78778">
        <ele>191</ele>
        <time>2018-06-24T07:19:26Z</time>
      </trkpt>
      <trkpt lat="49.97609" lon="3.78842">
        <ele>192</ele>
        <time>2018-06-24T07:19:34Z</time>
      </trkpt>
      <trkpt lat="49.97565" lon="3.78901">
        <ele>191</ele>
        <time>2018-06-24T07:19:42Z</time>
      </trkpt>
      <trkpt lat="49.97522" lon="3.78957">
        <ele>192</ele>
        <time>2018-06-24T07:19:50Z</time>
      </trkpt>
      <trkpt lat="49.9748" lon="3.79013">
        <ele>193</ele>
        <time>2018-06-24T07:19:58Z</time>
      </trkpt>
      <trkpt lat="49.97457" lon="3.79051">
        <ele>193</ele>
        <time>2018-06-24T07:20:03Z</time>
      </trkpt>
      <trkpt lat="49.97432" lon="3.79135">
        <ele>194</ele>
        <time>2018-06-24T07:20:12Z</time>
      </trkpt>
      <trkpt lat="49.97412" lon="3.79218">
        <ele>193</ele>
        <time>2018-06-24T07:20:20Z</time>
      </trkpt>
      <trkpt lat="49.97391" lon="3.79301">
        <ele>192</ele>
        <time>2018-06-24T07:20:28Z</time>
      </trkpt>
      <trkpt lat="49.9737" lon="3.79386">
        <ele>191</ele>
        <time>2018-06-24T07:20:36Z</time>
      </trkpt>
      <trkpt lat="49.97349" lon="3.79467">
        <ele>189</ele>
        <time>2018-06-24T07:20:43Z</time>
      </trkpt>
      <trkpt lat="49.9733" lon="3.79553">
        <ele>187</ele>
        <time>2018-06-24T07:20:50Z</time>
      </trkpt>
      <trkpt lat="49.97319" lon="3.79637">
        <ele>188</ele>
        <time>2018-06-24T07:20:57Z</time>
      </trkpt>
      <trkpt lat="49.97305" lon="3.79704">
        <ele>190</ele>
        <time>2018-06-24T07:21:03Z</time>
      </trkpt>
      <trkpt lat="49.97297" lon="3.79724">
        <ele>191</ele>
        <time>2018-06-24T07:21:05Z</time>
      </trkpt>
      <trkpt lat="49.97249" lon="3.79772">
        <ele>192</ele>
        <time>2018-06-24T07:21:13Z</time>
      </trkpt>
      <trkpt lat="49.972" lon="3.79812">
        <ele>192</ele>
        <time>2018-06-24T07:21:21Z</time>
      </trkpt>
      <trkpt lat="49.97147" lon="3.79856">
        <ele>191</ele>
        <time>2018-06-24T07:21:29Z</time>
      </trkpt>
      <trkpt lat="49.971" lon="3.79898">
        <ele>191</ele>
        <time>2018-06-24T07:21:36Z</time>
      </trkpt>
      <trkpt lat="49.9705" lon="3.7995">
        <ele>191</ele>
        <time>2018-06-24T07:21:44Z</time>
      </trkpt>
      <trkpt lat="49.97004" lon="3.80011">
        <ele>190</ele>
        <time>2018-06-24T07:21:52Z</time>
      </trkpt>
      <trkpt lat="49.96959" lon="3.80072">
        <ele>190</ele>
        <time>2018-06-24T07:22:00Z</time>
      </trkpt>
      <trkpt lat="49.96917" lon="3.80129">
        <ele>191</ele>
        <time>2018-06-24T07:22:07Z</time>
      </trkpt>
      <trkpt lat="49.96874" lon="3.80188">
        <ele>193</ele>
        <time>2018-06-24T07:22:15Z</time>
      </trkpt>
      <trkpt lat="49.96832" lon="3.80246">
        <ele>195</ele>
        <time>2018-06-24T07:22:23Z</time>
      </trkpt>
      <trkpt lat="49.96789" lon="3.80303">
        <ele>196</ele>
        <time>2018-06-24T07:22:31Z</time>
      </trkpt>
      <trkpt lat="49.9675" lon="3.8035">
        <ele>197</ele>
        <time>2018-06-24T07:22:38Z</time>
      </trkpt>
      <trkpt lat="49.96716" lon="3.80418">
        <ele>196</ele>
        <time>2018-06-24T07:22:46Z</time>
      </trkpt>
      <trkpt lat="49.96687" lon="3.80494">
        <ele>195</ele>
        <time>2018-06-24T07:22:54Z</time>
      </trkpt>
      <trkpt lat="49.96664" lon="3.80577">
        <ele>195</ele>
        <time>2018-06-24T07:23:02Z</time>
      </trkpt>
      <trkpt lat="49.96655" lon="3.80663">
        <ele>196</ele>
        <time>2018-06-24T07:23:09Z</time>
      </trkpt>
      <trkpt lat="49.96652" lon="3.80757">
        <ele>196</ele>
        <time>2018-06-24T07:23:16Z</time>
      </trkpt>
      <trkpt lat="49.96639" lon="3.80849">
        <ele>195</ele>
        <time>2018-06-24T07:23:23Z</time>
      </trkpt>
      <trkpt lat="49.96622" lon="3.80934">
        <ele>196</ele>
        <time>2018-06-24T07:23:30Z</time>
      </trkpt>
      <trkpt lat="49.96601" lon="3.81013">
        <ele>197</ele>
        <time>2018-06-24T07:23:37Z</time>
      </trkpt>
      <trkpt lat="49.96584" lon="3.81101">
        <ele>199</ele>
        <time>2018-06-24T07:23:45Z</time>
      </trkpt>
      <trkpt lat="49.96582" lon="3.81134">
        <ele>197</ele>
        <time>2018-06-24T07:23:48Z</time>
      </trkpt>
      <trkpt lat="49.96593" lon="3.81223">
        <ele>201</ele>
        <time>2018-06-24T07:23:57Z</time>
      </trkpt>
      <trkpt lat="49.9661" lon="3.81308">
        <ele>201</ele>
        <time>2018-06-24T07:24:06Z</time>
      </trkpt>
      <trkpt lat="49.9663" lon="3.81386">
        <ele>202</ele>
        <time>2018-06-24T07:24:15Z</time>
      </trkpt>
      <trkpt lat="49.96627" lon="3.81473">
        <ele>204</ele>
        <time>2018-06-24T07:24:24Z</time>
      </trkpt>
      <trkpt lat="49.96624" lon="3.81492">
        <ele>204</ele>
        <time>2018-06-24T07:24:25Z</time>
      </trkpt>
      <trkpt lat="49.96606" lon="3.81581">
        <ele>203</ele>
        <time>2018-06-24T07:24:35Z</time>
      </trkpt>
      <trkpt lat="49.96593" lon="3.81669">
        <ele>200</ele>
        <time>2018-06-24T07:24:44Z</time>
      </trkpt>
      <trkpt lat="49.96584" lon="3.81755">
        <ele>197</ele>
        <time>2018-06-24T07:24:52Z</time>
      </trkpt>
      <trkpt lat="49.96585" lon="3.8183">
        <ele>197</ele>
        <time>2018-06-24T07:24:58Z</time>
      </trkpt>
      <trkpt lat="49.96589" lon="3.81917">
        <ele>197</ele>
        <time>2018-06-24T07:25:05Z</time>
      </trkpt>
      <trkpt lat="49.96594" lon="3.82005">
        <ele>198</ele>
        <time>2018-06-24T07:25:13Z</time>
      </trkpt>
      <trkpt lat="49.96599" lon="3.82095">
        <ele>198</ele>
        <time>2018-06-24T07:25:22Z</time>
      </trkpt>
      <trkpt lat="49.96602" lon="3.82186">
        <ele>199</ele>
        <time>2018-06-24T07:25:32Z</time>
      </trkpt>
      <trkpt lat="49.96607" lon="3.82274">
        <ele>200</ele>
        <time>2018-06-24T07:25:41Z</time>
      </trkpt>
      <trkpt lat="49.96611" lon="3.8236">
        <ele>201</ele>
        <time>2018-06-24T07:25:50Z</time>
      </trkpt>
      <trkpt lat="49.96616" lon="3.8245">
        <ele>200</ele>
        <time>2018-06-24T07:25:59Z</time>
      </trkpt>
      <trkpt lat="49.96618" lon="3.82544">
        <ele>198</ele>
        <time>2018-06-24T07:26:07Z</time>
      </trkpt>
      <trkpt lat="49.9662" lon="3.82631">
        <ele>195</ele>
        <time>2018-06-24T07:26:14Z</time>
      </trkpt>
      <trkpt lat="49.96623" lon="3.82655">
        <ele>195</ele>
        <time>2018-06-24T07:26:15Z</time>
      </trkpt>
      <trkpt lat="49.96646" lon="3.8274">
        <ele>195</ele>
        <time>2018-06-24T07:26:24Z</time>
      </trkpt>
      <trkpt lat="49.96669" lon="3.82818">
        <ele>197</ele>
        <time>2018-06-24T07:26:33Z</time>
      </trkpt>
      <trkpt lat="49.96692" lon="3.82894">
        <ele>198</ele>
        <time>2018-06-24T07:26:42Z</time>
      </trkpt>
      <trkpt lat="49.96716" lon="3.82969">
        <ele>198</ele>
        <time>2018-06-24T07:26:51Z</time>
      </trkpt>
      <trkpt lat="49.96716" lon="3.82988">
        <ele>198</ele>
        <time>2018-06-24T07:26:53Z</time>
      </trkpt>
      <trkpt lat="49.96698" lon="3.83021">
        <ele>197</ele>
        <time>2018-06-24T07:26:57Z</time>
      </trkpt>
      <trkpt lat="49.96649" lon="3.83067">
        <ele>194</ele>
        <time>2018-06-24T07:27:04Z</time>
      </trkpt>
      <trkpt lat="49.966" lon="3.8312">
        <ele>195</ele>
        <time>2018-06-24T07:27:12Z</time>
      </trkpt>
      <trkpt lat="49.96562" lon="3.8318">
        <ele>197</ele>
        <time>2018-06-24T07:27:21Z</time>
      </trkpt>
      <trkpt lat="49.96531" lon="3.83244">
        <ele>199</ele>
        <time>2018-06-24T07:27:30Z</time>
      </trkpt>
      <trkpt lat="49.96505" lon="3.83325">
        <ele>201</ele>
        <time>2018-06-24T07:27:40Z</time>
      </trkpt>
      <trkpt lat="49.96478" lon="3.83398">
        <ele>203</ele>
        <time>2018-06-24T07:27:50Z</time>
      </trkpt>
      <trkpt lat="49.9645" lon="3.83471">
        <ele>204</ele>
        <time>2018-06-24T07:28:00Z</time>
      </trkpt>
      <trkpt lat="49.96417" lon="3.83544">
        <ele>205</ele>
        <time>2018-06-24T07:28:11Z</time>
      </trkpt>
      <trkpt lat="49.96393" lon="3.83583">
        <ele>205</ele>
        <time>2018-06-24T07:28:23Z</time>
      </trkpt>
      <trkpt lat="49.96392" lon="3.83577">
        <ele>205</ele>
        <time>2018-06-24T07:28:27Z</time>
      </trkpt>
      <trkpt lat="49.96393" lon="3.83584">
        <ele>206</ele>
        <time>2018-06-24T07:29:15Z</time>
      </trkpt>
      <trkpt lat="49.96392" lon="3.8359">
        <ele>206</ele>
        <time>2018-06-24T07:29:18Z</time>
      </trkpt>
      <trkpt lat="49.96379" lon="3.83646">
        <ele>206</ele>
        <time>2018-06-24T07:29:35Z</time>
      </trkpt>
      <trkpt lat="49.96377" lon="3.8366">
        <ele>206</ele>
        <time>2018-06-24T07:30:07Z</time>
      </trkpt>
      <trkpt lat="49.96369" lon="3.83679">
        <ele>207</ele>
        <time>2018-06-24T07:30:11Z</time>
      </trkpt>
      <trkpt lat="49.96359" lon="3.83706">
        <ele>207</ele>
        <time>2018-06-24T07:30:15Z</time>
      </trkpt>
      <trkpt lat="49.96353" lon="3.83721">
        <ele>207</ele>
        <time>2018-06-24T07:30:17Z</time>
      </trkpt>
      <trkpt lat="49.96345" lon="3.83745">
        <ele>207</ele>
        <time>2018-06-24T07:30:20Z</time>
      </trkpt>
      <trkpt lat="49.96313" lon="3.83819">
        <ele>207</ele>
        <time>2018-06-24T07:30:29Z</time>
      </trkpt>
      <trkpt lat="49.96301" lon="3.83834">
        <ele>208</ele>
        <time>2018-06-24T07:30:31Z</time>
      </trkpt>
      <trkpt lat="49.96285" lon="3.83846">
        <ele>208</ele>
        <time>2018-06-24T07:30:33Z</time>
      </trkpt>
      <trkpt lat="49.96267" lon="3.83853">
        <ele>208</ele>
        <time>2018-06-24T07:30:35Z</time>
      </trkpt>
      <trkpt lat="49.96206" lon="3.83853">
        <ele>208</ele>
        <time>2018-06-24T07:30:41Z</time>
      </trkpt>
      <trkpt lat="49.96145" lon="3.83853">
        <ele>207</ele>
        <time>2018-06-24T07:30:47Z</time>
      </trkpt>
      <trkpt lat="49.96088" lon="3.83859">
        <ele>206</ele>
        <time>2018-06-24T07:30:53Z</time>
      </trkpt>
      <trkpt lat="49.96033" lon="3.8386">
        <ele>206</ele>
        <time>2018-06-24T07:30:59Z</time>
      </trkpt>
      <trkpt lat="49.95977" lon="3.83854">
        <ele>205</ele>
        <time>2018-06-24T07:31:05Z</time>
      </trkpt>
      <trkpt lat="49.95914" lon="3.83842">
        <ele>204</ele>
        <time>2018-06-24T07:31:11Z</time>
      </trkpt>
      <trkpt lat="49.95853" lon="3.83833">
        <ele>203</ele>
        <time>2018-06-24T07:31:17Z</time>
      </trkpt>
      <trkpt lat="49.95792" lon="3.83828">
        <ele>204</ele>
        <time>2018-06-24T07:31:24Z</time>
      </trkpt>
      <trkpt lat="49.95776" lon="3.83823">
        <ele>205</ele>
        <time>2018-06-24T07:31:25Z</time>
      </trkpt>
      <trkpt lat="49.95722" lon="3.83792">
        <ele>207</ele>
        <time>2018-06-24T07:31:34Z</time>
      </trkpt>
      <trkpt lat="49.95671" lon="3.83764">
        <ele>208</ele>
        <time>2018-06-24T07:31:42Z</time>
      </trkpt>
      <trkpt lat="49.95615" lon="3.83764">
        <ele>207</ele>
        <time>2018-06-24T07:31:50Z</time>
      </trkpt>
      <trkpt lat="49.95601" lon="3.8377">
        <ele>206</ele>
        <time>2018-06-24T07:31:51Z</time>
      </trkpt>
      <trkpt lat="49.95551" lon="3.83814">
        <ele>205</ele>
        <time>2018-06-24T07:32:00Z</time>
      </trkpt>
      <trkpt lat="49.95498" lon="3.83848">
        <ele>205</ele>
        <time>2018-06-24T07:32:08Z</time>
      </trkpt>
      <trkpt lat="49.95443" lon="3.83875">
        <ele>206</ele>
        <time>2018-06-24T07:32:17Z</time>
      </trkpt>
      <trkpt lat="49.9539" lon="3.83904">
        <ele>205</ele>
        <time>2018-06-24T07:32:26Z</time>
      </trkpt>
      <trkpt lat="49.95335" lon="3.83933">
        <ele>205</ele>
        <time>2018-06-24T07:32:35Z</time>
      </trkpt>
      <trkpt lat="49.95289" lon="3.83954">
        <ele>204</ele>
        <time>2018-06-24T07:32:41Z</time>
      </trkpt>
      <trkpt lat="49.95264" lon="3.83946">
        <ele>204</ele>
        <time>2018-06-24T07:32:44Z</time>
      </trkpt>
      <trkpt lat="49.95218" lon="3.83899">
        <ele>204</ele>
        <time>2018-06-24T07:32:51Z</time>
      </trkpt>
      <trkpt lat="49.95205" lon="3.83891">
        <ele>204</ele>
        <time>2018-06-24T07:32:52Z</time>
      </trkpt>
      <trkpt lat="49.95187" lon="3.83885">
        <ele>204</ele>
        <time>2018-06-24T07:32:56Z</time>
      </trkpt>
      <trkpt lat="49.95174" lon="3.83886">
        <ele>204</ele>
        <time>2018-06-24T07:32:58Z</time>
      </trkpt>
      <trkpt lat="49.95117" lon="3.83903">
        <ele>207</ele>
        <time>2018-06-24T07:33:08Z</time>
      </trkpt>
      <trkpt lat="49.9508" lon="3.83922">
        <ele>208</ele>
        <time>2018-06-24T07:33:15Z</time>
      </trkpt>
      <trkpt lat="49.95071" lon="3.83931">
        <ele>209</ele>
        <time>2018-06-24T07:33:17Z</time>
      </trkpt>
      <trkpt lat="49.95054" lon="3.83953">
        <ele>209</ele>
        <time>2018-06-24T07:33:21Z</time>
      </trkpt>
      <trkpt lat="49.95044" lon="3.83959">
        <ele>209</ele>
        <time>2018-06-24T07:33:23Z</time>
      </trkpt>
      <trkpt lat="49.95033" lon="3.83961">
        <ele>209</ele>
        <time>2018-06-24T07:33:25Z</time>
      </trkpt>
      <trkpt lat="49.94976" lon="3.83951">
        <ele>209</ele>
        <time>2018-06-24T07:33:36Z</time>
      </trkpt>
      <trkpt lat="49.94921" lon="3.8394">
        <ele>209</ele>
        <time>2018-06-24T07:33:46Z</time>
      </trkpt>
      <trkpt lat="49.94864" lon="3.83925">
        <ele>208</ele>
        <time>2018-06-24T07:33:55Z</time>
      </trkpt>
      <trkpt lat="49.94807" lon="3.83898">
        <ele>208</ele>
        <time>2018-06-24T07:34:04Z</time>
      </trkpt>
      <trkpt lat="49.94788" lon="3.83889">
        <ele>208</ele>
        <time>2018-06-24T07:34:07Z</time>
      </trkpt>
      <trkpt lat="49.94778" lon="3.83875">
        <ele>208</ele>
        <time>2018-06-24T07:34:09Z</time>
      </trkpt>
      <trkpt lat="49.94779" lon="3.83846">
        <ele>208</ele>
        <time>2018-06-24T07:34:12Z</time>
      </trkpt>
      <trkpt lat="49.948" lon="3.83762">
        <ele>208</ele>
        <time>2018-06-24T07:34:22Z</time>
      </trkpt>
      <trkpt lat="49.94818" lon="3.83682">
        <ele>208</ele>
        <time>2018-06-24T07:34:32Z</time>
      </trkpt>
      <trkpt lat="49.94841" lon="3.83601">
        <ele>207</ele>
        <time>2018-06-24T07:34:42Z</time>
      </trkpt>
      <trkpt lat="49.94858" lon="3.83517">
        <ele>207</ele>
        <time>2018-06-24T07:34:51Z</time>
      </trkpt>
      <trkpt lat="49.94864" lon="3.83433">
        <ele>208</ele>
        <time>2018-06-24T07:35:00Z</time>
      </trkpt>
      <trkpt lat="49.94852" lon="3.83347">
        <ele>207</ele>
        <time>2018-06-24T07:35:09Z</time>
      </trkpt>
      <trkpt lat="49.94834" lon="3.8326">
        <ele>207</ele>
        <time>2018-06-24T07:35:18Z</time>
      </trkpt>
      <trkpt lat="49.94823" lon="3.83172">
        <ele>207</ele>
        <time>2018-06-24T07:35:27Z</time>
      </trkpt>
      <trkpt lat="49.9481" lon="3.83084">
        <ele>206</ele>
        <time>2018-06-24T07:35:35Z</time>
      </trkpt>
      <trkpt lat="49.94799" lon="3.83001">
        <ele>206</ele>
        <time>2018-06-24T07:35:42Z</time>
      </trkpt>
      <trkpt lat="49.94789" lon="3.82907">
        <ele>204</ele>
        <time>2018-06-24T07:35:50Z</time>
      </trkpt>
      <trkpt lat="49.94779" lon="3.82824">
        <ele>205</ele>
        <time>2018-06-24T07:35:57Z</time>
      </trkpt>
      <trkpt lat="49.94768" lon="3.82736">
        <ele>204</ele>
        <time>2018-06-24T07:36:04Z</time>
      </trkpt>
      <trkpt lat="49.94755" lon="3.82651">
        <ele>204</ele>
        <time>2018-06-24T07:36:11Z</time>
      </trkpt>
      <trkpt lat="49.94739" lon="3.82568">
        <ele>204</ele>
        <time>2018-06-24T07:36:18Z</time>
      </trkpt>
      <trkpt lat="49.94733" lon="3.82546">
        <ele>203</ele>
        <time>2018-06-24T07:36:19Z</time>
      </trkpt>
      <trkpt lat="49.94698" lon="3.82478">
        <ele>202</ele>
        <time>2018-06-24T07:36:27Z</time>
      </trkpt>
      <trkpt lat="49.94658" lon="3.8241">
        <ele>201</ele>
        <time>2018-06-24T07:36:34Z</time>
      </trkpt>
      <trkpt lat="49.9463" lon="3.82347">
        <ele>201</ele>
        <time>2018-06-24T07:36:40Z</time>
      </trkpt>
      <trkpt lat="49.94612" lon="3.82322">
        <ele>200</ele>
        <time>2018-06-24T07:36:43Z</time>
      </trkpt>
      <trkpt lat="49.9456" lon="3.82282">
        <ele>201</ele>
        <time>2018-06-24T07:36:50Z</time>
      </trkpt>
      <trkpt lat="49.94511" lon="3.82246">
        <ele>200</ele>
        <time>2018-06-24T07:36:57Z</time>
      </trkpt>
      <trkpt lat="49.94461" lon="3.82209">
        <ele>201</ele>
        <time>2018-06-24T07:37:04Z</time>
      </trkpt>
      <trkpt lat="49.94409" lon="3.82169">
        <ele>201</ele>
        <time>2018-06-24T07:37:11Z</time>
      </trkpt>
      <trkpt lat="49.94358" lon="3.82122">
        <ele>199</ele>
        <time>2018-06-24T07:37:18Z</time>
      </trkpt>
      <trkpt lat="49.94308" lon="3.82071">
        <ele>200</ele>
        <time>2018-06-24T07:37:25Z</time>
      </trkpt>
      <trkpt lat="49.9426" lon="3.82021">
        <ele>202</ele>
        <time>2018-06-24T07:37:32Z</time>
      </trkpt>
      <trkpt lat="49.94212" lon="3.81969">
        <ele>205</ele>
        <time>2018-06-24T07:37:39Z</time>
      </trkpt>
      <trkpt lat="49.94163" lon="3.8192">
        <ele>206</ele>
        <time>2018-06-24T07:37:46Z</time>
      </trkpt>
      <trkpt lat="49.94113" lon="3.81869">
        <ele>206</ele>
        <time>2018-06-24T07:37:53Z</time>
      </trkpt>
      <trkpt lat="49.94067" lon="3.81823">
        <ele>205</ele>
        <time>2018-06-24T07:38:00Z</time>
      </trkpt>
      <trkpt lat="49.94017" lon="3.81772">
        <ele>206</ele>
        <time>2018-06-24T07:38:08Z</time>
      </trkpt>
      <trkpt lat="49.9397" lon="3.8173">
        <ele>202</ele>
        <time>2018-06-24T07:38:15Z</time>
      </trkpt>
      <trkpt lat="49.93953" lon="3.8172">
        <ele>201</ele>
        <time>2018-06-24T07:38:16Z</time>
      </trkpt>
      <trkpt lat="49.93895" lon="3.81684">
        <ele>196</ele>
        <time>2018-06-24T07:38:24Z</time>
      </trkpt>
      <trkpt lat="49.93841" lon="3.81643">
        <ele>195</ele>
        <time>2018-06-24T07:38:31Z</time>
      </trkpt>
      <trkpt lat="49.93791" lon="3.81597">
        <ele>191</ele>
        <time>2018-06-24T07:38:37Z</time>
      </trkpt>
      <trkpt lat="49.93773" lon="3.81563">
        <ele>191</ele>
        <time>2018-06-24T07:38:40Z</time>
      </trkpt>
      <trkpt lat="49.93743" lon="3.81492">
        <ele>190</ele>
        <time>2018-06-24T07:38:47Z</time>
      </trkpt>
      <trkpt lat="49.93708" lon="3.81422">
        <ele>189</ele>
        <time>2018-06-24T07:38:54Z</time>
      </trkpt>
      <trkpt lat="49.93672" lon="3.8135">
        <ele>189</ele>
        <time>2018-06-24T07:39:01Z</time>
      </trkpt>
      <trkpt lat="49.93639" lon="3.8128">
        <ele>186</ele>
        <time>2018-06-24T07:39:07Z</time>
      </trkpt>
      <trkpt lat="49.93602" lon="3.81203">
        <ele>188</ele>
        <time>2018-06-24T07:39:14Z</time>
      </trkpt>
      <trkpt lat="49.93569" lon="3.81132">
        <ele>189</ele>
        <time>2018-06-24T07:39:21Z</time>
      </trkpt>
      <trkpt lat="49.93534" lon="3.81054">
        <ele>189</ele>
        <time>2018-06-24T07:39:29Z</time>
      </trkpt>
      <trkpt lat="49.93505" lon="3.80978">
        <ele>188</ele>
        <time>2018-06-24T07:39:36Z</time>
      </trkpt>
      <trkpt lat="49.93473" lon="3.80902">
        <ele>189</ele>
        <time>2018-06-24T07:39:43Z</time>
      </trkpt>
      <trkpt lat="49.93435" lon="3.80828">
        <ele>191</ele>
        <time>2018-06-24T07:39:51Z</time>
      </trkpt>
      <trkpt lat="49.93397" lon="3.80756">
        <ele>190</ele>
        <time>2018-06-24T07:39:59Z</time>
      </trkpt>
      <trkpt lat="49.93363" lon="3.8069">
        <ele>190</ele>
        <time>2018-06-24T07:40:06Z</time>
      </trkpt>
      <trkpt lat="49.93328" lon="3.80622">
        <ele>188</ele>
        <time>2018-06-24T07:40:13Z</time>
      </trkpt>
      <trkpt lat="49.93291" lon="3.80548">
        <ele>189</ele>
        <time>2018-06-24T07:40:21Z</time>
      </trkpt>
      <trkpt lat="49.93268" lon="3.80508">
        <ele>189</ele>
        <time>2018-06-24T07:40:27Z</time>
      </trkpt>
      <trkpt lat="49.93222" lon="3.8048">
        <ele>186</ele>
        <time>2018-06-24T07:40:44Z</time>
      </trkpt>
      <trkpt lat="49.93221" lon="3.80482">
        <ele>186</ele>
        <time>2018-06-24T07:40:46Z</time>
      </trkpt>
      <trkpt lat="49.9323" lon="3.80488">
        <ele>187</ele>
        <time>2018-06-24T07:40:55Z</time>
      </trkpt>
      <trkpt lat="49.93241" lon="3.80492">
        <ele>187</ele>
        <time>2018-06-24T07:41:01Z</time>
      </trkpt>
      <trkpt lat="49.93246" lon="3.80472">
        <ele>187</ele>
        <time>2018-06-24T07:41:06Z</time>
      </trkpt>
      <trkpt lat="49.93241" lon="3.80457">
        <ele>187</ele>
        <time>2018-06-24T07:41:08Z</time>
      </trkpt>
      <trkpt lat="49.93208" lon="3.80387">
        <ele>187</ele>
        <time>2018-06-24T07:41:16Z</time>
      </trkpt>
      <trkpt lat="49.93185" lon="3.80308">
        <ele>188</ele>
        <time>2018-06-24T07:41:23Z</time>
      </trkpt>
      <trkpt lat="49.93169" lon="3.80226">
        <ele>190</ele>
        <time>2018-06-24T07:41:29Z</time>
      </trkpt>
      <trkpt lat="49.93154" lon="3.80142">
        <ele>190</ele>
        <time>2018-06-24T07:41:35Z</time>
      </trkpt>
      <trkpt lat="49.93139" lon="3.80061">
        <ele>192</ele>
        <time>2018-06-24T07:41:42Z</time>
      </trkpt>
      <trkpt lat="49.93124" lon="3.79972">
        <ele>191</ele>
        <time>2018-06-24T07:41:50Z</time>
      </trkpt>
      <trkpt lat="49.9311" lon="3.79886">
        <ele>190</ele>
        <time>2018-06-24T07:41:58Z</time>
      </trkpt>
      <trkpt lat="49.93098" lon="3.79799">
        <ele>190</ele>
        <time>2018-06-24T07:42:05Z</time>
      </trkpt>
      <trkpt lat="49.93086" lon="3.79708">
        <ele>189</ele>
        <time>2018-06-24T07:42:12Z</time>
      </trkpt>
      <trkpt lat="49.93066" lon="3.79622">
        <ele>190</ele>
        <time>2018-06-24T07:42:19Z</time>
      </trkpt>
      <trkpt lat="49.93036" lon="3.79543">
        <ele>192</ele>
        <time>2018-06-24T07:42:26Z</time>
      </trkpt>
      <trkpt lat="49.92999" lon="3.79468">
        <ele>189</ele>
        <time>2018-06-24T07:42:33Z</time>
      </trkpt>
      <trkpt lat="49.92961" lon="3.79403">
        <ele>189</ele>
        <time>2018-06-24T07:42:40Z</time>
      </trkpt>
      <trkpt lat="49.92921" lon="3.79342">
        <ele>187</ele>
        <time>2018-06-24T07:42:47Z</time>
      </trkpt>
      <trkpt lat="49.92883" lon="3.79276">
        <ele>186</ele>
        <time>2018-06-24T07:42:55Z</time>
      </trkpt>
      <trkpt lat="49.92875" lon="3.79259">
        <ele>186</ele>
        <time>2018-06-24T07:42:56Z</time>
      </trkpt>
      <trkpt lat="49.92851" lon="3.79174">
        <ele>187</ele>
        <time>2018-06-24T07:43:06Z</time>
      </trkpt>
      <trkpt lat="49.92834" lon="3.79093">
        <ele>188</ele>
        <time>2018-06-24T07:43:20Z</time>
      </trkpt>
      <trkpt lat="49.92816" lon="3.79007">
        <ele>189</ele>
        <time>2018-06-24T07:43:31Z</time>
      </trkpt>
      <trkpt lat="49.92798" lon="3.78925">
        <ele>189</ele>
        <time>2018-06-24T07:43:40Z</time>
      </trkpt>
      <trkpt lat="49.92779" lon="3.78839">
        <ele>188</ele>
        <time>2018-06-24T07:43:49Z</time>
      </trkpt>
      <trkpt lat="49.92759" lon="3.78755">
        <ele>188</ele>
        <time>2018-06-24T07:43:58Z</time>
      </trkpt>
      <trkpt lat="49.92736" lon="3.78678">
        <ele>187</ele>
        <time>2018-06-24T07:44:06Z</time>
      </trkpt>
      <trkpt lat="49.9271" lon="3.78592">
        <ele>186</ele>
        <time>2018-06-24T07:44:14Z</time>
      </trkpt>
      <trkpt lat="49.92685" lon="3.78511">
        <ele>183</ele>
        <time>2018-06-24T07:44:21Z</time>
      </trkpt>
      <trkpt lat="49.9266" lon="3.7843">
        <ele>181</ele>
        <time>2018-06-24T07:44:28Z</time>
      </trkpt>
      <trkpt lat="49.92635" lon="3.78349">
        <ele>183</ele>
        <time>2018-06-24T07:44:36Z</time>
      </trkpt>
      <trkpt lat="49.92611" lon="3.78268">
        <ele>186</ele>
        <time>2018-06-24T07:44:45Z</time>
      </trkpt>
      <trkpt lat="49.92587" lon="3.78187">
        <ele>187</ele>
        <time>2018-06-24T07:44:54Z</time>
      </trkpt>
      <trkpt lat="49.92562" lon="3.78107">
        <ele>185</ele>
        <time>2018-06-24T07:45:03Z</time>
      </trkpt>
      <trkpt lat="49.92526" lon="3.78035">
        <ele>185</ele>
        <time>2018-06-24T07:45:12Z</time>
      </trkpt>
      <trkpt lat="49.92509" lon="3.78002">
        <ele>185</ele>
        <time>2018-06-24T07:45:16Z</time>
      </trkpt>
      <trkpt lat="49.92503" lon="3.77984">
        <ele>185</ele>
        <time>2018-06-24T07:45:18Z</time>
      </trkpt>
      <trkpt lat="49.92484" lon="3.77904">
        <ele>185</ele>
        <time>2018-06-24T07:45:27Z</time>
      </trkpt>
      <trkpt lat="49.92465" lon="3.7782">
        <ele>184</ele>
        <time>2018-06-24T07:45:37Z</time>
      </trkpt>
      <trkpt lat="49.92434" lon="3.7774">
        <ele>183</ele>
        <time>2018-06-24T07:45:47Z</time>
      </trkpt>
      <trkpt lat="49.92393" lon="3.7768">
        <ele>182</ele>
        <time>2018-06-24T07:45:55Z</time>
      </trkpt>
      <trkpt lat="49.92345" lon="3.77625">
        <ele>180</ele>
        <time>2018-06-24T07:46:03Z</time>
      </trkpt>
      <trkpt lat="49.92307" lon="3.7757">
        <ele>179</ele>
        <time>2018-06-24T07:46:10Z</time>
      </trkpt>
      <trkpt lat="49.92288" lon="3.77485">
        <ele>178</ele>
        <time>2018-06-24T07:46:17Z</time>
      </trkpt>
      <trkpt lat="49.92279" lon="3.77449">
        <ele>178</ele>
        <time>2018-06-24T07:46:20Z</time>
      </trkpt>
      <trkpt lat="49.92235" lon="3.77385">
        <ele>177</ele>
        <time>2018-06-24T07:46:27Z</time>
      </trkpt>
      <trkpt lat="49.92189" lon="3.77331">
        <ele>177</ele>
        <time>2018-06-24T07:46:34Z</time>
      </trkpt>
      <trkpt lat="49.92143" lon="3.77279">
        <ele>176</ele>
        <time>2018-06-24T07:46:41Z</time>
      </trkpt>
      <trkpt lat="49.92101" lon="3.77226">
        <ele>175</ele>
        <time>2018-06-24T07:46:47Z</time>
      </trkpt>
      <trkpt lat="49.92063" lon="3.77157">
        <ele>174</ele>
        <time>2018-06-24T07:46:54Z</time>
      </trkpt>
      <trkpt lat="49.92052" lon="3.77108">
        <ele>174</ele>
        <time>2018-06-24T07:47:06Z</time>
      </trkpt>
      <trkpt lat="49.92041" lon="3.77096">
        <ele>174</ele>
        <time>2018-06-24T07:47:10Z</time>
      </trkpt>
      <trkpt lat="49.91995" lon="3.77037">
        <ele>173</ele>
        <time>2018-06-24T07:47:19Z</time>
      </trkpt>
      <trkpt lat="49.91974" lon="3.7701">
        <ele>173</ele>
        <time>2018-06-24T07:47:23Z</time>
      </trkpt>
      <trkpt lat="49.9196" lon="3.76981">
        <ele>172</ele>
        <time>2018-06-24T07:47:26Z</time>
      </trkpt>
      <trkpt lat="49.91932" lon="3.76899">
        <ele>173</ele>
        <time>2018-06-24T07:47:35Z</time>
      </trkpt>
      <trkpt lat="49.91906" lon="3.76822">
        <ele>171</ele>
        <time>2018-06-24T07:47:43Z</time>
      </trkpt>
      <trkpt lat="49.91873" lon="3.76754">
        <ele>170</ele>
        <time>2018-06-24T07:47:51Z</time>
      </trkpt>
      <trkpt lat="49.91842" lon="3.76676">
        <ele>169</ele>
        <time>2018-06-24T07:47:59Z</time>
      </trkpt>
      <trkpt lat="49.91814" lon="3.76598">
        <ele>169</ele>
        <time>2018-06-24T07:48:07Z</time>
      </trkpt>
      <trkpt lat="49.91786" lon="3.7652">
        <ele>169</ele>
        <time>2018-06-24T07:48:15Z</time>
      </trkpt>
      <trkpt lat="49.91756" lon="3.7644">
        <ele>170</ele>
        <time>2018-06-24T07:48:23Z</time>
      </trkpt>
      <trkpt lat="49.91737" lon="3.76404">
        <ele>168</ele>
        <time>2018-06-24T07:48:27Z</time>
      </trkpt>
      <trkpt lat="49.91709" lon="3.76376">
        <ele>166</ele>
        <time>2018-06-24T07:48:31Z</time>
      </trkpt>
      <trkpt lat="49.91683" lon="3.76364">
        <ele>166</ele>
        <time>2018-06-24T07:48:34Z</time>
      </trkpt>
      <trkpt lat="49.91655" lon="3.76361">
        <ele>163</ele>
        <time>2018-06-24T07:48:37Z</time>
      </trkpt>
      <trkpt lat="49.91609" lon="3.76376">
        <ele>162</ele>
        <time>2018-06-24T07:48:43Z</time>
      </trkpt>
      <trkpt lat="49.91597" lon="3.76366">
        <ele>161</ele>
        <time>2018-06-24T07:48:45Z</time>
      </trkpt>
      <trkpt lat="49.91574" lon="3.76288">
        <ele>158</ele>
        <time>2018-06-24T07:48:53Z</time>
      </trkpt>
      <trkpt lat="49.91551" lon="3.76207">
        <ele>157</ele>
        <time>2018-06-24T07:49:01Z</time>
      </trkpt>
      <trkpt lat="49.91528" lon="3.76127">
        <ele>154</ele>
        <time>2018-06-24T07:49:08Z</time>
      </trkpt>
      <trkpt lat="49.9152" lon="3.76085">
        <ele>152</ele>
        <time>2018-06-24T07:49:11Z</time>
      </trkpt>
      <trkpt lat="49.91517" lon="3.75997">
        <ele>151</ele>
        <time>2018-06-24T07:49:17Z</time>
      </trkpt>
      <trkpt lat="49.91504" lon="3.7591">
        <ele>149</ele>
        <time>2018-06-24T07:49:23Z</time>
      </trkpt>
      <trkpt lat="49.91483" lon="3.75821">
        <ele>141</ele>
        <time>2018-06-24T07:49:29Z</time>
      </trkpt>
      <trkpt lat="49.91464" lon="3.75727">
        <ele>139</ele>
        <time>2018-06-24T07:49:35Z</time>
      </trkpt>
      <trkpt lat="49.91452" lon="3.75634">
        <ele>139</ele>
        <time>2018-06-24T07:49:41Z</time>
      </trkpt>
      <trkpt lat="49.91442" lon="3.75544">
        <ele>138</ele>
        <time>2018-06-24T07:49:47Z</time>
      </trkpt>
      <trkpt lat="49.91429" lon="3.7545">
        <ele>138</ele>
        <time>2018-06-24T07:49:53Z</time>
      </trkpt>
      <trkpt lat="49.91404" lon="3.75371">
        <ele>132</ele>
        <time>2018-06-24T07:49:58Z</time>
      </trkpt>
      <trkpt lat="49.91374" lon="3.75298">
        <ele>135</ele>
        <time>2018-06-24T07:50:03Z</time>
      </trkpt>
      <trkpt lat="49.91346" lon="3.75227">
        <ele>136</ele>
        <time>2018-06-24T07:50:08Z</time>
      </trkpt>
      <trkpt lat="49.91311" lon="3.75146">
        <ele>131</ele>
        <time>2018-06-24T07:50:14Z</time>
      </trkpt>
      <trkpt lat="49.91275" lon="3.75064">
        <ele>131</ele>
        <time>2018-06-24T07:50:20Z</time>
      </trkpt>
      <trkpt lat="49.91238" lon="3.74983">
        <ele>127</ele>
        <time>2018-06-24T07:50:26Z</time>
      </trkpt>
      <trkpt lat="49.91202" lon="3.74902">
        <ele>128</ele>
        <time>2018-06-24T07:50:32Z</time>
      </trkpt>
      <trkpt lat="49.91166" lon="3.74821">
        <ele>123</ele>
        <time>2018-06-24T07:50:38Z</time>
      </trkpt>
      <trkpt lat="49.91131" lon="3.74745">
        <ele>125</ele>
        <time>2018-06-24T07:50:44Z</time>
      </trkpt>
      <trkpt lat="49.91102" lon="3.74673">
        <ele>122</ele>
        <time>2018-06-24T07:50:50Z</time>
      </trkpt>
      <trkpt lat="49.91071" lon="3.74604">
        <ele>117</ele>
        <time>2018-06-24T07:50:56Z</time>
      </trkpt>
      <trkpt lat="49.91052" lon="3.74556">
        <ele>116</ele>
        <time>2018-06-24T07:51:00Z</time>
      </trkpt>
      <trkpt lat="49.91048" lon="3.74514">
        <ele>116</ele>
        <time>2018-06-24T07:51:03Z</time>
      </trkpt>
      <trkpt lat="49.91053" lon="3.74471">
        <ele>115</ele>
        <time>2018-06-24T07:51:06Z</time>
      </trkpt>
      <trkpt lat="49.91077" lon="3.74383">
        <ele>115</ele>
        <time>2018-06-24T07:51:13Z</time>
      </trkpt>
      <trkpt lat="49.91078" lon="3.74359">
        <ele>115</ele>
        <time>2018-06-24T07:51:15Z</time>
      </trkpt>
      <trkpt lat="49.91065" lon="3.7433">
        <ele>115</ele>
        <time>2018-06-24T07:51:18Z</time>
      </trkpt>
      <trkpt lat="49.91008" lon="3.74299">
        <ele>116</ele>
        <time>2018-06-24T07:51:26Z</time>
      </trkpt>
      <trkpt lat="49.90959" lon="3.74285">
        <ele>116</ele>
        <time>2018-06-24T07:51:33Z</time>
      </trkpt>
      <trkpt lat="49.90914" lon="3.7424">
        <ele>117</ele>
        <time>2018-06-24T07:51:41Z</time>
      </trkpt>
      <trkpt lat="49.90868" lon="3.74186">
        <ele>116</ele>
        <time>2018-06-24T07:51:50Z</time>
      </trkpt>
      <trkpt lat="49.90822" lon="3.74131">
        <ele>114</ele>
        <time>2018-06-24T07:51:58Z</time>
      </trkpt>
      <trkpt lat="49.90805" lon="3.74107">
        <ele>115</ele>
        <time>2018-06-24T07:52:01Z</time>
      </trkpt>
      <trkpt lat="49.90797" lon="3.74088">
        <ele>115</ele>
        <time>2018-06-24T07:52:03Z</time>
      </trkpt>
      <trkpt lat="49.90781" lon="3.74004">
        <ele>116</ele>
        <time>2018-06-24T07:52:11Z</time>
      </trkpt>
      <trkpt lat="49.90768" lon="3.73913">
        <ele>118</ele>
        <time>2018-06-24T07:52:20Z</time>
      </trkpt>
      <trkpt lat="49.90754" lon="3.73831">
        <ele>117</ele>
        <time>2018-06-24T07:52:28Z</time>
      </trkpt>
      <trkpt lat="49.90738" lon="3.7374">
        <ele>117</ele>
        <time>2018-06-24T07:52:37Z</time>
      </trkpt>
      <trkpt lat="49.90723" lon="3.73656">
        <ele>116</ele>
        <time>2018-06-24T07:52:45Z</time>
      </trkpt>
      <trkpt lat="49.90709" lon="3.73564">
        <ele>115</ele>
        <time>2018-06-24T07:52:53Z</time>
      </trkpt>
      <trkpt lat="49.90705" lon="3.7348">
        <ele>117</ele>
        <time>2018-06-24T07:53:01Z</time>
      </trkpt>
      <trkpt lat="49.90709" lon="3.73397">
        <ele>119</ele>
        <time>2018-06-24T07:53:10Z</time>
      </trkpt>
      <trkpt lat="49.90711" lon="3.73313">
        <ele>121</ele>
        <time>2018-06-24T07:53:19Z</time>
      </trkpt>
      <trkpt lat="49.90714" lon="3.73226">
        <ele>123</ele>
        <time>2018-06-24T07:53:28Z</time>
      </trkpt>
      <trkpt lat="49.90717" lon="3.73137">
        <ele>124</ele>
        <time>2018-06-24T07:53:37Z</time>
      </trkpt>
      <trkpt lat="49.9072" lon="3.73046">
        <ele>125</ele>
        <time>2018-06-24T07:53:46Z</time>
      </trkpt>
      <trkpt lat="49.90723" lon="3.72958">
        <ele>127</ele>
        <time>2018-06-24T07:53:55Z</time>
      </trkpt>
      <trkpt lat="49.90727" lon="3.72865">
        <ele>127</ele>
        <time>2018-06-24T07:54:04Z</time>
      </trkpt>
      <trkpt lat="49.90732" lon="3.72775">
        <ele>126</ele>
        <time>2018-06-24T07:54:12Z</time>
      </trkpt>
      <trkpt lat="49.90739" lon="3.72692">
        <ele>125</ele>
        <time>2018-06-24T07:54:19Z</time>
      </trkpt>
      <trkpt lat="49.90752" lon="3.72605">
        <ele>129</ele>
        <time>2018-06-24T07:54:27Z</time>
      </trkpt>
      <trkpt lat="49.9076" lon="3.72518">
        <ele>131</ele>
        <time>2018-06-24T07:54:36Z</time>
      </trkpt>
      <trkpt lat="49.90772" lon="3.72433">
        <ele>133</ele>
        <time>2018-06-24T07:54:45Z</time>
      </trkpt>
      <trkpt lat="49.90773" lon="3.72383">
        <ele>133</ele>
        <time>2018-06-24T07:54:50Z</time>
      </trkpt>
      <trkpt lat="49.90766" lon="3.72326">
        <ele>132</ele>
        <time>2018-06-24T07:54:55Z</time>
      </trkpt>
      <trkpt lat="49.90753" lon="3.72259">
        <ele>129</ele>
        <time>2018-06-24T07:55:00Z</time>
      </trkpt>
      <trkpt lat="49.90755" lon="3.72229">
        <ele>128</ele>
        <time>2018-06-24T07:55:02Z</time>
      </trkpt>
      <trkpt lat="49.90771" lon="3.72148">
        <ele>125</ele>
        <time>2018-06-24T07:55:08Z</time>
      </trkpt>
      <trkpt lat="49.90769" lon="3.72124">
        <ele>125</ele>
        <time>2018-06-24T07:55:10Z</time>
      </trkpt>
      <trkpt lat="49.9076" lon="3.72102">
        <ele>124</ele>
        <time>2018-06-24T07:55:12Z</time>
      </trkpt>
      <trkpt lat="49.90725" lon="3.72036">
        <ele>122</ele>
        <time>2018-06-24T07:55:19Z</time>
      </trkpt>
      <trkpt lat="49.90687" lon="3.7197">
        <ele>124</ele>
        <time>2018-06-24T07:55:26Z</time>
      </trkpt>
      <trkpt lat="49.90652" lon="3.71904">
        <ele>122</ele>
        <time>2018-06-24T07:55:33Z</time>
      </trkpt>
      <trkpt lat="49.90616" lon="3.71835">
        <ele>119</ele>
        <time>2018-06-24T07:55:40Z</time>
      </trkpt>
      <trkpt lat="49.90581" lon="3.7176">
        <ele>116</ele>
        <time>2018-06-24T07:55:47Z</time>
      </trkpt>
      <trkpt lat="49.90559" lon="3.7167">
        <ele>114</ele>
        <time>2018-06-24T07:55:54Z</time>
      </trkpt>
      <trkpt lat="49.90547" lon="3.71591">
        <ele>116</ele>
        <time>2018-06-24T07:56:00Z</time>
      </trkpt>
      <trkpt lat="49.90552" lon="3.71507">
        <ele>119</ele>
        <time>2018-06-24T07:56:07Z</time>
      </trkpt>
      <trkpt lat="49.90561" lon="3.71424">
        <ele>120</ele>
        <time>2018-06-24T07:56:14Z</time>
      </trkpt>
      <trkpt lat="49.90569" lon="3.71337">
        <ele>121</ele>
        <time>2018-06-24T07:56:22Z</time>
      </trkpt>
      <trkpt lat="49.90576" lon="3.71251">
        <ele>124</ele>
        <time>2018-06-24T07:56:30Z</time>
      </trkpt>
      <trkpt lat="49.90583" lon="3.71161">
        <ele>122</ele>
        <time>2018-06-24T07:56:38Z</time>
      </trkpt>
      <trkpt lat="49.90589" lon="3.71078">
        <ele>123</ele>
        <time>2018-06-24T07:56:45Z</time>
      </trkpt>
      <trkpt lat="49.90595" lon="3.70993">
        <ele>123</ele>
        <time>2018-06-24T07:56:52Z</time>
      </trkpt>
      <trkpt lat="49.90602" lon="3.70909">
        <ele>122</ele>
        <time>2018-06-24T07:56:59Z</time>
      </trkpt>
      <trkpt lat="49.90608" lon="3.70815">
        <ele>122</ele>
        <time>2018-06-24T07:57:07Z</time>
      </trkpt>
      <trkpt lat="49.9061" lon="3.70725">
        <ele>124</ele>
        <time>2018-06-24T07:57:15Z</time>
      </trkpt>
      <trkpt lat="49.90612" lon="3.70641">
        <ele>127</ele>
        <time>2018-06-24T07:57:23Z</time>
      </trkpt>
      <trkpt lat="49.9061" lon="3.7062">
        <ele>128</ele>
        <time>2018-06-24T07:57:24Z</time>
      </trkpt>
      <trkpt lat="49.9059" lon="3.7054">
        <ele>131</ele>
        <time>2018-06-24T07:57:33Z</time>
      </trkpt>
      <trkpt lat="49.90564" lon="3.70466">
        <ele>125</ele>
        <time>2018-06-24T07:57:41Z</time>
      </trkpt>
      <trkpt lat="49.90519" lon="3.70407">
        <ele>126</ele>
        <time>2018-06-24T07:57:49Z</time>
      </trkpt>
      <trkpt lat="49.90474" lon="3.70358">
        <ele>121</ele>
        <time>2018-06-24T07:57:56Z</time>
      </trkpt>
      <trkpt lat="49.90427" lon="3.70303">
        <ele>126</ele>
        <time>2018-06-24T07:58:03Z</time>
      </trkpt>
      <trkpt lat="49.90376" lon="3.70247">
        <ele>123</ele>
        <time>2018-06-24T07:58:10Z</time>
      </trkpt>
      <trkpt lat="49.90329" lon="3.70186">
        <ele>114</ele>
        <time>2018-06-24T07:58:17Z</time>
      </trkpt>
      <trkpt lat="49.90293" lon="3.70108">
        <ele>115</ele>
        <time>2018-06-24T07:58:24Z</time>
      </trkpt>
      <trkpt lat="49.90256" lon="3.7003">
        <ele>117</ele>
        <time>2018-06-24T07:58:31Z</time>
      </trkpt>
      <trkpt lat="49.90223" lon="3.69954">
        <ele>112</ele>
        <time>2018-06-24T07:58:38Z</time>
      </trkpt>
      <trkpt lat="49.90199" lon="3.6988">
        <ele>112</ele>
        <time>2018-06-24T07:58:45Z</time>
      </trkpt>
      <trkpt lat="49.90196" lon="3.69856">
        <ele>112</ele>
        <time>2018-06-24T07:58:46Z</time>
      </trkpt>
      <trkpt lat="49.90202" lon="3.69762">
        <ele>113</ele>
        <time>2018-06-24T07:58:54Z</time>
      </trkpt>
      <trkpt lat="49.9021" lon="3.69667">
        <ele>114</ele>
        <time>2018-06-24T07:59:01Z</time>
      </trkpt>
      <trkpt lat="49.90214" lon="3.69576">
        <ele>114</ele>
        <time>2018-06-24T07:59:08Z</time>
      </trkpt>
      <trkpt lat="49.90221" lon="3.69492">
        <ele>113</ele>
        <time>2018-06-24T07:59:15Z</time>
      </trkpt>
      <trkpt lat="49.90228" lon="3.69404">
        <ele>112</ele>
        <time>2018-06-24T07:59:22Z</time>
      </trkpt>
      <trkpt lat="49.90234" lon="3.69313">
        <ele>112</ele>
        <time>2018-06-24T07:59:29Z</time>
      </trkpt>
      <trkpt lat="49.90247" lon="3.69228">
        <ele>112</ele>
        <time>2018-06-24T07:59:36Z</time>
      </trkpt>
      <trkpt lat="49.90257" lon="3.69159">
        <ele>115</ele>
        <time>2018-06-24T07:59:42Z</time>
      </trkpt>
      <trkpt lat="49.90249" lon="3.69073">
        <ele>114</ele>
        <time>2018-06-24T07:59:49Z</time>
      </trkpt>
      <trkpt lat="49.90235" lon="3.68988">
        <ele>114</ele>
        <time>2018-06-24T07:59:56Z</time>
      </trkpt>
      <trkpt lat="49.9023" lon="3.68964">
        <ele>113</ele>
        <time>2018-06-24T07:59:58Z</time>
      </trkpt>
      <trkpt lat="49.90214" lon="3.68934">
        <ele>113</ele>
        <time>2018-06-24T08:00:01Z</time>
      </trkpt>
      <trkpt lat="49.90163" lon="3.68885">
        <ele>108</ele>
        <time>2018-06-24T08:00:07Z</time>
      </trkpt>
      <trkpt lat="49.9011" lon="3.68836">
        <ele>106</ele>
        <time>2018-06-24T08:00:13Z</time>
      </trkpt>
      <trkpt lat="49.90101" lon="3.68825">
        <ele>106</ele>
        <time>2018-06-24T08:00:14Z</time>
      </trkpt>
      <trkpt lat="49.90086" lon="3.68799">
        <ele>106</ele>
        <time>2018-06-24T08:00:16Z</time>
      </trkpt>
      <trkpt lat="49.90075" lon="3.68768">
        <ele>104</ele>
        <time>2018-06-24T08:00:18Z</time>
      </trkpt>
      <trkpt lat="49.90057" lon="3.68688">
        <ele>105</ele>
        <time>2018-06-24T08:00:23Z</time>
      </trkpt>
      <trkpt lat="49.90037" lon="3.68597">
        <ele>105</ele>
        <time>2018-06-24T08:00:29Z</time>
      </trkpt>
      <trkpt lat="49.9002" lon="3.68511">
        <ele>105</ele>
        <time>2018-06-24T08:00:35Z</time>
      </trkpt>
      <trkpt lat="49.90005" lon="3.68426">
        <ele>105</ele>
        <time>2018-06-24T08:00:41Z</time>
      </trkpt>
      <trkpt lat="49.8999" lon="3.68341">
        <ele>104</ele>
        <time>2018-06-24T08:00:47Z</time>
      </trkpt>
      <trkpt lat="49.89978" lon="3.68257">
        <ele>104</ele>
        <time>2018-06-24T08:00:53Z</time>
      </trkpt>
      <trkpt lat="49.89966" lon="3.68162">
        <ele>104</ele>
        <time>2018-06-24T08:01:00Z</time>
      </trkpt>
      <trkpt lat="49.89954" lon="3.68069">
        <ele>104</ele>
        <time>2018-06-24T08:01:07Z</time>
      </trkpt>
      <trkpt lat="49.89944" lon="3.67987">
        <ele>104</ele>
        <time>2018-06-24T08:01:13Z</time>
      </trkpt>
      <trkpt lat="49.89933" lon="3.67904">
        <ele>104</ele>
        <time>2018-06-24T08:01:19Z</time>
      </trkpt>
      <trkpt lat="49.89922" lon="3.67821">
        <ele>103</ele>
        <time>2018-06-24T08:01:25Z</time>
      </trkpt>
      <trkpt lat="49.89911" lon="3.67726">
        <ele>103</ele>
        <time>2018-06-24T08:01:32Z</time>
      </trkpt>
      <trkpt lat="49.89895" lon="3.67651">
        <ele>105</ele>
        <time>2018-06-24T08:01:38Z</time>
      </trkpt>
      <trkpt lat="49.89883" lon="3.67636">
        <ele>105</ele>
        <time>2018-06-24T08:01:40Z</time>
      </trkpt>
      <trkpt lat="49.89859" lon="3.67627">
        <ele>104</ele>
        <time>2018-06-24T08:01:43Z</time>
      </trkpt>
      <trkpt lat="49.89846" lon="3.67613">
        <ele>104</ele>
        <time>2018-06-24T08:01:45Z</time>
      </trkpt>
      <trkpt lat="49.89835" lon="3.67578">
        <ele>103</ele>
        <time>2018-06-24T08:01:48Z</time>
      </trkpt>
      <trkpt lat="49.89832" lon="3.67551">
        <ele>102</ele>
        <time>2018-06-24T08:01:50Z</time>
      </trkpt>
      <trkpt lat="49.8984" lon="3.67461">
        <ele>107</ele>
        <time>2018-06-24T08:01:57Z</time>
      </trkpt>
      <trkpt lat="49.89844" lon="3.67376">
        <ele>110</ele>
        <time>2018-06-24T08:02:04Z</time>
      </trkpt>
      <trkpt lat="49.89841" lon="3.67342">
        <ele>108</ele>
        <time>2018-06-24T08:02:07Z</time>
      </trkpt>
      <trkpt lat="49.89821" lon="3.67253">
        <ele>109</ele>
        <time>2018-06-24T08:02:15Z</time>
      </trkpt>
      <trkpt lat="49.89801" lon="3.6717">
        <ele>110</ele>
        <time>2018-06-24T08:02:22Z</time>
      </trkpt>
      <trkpt lat="49.8977" lon="3.67073">
        <ele>112</ele>
        <time>2018-06-24T08:02:29Z</time>
      </trkpt>
      <trkpt lat="49.89743" lon="3.6699">
        <ele>108</ele>
        <time>2018-06-24T08:02:37Z</time>
      </trkpt>
      <trkpt lat="49.89717" lon="3.6691">
        <ele>112</ele>
        <time>2018-06-24T08:02:44Z</time>
      </trkpt>
      <trkpt lat="49.8969" lon="3.6683">
        <ele>113</ele>
        <time>2018-06-24T08:02:51Z</time>
      </trkpt>
      <trkpt lat="49.89664" lon="3.66744">
        <ele>109</ele>
        <time>2018-06-24T08:02:58Z</time>
      </trkpt>
      <trkpt lat="49.89631" lon="3.66676">
        <ele>111</ele>
        <time>2018-06-24T08:03:05Z</time>
      </trkpt>
      <trkpt lat="49.89588" lon="3.66604">
        <ele>116</ele>
        <time>2018-06-24T08:03:12Z</time>
      </trkpt>
      <trkpt lat="49.89544" lon="3.6654">
        <ele>111</ele>
        <time>2018-06-24T08:03:18Z</time>
      </trkpt>
      <trkpt lat="49.89499" lon="3.66474">
        <ele>105</ele>
        <time>2018-06-24T08:03:25Z</time>
      </trkpt>
      <trkpt lat="49.89494" lon="3.66463">
        <ele>104</ele>
        <time>2018-06-24T08:03:26Z</time>
      </trkpt>
      <trkpt lat="49.89486" lon="3.66442">
        <ele>105</ele>
        <time>2018-06-24T08:03:28Z</time>
      </trkpt>
      <trkpt lat="49.8947" lon="3.66357">
        <ele>107</ele>
        <time>2018-06-24T08:03:38Z</time>
      </trkpt>
      <trkpt lat="49.89459" lon="3.66273">
        <ele>108</ele>
        <time>2018-06-24T08:03:48Z</time>
      </trkpt>
      <trkpt lat="49.89459" lon="3.66242">
        <ele>110</ele>
        <time>2018-06-24T08:03:52Z</time>
      </trkpt>
      <trkpt lat="49.8946" lon="3.66157">
        <ele>112</ele>
        <time>2018-06-24T08:04:03Z</time>
      </trkpt>
      <trkpt lat="49.89456" lon="3.66071">
        <ele>111</ele>
        <time>2018-06-24T08:04:12Z</time>
      </trkpt>
      <trkpt lat="49.8946" lon="3.66018">
        <ele>111</ele>
        <time>2018-06-24T08:04:17Z</time>
      </trkpt>
      <trkpt lat="49.89486" lon="3.65936">
        <ele>109</ele>
        <time>2018-06-24T08:04:26Z</time>
      </trkpt>
      <trkpt lat="49.89512" lon="3.65856">
        <ele>110</ele>
        <time>2018-06-24T08:04:34Z</time>
      </trkpt>
      <trkpt lat="49.89537" lon="3.65778">
        <ele>111</ele>
        <time>2018-06-24T08:04:42Z</time>
      </trkpt>
      <trkpt lat="49.89562" lon="3.65703">
        <ele>109</ele>
        <time>2018-06-24T08:04:49Z</time>
      </trkpt>
      <trkpt lat="49.89572" lon="3.65683">
        <ele>109</ele>
        <time>2018-06-24T08:04:51Z</time>
      </trkpt>
      <trkpt lat="49.89585" lon="3.65666">
        <ele>109</ele>
        <time>2018-06-24T08:04:53Z</time>
      </trkpt>
      <trkpt lat="49.89637" lon="3.65628">
        <ele>108</ele>
        <time>2018-06-24T08:05:00Z</time>
      </trkpt>
      <trkpt lat="49.8969" lon="3.656">
        <ele>111</ele>
        <time>2018-06-24T08:05:07Z</time>
      </trkpt>
      <trkpt lat="49.89742" lon="3.6557">
        <ele>109</ele>
        <time>2018-06-24T08:05:14Z</time>
      </trkpt>
      <trkpt lat="49.89793" lon="3.65529">
        <ele>108</ele>
        <time>2018-06-24T08:05:21Z</time>
      </trkpt>
      <trkpt lat="49.89846" lon="3.65495">
        <ele>103</ele>
        <time>2018-06-24T08:05:28Z</time>
      </trkpt>
      <trkpt lat="49.89895" lon="3.65458">
        <ele>104</ele>
        <time>2018-06-24T08:05:35Z</time>
      </trkpt>
      <trkpt lat="49.89937" lon="3.65405">
        <ele>103</ele>
        <time>2018-06-24T08:05:42Z</time>
      </trkpt>
      <trkpt lat="49.89978" lon="3.65339">
        <ele>103</ele>
        <time>2018-06-24T08:05:49Z</time>
      </trkpt>
      <trkpt lat="49.90022" lon="3.65282">
        <ele>104</ele>
        <time>2018-06-24T08:05:56Z</time>
      </trkpt>
      <trkpt lat="49.90055" lon="3.65214">
        <ele>103</ele>
        <time>2018-06-24T08:06:03Z</time>
      </trkpt>
      <trkpt lat="49.90082" lon="3.65137">
        <ele>102</ele>
        <time>2018-06-24T08:06:10Z</time>
      </trkpt>
      <trkpt lat="49.90112" lon="3.65065">
        <ele>104</ele>
        <time>2018-06-24T08:06:17Z</time>
      </trkpt>
      <trkpt lat="49.90146" lon="3.64997">
        <ele>102</ele>
        <time>2018-06-24T08:06:24Z</time>
      </trkpt>
      <trkpt lat="49.90173" lon="3.64952">
        <ele>107</ele>
        <time>2018-06-24T08:06:29Z</time>
      </trkpt>
      <trkpt lat="49.90202" lon="3.64877">
        <ele>105</ele>
        <time>2018-06-24T08:06:36Z</time>
      </trkpt>
      <trkpt lat="49.90242" lon="3.64815">
        <ele>105</ele>
        <time>2018-06-24T08:06:43Z</time>
      </trkpt>
      <trkpt lat="49.90266" lon="3.64767">
        <ele>113</ele>
        <time>2018-06-24T08:06:48Z</time>
      </trkpt>
      <trkpt lat="49.90272" lon="3.64745">
        <ele>112</ele>
        <time>2018-06-24T08:06:50Z</time>
      </trkpt>
      <trkpt lat="49.90274" lon="3.64709">
        <ele>114</ele>
        <time>2018-06-24T08:06:53Z</time>
      </trkpt>
      <trkpt lat="49.90267" lon="3.64621">
        <ele>114</ele>
        <time>2018-06-24T08:07:00Z</time>
      </trkpt>
      <trkpt lat="49.90259" lon="3.64538">
        <ele>114</ele>
        <time>2018-06-24T08:07:06Z</time>
      </trkpt>
      <trkpt lat="49.90253" lon="3.64453">
        <ele>116</ele>
        <time>2018-06-24T08:07:12Z</time>
      </trkpt>
      <trkpt lat="49.90232" lon="3.64365">
        <ele>109</ele>
        <time>2018-06-24T08:07:19Z</time>
      </trkpt>
      <trkpt lat="49.90214" lon="3.64272">
        <ele>111</ele>
        <time>2018-06-24T08:07:26Z</time>
      </trkpt>
      <trkpt lat="49.90206" lon="3.64189">
        <ele>111</ele>
        <time>2018-06-24T08:07:32Z</time>
      </trkpt>
      <trkpt lat="49.90182" lon="3.64102">
        <ele>111</ele>
        <time>2018-06-24T08:07:39Z</time>
      </trkpt>
      <trkpt lat="49.90153" lon="3.64018">
        <ele>107</ele>
        <time>2018-06-24T08:07:46Z</time>
      </trkpt>
      <trkpt lat="49.90124" lon="3.63932">
        <ele>107</ele>
        <time>2018-06-24T08:07:53Z</time>
      </trkpt>
      <trkpt lat="49.90098" lon="3.63851">
        <ele>107</ele>
        <time>2018-06-24T08:08:00Z</time>
      </trkpt>
      <trkpt lat="49.90062" lon="3.63774">
        <ele>103</ele>
        <time>2018-06-24T08:08:07Z</time>
      </trkpt>
      <trkpt lat="49.90024" lon="3.63699">
        <ele>102</ele>
        <time>2018-06-24T08:08:14Z</time>
      </trkpt>
      <trkpt lat="49.89982" lon="3.63633">
        <ele>99</ele>
        <time>2018-06-24T08:08:21Z</time>
      </trkpt>
      <trkpt lat="49.89938" lon="3.63571">
        <ele>100</ele>
        <time>2018-06-24T08:08:28Z</time>
      </trkpt>
      <trkpt lat="49.89892" lon="3.63506">
        <ele>99</ele>
        <time>2018-06-24T08:08:35Z</time>
      </trkpt>
      <trkpt lat="49.89848" lon="3.63439">
        <ele>99</ele>
        <time>2018-06-24T08:08:42Z</time>
      </trkpt>
      <trkpt lat="49.89837" lon="3.63417">
        <ele>98</ele>
        <time>2018-06-24T08:08:44Z</time>
      </trkpt>
      <trkpt lat="49.89831" lon="3.63393">
        <ele>98</ele>
        <time>2018-06-24T08:08:46Z</time>
      </trkpt>
      <trkpt lat="49.89829" lon="3.63367">
        <ele>98</ele>
        <time>2018-06-24T08:08:48Z</time>
      </trkpt>
      <trkpt lat="49.89837" lon="3.63333">
        <ele>99</ele>
        <time>2018-06-24T08:08:51Z</time>
      </trkpt>
      <trkpt lat="49.89852" lon="3.63305">
        <ele>100</ele>
        <time>2018-06-24T08:08:54Z</time>
      </trkpt>
      <trkpt lat="49.89905" lon="3.63265">
        <ele>102</ele>
        <time>2018-06-24T08:09:02Z</time>
      </trkpt>
      <trkpt lat="49.89926" lon="3.63255">
        <ele>103</ele>
        <time>2018-06-24T08:09:06Z</time>
      </trkpt>
      <trkpt lat="49.89933" lon="3.63247">
        <ele>103</ele>
        <time>2018-06-24T08:09:08Z</time>
      </trkpt>
      <trkpt lat="49.89937" lon="3.63235">
        <ele>103</ele>
        <time>2018-06-24T08:09:10Z</time>
      </trkpt>
      <trkpt lat="49.89936" lon="3.63143">
        <ele>100</ele>
        <time>2018-06-24T08:09:19Z</time>
      </trkpt>
      <trkpt lat="49.89931" lon="3.63102">
        <ele>99</ele>
        <time>2018-06-24T08:09:26Z</time>
      </trkpt>
      <trkpt lat="49.89935" lon="3.63098">
        <ele>99</ele>
        <time>2018-06-24T08:09:42Z</time>
      </trkpt>
      <trkpt lat="49.89994" lon="3.63081">
        <ele>99</ele>
        <time>2018-06-24T08:09:56Z</time>
      </trkpt>
      <trkpt lat="49.90029" lon="3.63073">
        <ele>99</ele>
        <time>2018-06-24T08:10:02Z</time>
      </trkpt>
      <trkpt lat="49.90049" lon="3.63073">
        <ele>100</ele>
        <time>2018-06-24T08:10:07Z</time>
      </trkpt>
      <trkpt lat="49.90052" lon="3.63057">
        <ele>100</ele>
        <time>2018-06-24T08:10:10Z</time>
      </trkpt>
      <trkpt lat="49.90048" lon="3.63041">
        <ele>99</ele>
        <time>2018-06-24T08:10:12Z</time>
      </trkpt>
      <trkpt lat="49.90021" lon="3.6296">
        <ele>98</ele>
        <time>2018-06-24T08:10:21Z</time>
      </trkpt>
      <trkpt lat="49.89996" lon="3.62885">
        <ele>99</ele>
        <time>2018-06-24T08:10:30Z</time>
      </trkpt>
      <trkpt lat="49.89974" lon="3.62808">
        <ele>100</ele>
        <time>2018-06-24T08:10:40Z</time>
      </trkpt>
      <trkpt lat="49.89974" lon="3.62805">
        <ele>100</ele>
        <time>2018-06-24T08:10:42Z</time>
      </trkpt>
      <trkpt lat="49.89972" lon="3.62799">
        <ele>100</ele>
        <time>2018-06-24T08:11:26Z</time>
      </trkpt>
      <trkpt lat="49.90011" lon="3.6274">
        <ele>99</ele>
        <time>2018-06-24T08:11:40Z</time>
      </trkpt>
      <trkpt lat="49.90065" lon="3.627">
        <ele>98</ele>
        <time>2018-06-24T08:11:49Z</time>
      </trkpt>
      <trkpt lat="49.90118" lon="3.62678">
        <ele>98</ele>
        <time>2018-06-24T08:11:58Z</time>
      </trkpt>
      <trkpt lat="49.90168" lon="3.62647">
        <ele>97</ele>
        <time>2018-06-24T08:12:07Z</time>
      </trkpt>
      <trkpt lat="49.9022" lon="3.62613">
        <ele>97</ele>
        <time>2018-06-24T08:12:16Z</time>
      </trkpt>
      <trkpt lat="49.90274" lon="3.62583">
        <ele>96</ele>
        <time>2018-06-24T08:12:25Z</time>
      </trkpt>
      <trkpt lat="49.90326" lon="3.62552">
        <ele>97</ele>
        <time>2018-06-24T08:12:33Z</time>
      </trkpt>
      <trkpt lat="49.90352" lon="3.6252">
        <ele>99</ele>
        <time>2018-06-24T08:12:38Z</time>
      </trkpt>
      <trkpt lat="49.90359" lon="3.62492">
        <ele>99</ele>
        <time>2018-06-24T08:12:41Z</time>
      </trkpt>
      <trkpt lat="49.90356" lon="3.62408">
        <ele>97</ele>
        <time>2018-06-24T08:12:49Z</time>
      </trkpt>
      <trkpt lat="49.90354" lon="3.62317">
        <ele>96</ele>
        <time>2018-06-24T08:12:57Z</time>
      </trkpt>
      <trkpt lat="49.90354" lon="3.62227">
        <ele>96</ele>
        <time>2018-06-24T08:13:05Z</time>
      </trkpt>
      <trkpt lat="49.90353" lon="3.62138">
        <ele>97</ele>
        <time>2018-06-24T08:13:13Z</time>
      </trkpt>
      <trkpt lat="49.90344" lon="3.62051">
        <ele>97</ele>
        <time>2018-06-24T08:13:21Z</time>
      </trkpt>
      <trkpt lat="49.90323" lon="3.61965">
        <ele>97</ele>
        <time>2018-06-24T08:13:30Z</time>
      </trkpt>
      <trkpt lat="49.90302" lon="3.6188">
        <ele>97</ele>
        <time>2018-06-24T08:13:38Z</time>
      </trkpt>
      <trkpt lat="49.90291" lon="3.61825">
        <ele>100</ele>
        <time>2018-06-24T08:13:43Z</time>
      </trkpt>
      <trkpt lat="49.90292" lon="3.61802">
        <ele>101</ele>
        <time>2018-06-24T08:13:45Z</time>
      </trkpt>
      <trkpt lat="49.90309" lon="3.6172">
        <ele>104</ele>
        <time>2018-06-24T08:13:53Z</time>
      </trkpt>
      <trkpt lat="49.90329" lon="3.61638">
        <ele>106</ele>
        <time>2018-06-24T08:14:02Z</time>
      </trkpt>
      <trkpt lat="49.90348" lon="3.6156">
        <ele>101</ele>
        <time>2018-06-24T08:14:10Z</time>
      </trkpt>
      <trkpt lat="49.90371" lon="3.61483">
        <ele>104</ele>
        <time>2018-06-24T08:14:17Z</time>
      </trkpt>
      <trkpt lat="49.90406" lon="3.6141">
        <ele>101</ele>
        <time>2018-06-24T08:14:24Z</time>
      </trkpt>
      <trkpt lat="49.90443" lon="3.61338">
        <ele>99</ele>
        <time>2018-06-24T08:14:31Z</time>
      </trkpt>
      <trkpt lat="49.90482" lon="3.61267">
        <ele>101</ele>
        <time>2018-06-24T08:14:38Z</time>
      </trkpt>
      <trkpt lat="49.90528" lon="3.61206">
        <ele>100</ele>
        <time>2018-06-24T08:14:45Z</time>
      </trkpt>
      <trkpt lat="49.90576" lon="3.61151">
        <ele>101</ele>
        <time>2018-06-24T08:14:52Z</time>
      </trkpt>
      <trkpt lat="49.90623" lon="3.61097">
        <ele>99</ele>
        <time>2018-06-24T08:14:59Z</time>
      </trkpt>
      <trkpt lat="49.90664" lon="3.61034">
        <ele>103</ele>
        <time>2018-06-24T08:15:07Z</time>
      </trkpt>
      <trkpt lat="49.90703" lon="3.60963">
        <ele>104</ele>
        <time>2018-06-24T08:15:15Z</time>
      </trkpt>
      <trkpt lat="49.90743" lon="3.60907">
        <ele>108</ele>
        <time>2018-06-24T08:15:22Z</time>
      </trkpt>
      <trkpt lat="49.90789" lon="3.60851">
        <ele>107</ele>
        <time>2018-06-24T08:15:29Z</time>
      </trkpt>
      <trkpt lat="49.90831" lon="3.60795">
        <ele>112</ele>
        <time>2018-06-24T08:15:36Z</time>
      </trkpt>
      <trkpt lat="49.90874" lon="3.60736">
        <ele>107</ele>
        <time>2018-06-24T08:15:43Z</time>
      </trkpt>
      <trkpt lat="49.90917" lon="3.6068">
        <ele>102</ele>
        <time>2018-06-24T08:15:50Z</time>
      </trkpt>
      <trkpt lat="49.90964" lon="3.60631">
        <ele>105</ele>
        <time>2018-06-24T08:15:57Z</time>
      </trkpt>
      <trkpt lat="49.91012" lon="3.60578">
        <ele>102</ele>
        <time>2018-06-24T08:16:04Z</time>
      </trkpt>
      <trkpt lat="49.91032" lon="3.60537">
        <ele>103</ele>
        <time>2018-06-24T08:16:08Z</time>
      </trkpt>
      <trkpt lat="49.9104" lon="3.60502">
        <ele>104</ele>
        <time>2018-06-24T08:16:11Z</time>
      </trkpt>
      <trkpt lat="49.91039" lon="3.60477">
        <ele>109</ele>
        <time>2018-06-24T08:16:13Z</time>
      </trkpt>
      <trkpt lat="49.91032" lon="3.60445">
        <ele>110</ele>
        <time>2018-06-24T08:16:16Z</time>
      </trkpt>
      <trkpt lat="49.9099" lon="3.60382">
        <ele>116</ele>
        <time>2018-06-24T08:16:24Z</time>
      </trkpt>
      <trkpt lat="49.90941" lon="3.60331">
        <ele>117</ele>
        <time>2018-06-24T08:16:32Z</time>
      </trkpt>
      <trkpt lat="49.90888" lon="3.60301">
        <ele>121</ele>
        <time>2018-06-24T08:16:40Z</time>
      </trkpt>
      <trkpt lat="49.90832" lon="3.6027">
        <ele>121</ele>
        <time>2018-06-24T08:16:49Z</time>
      </trkpt>
      <trkpt lat="49.90779" lon="3.60245">
        <ele>116</ele>
        <time>2018-06-24T08:16:57Z</time>
      </trkpt>
      <trkpt lat="49.90725" lon="3.60228">
        <ele>116</ele>
        <time>2018-06-24T08:17:05Z</time>
      </trkpt>
      <trkpt lat="49.90694" lon="3.60202">
        <ele>116</ele>
        <time>2018-06-24T08:17:10Z</time>
      </trkpt>
      <trkpt lat="49.90684" lon="3.60187">
        <ele>116</ele>
        <time>2018-06-24T08:17:12Z</time>
      </trkpt>
      <trkpt lat="49.90673" lon="3.6016">
        <ele>116</ele>
        <time>2018-06-24T08:17:15Z</time>
      </trkpt>
      <trkpt lat="49.90668" lon="3.60141">
        <ele>116</ele>
        <time>2018-06-24T08:17:17Z</time>
      </trkpt>
      <trkpt lat="49.90653" lon="3.60058">
        <ele>122</ele>
        <time>2018-06-24T08:17:25Z</time>
      </trkpt>
      <trkpt lat="49.90634" lon="3.59974">
        <ele>126</ele>
        <time>2018-06-24T08:17:33Z</time>
      </trkpt>
      <trkpt lat="49.90617" lon="3.59892">
        <ele>129</ele>
        <time>2018-06-24T08:17:41Z</time>
      </trkpt>
      <trkpt lat="49.90599" lon="3.59802">
        <ele>128</ele>
        <time>2018-06-24T08:17:50Z</time>
      </trkpt>
      <trkpt lat="49.90581" lon="3.59716">
        <ele>129</ele>
        <time>2018-06-24T08:17:58Z</time>
      </trkpt>
      <trkpt lat="49.90563" lon="3.59628">
        <ele>130</ele>
        <time>2018-06-24T08:18:06Z</time>
      </trkpt>
      <trkpt lat="49.90559" lon="3.59537">
        <ele>132</ele>
        <time>2018-06-24T08:18:14Z</time>
      </trkpt>
      <trkpt lat="49.90577" lon="3.59454">
        <ele>133</ele>
        <time>2018-06-24T08:18:22Z</time>
      </trkpt>
      <trkpt lat="49.90605" lon="3.59381">
        <ele>136</ele>
        <time>2018-06-24T08:18:30Z</time>
      </trkpt>
      <trkpt lat="49.90646" lon="3.59314">
        <ele>137</ele>
        <time>2018-06-24T08:18:39Z</time>
      </trkpt>
      <trkpt lat="49.90689" lon="3.59252">
        <ele>140</ele>
        <time>2018-06-24T08:18:48Z</time>
      </trkpt>
      <trkpt lat="49.90732" lon="3.5919">
        <ele>143</ele>
        <time>2018-06-24T08:18:57Z</time>
      </trkpt>
      <trkpt lat="49.90775" lon="3.5913">
        <ele>145</ele>
        <time>2018-06-24T08:19:06Z</time>
      </trkpt>
      <trkpt lat="49.90819" lon="3.59069">
        <ele>146</ele>
        <time>2018-06-24T08:19:15Z</time>
      </trkpt>
      <trkpt lat="49.90862" lon="3.59008">
        <ele>148</ele>
        <time>2018-06-24T08:19:24Z</time>
      </trkpt>
      <trkpt lat="49.9091" lon="3.58961">
        <ele>148</ele>
        <time>2018-06-24T08:19:33Z</time>
      </trkpt>
      <trkpt lat="49.90963" lon="3.5892">
        <ele>147</ele>
        <time>2018-06-24T08:19:42Z</time>
      </trkpt>
      <trkpt lat="49.91017" lon="3.58881">
        <ele>147</ele>
        <time>2018-06-24T08:19:51Z</time>
      </trkpt>
      <trkpt lat="49.91066" lon="3.58833">
        <ele>148</ele>
        <time>2018-06-24T08:20:00Z</time>
      </trkpt>
      <trkpt lat="49.91106" lon="3.58772">
        <ele>148</ele>
        <time>2018-06-24T08:20:08Z</time>
      </trkpt>
      <trkpt lat="49.91146" lon="3.58712">
        <ele>147</ele>
        <time>2018-06-24T08:20:17Z</time>
      </trkpt>
      <trkpt lat="49.91188" lon="3.58654">
        <ele>146</ele>
        <time>2018-06-24T08:20:26Z</time>
      </trkpt>
      <trkpt lat="49.91225" lon="3.58581">
        <ele>143</ele>
        <time>2018-06-24T08:20:35Z</time>
      </trkpt>
      <trkpt lat="49.91253" lon="3.58496">
        <ele>142</ele>
        <time>2018-06-24T08:20:43Z</time>
      </trkpt>
      <trkpt lat="49.91279" lon="3.58416">
        <ele>138</ele>
        <time>2018-06-24T08:20:50Z</time>
      </trkpt>
      <trkpt lat="49.91313" lon="3.58341">
        <ele>136</ele>
        <time>2018-06-24T08:20:57Z</time>
      </trkpt>
      <trkpt lat="49.91347" lon="3.58267">
        <ele>133</ele>
        <time>2018-06-24T08:21:04Z</time>
      </trkpt>
      <trkpt lat="49.91382" lon="3.58191">
        <ele>131</ele>
        <time>2018-06-24T08:21:11Z</time>
      </trkpt>
      <trkpt lat="49.91413" lon="3.58114">
        <ele>129</ele>
        <time>2018-06-24T08:21:18Z</time>
      </trkpt>
      <trkpt lat="49.91444" lon="3.58031">
        <ele>129</ele>
        <time>2018-06-24T08:21:25Z</time>
      </trkpt>
      <trkpt lat="49.91476" lon="3.57953">
        <ele>127</ele>
        <time>2018-06-24T08:21:31Z</time>
      </trkpt>
      <trkpt lat="49.91519" lon="3.57885">
        <ele>125</ele>
        <time>2018-06-24T08:21:37Z</time>
      </trkpt>
      <trkpt lat="49.91566" lon="3.57822">
        <ele>121</ele>
        <time>2018-06-24T08:21:43Z</time>
      </trkpt>
      <trkpt lat="49.91613" lon="3.57766">
        <ele>119</ele>
        <time>2018-06-24T08:21:49Z</time>
      </trkpt>
      <trkpt lat="49.91622" lon="3.57759">
        <ele>119</ele>
        <time>2018-06-24T08:21:50Z</time>
      </trkpt>
      <trkpt lat="49.9166" lon="3.57742">
        <ele>117</ele>
        <time>2018-06-24T08:21:54Z</time>
      </trkpt>
      <trkpt lat="49.91719" lon="3.57748">
        <ele>115</ele>
        <time>2018-06-24T08:22:00Z</time>
      </trkpt>
      <trkpt lat="49.91773" lon="3.57759">
        <ele>114</ele>
        <time>2018-06-24T08:22:06Z</time>
      </trkpt>
      <trkpt lat="49.91825" lon="3.57757">
        <ele>110</ele>
        <time>2018-06-24T08:22:18Z</time>
      </trkpt>
      <trkpt lat="49.91828" lon="3.57759">
        <ele>110</ele>
        <time>2018-06-24T08:22:45Z</time>
      </trkpt>
      <trkpt lat="49.91839" lon="3.57768">
        <ele>108</ele>
        <time>2018-06-24T08:22:49Z</time>
      </trkpt>
      <trkpt lat="49.91889" lon="3.57816">
        <ele>108</ele>
        <time>2018-06-24T08:22:58Z</time>
      </trkpt>
      <trkpt lat="49.91944" lon="3.57862">
        <ele>106</ele>
        <time>2018-06-24T08:23:05Z</time>
      </trkpt>
      <trkpt lat="49.91994" lon="3.57902">
        <ele>106</ele>
        <time>2018-06-24T08:23:11Z</time>
      </trkpt>
      <trkpt lat="49.92045" lon="3.57946">
        <ele>105</ele>
        <time>2018-06-24T08:23:17Z</time>
      </trkpt>
      <trkpt lat="49.92097" lon="3.57989">
        <ele>102</ele>
        <time>2018-06-24T08:23:23Z</time>
      </trkpt>
      <trkpt lat="49.9215" lon="3.58028">
        <ele>105</ele>
        <time>2018-06-24T08:23:29Z</time>
      </trkpt>
      <trkpt lat="49.92204" lon="3.58045">
        <ele>101</ele>
        <time>2018-06-24T08:23:34Z</time>
      </trkpt>
      <trkpt lat="49.92264" lon="3.58045">
        <ele>95</ele>
        <time>2018-06-24T08:23:39Z</time>
      </trkpt>
      <trkpt lat="49.92322" lon="3.58019">
        <ele>91</ele>
        <time>2018-06-24T08:23:44Z</time>
      </trkpt>
      <trkpt lat="49.92378" lon="3.5798">
        <ele>87</ele>
        <time>2018-06-24T08:23:49Z</time>
      </trkpt>
      <trkpt lat="49.92429" lon="3.57944">
        <ele>87</ele>
        <time>2018-06-24T08:23:54Z</time>
      </trkpt>
      <trkpt lat="49.92482" lon="3.57908">
        <ele>87</ele>
        <time>2018-06-24T08:24:00Z</time>
      </trkpt>
      <trkpt lat="49.92532" lon="3.57875">
        <ele>86</ele>
        <time>2018-06-24T08:24:05Z</time>
      </trkpt>
      <trkpt lat="49.92583" lon="3.57841">
        <ele>86</ele>
        <time>2018-06-24T08:24:10Z</time>
      </trkpt>
      <trkpt lat="49.92639" lon="3.57805">
        <ele>86</ele>
        <time>2018-06-24T08:24:16Z</time>
      </trkpt>
      <trkpt lat="49.92695" lon="3.57774">
        <ele>86</ele>
        <time>2018-06-24T08:24:22Z</time>
      </trkpt>
      <trkpt lat="49.92751" lon="3.57766">
        <ele>87</ele>
        <time>2018-06-24T08:24:28Z</time>
      </trkpt>
      <trkpt lat="49.92813" lon="3.57767">
        <ele>90</ele>
        <time>2018-06-24T08:24:35Z</time>
      </trkpt>
      <trkpt lat="49.92867" lon="3.5776">
        <ele>93</ele>
        <time>2018-06-24T08:24:42Z</time>
      </trkpt>
      <trkpt lat="49.92881" lon="3.57759">
        <ele>93</ele>
        <time>2018-06-24T08:24:45Z</time>
      </trkpt>
      <trkpt lat="49.9289" lon="3.57768">
        <ele>93</ele>
        <time>2018-06-24T08:24:48Z</time>
      </trkpt>
      <trkpt lat="49.92892" lon="3.57782">
        <ele>93</ele>
        <time>2018-06-24T08:24:50Z</time>
      </trkpt>
      <trkpt lat="49.92906" lon="3.5787">
        <ele>93</ele>
        <time>2018-06-24T08:25:00Z</time>
      </trkpt>
      <trkpt lat="49.92918" lon="3.57912">
        <ele>94</ele>
        <time>2018-06-24T08:25:05Z</time>
      </trkpt>
      <trkpt lat="49.92931" lon="3.57919">
        <ele>95</ele>
        <time>2018-06-24T08:25:08Z</time>
      </trkpt>
      <trkpt lat="49.92986" lon="3.57911">
        <ele>96</ele>
        <time>2018-06-24T08:25:17Z</time>
      </trkpt>
      <trkpt lat="49.93" lon="3.57912">
        <ele>96</ele>
        <time>2018-06-24T08:25:19Z</time>
      </trkpt>
      <trkpt lat="49.93053" lon="3.57946">
        <ele>96</ele>
        <time>2018-06-24T08:25:27Z</time>
      </trkpt>
      <trkpt lat="49.93108" lon="3.57987">
        <ele>97</ele>
        <time>2018-06-24T08:25:35Z</time>
      </trkpt>
      <trkpt lat="49.93159" lon="3.58024">
        <ele>97</ele>
        <time>2018-06-24T08:25:42Z</time>
      </trkpt>
      <trkpt lat="49.93209" lon="3.5806">
        <ele>96</ele>
        <time>2018-06-24T08:25:49Z</time>
      </trkpt>
      <trkpt lat="49.93263" lon="3.58108">
        <ele>94</ele>
        <time>2018-06-24T08:25:56Z</time>
      </trkpt>
      <trkpt lat="49.93312" lon="3.58151">
        <ele>94</ele>
        <time>2018-06-24T08:26:02Z</time>
      </trkpt>
      <trkpt lat="49.93356" lon="3.58189">
        <ele>95</ele>
        <time>2018-06-24T08:26:08Z</time>
      </trkpt>
      <trkpt lat="49.93405" lon="3.58226">
        <ele>96</ele>
        <time>2018-06-24T08:26:15Z</time>
      </trkpt>
      <trkpt lat="49.9346" lon="3.58243">
        <ele>99</ele>
        <time>2018-06-24T08:26:23Z</time>
      </trkpt>
      <trkpt lat="49.93516" lon="3.58247">
        <ele>101</ele>
        <time>2018-06-24T08:26:32Z</time>
      </trkpt>
      <trkpt lat="49.93574" lon="3.58254">
        <ele>102</ele>
        <time>2018-06-24T08:26:42Z</time>
      </trkpt>
      <trkpt lat="49.93628" lon="3.58261">
        <ele>105</ele>
        <time>2018-06-24T08:26:51Z</time>
      </trkpt>
      <trkpt lat="49.93684" lon="3.58276">
        <ele>110</ele>
        <time>2018-06-24T08:27:01Z</time>
      </trkpt>
      <trkpt lat="49.93717" lon="3.5829">
        <ele>111</ele>
        <time>2018-06-24T08:27:08Z</time>
      </trkpt>
      <trkpt lat="49.93767" lon="3.58333">
        <ele>114</ele>
        <time>2018-06-24T08:27:21Z</time>
      </trkpt>
      <trkpt lat="49.93775" lon="3.58332">
        <ele>115</ele>
        <time>2018-06-24T08:27:23Z</time>
      </trkpt>
      <trkpt lat="49.93829" lon="3.58318">
        <ele>117</ele>
        <time>2018-06-24T08:27:35Z</time>
      </trkpt>
      <trkpt lat="49.93884" lon="3.5831">
        <ele>119</ele>
        <time>2018-06-24T08:27:47Z</time>
      </trkpt>
      <trkpt lat="49.93938" lon="3.58294">
        <ele>122</ele>
        <time>2018-06-24T08:27:59Z</time>
      </trkpt>
      <trkpt lat="49.93942" lon="3.58293">
        <ele>122</ele>
        <time>2018-06-24T08:28:00Z</time>
      </trkpt>
      <trkpt lat="49.9395" lon="3.58296">
        <ele>122</ele>
        <time>2018-06-24T08:28:02Z</time>
      </trkpt>
      <trkpt lat="49.93978" lon="3.58356">
        <ele>122</ele>
        <time>2018-06-24T08:28:12Z</time>
      </trkpt>
      <trkpt lat="49.93984" lon="3.58379">
        <ele>122</ele>
        <time>2018-06-24T08:28:15Z</time>
      </trkpt>
      <trkpt lat="49.93996" lon="3.58464">
        <ele>120</ele>
        <time>2018-06-24T08:28:24Z</time>
      </trkpt>
      <trkpt lat="49.94013" lon="3.5855">
        <ele>122</ele>
        <time>2018-06-24T08:28:33Z</time>
      </trkpt>
      <trkpt lat="49.94033" lon="3.58638">
        <ele>120</ele>
        <time>2018-06-24T08:28:42Z</time>
      </trkpt>
      <trkpt lat="49.94053" lon="3.58677">
        <ele>117</ele>
        <time>2018-06-24T08:28:47Z</time>
      </trkpt>
      <trkpt lat="49.94105" lon="3.58719">
        <ele>119</ele>
        <time>2018-06-24T08:28:56Z</time>
      </trkpt>
      <trkpt lat="49.94166" lon="3.5873">
        <ele>117</ele>
        <time>2018-06-24T08:29:05Z</time>
      </trkpt>
      <trkpt lat="49.94222" lon="3.58722">
        <ele>117</ele>
        <time>2018-06-24T08:29:12Z</time>
      </trkpt>
      <trkpt lat="49.94282" lon="3.58712">
        <ele>116</ele>
        <time>2018-06-24T08:29:19Z</time>
      </trkpt>
      <trkpt lat="49.94338" lon="3.58706">
        <ele>114</ele>
        <time>2018-06-24T08:29:25Z</time>
      </trkpt>
      <trkpt lat="49.94395" lon="3.58715">
        <ele>112</ele>
        <time>2018-06-24T08:29:31Z</time>
      </trkpt>
      <trkpt lat="49.94453" lon="3.58733">
        <ele>109</ele>
        <time>2018-06-24T08:29:37Z</time>
      </trkpt>
      <trkpt lat="49.94509" lon="3.58749">
        <ele>107</ele>
        <time>2018-06-24T08:29:43Z</time>
      </trkpt>
      <trkpt lat="49.94569" lon="3.58772">
        <ele>104</ele>
        <time>2018-06-24T08:29:50Z</time>
      </trkpt>
      <trkpt lat="49.9462" lon="3.58808">
        <ele>105</ele>
        <time>2018-06-24T08:29:57Z</time>
      </trkpt>
      <trkpt lat="49.94669" lon="3.58847">
        <ele>108</ele>
        <time>2018-06-24T08:30:05Z</time>
      </trkpt>
      <trkpt lat="49.9472" lon="3.5889">
        <ele>111</ele>
        <time>2018-06-24T08:30:14Z</time>
      </trkpt>
      <trkpt lat="49.94773" lon="3.5893">
        <ele>112</ele>
        <time>2018-06-24T08:30:23Z</time>
      </trkpt>
      <trkpt lat="49.94828" lon="3.5897">
        <ele>113</ele>
        <time>2018-06-24T08:30:32Z</time>
      </trkpt>
      <trkpt lat="49.94879" lon="3.59008">
        <ele>112</ele>
        <time>2018-06-24T08:30:41Z</time>
      </trkpt>
      <trkpt lat="49.94934" lon="3.59048">
        <ele>114</ele>
        <time>2018-06-24T08:30:50Z</time>
      </trkpt>
      <trkpt lat="49.94987" lon="3.59086">
        <ele>112</ele>
        <time>2018-06-24T08:30:58Z</time>
      </trkpt>
      <trkpt lat="49.95037" lon="3.59122">
        <ele>114</ele>
        <time>2018-06-24T08:31:05Z</time>
      </trkpt>
      <trkpt lat="49.95085" lon="3.59168">
        <ele>113</ele>
        <time>2018-06-24T08:31:12Z</time>
      </trkpt>
      <trkpt lat="49.95131" lon="3.59226">
        <ele>114</ele>
        <time>2018-06-24T08:31:20Z</time>
      </trkpt>
      <trkpt lat="49.95177" lon="3.59285">
        <ele>118</ele>
        <time>2018-06-24T08:31:30Z</time>
      </trkpt>
      <trkpt lat="49.95217" lon="3.59348">
        <ele>115</ele>
        <time>2018-06-24T08:31:40Z</time>
      </trkpt>
      <trkpt lat="49.95257" lon="3.59409">
        <ele>119</ele>
        <time>2018-06-24T08:31:50Z</time>
      </trkpt>
      <trkpt lat="49.95303" lon="3.59467">
        <ele>120</ele>
        <time>2018-06-24T08:32:01Z</time>
      </trkpt>
      <trkpt lat="49.95344" lon="3.59524">
        <ele>125</ele>
        <time>2018-06-24T08:32:12Z</time>
      </trkpt>
      <trkpt lat="49.95382" lon="3.5959">
        <ele>123</ele>
        <time>2018-06-24T08:32:23Z</time>
      </trkpt>
      <trkpt lat="49.95419" lon="3.59662">
        <ele>129</ele>
        <time>2018-06-24T08:32:33Z</time>
      </trkpt>
      <trkpt lat="49.95441" lon="3.59711">
        <ele>127</ele>
        <time>2018-06-24T08:32:39Z</time>
      </trkpt>
      <trkpt lat="49.95446" lon="3.5973">
        <ele>127</ele>
        <time>2018-06-24T08:32:41Z</time>
      </trkpt>
      <trkpt lat="49.95449" lon="3.59752">
        <ele>123</ele>
        <time>2018-06-24T08:32:43Z</time>
      </trkpt>
      <trkpt lat="49.95452" lon="3.59819">
        <ele>122</ele>
        <time>2018-06-24T08:32:49Z</time>
      </trkpt>
      <trkpt lat="49.95458" lon="3.59839">
        <ele>120</ele>
        <time>2018-06-24T08:32:51Z</time>
      </trkpt>
      <trkpt lat="49.955" lon="3.59894">
        <ele>122</ele>
        <time>2018-06-24T08:32:59Z</time>
      </trkpt>
      <trkpt lat="49.95537" lon="3.59955">
        <ele>125</ele>
        <time>2018-06-24T08:33:07Z</time>
      </trkpt>
      <trkpt lat="49.95541" lon="3.59964">
        <ele>125</ele>
        <time>2018-06-24T08:33:08Z</time>
      </trkpt>
      <trkpt lat="49.95562" lon="3.60053">
        <ele>123</ele>
        <time>2018-06-24T08:33:16Z</time>
      </trkpt>
      <trkpt lat="49.95582" lon="3.60145">
        <ele>120</ele>
        <time>2018-06-24T08:33:23Z</time>
      </trkpt>
      <trkpt lat="49.95602" lon="3.60231">
        <ele>116</ele>
        <time>2018-06-24T08:33:29Z</time>
      </trkpt>
      <trkpt lat="49.95625" lon="3.60314">
        <ele>114</ele>
        <time>2018-06-24T08:33:35Z</time>
      </trkpt>
      <trkpt lat="49.95649" lon="3.60404">
        <ele>111</ele>
        <time>2018-06-24T08:33:41Z</time>
      </trkpt>
      <trkpt lat="49.95674" lon="3.60484">
        <ele>110</ele>
        <time>2018-06-24T08:33:46Z</time>
      </trkpt>
      <trkpt lat="49.95703" lon="3.6056">
        <ele>107</ele>
        <time>2018-06-24T08:33:51Z</time>
      </trkpt>
      <trkpt lat="49.9573" lon="3.60639">
        <ele>105</ele>
        <time>2018-06-24T08:33:57Z</time>
      </trkpt>
      <trkpt lat="49.95741" lon="3.60673">
        <ele>104</ele>
        <time>2018-06-24T08:34:01Z</time>
      </trkpt>
      <trkpt lat="49.95747" lon="3.60688">
        <ele>103</ele>
        <time>2018-06-24T08:34:07Z</time>
      </trkpt>
      <trkpt lat="49.95788" lon="3.60658">
        <ele>110</ele>
        <time>2018-06-24T08:34:17Z</time>
      </trkpt>
      <trkpt lat="49.95798" lon="3.6066">
        <ele>110</ele>
        <time>2018-06-24T08:34:19Z</time>
      </trkpt>
      <trkpt lat="49.95821" lon="3.60741">
        <ele>107</ele>
        <time>2018-06-24T08:34:27Z</time>
      </trkpt>
      <trkpt lat="49.9584" lon="3.60799">
        <ele>107</ele>
        <time>2018-06-24T08:34:32Z</time>
      </trkpt>
      <trkpt lat="49.95886" lon="3.60859">
        <ele>104</ele>
        <time>2018-06-24T08:34:40Z</time>
      </trkpt>
      <trkpt lat="49.95913" lon="3.60894">
        <ele>104</ele>
        <time>2018-06-24T08:34:45Z</time>
      </trkpt>
      <trkpt lat="49.95927" lon="3.60933">
        <ele>110</ele>
        <time>2018-06-24T08:34:49Z</time>
      </trkpt>
      <trkpt lat="49.95928" lon="3.60957">
        <ele>112</ele>
        <time>2018-06-24T08:34:51Z</time>
      </trkpt>
      <trkpt lat="49.9593" lon="3.61047">
        <ele>113</ele>
        <time>2018-06-24T08:34:59Z</time>
      </trkpt>
      <trkpt lat="49.95931" lon="3.61136">
        <ele>111</ele>
        <time>2018-06-24T08:35:07Z</time>
      </trkpt>
      <trkpt lat="49.95925" lon="3.6122">
        <ele>110</ele>
        <time>2018-06-24T08:35:14Z</time>
      </trkpt>
      <trkpt lat="49.95913" lon="3.61302">
        <ele>105</ele>
        <time>2018-06-24T08:35:21Z</time>
      </trkpt>
      <trkpt lat="49.95917" lon="3.61348">
        <ele>108</ele>
        <time>2018-06-24T08:35:25Z</time>
      </trkpt>
      <trkpt lat="49.95949" lon="3.61426">
        <ele>109</ele>
        <time>2018-06-24T08:35:33Z</time>
      </trkpt>
      <trkpt lat="49.95993" lon="3.61484">
        <ele>109</ele>
        <time>2018-06-24T08:35:41Z</time>
      </trkpt>
      <trkpt lat="49.96042" lon="3.6154">
        <ele>109</ele>
        <time>2018-06-24T08:35:49Z</time>
      </trkpt>
      <trkpt lat="49.96054" lon="3.6155">
        <ele>109</ele>
        <time>2018-06-24T08:35:51Z</time>
      </trkpt>
      <trkpt lat="49.96109" lon="3.6157">
        <ele>111</ele>
        <time>2018-06-24T08:35:59Z</time>
      </trkpt>
      <trkpt lat="49.96165" lon="3.61577">
        <ele>110</ele>
        <time>2018-06-24T08:36:07Z</time>
      </trkpt>
      <trkpt lat="49.96224" lon="3.61585">
        <ele>110</ele>
        <time>2018-06-24T08:36:15Z</time>
      </trkpt>
      <trkpt lat="49.96278" lon="3.61593">
        <ele>111</ele>
        <time>2018-06-24T08:36:23Z</time>
      </trkpt>
      <trkpt lat="49.96335" lon="3.61589">
        <ele>114</ele>
        <time>2018-06-24T08:36:31Z</time>
      </trkpt>
      <trkpt lat="49.96392" lon="3.61576">
        <ele>117</ele>
        <time>2018-06-24T08:36:40Z</time>
      </trkpt>
      <trkpt lat="49.96452" lon="3.61574">
        <ele>118</ele>
        <time>2018-06-24T08:36:49Z</time>
      </trkpt>
      <trkpt lat="49.96512" lon="3.61582">
        <ele>118</ele>
        <time>2018-06-24T08:36:57Z</time>
      </trkpt>
      <trkpt lat="49.96567" lon="3.61587">
        <ele>113</ele>
        <time>2018-06-24T08:37:04Z</time>
      </trkpt>
      <trkpt lat="49.96623" lon="3.61603">
        <ele>111</ele>
        <time>2018-06-24T08:37:11Z</time>
      </trkpt>
      <trkpt lat="49.96673" lon="3.61657">
        <ele>107</ele>
        <time>2018-06-24T08:37:19Z</time>
      </trkpt>
      <trkpt lat="49.96713" lon="3.61718">
        <ele>106</ele>
        <time>2018-06-24T08:37:27Z</time>
      </trkpt>
      <trkpt lat="49.96752" lon="3.61779">
        <ele>108</ele>
        <time>2018-06-24T08:37:35Z</time>
      </trkpt>
      <trkpt lat="49.96795" lon="3.61845">
        <ele>108</ele>
        <time>2018-06-24T08:37:44Z</time>
      </trkpt>
      <trkpt lat="49.96833" lon="3.61905">
        <ele>109</ele>
        <time>2018-06-24T08:37:52Z</time>
      </trkpt>
      <trkpt lat="49.9686" lon="3.61943">
        <ele>112</ele>
        <time>2018-06-24T08:37:57Z</time>
      </trkpt>
      <trkpt lat="49.96912" lon="3.61991">
        <ele>112</ele>
        <time>2018-06-24T08:38:05Z</time>
      </trkpt>
      <trkpt lat="49.9696" lon="3.62043">
        <ele>113</ele>
        <time>2018-06-24T08:38:13Z</time>
      </trkpt>
      <trkpt lat="49.96991" lon="3.62122">
        <ele>110</ele>
        <time>2018-06-24T08:38:22Z</time>
      </trkpt>
      <trkpt lat="49.97026" lon="3.62191">
        <ele>112</ele>
        <time>2018-06-24T08:38:30Z</time>
      </trkpt>
      <trkpt lat="49.97048" lon="3.62269">
        <ele>110</ele>
        <time>2018-06-24T08:38:39Z</time>
      </trkpt>
      <trkpt lat="49.97081" lon="3.62341">
        <ele>109</ele>
        <time>2018-06-24T08:38:47Z</time>
      </trkpt>
      <trkpt lat="49.9713" lon="3.62392">
        <ele>110</ele>
        <time>2018-06-24T08:38:55Z</time>
      </trkpt>
      <trkpt lat="49.97186" lon="3.62424">
        <ele>110</ele>
        <time>2018-06-24T08:39:03Z</time>
      </trkpt>
      <trkpt lat="49.97241" lon="3.62453">
        <ele>112</ele>
        <time>2018-06-24T08:39:11Z</time>
      </trkpt>
      <trkpt lat="49.97291" lon="3.62479">
        <ele>113</ele>
        <time>2018-06-24T08:39:19Z</time>
      </trkpt>
      <trkpt lat="49.97302" lon="3.62492">
        <ele>113</ele>
        <time>2018-06-24T08:39:25Z</time>
      </trkpt>
      <trkpt lat="49.97309" lon="3.62493">
        <ele>113</ele>
        <time>2018-06-24T08:40:27Z</time>
      </trkpt>
      <trkpt lat="49.97335" lon="3.62497">
        <ele>112</ele>
        <time>2018-06-24T08:40:33Z</time>
      </trkpt>
      <trkpt lat="49.97378" lon="3.62552">
        <ele>113</ele>
        <time>2018-06-24T08:40:43Z</time>
      </trkpt>
      <trkpt lat="49.97411" lon="3.62622">
        <ele>112</ele>
        <time>2018-06-24T08:40:51Z</time>
      </trkpt>
      <trkpt lat="49.9745" lon="3.62688">
        <ele>115</ele>
        <time>2018-06-24T08:40:59Z</time>
      </trkpt>
      <trkpt lat="49.97495" lon="3.62744">
        <ele>116</ele>
        <time>2018-06-24T08:41:07Z</time>
      </trkpt>
      <trkpt lat="49.97543" lon="3.62797">
        <ele>118</ele>
        <time>2018-06-24T08:41:16Z</time>
      </trkpt>
      <trkpt lat="49.97593" lon="3.62849">
        <ele>119</ele>
        <time>2018-06-24T08:41:25Z</time>
      </trkpt>
      <trkpt lat="49.97641" lon="3.62906">
        <ele>118</ele>
        <time>2018-06-24T08:41:33Z</time>
      </trkpt>
      <trkpt lat="49.97688" lon="3.62959">
        <ele>119</ele>
        <time>2018-06-24T08:41:40Z</time>
      </trkpt>
      <trkpt lat="49.97733" lon="3.63012">
        <ele>119</ele>
        <time>2018-06-24T08:41:47Z</time>
      </trkpt>
      <trkpt lat="49.97744" lon="3.63031">
        <ele>119</ele>
        <time>2018-06-24T08:41:48Z</time>
      </trkpt>
      <trkpt lat="49.97753" lon="3.63051">
        <ele>124</ele>
        <time>2018-06-24T08:41:51Z</time>
      </trkpt>
      <trkpt lat="49.97775" lon="3.6314">
        <ele>120</ele>
        <time>2018-06-24T08:41:59Z</time>
      </trkpt>
      <trkpt lat="49.97811" lon="3.63215">
        <ele>116</ele>
        <time>2018-06-24T08:42:07Z</time>
      </trkpt>
      <trkpt lat="49.97858" lon="3.63267">
        <ele>115</ele>
        <time>2018-06-24T08:42:15Z</time>
      </trkpt>
      <trkpt lat="49.97902" lon="3.63331">
        <ele>116</ele>
        <time>2018-06-24T08:42:23Z</time>
      </trkpt>
      <trkpt lat="49.97933" lon="3.6341">
        <ele>119</ele>
        <time>2018-06-24T08:42:31Z</time>
      </trkpt>
      <trkpt lat="49.97963" lon="3.63485">
        <ele>118</ele>
        <time>2018-06-24T08:42:39Z</time>
      </trkpt>
      <trkpt lat="49.97973" lon="3.635">
        <ele>118</ele>
        <time>2018-06-24T08:42:41Z</time>
      </trkpt>
      <trkpt lat="49.97985" lon="3.63511">
        <ele>116</ele>
        <time>2018-06-24T08:42:43Z</time>
      </trkpt>
      <trkpt lat="49.98037" lon="3.63538">
        <ele>119</ele>
        <time>2018-06-24T08:42:51Z</time>
      </trkpt>
      <trkpt lat="49.9809" lon="3.6357">
        <ele>122</ele>
        <time>2018-06-24T08:42:59Z</time>
      </trkpt>
      <trkpt lat="49.98102" lon="3.63583">
        <ele>123</ele>
        <time>2018-06-24T08:43:00Z</time>
      </trkpt>
      <trkpt lat="49.98147" lon="3.63643">
        <ele>120</ele>
        <time>2018-06-24T08:43:09Z</time>
      </trkpt>
      <trkpt lat="49.98187" lon="3.63702">
        <ele>119</ele>
        <time>2018-06-24T08:43:17Z</time>
      </trkpt>
      <trkpt lat="49.98239" lon="3.63743">
        <ele>119</ele>
        <time>2018-06-24T08:43:25Z</time>
      </trkpt>
      <trkpt lat="49.98296" lon="3.63772">
        <ele>117</ele>
        <time>2018-06-24T08:43:33Z</time>
      </trkpt>
      <trkpt lat="49.98352" lon="3.63799">
        <ele>117</ele>
        <time>2018-06-24T08:43:41Z</time>
      </trkpt>
      <trkpt lat="49.98407" lon="3.63831">
        <ele>118</ele>
        <time>2018-06-24T08:43:49Z</time>
      </trkpt>
      <trkpt lat="49.98451" lon="3.63882">
        <ele>119</ele>
        <time>2018-06-24T08:43:57Z</time>
      </trkpt>
      <trkpt lat="49.98493" lon="3.63937">
        <ele>119</ele>
        <time>2018-06-24T08:44:05Z</time>
      </trkpt>
      <trkpt lat="49.98541" lon="3.63985">
        <ele>120</ele>
        <time>2018-06-24T08:44:14Z</time>
      </trkpt>
      <trkpt lat="49.98594" lon="3.64019">
        <ele>120</ele>
        <time>2018-06-24T08:44:23Z</time>
      </trkpt>
      <trkpt lat="49.98644" lon="3.64069">
        <ele>120</ele>
        <time>2018-06-24T08:44:32Z</time>
      </trkpt>
      <trkpt lat="49.98691" lon="3.64122">
        <ele>120</ele>
        <time>2018-06-24T08:44:41Z</time>
      </trkpt>
      <trkpt lat="49.98735" lon="3.64171">
        <ele>120</ele>
        <time>2018-06-24T08:44:50Z</time>
      </trkpt>
      <trkpt lat="49.98783" lon="3.6422">
        <ele>124</ele>
        <time>2018-06-24T08:45:01Z</time>
      </trkpt>
      <trkpt lat="49.9883" lon="3.6427">
        <ele>127</ele>
        <time>2018-06-24T08:45:13Z</time>
      </trkpt>
      <trkpt lat="49.98859" lon="3.64304">
        <ele>130</ele>
        <time>2018-06-24T08:45:21Z</time>
      </trkpt>
      <trkpt lat="49.98891" lon="3.64379">
        <ele>131</ele>
        <time>2018-06-24T08:45:34Z</time>
      </trkpt>
      <trkpt lat="49.9892" lon="3.64454">
        <ele>131</ele>
        <time>2018-06-24T08:45:44Z</time>
      </trkpt>
      <trkpt lat="49.98949" lon="3.64538">
        <ele>128</ele>
        <time>2018-06-24T08:45:53Z</time>
      </trkpt>
      <trkpt lat="49.98972" lon="3.64616">
        <ele>127</ele>
        <time>2018-06-24T08:46:01Z</time>
      </trkpt>
      <trkpt lat="49.99001" lon="3.64695">
        <ele>128</ele>
        <time>2018-06-24T08:46:09Z</time>
      </trkpt>
      <trkpt lat="49.9901" lon="3.64714">
        <ele>128</ele>
        <time>2018-06-24T08:46:11Z</time>
      </trkpt>
      <trkpt lat="49.99056" lon="3.64768">
        <ele>124</ele>
        <time>2018-06-24T08:46:18Z</time>
      </trkpt>
      <trkpt lat="49.99103" lon="3.64815">
        <ele>123</ele>
        <time>2018-06-24T08:46:24Z</time>
      </trkpt>
      <trkpt lat="49.99134" lon="3.64849">
        <ele>122</ele>
        <time>2018-06-24T08:46:28Z</time>
      </trkpt>
      <trkpt lat="49.99142" lon="3.64873">
        <ele>122</ele>
        <time>2018-06-24T08:46:30Z</time>
      </trkpt>
      <trkpt lat="49.99152" lon="3.64957">
        <ele>124</ele>
        <time>2018-06-24T08:46:37Z</time>
      </trkpt>
      <trkpt lat="49.99167" lon="3.65042">
        <ele>129</ele>
        <time>2018-06-24T08:46:45Z</time>
      </trkpt>
      <trkpt lat="49.99171" lon="3.65128">
        <ele>129</ele>
        <time>2018-06-24T08:46:53Z</time>
      </trkpt>
      <trkpt lat="49.99181" lon="3.65213">
        <ele>129</ele>
        <time>2018-06-24T08:47:01Z</time>
      </trkpt>
      <trkpt lat="49.99191" lon="3.65299">
        <ele>128</ele>
        <time>2018-06-24T08:47:09Z</time>
      </trkpt>
      <trkpt lat="49.99199" lon="3.65368">
        <ele>126</ele>
        <time>2018-06-24T08:47:15Z</time>
      </trkpt>
      <trkpt lat="49.99199" lon="3.65403">
        <ele>126</ele>
        <time>2018-06-24T08:47:18Z</time>
      </trkpt>
      <trkpt lat="49.99201" lon="3.65425">
        <ele>125</ele>
        <time>2018-06-24T08:47:20Z</time>
      </trkpt>
      <trkpt lat="49.99212" lon="3.65469">
        <ele>125</ele>
        <time>2018-06-24T08:47:30Z</time>
      </trkpt>
      <trkpt lat="49.99213" lon="3.65474">
        <ele>125</ele>
        <time>2018-06-24T08:47:39Z</time>
      </trkpt>
      <trkpt lat="49.9922" lon="3.65486">
        <ele>125</ele>
        <time>2018-06-24T08:47:43Z</time>
      </trkpt>
      <trkpt lat="49.99233" lon="3.65494">
        <ele>125</ele>
        <time>2018-06-24T08:47:46Z</time>
      </trkpt>
      <trkpt lat="49.99282" lon="3.65545">
        <ele>128</ele>
        <time>2018-06-24T08:47:55Z</time>
      </trkpt>
      <trkpt lat="49.99331" lon="3.65591">
        <ele>130</ele>
        <time>2018-06-24T08:48:04Z</time>
      </trkpt>
      <trkpt lat="49.99379" lon="3.65637">
        <ele>132</ele>
        <time>2018-06-24T08:48:14Z</time>
      </trkpt>
      <trkpt lat="49.99435" lon="3.65668">
        <ele>134</ele>
        <time>2018-06-24T08:48:24Z</time>
      </trkpt>
      <trkpt lat="49.99493" lon="3.65692">
        <ele>135</ele>
        <time>2018-06-24T08:48:34Z</time>
      </trkpt>
      <trkpt lat="49.99547" lon="3.65713">
        <ele>138</ele>
        <time>2018-06-24T08:48:44Z</time>
      </trkpt>
      <trkpt lat="49.99586" lon="3.65732">
        <ele>140</ele>
        <time>2018-06-24T08:48:52Z</time>
      </trkpt>
      <trkpt lat="49.99594" lon="3.65744">
        <ele>140</ele>
        <time>2018-06-24T08:48:54Z</time>
      </trkpt>
      <trkpt lat="49.9961" lon="3.65824">
        <ele>140</ele>
        <time>2018-06-24T08:49:03Z</time>
      </trkpt>
      <trkpt lat="49.99624" lon="3.65908">
        <ele>140</ele>
        <time>2018-06-24T08:49:12Z</time>
      </trkpt>
      <trkpt lat="49.99637" lon="3.65995">
        <ele>140</ele>
        <time>2018-06-24T08:49:21Z</time>
      </trkpt>
      <trkpt lat="49.99652" lon="3.66083">
        <ele>139</ele>
        <time>2018-06-24T08:49:30Z</time>
      </trkpt>
      <trkpt lat="49.99662" lon="3.66172">
        <ele>138</ele>
        <time>2018-06-24T08:49:38Z</time>
      </trkpt>
      <trkpt lat="49.99675" lon="3.66263">
        <ele>139</ele>
        <time>2018-06-24T08:49:46Z</time>
      </trkpt>
      <trkpt lat="49.99687" lon="3.66353">
        <ele>136</ele>
        <time>2018-06-24T08:49:54Z</time>
      </trkpt>
      <trkpt lat="49.99698" lon="3.66445">
        <ele>133</ele>
        <time>2018-06-24T08:50:02Z</time>
      </trkpt>
      <trkpt lat="49.9971" lon="3.66535">
        <ele>132</ele>
        <time>2018-06-24T08:50:10Z</time>
      </trkpt>
      <trkpt lat="49.99723" lon="3.66629">
        <ele>132</ele>
        <time>2018-06-24T08:50:18Z</time>
      </trkpt>
      <trkpt lat="49.99735" lon="3.66714">
        <ele>132</ele>
        <time>2018-06-24T08:50:25Z</time>
      </trkpt>
      <trkpt lat="49.99748" lon="3.66805">
        <ele>133</ele>
        <time>2018-06-24T08:50:33Z</time>
      </trkpt>
      <trkpt lat="49.9977" lon="3.66888">
        <ele>135</ele>
        <time>2018-06-24T08:50:41Z</time>
      </trkpt>
      <trkpt lat="49.99793" lon="3.66969">
        <ele>136</ele>
        <time>2018-06-24T08:50:49Z</time>
      </trkpt>
      <trkpt lat="49.99803" lon="3.67058">
        <ele>137</ele>
        <time>2018-06-24T08:50:57Z</time>
      </trkpt>
      <trkpt lat="49.99807" lon="3.67152">
        <ele>137</ele>
        <time>2018-06-24T08:51:05Z</time>
      </trkpt>
      <trkpt lat="49.99811" lon="3.67246">
        <ele>137</ele>
        <time>2018-06-24T08:51:13Z</time>
      </trkpt>
      <trkpt lat="49.99816" lon="3.67338">
        <ele>138</ele>
        <time>2018-06-24T08:51:21Z</time>
      </trkpt>
      <trkpt lat="49.99822" lon="3.67432">
        <ele>138</ele>
        <time>2018-06-24T08:51:29Z</time>
      </trkpt>
      <trkpt lat="49.99829" lon="3.67526">
        <ele>138</ele>
        <time>2018-06-24T08:51:37Z</time>
      </trkpt>
      <trkpt lat="49.99845" lon="3.67616">
        <ele>139</ele>
        <time>2018-06-24T08:51:45Z</time>
      </trkpt>
      <trkpt lat="49.99867" lon="3.67703">
        <ele>140</ele>
        <time>2018-06-24T08:51:53Z</time>
      </trkpt>
      <trkpt lat="49.99906" lon="3.67777">
        <ele>140</ele>
        <time>2018-06-24T08:52:01Z</time>
      </trkpt>
      <trkpt lat="49.99944" lon="3.67837">
        <ele>140</ele>
        <time>2018-06-24T08:52:08Z</time>
      </trkpt>
      <trkpt lat="49.99982" lon="3.67899">
        <ele>140</ele>
        <time>2018-06-24T08:52:15Z</time>
      </trkpt>
      <trkpt lat="50.00021" lon="3.6797">
        <ele>139</ele>
        <time>2018-06-24T08:52:23Z</time>
      </trkpt>
      <trkpt lat="50.00057" lon="3.6804">
        <ele>138</ele>
        <time>2018-06-24T08:52:31Z</time>
      </trkpt>
      <trkpt lat="50.00094" lon="3.68103">
        <ele>138</ele>
        <time>2018-06-24T08:52:43Z</time>
      </trkpt>
      <trkpt lat="50.00135" lon="3.68165">
        <ele>138</ele>
        <time>2018-06-24T08:52:52Z</time>
      </trkpt>
      <trkpt lat="50.00184" lon="3.68218">
        <ele>138</ele>
        <time>2018-06-24T08:53:00Z</time>
      </trkpt>
      <trkpt lat="50.00238" lon="3.68255">
        <ele>139</ele>
        <time>2018-06-24T08:53:08Z</time>
      </trkpt>
      <trkpt lat="50.00285" lon="3.68302">
        <ele>140</ele>
        <time>2018-06-24T08:53:16Z</time>
      </trkpt>
      <trkpt lat="50.00331" lon="3.68349">
        <ele>141</ele>
        <time>2018-06-24T08:53:24Z</time>
      </trkpt>
      <trkpt lat="50.00376" lon="3.68397">
        <ele>142</ele>
        <time>2018-06-24T08:53:32Z</time>
      </trkpt>
      <trkpt lat="50.00421" lon="3.68447">
        <ele>145</ele>
        <time>2018-06-24T08:53:40Z</time>
      </trkpt>
      <trkpt lat="50.00471" lon="3.685">
        <ele>146</ele>
        <time>2018-06-24T08:53:49Z</time>
      </trkpt>
      <trkpt lat="50.00518" lon="3.68546">
        <ele>147</ele>
        <time>2018-06-24T08:53:57Z</time>
      </trkpt>
      <trkpt lat="50.00569" lon="3.68591">
        <ele>148</ele>
        <time>2018-06-24T08:54:06Z</time>
      </trkpt>
      <trkpt lat="50.00617" lon="3.68631">
        <ele>149</ele>
        <time>2018-06-24T08:54:14Z</time>
      </trkpt>
      <trkpt lat="50.00641" lon="3.68657">
        <ele>150</ele>
        <time>2018-06-24T08:54:18Z</time>
      </trkpt>
      <trkpt lat="50.0065" lon="3.68676">
        <ele>150</ele>
        <time>2018-06-24T08:54:20Z</time>
      </trkpt>
      <trkpt lat="50.00668" lon="3.68767">
        <ele>149</ele>
        <time>2018-06-24T08:54:28Z</time>
      </trkpt>
      <trkpt lat="50.00672" lon="3.68857">
        <ele>149</ele>
        <time>2018-06-24T08:54:35Z</time>
      </trkpt>
      <trkpt lat="50.00676" lon="3.68953">
        <ele>149</ele>
        <time>2018-06-24T08:54:42Z</time>
      </trkpt>
      <trkpt lat="50.00679" lon="3.69037">
        <ele>149</ele>
        <time>2018-06-24T08:54:48Z</time>
      </trkpt>
      <trkpt lat="50.00683" lon="3.69119">
        <ele>149</ele>
        <time>2018-06-24T08:54:54Z</time>
      </trkpt>
      <trkpt lat="50.00693" lon="3.69157">
        <ele>148</ele>
        <time>2018-06-24T08:54:57Z</time>
      </trkpt>
      <trkpt lat="50.00732" lon="3.69231">
        <ele>149</ele>
        <time>2018-06-24T08:55:04Z</time>
      </trkpt>
      <trkpt lat="50.00741" lon="3.69264">
        <ele>150</ele>
        <time>2018-06-24T08:55:07Z</time>
      </trkpt>
      <trkpt lat="50.00747" lon="3.69353">
        <ele>151</ele>
        <time>2018-06-24T08:55:15Z</time>
      </trkpt>
      <trkpt lat="50.00746" lon="3.69371">
        <ele>151</ele>
        <time>2018-06-24T08:55:16Z</time>
      </trkpt>
      <trkpt lat="50.00742" lon="3.69389">
        <ele>151</ele>
        <time>2018-06-24T08:55:21Z</time>
      </trkpt>
      <trkpt lat="50.00753" lon="3.69403">
        <ele>151</ele>
        <time>2018-06-24T08:55:25Z</time>
      </trkpt>
      <trkpt lat="50.00809" lon="3.69442">
        <ele>151</ele>
        <time>2018-06-24T08:55:35Z</time>
      </trkpt>
      <trkpt lat="50.00866" lon="3.69472">
        <ele>149</ele>
        <time>2018-06-24T08:55:43Z</time>
      </trkpt>
      <trkpt lat="50.00926" lon="3.69478">
        <ele>146</ele>
        <time>2018-06-24T08:55:51Z</time>
      </trkpt>
      <trkpt lat="50.00988" lon="3.69478">
        <ele>146</ele>
        <time>2018-06-24T08:55:59Z</time>
      </trkpt>
      <trkpt lat="50.01019" lon="3.69484">
        <ele>146</ele>
        <time>2018-06-24T08:56:03Z</time>
      </trkpt>
      <trkpt lat="50.01069" lon="3.69527">
        <ele>145</ele>
        <time>2018-06-24T08:56:10Z</time>
      </trkpt>
      <trkpt lat="50.01086" lon="3.69546">
        <ele>146</ele>
        <time>2018-06-24T08:56:13Z</time>
      </trkpt>
      <trkpt lat="50.01096" lon="3.69557">
        <ele>146</ele>
        <time>2018-06-24T08:56:15Z</time>
      </trkpt>
      <trkpt lat="50.01107" lon="3.69555">
        <ele>146</ele>
        <time>2018-06-24T08:56:17Z</time>
      </trkpt>
      <trkpt lat="50.01162" lon="3.69534">
        <ele>146</ele>
        <time>2018-06-24T08:56:26Z</time>
      </trkpt>
      <trkpt lat="50.01222" lon="3.69532">
        <ele>149</ele>
        <time>2018-06-24T08:56:36Z</time>
      </trkpt>
      <trkpt lat="50.01265" lon="3.6953">
        <ele>151</ele>
        <time>2018-06-24T08:56:44Z</time>
      </trkpt>
      <trkpt lat="50.01276" lon="3.69517">
        <ele>151</ele>
        <time>2018-06-24T08:56:47Z</time>
      </trkpt>
      <trkpt lat="50.01278" lon="3.69502">
        <ele>151</ele>
        <time>2018-06-24T08:56:49Z</time>
      </trkpt>
      <trkpt lat="50.01283" lon="3.69423">
        <ele>151</ele>
        <time>2018-06-24T08:56:58Z</time>
      </trkpt>
      <trkpt lat="50.01293" lon="3.69401">
        <ele>152</ele>
        <time>2018-06-24T08:57:01Z</time>
      </trkpt>
      <trkpt lat="50.01303" lon="3.69392">
        <ele>152</ele>
        <time>2018-06-24T08:57:03Z</time>
      </trkpt>
      <trkpt lat="50.01358" lon="3.69374">
        <ele>154</ele>
        <time>2018-06-24T08:57:13Z</time>
      </trkpt>
      <trkpt lat="50.01413" lon="3.69364">
        <ele>154</ele>
        <time>2018-06-24T08:57:23Z</time>
      </trkpt>
      <trkpt lat="50.01468" lon="3.69353">
        <ele>156</ele>
        <time>2018-06-24T08:57:33Z</time>
      </trkpt>
      <trkpt lat="50.01521" lon="3.69336">
        <ele>157</ele>
        <time>2018-06-24T08:57:43Z</time>
      </trkpt>
      <trkpt lat="50.01578" lon="3.69315">
        <ele>157</ele>
        <time>2018-06-24T08:57:53Z</time>
      </trkpt>
      <trkpt lat="50.01633" lon="3.69296">
        <ele>156</ele>
        <time>2018-06-24T08:58:02Z</time>
      </trkpt>
      <trkpt lat="50.01692" lon="3.69281">
        <ele>155</ele>
        <time>2018-06-24T08:58:11Z</time>
      </trkpt>
      <trkpt lat="50.01748" lon="3.69268">
        <ele>154</ele>
        <time>2018-06-24T08:58:19Z</time>
      </trkpt>
      <trkpt lat="50.01806" lon="3.69255">
        <ele>152</ele>
        <time>2018-06-24T08:58:27Z</time>
      </trkpt>
      <trkpt lat="50.01866" lon="3.69237">
        <ele>150</ele>
        <time>2018-06-24T08:58:35Z</time>
      </trkpt>
      <trkpt lat="50.01923" lon="3.69207">
        <ele>150</ele>
        <time>2018-06-24T08:58:43Z</time>
      </trkpt>
      <trkpt lat="50.01975" lon="3.69165">
        <ele>150</ele>
        <time>2018-06-24T08:58:51Z</time>
      </trkpt>
      <trkpt lat="50.0202" lon="3.69111">
        <ele>151</ele>
        <time>2018-06-24T08:58:59Z</time>
      </trkpt>
      <trkpt lat="50.02064" lon="3.69046">
        <ele>150</ele>
        <time>2018-06-24T08:59:07Z</time>
      </trkpt>
      <trkpt lat="50.02102" lon="3.68971">
        <ele>149</ele>
        <time>2018-06-24T08:59:15Z</time>
      </trkpt>
      <trkpt lat="50.02134" lon="3.68901">
        <ele>148</ele>
        <time>2018-06-24T08:59:22Z</time>
      </trkpt>
      <trkpt lat="50.0217" lon="3.68827">
        <ele>146</ele>
        <time>2018-06-24T08:59:29Z</time>
      </trkpt>
      <trkpt lat="50.02217" lon="3.68769">
        <ele>144</ele>
        <time>2018-06-24T08:59:36Z</time>
      </trkpt>
      <trkpt lat="50.02232" lon="3.68758">
        <ele>144</ele>
        <time>2018-06-24T08:59:37Z</time>
      </trkpt>
      <trkpt lat="50.02285" lon="3.68737">
        <ele>142</ele>
        <time>2018-06-24T08:59:45Z</time>
      </trkpt>
      <trkpt lat="50.02339" lon="3.68717">
        <ele>141</ele>
        <time>2018-06-24T08:59:52Z</time>
      </trkpt>
      <trkpt lat="50.02369" lon="3.68704">
        <ele>141</ele>
        <time>2018-06-24T08:59:56Z</time>
      </trkpt>
      <trkpt lat="50.02389" lon="3.68686">
        <ele>141</ele>
        <time>2018-06-24T08:59:59Z</time>
      </trkpt>
      <trkpt lat="50.024" lon="3.68669">
        <ele>141</ele>
        <time>2018-06-24T09:00:01Z</time>
      </trkpt>
      <trkpt lat="50.02427" lon="3.68594">
        <ele>140</ele>
        <time>2018-06-24T09:00:08Z</time>
      </trkpt>
      <trkpt lat="50.02449" lon="3.68514">
        <ele>140</ele>
        <time>2018-06-24T09:00:15Z</time>
      </trkpt>
      <trkpt lat="50.02465" lon="3.6843">
        <ele>140</ele>
        <time>2018-06-24T09:00:22Z</time>
      </trkpt>
      <trkpt lat="50.02479" lon="3.68349">
        <ele>141</ele>
        <time>2018-06-24T09:00:29Z</time>
      </trkpt>
      <trkpt lat="50.02494" lon="3.68268">
        <ele>140</ele>
        <time>2018-06-24T09:00:36Z</time>
      </trkpt>
      <trkpt lat="50.0251" lon="3.68187">
        <ele>139</ele>
        <time>2018-06-24T09:00:43Z</time>
      </trkpt>
      <trkpt lat="50.02528" lon="3.68097">
        <ele>140</ele>
        <time>2018-06-24T09:00:51Z</time>
      </trkpt>
      <trkpt lat="50.02545" lon="3.68007">
        <ele>141</ele>
        <time>2018-06-24T09:00:59Z</time>
      </trkpt>
      <trkpt lat="50.02562" lon="3.67919">
        <ele>140</ele>
        <time>2018-06-24T09:01:07Z</time>
      </trkpt>
      <trkpt lat="50.02564" lon="3.67897">
        <ele>140</ele>
        <time>2018-06-24T09:01:08Z</time>
      </trkpt>
      <trkpt lat="50.02564" lon="3.67885">
        <ele>140</ele>
        <time>2018-06-24T09:01:10Z</time>
      </trkpt>
      <trkpt lat="50.02559" lon="3.67862">
        <ele>140</ele>
        <time>2018-06-24T09:01:12Z</time>
      </trkpt>
      <trkpt lat="50.02549" lon="3.67829">
        <ele>140</ele>
        <time>2018-06-24T09:01:15Z</time>
      </trkpt>
      <trkpt lat="50.02547" lon="3.67808">
        <ele>140</ele>
        <time>2018-06-24T09:01:17Z</time>
      </trkpt>
      <trkpt lat="50.0256" lon="3.6778">
        <ele>140</ele>
        <time>2018-06-24T09:01:23Z</time>
      </trkpt>
      <trkpt lat="50.02567" lon="3.67782">
        <ele>140</ele>
        <time>2018-06-24T09:01:25Z</time>
      </trkpt>
      <trkpt lat="50.02591" lon="3.67799">
        <ele>140</ele>
        <time>2018-06-24T09:01:30Z</time>
      </trkpt>
      <trkpt lat="50.02644" lon="3.67819">
        <ele>140</ele>
        <time>2018-06-24T09:01:38Z</time>
      </trkpt>
      <trkpt lat="50.02699" lon="3.67838">
        <ele>141</ele>
        <time>2018-06-24T09:01:47Z</time>
      </trkpt>
      <trkpt lat="50.02755" lon="3.67859">
        <ele>143</ele>
        <time>2018-06-24T09:01:56Z</time>
      </trkpt>
      <trkpt lat="50.02811" lon="3.67879">
        <ele>143</ele>
        <time>2018-06-24T09:02:05Z</time>
      </trkpt>
      <trkpt lat="50.02867" lon="3.67899">
        <ele>144</ele>
        <time>2018-06-24T09:02:14Z</time>
      </trkpt>
      <trkpt lat="50.02924" lon="3.67918">
        <ele>145</ele>
        <time>2018-06-24T09:02:23Z</time>
      </trkpt>
      <trkpt lat="50.02979" lon="3.67934">
        <ele>145</ele>
        <time>2018-06-24T09:02:31Z</time>
      </trkpt>
      <trkpt lat="50.03037" lon="3.6795">
        <ele>145</ele>
        <time>2018-06-24T09:02:39Z</time>
      </trkpt>
      <trkpt lat="50.03096" lon="3.67967">
        <ele>144</ele>
        <time>2018-06-24T09:02:47Z</time>
      </trkpt>
      <trkpt lat="50.03155" lon="3.67984">
        <ele>143</ele>
        <time>2018-06-24T09:02:55Z</time>
      </trkpt>
      <trkpt lat="50.03213" lon="3.68">
        <ele>144</ele>
        <time>2018-06-24T09:03:03Z</time>
      </trkpt>
      <trkpt lat="50.0327" lon="3.68016">
        <ele>144</ele>
        <time>2018-06-24T09:03:11Z</time>
      </trkpt>
      <trkpt lat="50.03324" lon="3.68031">
        <ele>144</ele>
        <time>2018-06-24T09:03:19Z</time>
      </trkpt>
      <trkpt lat="50.03379" lon="3.68047">
        <ele>145</ele>
        <time>2018-06-24T09:03:27Z</time>
      </trkpt>
      <trkpt lat="50.03436" lon="3.68063">
        <ele>144</ele>
        <time>2018-06-24T09:03:35Z</time>
      </trkpt>
      <trkpt lat="50.03494" lon="3.68079">
        <ele>143</ele>
        <time>2018-06-24T09:03:43Z</time>
      </trkpt>
      <trkpt lat="50.03551" lon="3.68095">
        <ele>144</ele>
        <time>2018-06-24T09:03:51Z</time>
      </trkpt>
      <trkpt lat="50.03606" lon="3.68112">
        <ele>146</ele>
        <time>2018-06-24T09:03:59Z</time>
      </trkpt>
      <trkpt lat="50.03663" lon="3.68112">
        <ele>147</ele>
        <time>2018-06-24T09:04:07Z</time>
      </trkpt>
      <trkpt lat="50.03717" lon="3.68096">
        <ele>148</ele>
        <time>2018-06-24T09:04:15Z</time>
      </trkpt>
      <trkpt lat="50.03743" lon="3.68075">
        <ele>148</ele>
        <time>2018-06-24T09:04:19Z</time>
      </trkpt>
      <trkpt lat="50.03784" lon="3.68014">
        <ele>145</ele>
        <time>2018-06-24T09:04:26Z</time>
      </trkpt>
      <trkpt lat="50.03828" lon="3.6795">
        <ele>143</ele>
        <time>2018-06-24T09:04:33Z</time>
      </trkpt>
      <trkpt lat="50.03871" lon="3.67888">
        <ele>142</ele>
        <time>2018-06-24T09:04:40Z</time>
      </trkpt>
      <trkpt lat="50.03914" lon="3.67827">
        <ele>143</ele>
        <time>2018-06-24T09:04:47Z</time>
      </trkpt>
      <trkpt lat="50.03958" lon="3.67776">
        <ele>145</ele>
        <time>2018-06-24T09:04:54Z</time>
      </trkpt>
      <trkpt lat="50.04008" lon="3.67742">
        <ele>147</ele>
        <time>2018-06-24T09:05:02Z</time>
      </trkpt>
      <trkpt lat="50.04068" lon="3.6773">
        <ele>148</ele>
        <time>2018-06-24T09:05:11Z</time>
      </trkpt>
      <trkpt lat="50.04095" lon="3.67738">
        <ele>149</ele>
        <time>2018-06-24T09:05:20Z</time>
      </trkpt>
      <trkpt lat="50.04099" lon="3.67751">
        <ele>150</ele>
        <time>2018-06-24T09:05:46Z</time>
      </trkpt>
      <trkpt lat="50.041" lon="3.67763">
        <ele>150</ele>
        <time>2018-06-24T09:05:48Z</time>
      </trkpt>
      <trkpt lat="50.04097" lon="3.67795">
        <ele>150</ele>
        <time>2018-06-24T09:05:52Z</time>
      </trkpt>
      <trkpt lat="50.04099" lon="3.67812">
        <ele>150</ele>
        <time>2018-06-24T09:05:54Z</time>
      </trkpt>
      <trkpt lat="50.04107" lon="3.67824">
        <ele>150</ele>
        <time>2018-06-24T09:05:56Z</time>
      </trkpt>
      <trkpt lat="50.04119" lon="3.67828">
        <ele>151</ele>
        <time>2018-06-24T09:05:58Z</time>
      </trkpt>
      <trkpt lat="50.04166" lon="3.67841">
        <ele>152</ele>
        <time>2018-06-24T09:06:06Z</time>
      </trkpt>
      <trkpt lat="50.04177" lon="3.67852">
        <ele>152</ele>
        <time>2018-06-24T09:06:08Z</time>
      </trkpt>
      <trkpt lat="50.04214" lon="3.67925">
        <ele>152</ele>
        <time>2018-06-24T09:06:17Z</time>
      </trkpt>
      <trkpt lat="50.04243" lon="3.67995">
        <ele>153</ele>
        <time>2018-06-24T09:06:25Z</time>
      </trkpt>
      <trkpt lat="50.04263" lon="3.68034">
        <ele>152</ele>
        <time>2018-06-24T09:06:30Z</time>
      </trkpt>
      <trkpt lat="50.04274" lon="3.68044">
        <ele>152</ele>
        <time>2018-06-24T09:06:32Z</time>
      </trkpt>
      <trkpt lat="50.04286" lon="3.68045">
        <ele>152</ele>
        <time>2018-06-24T09:06:34Z</time>
      </trkpt>
      <trkpt lat="50.04342" lon="3.68023">
        <ele>154</ele>
        <time>2018-06-24T09:06:43Z</time>
      </trkpt>
      <trkpt lat="50.04398" lon="3.68001">
        <ele>155</ele>
        <time>2018-06-24T09:06:52Z</time>
      </trkpt>
      <trkpt lat="50.04436" lon="3.67988">
        <ele>156</ele>
        <time>2018-06-24T09:06:58Z</time>
      </trkpt>
      <trkpt lat="50.04492" lon="3.68004">
        <ele>159</ele>
        <time>2018-06-24T09:07:07Z</time>
      </trkpt>
      <trkpt lat="50.04546" lon="3.68029">
        <ele>159</ele>
        <time>2018-06-24T09:07:16Z</time>
      </trkpt>
      <trkpt lat="50.04595" lon="3.68064">
        <ele>160</ele>
        <time>2018-06-24T09:07:25Z</time>
      </trkpt>
      <trkpt lat="50.04648" lon="3.68106">
        <ele>160</ele>
        <time>2018-06-24T09:07:35Z</time>
      </trkpt>
      <trkpt lat="50.04703" lon="3.68139">
        <ele>162</ele>
        <time>2018-06-24T09:07:45Z</time>
      </trkpt>
      <trkpt lat="50.04755" lon="3.68169">
        <ele>164</ele>
        <time>2018-06-24T09:07:55Z</time>
      </trkpt>
      <trkpt lat="50.04766" lon="3.68173">
        <ele>164</ele>
        <time>2018-06-24T09:07:56Z</time>
      </trkpt>
      <trkpt lat="50.04789" lon="3.68175">
        <ele>165</ele>
        <time>2018-06-24T09:08:01Z</time>
      </trkpt>
      <trkpt lat="50.04846" lon="3.6816">
        <ele>166</ele>
        <time>2018-06-24T09:08:11Z</time>
      </trkpt>
      <trkpt lat="50.04904" lon="3.68155">
        <ele>166</ele>
        <time>2018-06-24T09:08:21Z</time>
      </trkpt>
      <trkpt lat="50.04959" lon="3.68154">
        <ele>166</ele>
        <time>2018-06-24T09:08:30Z</time>
      </trkpt>
      <trkpt lat="50.05012" lon="3.68172">
        <ele>167</ele>
        <time>2018-06-24T09:08:39Z</time>
      </trkpt>
      <trkpt lat="50.05056" lon="3.68223">
        <ele>166</ele>
        <time>2018-06-24T09:08:53Z</time>
      </trkpt>
      <trkpt lat="50.051" lon="3.68281">
        <ele>166</ele>
        <time>2018-06-24T09:09:02Z</time>
      </trkpt>
      <trkpt lat="50.05141" lon="3.68337">
        <ele>166</ele>
        <time>2018-06-24T09:09:10Z</time>
      </trkpt>
      <trkpt lat="50.05181" lon="3.68401">
        <ele>166</ele>
        <time>2018-06-24T09:09:18Z</time>
      </trkpt>
      <trkpt lat="50.05222" lon="3.68463">
        <ele>167</ele>
        <time>2018-06-24T09:09:26Z</time>
      </trkpt>
      <trkpt lat="50.05266" lon="3.68516">
        <ele>168</ele>
        <time>2018-06-24T09:09:34Z</time>
      </trkpt>
      <trkpt lat="50.05307" lon="3.68577">
        <ele>168</ele>
        <time>2018-06-24T09:09:42Z</time>
      </trkpt>
      <trkpt lat="50.05347" lon="3.68643">
        <ele>169</ele>
        <time>2018-06-24T09:09:50Z</time>
      </trkpt>
      <trkpt lat="50.05386" lon="3.6871">
        <ele>170</ele>
        <time>2018-06-24T09:09:58Z</time>
      </trkpt>
      <trkpt lat="50.05424" lon="3.68776">
        <ele>170</ele>
        <time>2018-06-24T09:10:06Z</time>
      </trkpt>
      <trkpt lat="50.05453" lon="3.6885">
        <ele>169</ele>
        <time>2018-06-24T09:10:14Z</time>
      </trkpt>
      <trkpt lat="50.05477" lon="3.68929">
        <ele>168</ele>
        <time>2018-06-24T09:10:22Z</time>
      </trkpt>
      <trkpt lat="50.05503" lon="3.69012">
        <ele>167</ele>
        <time>2018-06-24T09:10:29Z</time>
      </trkpt>
      <trkpt lat="50.0551" lon="3.69037">
        <ele>167</ele>
        <time>2018-06-24T09:10:30Z</time>
      </trkpt>
      <trkpt lat="50.05523" lon="3.69128">
        <ele>166</ele>
        <time>2018-06-24T09:10:38Z</time>
      </trkpt>
      <trkpt lat="50.05542" lon="3.69215">
        <ele>165</ele>
        <time>2018-06-24T09:10:45Z</time>
      </trkpt>
      <trkpt lat="50.05567" lon="3.69291">
        <ele>166</ele>
        <time>2018-06-24T09:10:52Z</time>
      </trkpt>
      <trkpt lat="50.05596" lon="3.69372">
        <ele>168</ele>
        <time>2018-06-24T09:11:00Z</time>
      </trkpt>
      <trkpt lat="50.05621" lon="3.69447">
        <ele>169</ele>
        <time>2018-06-24T09:11:08Z</time>
      </trkpt>
      <trkpt lat="50.05644" lon="3.69529">
        <ele>171</ele>
        <time>2018-06-24T09:11:18Z</time>
      </trkpt>
      <trkpt lat="50.05654" lon="3.69561">
        <ele>171</ele>
        <time>2018-06-24T09:11:22Z</time>
      </trkpt>
      <trkpt lat="50.05682" lon="3.69636">
        <ele>173</ele>
        <time>2018-06-24T09:11:31Z</time>
      </trkpt>
      <trkpt lat="50.05716" lon="3.69705">
        <ele>174</ele>
        <time>2018-06-24T09:11:40Z</time>
      </trkpt>
      <trkpt lat="50.05749" lon="3.69775">
        <ele>174</ele>
        <time>2018-06-24T09:11:49Z</time>
      </trkpt>
      <trkpt lat="50.05779" lon="3.69855">
        <ele>173</ele>
        <time>2018-06-24T09:11:57Z</time>
      </trkpt>
      <trkpt lat="50.05791" lon="3.69902">
        <ele>173</ele>
        <time>2018-06-24T09:12:01Z</time>
      </trkpt>
      <trkpt lat="50.05797" lon="3.69994">
        <ele>172</ele>
        <time>2018-06-24T09:12:08Z</time>
      </trkpt>
      <trkpt lat="50.05799" lon="3.70032">
        <ele>172</ele>
        <time>2018-06-24T09:12:11Z</time>
      </trkpt>
      <trkpt lat="50.05824" lon="3.70108">
        <ele>173</ele>
        <time>2018-06-24T09:12:18Z</time>
      </trkpt>
      <trkpt lat="50.05857" lon="3.70178">
        <ele>176</ele>
        <time>2018-06-24T09:12:25Z</time>
      </trkpt>
      <trkpt lat="50.05892" lon="3.70253">
        <ele>176</ele>
        <time>2018-06-24T09:12:33Z</time>
      </trkpt>
      <trkpt lat="50.0592" lon="3.70331">
        <ele>177</ele>
        <time>2018-06-24T09:12:41Z</time>
      </trkpt>
      <trkpt lat="50.05946" lon="3.70407">
        <ele>178</ele>
        <time>2018-06-24T09:12:49Z</time>
      </trkpt>
      <trkpt lat="50.05973" lon="3.70481">
        <ele>179</ele>
        <time>2018-06-24T09:12:57Z</time>
      </trkpt>
      <trkpt lat="50.06005" lon="3.70561">
        <ele>179</ele>
        <time>2018-06-24T09:13:06Z</time>
      </trkpt>
      <trkpt lat="50.06032" lon="3.70639">
        <ele>179</ele>
        <time>2018-06-24T09:13:14Z</time>
      </trkpt>
      <trkpt lat="50.06044" lon="3.70729">
        <ele>179</ele>
        <time>2018-06-24T09:13:22Z</time>
      </trkpt>
      <trkpt lat="50.06054" lon="3.70814">
        <ele>179</ele>
        <time>2018-06-24T09:13:29Z</time>
      </trkpt>
      <trkpt lat="50.06065" lon="3.7091">
        <ele>179</ele>
        <time>2018-06-24T09:13:36Z</time>
      </trkpt>
      <trkpt lat="50.06073" lon="3.70996">
        <ele>177</ele>
        <time>2018-06-24T09:13:42Z</time>
      </trkpt>
      <trkpt lat="50.06069" lon="3.71084">
        <ele>177</ele>
        <time>2018-06-24T09:13:48Z</time>
      </trkpt>
      <trkpt lat="50.06064" lon="3.7117">
        <ele>177</ele>
        <time>2018-06-24T09:13:54Z</time>
      </trkpt>
      <trkpt lat="50.06067" lon="3.71265">
        <ele>177</ele>
        <time>2018-06-24T09:14:01Z</time>
      </trkpt>
      <trkpt lat="50.06073" lon="3.71348">
        <ele>178</ele>
        <time>2018-06-24T09:14:08Z</time>
      </trkpt>
      <trkpt lat="50.06082" lon="3.71435">
        <ele>179</ele>
        <time>2018-06-24T09:14:16Z</time>
      </trkpt>
      <trkpt lat="50.0609" lon="3.71522">
        <ele>180</ele>
        <time>2018-06-24T09:14:24Z</time>
      </trkpt>
      <trkpt lat="50.06094" lon="3.71611">
        <ele>182</ele>
        <time>2018-06-24T09:14:33Z</time>
      </trkpt>
      <trkpt lat="50.06096" lon="3.71702">
        <ele>183</ele>
        <time>2018-06-24T09:14:42Z</time>
      </trkpt>
      <trkpt lat="50.06095" lon="3.71793">
        <ele>183</ele>
        <time>2018-06-24T09:14:51Z</time>
      </trkpt>
      <trkpt lat="50.06088" lon="3.71878">
        <ele>183</ele>
        <time>2018-06-24T09:14:59Z</time>
      </trkpt>
      <trkpt lat="50.06073" lon="3.71963">
        <ele>184</ele>
        <time>2018-06-24T09:15:07Z</time>
      </trkpt>
      <trkpt lat="50.06055" lon="3.72045">
        <ele>184</ele>
        <time>2018-06-24T09:15:15Z</time>
      </trkpt>
      <trkpt lat="50.06045" lon="3.72094">
        <ele>184</ele>
        <time>2018-06-24T09:15:20Z</time>
      </trkpt>
      <trkpt lat="50.06046" lon="3.7218">
        <ele>185</ele>
        <time>2018-06-24T09:15:28Z</time>
      </trkpt>
      <trkpt lat="50.06053" lon="3.72267">
        <ele>185</ele>
        <time>2018-06-24T09:15:36Z</time>
      </trkpt>
      <trkpt lat="50.06061" lon="3.72359">
        <ele>185</ele>
        <time>2018-06-24T09:15:45Z</time>
      </trkpt>
      <trkpt lat="50.06067" lon="3.72422">
        <ele>186</ele>
        <time>2018-06-24T09:15:52Z</time>
      </trkpt>
      <trkpt lat="50.05582" lon="3.7256">
        <ele>183</ele>
        <time>2018-06-24T09:18:56Z</time>
      </trkpt>
      <trkpt lat="50.05537" lon="3.72507">
        <ele>183</ele>
        <time>2018-06-24T09:19:03Z</time>
      </trkpt>
      <trkpt lat="50.05491" lon="3.72451">
        <ele>181</ele>
        <time>2018-06-24T09:19:10Z</time>
      </trkpt>
      <trkpt lat="50.05452" lon="3.72392">
        <ele>181</ele>
        <time>2018-06-24T09:19:17Z</time>
      </trkpt>
      <trkpt lat="50.05442" lon="3.72376">
        <ele>181</ele>
        <time>2018-06-24T09:19:18Z</time>
      </trkpt>
      <trkpt lat="50.05391" lon="3.72334">
        <ele>182</ele>
        <time>2018-06-24T09:19:27Z</time>
      </trkpt>
      <trkpt lat="50.0534" lon="3.723">
        <ele>182</ele>
        <time>2018-06-24T09:19:35Z</time>
      </trkpt>
      <trkpt lat="50.0529" lon="3.72265">
        <ele>182</ele>
        <time>2018-06-24T09:19:43Z</time>
      </trkpt>
      <trkpt lat="50.05241" lon="3.72215">
        <ele>181</ele>
        <time>2018-06-24T09:19:51Z</time>
      </trkpt>
      <trkpt lat="50.05194" lon="3.7216">
        <ele>180</ele>
        <time>2018-06-24T09:19:59Z</time>
      </trkpt>
      <trkpt lat="50.05185" lon="3.7215">
        <ele>180</ele>
        <time>2018-06-24T09:20:00Z</time>
      </trkpt>
      <trkpt lat="50.05181" lon="3.72148">
        <ele>180</ele>
        <time>2018-06-24T09:20:02Z</time>
      </trkpt>
      <trkpt lat="50.05172" lon="3.72157">
        <ele>180</ele>
        <time>2018-06-24T09:20:05Z</time>
      </trkpt>
      <trkpt lat="50.05139" lon="3.72235">
        <ele>182</ele>
        <time>2018-06-24T09:20:16Z</time>
      </trkpt>
      <trkpt lat="50.0511" lon="3.72308">
        <ele>184</ele>
        <time>2018-06-24T09:20:25Z</time>
      </trkpt>
      <trkpt lat="50.05078" lon="3.72383">
        <ele>185</ele>
        <time>2018-06-24T09:20:35Z</time>
      </trkpt>
      <trkpt lat="50.05073" lon="3.72397">
        <ele>185</ele>
        <time>2018-06-24T09:20:37Z</time>
      </trkpt>
      <trkpt lat="50.05068" lon="3.72421">
        <ele>185</ele>
        <time>2018-06-24T09:20:40Z</time>
      </trkpt>
      <trkpt lat="50.05068" lon="3.72438">
        <ele>185</ele>
        <time>2018-06-24T09:20:42Z</time>
      </trkpt>
      <trkpt lat="50.0507" lon="3.72481">
        <ele>186</ele>
        <time>2018-06-24T09:20:51Z</time>
      </trkpt>
    </trkseg>
  </trk>
  <trk>
    <name><![CDATA[20180624130801-48Qdh]]></name>
    <trkseg>
      <trkpt lat="50.06199" lon="3.73617">
        <ele>194</ele>
        <time>2018-06-24T09:31:33Z</time>
      </trkpt>
      <trkpt lat="50.06208" lon="3.73702">
        <ele>193</ele>
        <time>2018-06-24T09:31:41Z</time>
      </trkpt>
      <trkpt lat="50.06208" lon="3.73707">
        <ele>193</ele>
        <time>2018-06-24T09:31:42Z</time>
      </trkpt>
      <trkpt lat="50.06209" lon="3.73717">
        <ele>193</ele>
        <time>2018-06-24T09:31:43Z</time>
      </trkpt>
      <trkpt lat="50.0621" lon="3.73728">
        <ele>193</ele>
        <time>2018-06-24T09:31:44Z</time>
      </trkpt>
      <trkpt lat="50.06211" lon="3.73739">
        <ele>193</ele>
        <time>2018-06-24T09:31:45Z</time>
      </trkpt>
      <trkpt lat="50.06212" lon="3.7375">
        <ele>193</ele>
        <time>2018-06-24T09:31:46Z</time>
      </trkpt>
      <trkpt lat="50.06213" lon="3.7376">
        <ele>193</ele>
        <time>2018-06-24T09:31:47Z</time>
      </trkpt>
      <trkpt lat="50.06214" lon="3.73771">
        <ele>193</ele>
        <time>2018-06-24T09:31:48Z</time>
      </trkpt>
      <trkpt lat="50.06214" lon="3.73782">
        <ele>193</ele>
        <time>2018-06-24T09:31:49Z</time>
      </trkpt>
      <trkpt lat="50.06215" lon="3.73793">
        <ele>193</ele>
        <time>2018-06-24T09:31:50Z</time>
      </trkpt>
      <trkpt lat="50.06216" lon="3.73803">
        <ele>193</ele>
        <time>2018-06-24T09:31:51Z</time>
      </trkpt>
      <trkpt lat="50.06217" lon="3.73814">
        <ele>193</ele>
        <time>2018-06-24T09:31:52Z</time>
      </trkpt>
      <trkpt lat="50.06218" lon="3.73825">
        <ele>193</ele>
        <time>2018-06-24T09:31:53Z</time>
      </trkpt>
      <trkpt lat="50.06218" lon="3.73836">
        <ele>192</ele>
        <time>2018-06-24T09:31:54Z</time>
      </trkpt>
      <trkpt lat="50.06219" lon="3.73846">
        <ele>192</ele>
        <time>2018-06-24T09:31:55Z</time>
      </trkpt>
      <trkpt lat="50.06221" lon="3.73857">
        <ele>192</ele>
        <time>2018-06-24T09:31:56Z</time>
      </trkpt>
      <trkpt lat="50.06223" lon="3.73867">
        <ele>192</ele>
        <time>2018-06-24T09:31:57Z</time>
      </trkpt>
      <trkpt lat="50.06225" lon="3.73877">
        <ele>193</ele>
        <time>2018-06-24T09:31:58Z</time>
      </trkpt>
      <trkpt lat="50.06228" lon="3.73887">
        <ele>193</ele>
        <time>2018-06-24T09:31:59Z</time>
      </trkpt>
      <trkpt lat="50.06231" lon="3.73896">
        <ele>193</ele>
        <time>2018-06-24T09:32:00Z</time>
      </trkpt>
      <trkpt lat="50.06233" lon="3.73906">
        <ele>193</ele>
        <time>2018-06-24T09:32:01Z</time>
      </trkpt>
      <trkpt lat="50.06237" lon="3.73915">
        <ele>193</ele>
        <time>2018-06-24T09:32:02Z</time>
      </trkpt>
      <trkpt lat="50.06239" lon="3.73924">
        <ele>193</ele>
        <time>2018-06-24T09:32:03Z</time>
      </trkpt>
      <trkpt lat="50.06243" lon="3.73933">
        <ele>193</ele>
        <time>2018-06-24T09:32:04Z</time>
      </trkpt>
      <trkpt lat="50.06246" lon="3.73942">
        <ele>193</ele>
        <time>2018-06-24T09:32:05Z</time>
      </trkpt>
      <trkpt lat="50.0625" lon="3.73952">
        <ele>193</ele>
        <time>2018-06-24T09:32:06Z</time>
      </trkpt>
      <trkpt lat="50.06253" lon="3.73961">
        <ele>193</ele>
        <time>2018-06-24T09:32:07Z</time>
      </trkpt>
      <trkpt lat="50.06256" lon="3.73969">
        <ele>193</ele>
        <time>2018-06-24T09:32:08Z</time>
      </trkpt>
      <trkpt lat="50.06259" lon="3.73977">
        <ele>193</ele>
        <time>2018-06-24T09:32:09Z</time>
      </trkpt>
      <trkpt lat="50.06263" lon="3.73985">
        <ele>193</ele>
        <time>2018-06-24T09:32:10Z</time>
      </trkpt>
      <trkpt lat="50.06267" lon="3.73993">
        <ele>193</ele>
        <time>2018-06-24T09:32:11Z</time>
      </trkpt>
      <trkpt lat="50.06272" lon="3.74001">
        <ele>194</ele>
        <time>2018-06-24T09:32:12Z</time>
      </trkpt>
      <trkpt lat="50.06277" lon="3.74007">
        <ele>194</ele>
        <time>2018-06-24T09:32:13Z</time>
      </trkpt>
      <trkpt lat="50.06282" lon="3.74012">
        <ele>194</ele>
        <time>2018-06-24T09:32:14Z</time>
      </trkpt>
      <trkpt lat="50.06288" lon="3.74017">
        <ele>194</ele>
        <time>2018-06-24T09:32:15Z</time>
      </trkpt>
      <trkpt lat="50.06294" lon="3.74021">
        <ele>194</ele>
        <time>2018-06-24T09:32:16Z</time>
      </trkpt>
      <trkpt lat="50.063" lon="3.74024">
        <ele>194</ele>
        <time>2018-06-24T09:32:17Z</time>
      </trkpt>
      <trkpt lat="50.06306" lon="3.74027">
        <ele>194</ele>
        <time>2018-06-24T09:32:18Z</time>
      </trkpt>
      <trkpt lat="50.06313" lon="3.74029">
        <ele>194</ele>
        <time>2018-06-24T09:32:19Z</time>
      </trkpt>
      <trkpt lat="50.06319" lon="3.74031">
        <ele>194</ele>
        <time>2018-06-24T09:32:20Z</time>
      </trkpt>
      <trkpt lat="50.06326" lon="3.74034">
        <ele>194</ele>
        <time>2018-06-24T09:32:21Z</time>
      </trkpt>
      <trkpt lat="50.06333" lon="3.74036">
        <ele>194</ele>
        <time>2018-06-24T09:32:22Z</time>
      </trkpt>
      <trkpt lat="50.0634" lon="3.74039">
        <ele>193</ele>
        <time>2018-06-24T09:32:23Z</time>
      </trkpt>
      <trkpt lat="50.06346" lon="3.74041">
        <ele>193</ele>
        <time>2018-06-24T09:32:24Z</time>
      </trkpt>
      <trkpt lat="50.06353" lon="3.74043">
        <ele>193</ele>
        <time>2018-06-24T09:32:25Z</time>
      </trkpt>
      <trkpt lat="50.0636" lon="3.74046">
        <ele>193</ele>
        <time>2018-06-24T09:32:26Z</time>
      </trkpt>
      <trkpt lat="50.06367" lon="3.74048">
        <ele>193</ele>
        <time>2018-06-24T09:32:27Z</time>
      </trkpt>
      <trkpt lat="50.06375" lon="3.7405">
        <ele>193</ele>
        <time>2018-06-24T09:32:28Z</time>
      </trkpt>
      <trkpt lat="50.06382" lon="3.74052">
        <ele>193</ele>
        <time>2018-06-24T09:32:29Z</time>
      </trkpt>
      <trkpt lat="50.06389" lon="3.74055">
        <ele>193</ele>
        <time>2018-06-24T09:32:30Z</time>
      </trkpt>
      <trkpt lat="50.06396" lon="3.74058">
        <ele>193</ele>
        <time>2018-06-24T09:32:31Z</time>
      </trkpt>
      <trkpt lat="50.06403" lon="3.74061">
        <ele>193</ele>
        <time>2018-06-24T09:32:32Z</time>
      </trkpt>
      <trkpt lat="50.06411" lon="3.74064">
        <ele>193</ele>
        <time>2018-06-24T09:32:33Z</time>
      </trkpt>
      <trkpt lat="50.06418" lon="3.74068">
        <ele>193</ele>
        <time>2018-06-24T09:32:34Z</time>
      </trkpt>
      <trkpt lat="50.06425" lon="3.74073">
        <ele>193</ele>
        <time>2018-06-24T09:32:35Z</time>
      </trkpt>
      <trkpt lat="50.06432" lon="3.74077">
        <ele>193</ele>
        <time>2018-06-24T09:32:36Z</time>
      </trkpt>
      <trkpt lat="50.06439" lon="3.74081">
        <ele>192</ele>
        <time>2018-06-24T09:32:37Z</time>
      </trkpt>
      <trkpt lat="50.06446" lon="3.74085">
        <ele>193</ele>
        <time>2018-06-24T09:32:38Z</time>
      </trkpt>
      <trkpt lat="50.06453" lon="3.7409">
        <ele>193</ele>
        <time>2018-06-24T09:32:39Z</time>
      </trkpt>
      <trkpt lat="50.0646" lon="3.74095">
        <ele>193</ele>
        <time>2018-06-24T09:32:40Z</time>
      </trkpt>
      <trkpt lat="50.06467" lon="3.741">
        <ele>193</ele>
        <time>2018-06-24T09:32:41Z</time>
      </trkpt>
      <trkpt lat="50.06474" lon="3.74106">
        <ele>193</ele>
        <time>2018-06-24T09:32:42Z</time>
      </trkpt>
      <trkpt lat="50.06481" lon="3.74111">
        <ele>193</ele>
        <time>2018-06-24T09:32:43Z</time>
      </trkpt>
      <trkpt lat="50.06488" lon="3.74118">
        <ele>193</ele>
        <time>2018-06-24T09:32:44Z</time>
      </trkpt>
      <trkpt lat="50.06494" lon="3.74124">
        <ele>193</ele>
        <time>2018-06-24T09:32:45Z</time>
      </trkpt>
      <trkpt lat="50.065" lon="3.74131">
        <ele>192</ele>
        <time>2018-06-24T09:32:46Z</time>
      </trkpt>
      <trkpt lat="50.06506" lon="3.74139">
        <ele>192</ele>
        <time>2018-06-24T09:32:47Z</time>
      </trkpt>
      <trkpt lat="50.06512" lon="3.74147">
        <ele>192</ele>
        <time>2018-06-24T09:32:48Z</time>
      </trkpt>
      <trkpt lat="50.06517" lon="3.74155">
        <ele>192</ele>
        <time>2018-06-24T09:32:49Z</time>
      </trkpt>
      <trkpt lat="50.06522" lon="3.74163">
        <ele>192</ele>
        <time>2018-06-24T09:32:50Z</time>
      </trkpt>
      <trkpt lat="50.06528" lon="3.74171">
        <ele>192</ele>
        <time>2018-06-24T09:32:51Z</time>
      </trkpt>
      <trkpt lat="50.06533" lon="3.74179">
        <ele>192</ele>
        <time>2018-06-24T09:32:52Z</time>
      </trkpt>
      <trkpt lat="50.06538" lon="3.74187">
        <ele>192</ele>
        <time>2018-06-24T09:32:53Z</time>
      </trkpt>
      <trkpt lat="50.06543" lon="3.74195">
        <ele>192</ele>
        <time>2018-06-24T09:32:54Z</time>
      </trkpt>
      <trkpt lat="50.06548" lon="3.74203">
        <ele>192</ele>
        <time>2018-06-24T09:32:55Z</time>
      </trkpt>
      <trkpt lat="50.06553" lon="3.74211">
        <ele>192</ele>
        <time>2018-06-24T09:32:56Z</time>
      </trkpt>
      <trkpt lat="50.06558" lon="3.74219">
        <ele>192</ele>
        <time>2018-06-24T09:32:57Z</time>
      </trkpt>
      <trkpt lat="50.06563" lon="3.74227">
        <ele>192</ele>
        <time>2018-06-24T09:32:58Z</time>
      </trkpt>
      <trkpt lat="50.06568" lon="3.74235">
        <ele>192</ele>
        <time>2018-06-24T09:32:59Z</time>
      </trkpt>
      <trkpt lat="50.06573" lon="3.74243">
        <ele>191</ele>
        <time>2018-06-24T09:33:00Z</time>
      </trkpt>
      <trkpt lat="50.06578" lon="3.74251">
        <ele>191</ele>
        <time>2018-06-24T09:33:01Z</time>
      </trkpt>
      <trkpt lat="50.06583" lon="3.74259">
        <ele>191</ele>
        <time>2018-06-24T09:33:02Z</time>
      </trkpt>
      <trkpt lat="50.06588" lon="3.74266">
        <ele>191</ele>
        <time>2018-06-24T09:33:03Z</time>
      </trkpt>
      <trkpt lat="50.06593" lon="3.74274">
        <ele>191</ele>
        <time>2018-06-24T09:33:04Z</time>
      </trkpt>
      <trkpt lat="50.06598" lon="3.74282">
        <ele>191</ele>
        <time>2018-06-24T09:33:05Z</time>
      </trkpt>
      <trkpt lat="50.06603" lon="3.74289">
        <ele>191</ele>
        <time>2018-06-24T09:33:06Z</time>
      </trkpt>
      <trkpt lat="50.06608" lon="3.74297">
        <ele>191</ele>
        <time>2018-06-24T09:33:07Z</time>
      </trkpt>
      <trkpt lat="50.06613" lon="3.74304">
        <ele>191</ele>
        <time>2018-06-24T09:33:08Z</time>
      </trkpt>
      <trkpt lat="50.06618" lon="3.74311">
        <ele>191</ele>
        <time>2018-06-24T09:33:09Z</time>
      </trkpt>
      <trkpt lat="50.06623" lon="3.74318">
        <ele>191</ele>
        <time>2018-06-24T09:33:10Z</time>
      </trkpt>
      <trkpt lat="50.06628" lon="3.74325">
        <ele>191</ele>
        <time>2018-06-24T09:33:11Z</time>
      </trkpt>
      <trkpt lat="50.06633" lon="3.74331">
        <ele>191</ele>
        <time>2018-06-24T09:33:12Z</time>
      </trkpt>
      <trkpt lat="50.06637" lon="3.74338">
        <ele>191</ele>
        <time>2018-06-24T09:33:13Z</time>
      </trkpt>
      <trkpt lat="50.06642" lon="3.74345">
        <ele>191</ele>
        <time>2018-06-24T09:33:14Z</time>
      </trkpt>
      <trkpt lat="50.06647" lon="3.74351">
        <ele>191</ele>
        <time>2018-06-24T09:33:15Z</time>
      </trkpt>
      <trkpt lat="50.06651" lon="3.74358">
        <ele>191</ele>
        <time>2018-06-24T09:33:16Z</time>
      </trkpt>
      <trkpt lat="50.06656" lon="3.74364">
        <ele>191</ele>
        <time>2018-06-24T09:33:17Z</time>
      </trkpt>
      <trkpt lat="50.06661" lon="3.7437">
        <ele>191</ele>
        <time>2018-06-24T09:33:18Z</time>
      </trkpt>
      <trkpt lat="50.06666" lon="3.74376">
        <ele>191</ele>
        <time>2018-06-24T09:33:19Z</time>
      </trkpt>
      <trkpt lat="50.0667" lon="3.74382">
        <ele>190</ele>
        <time>2018-06-24T09:33:20Z</time>
      </trkpt>
      <trkpt lat="50.06675" lon="3.74388">
        <ele>190</ele>
        <time>2018-06-24T09:33:21Z</time>
      </trkpt>
      <trkpt lat="50.0668" lon="3.74394">
        <ele>190</ele>
        <time>2018-06-24T09:33:22Z</time>
      </trkpt>
      <trkpt lat="50.06685" lon="3.744">
        <ele>190</ele>
        <time>2018-06-24T09:33:23Z</time>
      </trkpt>
      <trkpt lat="50.0669" lon="3.74405">
        <ele>190</ele>
        <time>2018-06-24T09:33:24Z</time>
      </trkpt>
      <trkpt lat="50.06694" lon="3.74411">
        <ele>190</ele>
        <time>2018-06-24T09:33:25Z</time>
      </trkpt>
      <trkpt lat="50.06699" lon="3.74417">
        <ele>190</ele>
        <time>2018-06-24T09:33:26Z</time>
      </trkpt>
      <trkpt lat="50.06704" lon="3.74423">
        <ele>190</ele>
        <time>2018-06-24T09:33:27Z</time>
      </trkpt>
      <trkpt lat="50.06708" lon="3.74428">
        <ele>190</ele>
        <time>2018-06-24T09:33:28Z</time>
      </trkpt>
      <trkpt lat="50.06713" lon="3.74434">
        <ele>190</ele>
        <time>2018-06-24T09:33:29Z</time>
      </trkpt>
      <trkpt lat="50.06718" lon="3.74441">
        <ele>190</ele>
        <time>2018-06-24T09:33:30Z</time>
      </trkpt>
      <trkpt lat="50.06724" lon="3.74446">
        <ele>190</ele>
        <time>2018-06-24T09:33:31Z</time>
      </trkpt>
      <trkpt lat="50.06731" lon="3.74453">
        <ele>190</ele>
        <time>2018-06-24T09:33:32Z</time>
      </trkpt>
      <trkpt lat="50.06735" lon="3.74459">
        <ele>191</ele>
        <time>2018-06-24T09:33:33Z</time>
      </trkpt>
      <trkpt lat="50.0674" lon="3.74465">
        <ele>191</ele>
        <time>2018-06-24T09:33:34Z</time>
      </trkpt>
      <trkpt lat="50.06745" lon="3.74471">
        <ele>191</ele>
        <time>2018-06-24T09:33:35Z</time>
      </trkpt>
      <trkpt lat="50.0675" lon="3.74477">
        <ele>191</ele>
        <time>2018-06-24T09:33:36Z</time>
      </trkpt>
      <trkpt lat="50.06755" lon="3.74483">
        <ele>191</ele>
        <time>2018-06-24T09:33:37Z</time>
      </trkpt>
      <trkpt lat="50.0676" lon="3.74489">
        <ele>191</ele>
        <time>2018-06-24T09:33:38Z</time>
      </trkpt>
      <trkpt lat="50.06765" lon="3.74496">
        <ele>191</ele>
        <time>2018-06-24T09:33:39Z</time>
      </trkpt>
      <trkpt lat="50.06771" lon="3.74502">
        <ele>191</ele>
        <time>2018-06-24T09:33:40Z</time>
      </trkpt>
      <trkpt lat="50.06775" lon="3.74508">
        <ele>191</ele>
        <time>2018-06-24T09:33:41Z</time>
      </trkpt>
      <trkpt lat="50.0678" lon="3.74514">
        <ele>191</ele>
        <time>2018-06-24T09:33:42Z</time>
      </trkpt>
      <trkpt lat="50.06785" lon="3.7452">
        <ele>191</ele>
        <time>2018-06-24T09:33:43Z</time>
      </trkpt>
      <trkpt lat="50.0679" lon="3.74526">
        <ele>191</ele>
        <time>2018-06-24T09:33:44Z</time>
      </trkpt>
      <trkpt lat="50.06795" lon="3.74532">
        <ele>192</ele>
        <time>2018-06-24T09:33:45Z</time>
      </trkpt>
      <trkpt lat="50.068" lon="3.74538">
        <ele>192</ele>
        <time>2018-06-24T09:33:46Z</time>
      </trkpt>
      <trkpt lat="50.06805" lon="3.74544">
        <ele>192</ele>
        <time>2018-06-24T09:33:47Z</time>
      </trkpt>
      <trkpt lat="50.0681" lon="3.74549">
        <ele>192</ele>
        <time>2018-06-24T09:33:48Z</time>
      </trkpt>
      <trkpt lat="50.06815" lon="3.74555">
        <ele>192</ele>
        <time>2018-06-24T09:33:49Z</time>
      </trkpt>
      <trkpt lat="50.0682" lon="3.74561">
        <ele>192</ele>
        <time>2018-06-24T09:33:50Z</time>
      </trkpt>
      <trkpt lat="50.06824" lon="3.74567">
        <ele>192</ele>
        <time>2018-06-24T09:33:51Z</time>
      </trkpt>
      <trkpt lat="50.06829" lon="3.74573">
        <ele>192</ele>
        <time>2018-06-24T09:33:52Z</time>
      </trkpt>
      <trkpt lat="50.06834" lon="3.74579">
        <ele>192</ele>
        <time>2018-06-24T09:33:53Z</time>
      </trkpt>
      <trkpt lat="50.06839" lon="3.74585">
        <ele>192</ele>
        <time>2018-06-24T09:33:54Z</time>
      </trkpt>
      <trkpt lat="50.06842" lon="3.74589">
        <ele>193</ele>
        <time>2018-06-24T09:33:55Z</time>
      </trkpt>
      <trkpt lat="50.06847" lon="3.74594">
        <ele>193</ele>
        <time>2018-06-24T09:33:56Z</time>
      </trkpt>
      <trkpt lat="50.06852" lon="3.74601">
        <ele>193</ele>
        <time>2018-06-24T09:33:57Z</time>
      </trkpt>
      <trkpt lat="50.06858" lon="3.74608">
        <ele>193</ele>
        <time>2018-06-24T09:33:58Z</time>
      </trkpt>
      <trkpt lat="50.06863" lon="3.74614">
        <ele>193</ele>
        <time>2018-06-24T09:33:59Z</time>
      </trkpt>
      <trkpt lat="50.06867" lon="3.74619">
        <ele>193</ele>
        <time>2018-06-24T09:34:00Z</time>
      </trkpt>
      <trkpt lat="50.06872" lon="3.74624">
        <ele>193</ele>
        <time>2018-06-24T09:34:01Z</time>
      </trkpt>
      <trkpt lat="50.06876" lon="3.74629">
        <ele>194</ele>
        <time>2018-06-24T09:34:02Z</time>
      </trkpt>
      <trkpt lat="50.06882" lon="3.74634">
        <ele>194</ele>
        <time>2018-06-24T09:34:03Z</time>
      </trkpt>
      <trkpt lat="50.06886" lon="3.74637">
        <ele>194</ele>
        <time>2018-06-24T09:34:04Z</time>
      </trkpt>
      <trkpt lat="50.06891" lon="3.7464">
        <ele>194</ele>
        <time>2018-06-24T09:34:05Z</time>
      </trkpt>
      <trkpt lat="50.06896" lon="3.74642">
        <ele>194</ele>
        <time>2018-06-24T09:34:06Z</time>
      </trkpt>
      <trkpt lat="50.06901" lon="3.74645">
        <ele>194</ele>
        <time>2018-06-24T09:34:07Z</time>
      </trkpt>
      <trkpt lat="50.06907" lon="3.74648">
        <ele>194</ele>
        <time>2018-06-24T09:34:08Z</time>
      </trkpt>
      <trkpt lat="50.06913" lon="3.74652">
        <ele>194</ele>
        <time>2018-06-24T09:34:09Z</time>
      </trkpt>
      <trkpt lat="50.06919" lon="3.74655">
        <ele>195</ele>
        <time>2018-06-24T09:34:10Z</time>
      </trkpt>
      <trkpt lat="50.06924" lon="3.74655">
        <ele>195</ele>
        <time>2018-06-24T09:34:11Z</time>
      </trkpt>
      <trkpt lat="50.0693" lon="3.74657">
        <ele>195</ele>
        <time>2018-06-24T09:34:12Z</time>
      </trkpt>
      <trkpt lat="50.06937" lon="3.74657">
        <ele>195</ele>
        <time>2018-06-24T09:34:13Z</time>
      </trkpt>
      <trkpt lat="50.06945" lon="3.74659">
        <ele>195</ele>
        <time>2018-06-24T09:34:14Z</time>
      </trkpt>
      <trkpt lat="50.06951" lon="3.74661">
        <ele>195</ele>
        <time>2018-06-24T09:34:15Z</time>
      </trkpt>
      <trkpt lat="50.06957" lon="3.74663">
        <ele>195</ele>
        <time>2018-06-24T09:34:16Z</time>
      </trkpt>
      <trkpt lat="50.06963" lon="3.74665">
        <ele>195</ele>
        <time>2018-06-24T09:34:17Z</time>
      </trkpt>
      <trkpt lat="50.06969" lon="3.74666">
        <ele>195</ele>
        <time>2018-06-24T09:34:18Z</time>
      </trkpt>
      <trkpt lat="50.06976" lon="3.74668">
        <ele>196</ele>
        <time>2018-06-24T09:34:19Z</time>
      </trkpt>
      <trkpt lat="50.06982" lon="3.7467">
        <ele>196</ele>
        <time>2018-06-24T09:34:20Z</time>
      </trkpt>
      <trkpt lat="50.06988" lon="3.74671">
        <ele>196</ele>
        <time>2018-06-24T09:34:21Z</time>
      </trkpt>
      <trkpt lat="50.06994" lon="3.74672">
        <ele>196</ele>
        <time>2018-06-24T09:34:22Z</time>
      </trkpt>
      <trkpt lat="50.07" lon="3.74673">
        <ele>196</ele>
        <time>2018-06-24T09:34:23Z</time>
      </trkpt>
      <trkpt lat="50.07006" lon="3.74675">
        <ele>196</ele>
        <time>2018-06-24T09:34:24Z</time>
      </trkpt>
      <trkpt lat="50.07013" lon="3.74676">
        <ele>196</ele>
        <time>2018-06-24T09:34:25Z</time>
      </trkpt>
      <trkpt lat="50.0702" lon="3.74677">
        <ele>196</ele>
        <time>2018-06-24T09:34:26Z</time>
      </trkpt>
      <trkpt lat="50.07026" lon="3.74679">
        <ele>196</ele>
        <time>2018-06-24T09:34:27Z</time>
      </trkpt>
      <trkpt lat="50.07033" lon="3.74681">
        <ele>196</ele>
        <time>2018-06-24T09:34:28Z</time>
      </trkpt>
      <trkpt lat="50.07039" lon="3.74682">
        <ele>196</ele>
        <time>2018-06-24T09:34:29Z</time>
      </trkpt>
      <trkpt lat="50.07046" lon="3.74684">
        <ele>195</ele>
        <time>2018-06-24T09:34:30Z</time>
      </trkpt>
      <trkpt lat="50.07052" lon="3.74686">
        <ele>195</ele>
        <time>2018-06-24T09:34:31Z</time>
      </trkpt>
      <trkpt lat="50.07059" lon="3.74688">
        <ele>195</ele>
        <time>2018-06-24T09:34:32Z</time>
      </trkpt>
      <trkpt lat="50.07065" lon="3.74688">
        <ele>195</ele>
        <time>2018-06-24T09:34:33Z</time>
      </trkpt>
      <trkpt lat="50.07071" lon="3.74689">
        <ele>195</ele>
        <time>2018-06-24T09:34:34Z</time>
      </trkpt>
      <trkpt lat="50.07078" lon="3.7469">
        <ele>195</ele>
        <time>2018-06-24T09:34:35Z</time>
      </trkpt>
      <trkpt lat="50.07084" lon="3.74691">
        <ele>195</ele>
        <time>2018-06-24T09:34:36Z</time>
      </trkpt>
      <trkpt lat="50.07091" lon="3.74692">
        <ele>195</ele>
        <time>2018-06-24T09:34:37Z</time>
      </trkpt>
      <trkpt lat="50.07097" lon="3.74693">
        <ele>195</ele>
        <time>2018-06-24T09:34:38Z</time>
      </trkpt>
      <trkpt lat="50.07104" lon="3.74694">
        <ele>194</ele>
        <time>2018-06-24T09:34:39Z</time>
      </trkpt>
      <trkpt lat="50.07111" lon="3.74695">
        <ele>194</ele>
        <time>2018-06-24T09:34:40Z</time>
      </trkpt>
      <trkpt lat="50.07117" lon="3.74696">
        <ele>194</ele>
        <time>2018-06-24T09:34:41Z</time>
      </trkpt>
      <trkpt lat="50.07124" lon="3.74697">
        <ele>194</ele>
        <time>2018-06-24T09:34:42Z</time>
      </trkpt>
      <trkpt lat="50.07131" lon="3.74698">
        <ele>194</ele>
        <time>2018-06-24T09:34:43Z</time>
      </trkpt>
      <trkpt lat="50.07138" lon="3.747">
        <ele>194</ele>
        <time>2018-06-24T09:34:44Z</time>
      </trkpt>
      <trkpt lat="50.07144" lon="3.74702">
        <ele>194</ele>
        <time>2018-06-24T09:34:45Z</time>
      </trkpt>
      <trkpt lat="50.07151" lon="3.74704">
        <ele>194</ele>
        <time>2018-06-24T09:34:46Z</time>
      </trkpt>
      <trkpt lat="50.07158" lon="3.74706">
        <ele>194</ele>
        <time>2018-06-24T09:34:47Z</time>
      </trkpt>
      <trkpt lat="50.07164" lon="3.7471">
        <ele>194</ele>
        <time>2018-06-24T09:34:48Z</time>
      </trkpt>
      <trkpt lat="50.07171" lon="3.74714">
        <ele>193</ele>
        <time>2018-06-24T09:34:49Z</time>
      </trkpt>
      <trkpt lat="50.07177" lon="3.74718">
        <ele>193</ele>
        <time>2018-06-24T09:34:50Z</time>
      </trkpt>
      <trkpt lat="50.07184" lon="3.74722">
        <ele>193</ele>
        <time>2018-06-24T09:34:51Z</time>
      </trkpt>
      <trkpt lat="50.0719" lon="3.74727">
        <ele>193</ele>
        <time>2018-06-24T09:34:52Z</time>
      </trkpt>
      <trkpt lat="50.07196" lon="3.74733">
        <ele>193</ele>
        <time>2018-06-24T09:34:53Z</time>
      </trkpt>
      <trkpt lat="50.07202" lon="3.74739">
        <ele>193</ele>
        <time>2018-06-24T09:34:54Z</time>
      </trkpt>
      <trkpt lat="50.07208" lon="3.74745">
        <ele>193</ele>
        <time>2018-06-24T09:34:55Z</time>
      </trkpt>
      <trkpt lat="50.07213" lon="3.74752">
        <ele>193</ele>
        <time>2018-06-24T09:34:56Z</time>
      </trkpt>
      <trkpt lat="50.07219" lon="3.74759">
        <ele>193</ele>
        <time>2018-06-24T09:34:57Z</time>
      </trkpt>
      <trkpt lat="50.07224" lon="3.74767">
        <ele>193</ele>
        <time>2018-06-24T09:34:58Z</time>
      </trkpt>
      <trkpt lat="50.07229" lon="3.74775">
        <ele>192</ele>
        <time>2018-06-24T09:34:59Z</time>
      </trkpt>
      <trkpt lat="50.07233" lon="3.74784">
        <ele>192</ele>
        <time>2018-06-24T09:35:00Z</time>
      </trkpt>
      <trkpt lat="50.07238" lon="3.74792">
        <ele>192</ele>
        <time>2018-06-24T09:35:01Z</time>
      </trkpt>
      <trkpt lat="50.07241" lon="3.74802">
        <ele>192</ele>
        <time>2018-06-24T09:35:02Z</time>
      </trkpt>
      <trkpt lat="50.07245" lon="3.74812">
        <ele>192</ele>
        <time>2018-06-24T09:35:03Z</time>
      </trkpt>
      <trkpt lat="50.07249" lon="3.74822">
        <ele>192</ele>
        <time>2018-06-24T09:35:04Z</time>
      </trkpt>
      <trkpt lat="50.07253" lon="3.74832">
        <ele>192</ele>
        <time>2018-06-24T09:35:05Z</time>
      </trkpt>
      <trkpt lat="50.07257" lon="3.74841">
        <ele>192</ele>
        <time>2018-06-24T09:35:06Z</time>
      </trkpt>
      <trkpt lat="50.07261" lon="3.74851">
        <ele>192</ele>
        <time>2018-06-24T09:35:07Z</time>
      </trkpt>
      <trkpt lat="50.07266" lon="3.74861">
        <ele>192</ele>
        <time>2018-06-24T09:35:08Z</time>
      </trkpt>
      <trkpt lat="50.0727" lon="3.74871">
        <ele>192</ele>
        <time>2018-06-24T09:35:09Z</time>
      </trkpt>
      <trkpt lat="50.07274" lon="3.74881">
        <ele>192</ele>
        <time>2018-06-24T09:35:10Z</time>
      </trkpt>
      <trkpt lat="50.07279" lon="3.74891">
        <ele>192</ele>
        <time>2018-06-24T09:35:11Z</time>
      </trkpt>
      <trkpt lat="50.07284" lon="3.749">
        <ele>192</ele>
        <time>2018-06-24T09:35:12Z</time>
      </trkpt>
      <trkpt lat="50.07288" lon="3.7491">
        <ele>192</ele>
        <time>2018-06-24T09:35:13Z</time>
      </trkpt>
      <trkpt lat="50.07293" lon="3.7492">
        <ele>192</ele>
        <time>2018-06-24T09:35:14Z</time>
      </trkpt>
      <trkpt lat="50.07298" lon="3.7493">
        <ele>192</ele>
        <time>2018-06-24T09:35:15Z</time>
      </trkpt>
      <trkpt lat="50.07302" lon="3.7494">
        <ele>192</ele>
        <time>2018-06-24T09:35:16Z</time>
      </trkpt>
      <trkpt lat="50.07307" lon="3.7495">
        <ele>192</ele>
        <time>2018-06-24T09:35:17Z</time>
      </trkpt>
      <trkpt lat="50.07312" lon="3.7496">
        <ele>192</ele>
        <time>2018-06-24T09:35:18Z</time>
      </trkpt>
      <trkpt lat="50.07316" lon="3.74969">
        <ele>192</ele>
        <time>2018-06-24T09:35:19Z</time>
      </trkpt>
      <trkpt lat="50.07321" lon="3.74979">
        <ele>191</ele>
        <time>2018-06-24T09:35:20Z</time>
      </trkpt>
      <trkpt lat="50.07325" lon="3.74989">
        <ele>191</ele>
        <time>2018-06-24T09:35:21Z</time>
      </trkpt>
      <trkpt lat="50.07329" lon="3.74998">
        <ele>191</ele>
        <time>2018-06-24T09:35:22Z</time>
      </trkpt>
      <trkpt lat="50.07333" lon="3.75008">
        <ele>191</ele>
        <time>2018-06-24T09:35:23Z</time>
      </trkpt>
      <trkpt lat="50.07338" lon="3.75018">
        <ele>191</ele>
        <time>2018-06-24T09:35:24Z</time>
      </trkpt>
      <trkpt lat="50.07341" lon="3.75028">
        <ele>191</ele>
        <time>2018-06-24T09:35:25Z</time>
      </trkpt>
      <trkpt lat="50.07345" lon="3.75039">
        <ele>190</ele>
        <time>2018-06-24T09:35:26Z</time>
      </trkpt>
      <trkpt lat="50.07348" lon="3.75049">
        <ele>190</ele>
        <time>2018-06-24T09:35:27Z</time>
      </trkpt>
      <trkpt lat="50.07351" lon="3.7506">
        <ele>190</ele>
        <time>2018-06-24T09:35:28Z</time>
      </trkpt>
      <trkpt lat="50.07354" lon="3.75071">
        <ele>190</ele>
        <time>2018-06-24T09:35:29Z</time>
      </trkpt>
      <trkpt lat="50.07357" lon="3.75082">
        <ele>190</ele>
        <time>2018-06-24T09:35:30Z</time>
      </trkpt>
      <trkpt lat="50.07359" lon="3.75093">
        <ele>190</ele>
        <time>2018-06-24T09:35:31Z</time>
      </trkpt>
      <trkpt lat="50.07361" lon="3.75104">
        <ele>190</ele>
        <time>2018-06-24T09:35:32Z</time>
      </trkpt>
      <trkpt lat="50.07363" lon="3.75115">
        <ele>190</ele>
        <time>2018-06-24T09:35:33Z</time>
      </trkpt>
      <trkpt lat="50.07366" lon="3.75125">
        <ele>189</ele>
        <time>2018-06-24T09:35:34Z</time>
      </trkpt>
      <trkpt lat="50.07368" lon="3.75136">
        <ele>189</ele>
        <time>2018-06-24T09:35:35Z</time>
      </trkpt>
      <trkpt lat="50.07371" lon="3.75147">
        <ele>189</ele>
        <time>2018-06-24T09:35:36Z</time>
      </trkpt>
      <trkpt lat="50.07373" lon="3.75158">
        <ele>189</ele>
        <time>2018-06-24T09:35:37Z</time>
      </trkpt>
      <trkpt lat="50.07376" lon="3.75169">
        <ele>188</ele>
        <time>2018-06-24T09:35:38Z</time>
      </trkpt>
      <trkpt lat="50.07379" lon="3.7518">
        <ele>188</ele>
        <time>2018-06-24T09:35:39Z</time>
      </trkpt>
      <trkpt lat="50.07382" lon="3.7519">
        <ele>188</ele>
        <time>2018-06-24T09:35:40Z</time>
      </trkpt>
      <trkpt lat="50.07386" lon="3.75201">
        <ele>188</ele>
        <time>2018-06-24T09:35:41Z</time>
      </trkpt>
      <trkpt lat="50.0739" lon="3.75211">
        <ele>188</ele>
        <time>2018-06-24T09:35:42Z</time>
      </trkpt>
      <trkpt lat="50.07394" lon="3.75221">
        <ele>188</ele>
        <time>2018-06-24T09:35:43Z</time>
      </trkpt>
      <trkpt lat="50.07399" lon="3.75231">
        <ele>188</ele>
        <time>2018-06-24T09:35:44Z</time>
      </trkpt>
      <trkpt lat="50.07404" lon="3.7524">
        <ele>188</ele>
        <time>2018-06-24T09:35:45Z</time>
      </trkpt>
      <trkpt lat="50.0741" lon="3.7525">
        <ele>187</ele>
        <time>2018-06-24T09:35:46Z</time>
      </trkpt>
      <trkpt lat="50.07415" lon="3.75259">
        <ele>187</ele>
        <time>2018-06-24T09:35:47Z</time>
      </trkpt>
      <trkpt lat="50.0742" lon="3.75268">
        <ele>187</ele>
        <time>2018-06-24T09:35:48Z</time>
      </trkpt>
      <trkpt lat="50.07426" lon="3.75277">
        <ele>187</ele>
        <time>2018-06-24T09:35:49Z</time>
      </trkpt>
      <trkpt lat="50.0743" lon="3.75285">
        <ele>186</ele>
        <time>2018-06-24T09:35:50Z</time>
      </trkpt>
      <trkpt lat="50.07435" lon="3.75294">
        <ele>186</ele>
        <time>2018-06-24T09:35:51Z</time>
      </trkpt>
      <trkpt lat="50.0744" lon="3.75304">
        <ele>186</ele>
        <time>2018-06-24T09:35:52Z</time>
      </trkpt>
      <trkpt lat="50.07445" lon="3.75313">
        <ele>186</ele>
        <time>2018-06-24T09:35:53Z</time>
      </trkpt>
      <trkpt lat="50.0745" lon="3.75322">
        <ele>186</ele>
        <time>2018-06-24T09:35:54Z</time>
      </trkpt>
      <trkpt lat="50.07455" lon="3.75332">
        <ele>186</ele>
        <time>2018-06-24T09:35:55Z</time>
      </trkpt>
      <trkpt lat="50.07459" lon="3.7534">
        <ele>186</ele>
        <time>2018-06-24T09:35:56Z</time>
      </trkpt>
      <trkpt lat="50.07464" lon="3.75348">
        <ele>186</ele>
        <time>2018-06-24T09:35:57Z</time>
      </trkpt>
      <trkpt lat="50.07469" lon="3.75358">
        <ele>186</ele>
        <time>2018-06-24T09:35:58Z</time>
      </trkpt>
      <trkpt lat="50.07474" lon="3.75368">
        <ele>186</ele>
        <time>2018-06-24T09:35:59Z</time>
      </trkpt>
      <trkpt lat="50.07479" lon="3.75377">
        <ele>186</ele>
        <time>2018-06-24T09:36:00Z</time>
      </trkpt>
      <trkpt lat="50.07483" lon="3.75387">
        <ele>186</ele>
        <time>2018-06-24T09:36:01Z</time>
      </trkpt>
      <trkpt lat="50.07487" lon="3.75396">
        <ele>186</ele>
        <time>2018-06-24T09:36:02Z</time>
      </trkpt>
      <trkpt lat="50.07491" lon="3.75406">
        <ele>186</ele>
        <time>2018-06-24T09:36:03Z</time>
      </trkpt>
      <trkpt lat="50.07495" lon="3.75417">
        <ele>186</ele>
        <time>2018-06-24T09:36:04Z</time>
      </trkpt>
      <trkpt lat="50.07497" lon="3.75428">
        <ele>187</ele>
        <time>2018-06-24T09:36:05Z</time>
      </trkpt>
      <trkpt lat="50.075" lon="3.75438">
        <ele>187</ele>
        <time>2018-06-24T09:36:06Z</time>
      </trkpt>
      <trkpt lat="50.07502" lon="3.7545">
        <ele>186</ele>
        <time>2018-06-24T09:36:07Z</time>
      </trkpt>
      <trkpt lat="50.07503" lon="3.75461">
        <ele>186</ele>
        <time>2018-06-24T09:36:08Z</time>
      </trkpt>
      <trkpt lat="50.07503" lon="3.75472">
        <ele>186</ele>
        <time>2018-06-24T09:36:09Z</time>
      </trkpt>
      <trkpt lat="50.07503" lon="3.75483">
        <ele>186</ele>
        <time>2018-06-24T09:36:10Z</time>
      </trkpt>
      <trkpt lat="50.07502" lon="3.75493">
        <ele>187</ele>
        <time>2018-06-24T09:36:11Z</time>
      </trkpt>
      <trkpt lat="50.07501" lon="3.75503">
        <ele>187</ele>
        <time>2018-06-24T09:36:12Z</time>
      </trkpt>
      <trkpt lat="50.07501" lon="3.75514">
        <ele>186</ele>
        <time>2018-06-24T09:36:13Z</time>
      </trkpt>
      <trkpt lat="50.075" lon="3.75524">
        <ele>188</ele>
        <time>2018-06-24T09:36:14Z</time>
      </trkpt>
      <trkpt lat="50.07499" lon="3.75535">
        <ele>188</ele>
        <time>2018-06-24T09:36:15Z</time>
      </trkpt>
      <trkpt lat="50.07499" lon="3.75546">
        <ele>188</ele>
        <time>2018-06-24T09:36:16Z</time>
      </trkpt>
      <trkpt lat="50.07498" lon="3.75558">
        <ele>188</ele>
        <time>2018-06-24T09:36:17Z</time>
      </trkpt>
      <trkpt lat="50.07498" lon="3.75569">
        <ele>188</ele>
        <time>2018-06-24T09:36:18Z</time>
      </trkpt>
      <trkpt lat="50.07497" lon="3.7558">
        <ele>187</ele>
        <time>2018-06-24T09:36:19Z</time>
      </trkpt>
      <trkpt lat="50.07497" lon="3.75592">
        <ele>187</ele>
        <time>2018-06-24T09:36:20Z</time>
      </trkpt>
      <trkpt lat="50.07496" lon="3.75603">
        <ele>188</ele>
        <time>2018-06-24T09:36:21Z</time>
      </trkpt>
      <trkpt lat="50.07496" lon="3.75615">
        <ele>188</ele>
        <time>2018-06-24T09:36:22Z</time>
      </trkpt>
      <trkpt lat="50.07495" lon="3.75627">
        <ele>188</ele>
        <time>2018-06-24T09:36:23Z</time>
      </trkpt>
      <trkpt lat="50.07495" lon="3.75639">
        <ele>188</ele>
        <time>2018-06-24T09:36:24Z</time>
      </trkpt>
      <trkpt lat="50.07496" lon="3.75652">
        <ele>188</ele>
        <time>2018-06-24T09:36:25Z</time>
      </trkpt>
      <trkpt lat="50.07496" lon="3.75665">
        <ele>188</ele>
        <time>2018-06-24T09:36:26Z</time>
      </trkpt>
      <trkpt lat="50.07498" lon="3.75678">
        <ele>188</ele>
        <time>2018-06-24T09:36:27Z</time>
      </trkpt>
      <trkpt lat="50.07499" lon="3.75691">
        <ele>187</ele>
        <time>2018-06-24T09:36:28Z</time>
      </trkpt>
      <trkpt lat="50.07501" lon="3.75704">
        <ele>187</ele>
        <time>2018-06-24T09:36:29Z</time>
      </trkpt>
      <trkpt lat="50.07504" lon="3.75718">
        <ele>187</ele>
        <time>2018-06-24T09:36:30Z</time>
      </trkpt>
      <trkpt lat="50.07507" lon="3.75731">
        <ele>186</ele>
        <time>2018-06-24T09:36:31Z</time>
      </trkpt>
      <trkpt lat="50.0751" lon="3.75745">
        <ele>186</ele>
        <time>2018-06-24T09:36:32Z</time>
      </trkpt>
      <trkpt lat="50.07513" lon="3.75758">
        <ele>185</ele>
        <time>2018-06-24T09:36:33Z</time>
      </trkpt>
      <trkpt lat="50.07516" lon="3.75772">
        <ele>185</ele>
        <time>2018-06-24T09:36:34Z</time>
      </trkpt>
      <trkpt lat="50.0752" lon="3.75785">
        <ele>184</ele>
        <time>2018-06-24T09:36:35Z</time>
      </trkpt>
      <trkpt lat="50.07523" lon="3.75799">
        <ele>184</ele>
        <time>2018-06-24T09:36:36Z</time>
      </trkpt>
      <trkpt lat="50.07527" lon="3.75811">
        <ele>184</ele>
        <time>2018-06-24T09:36:37Z</time>
      </trkpt>
      <trkpt lat="50.0753" lon="3.75824">
        <ele>184</ele>
        <time>2018-06-24T09:36:38Z</time>
      </trkpt>
      <trkpt lat="50.07534" lon="3.75838">
        <ele>183</ele>
        <time>2018-06-24T09:36:39Z</time>
      </trkpt>
      <trkpt lat="50.07538" lon="3.75851">
        <ele>183</ele>
        <time>2018-06-24T09:36:40Z</time>
      </trkpt>
      <trkpt lat="50.07541" lon="3.75865">
        <ele>183</ele>
        <time>2018-06-24T09:36:41Z</time>
      </trkpt>
      <trkpt lat="50.07545" lon="3.75877">
        <ele>182</ele>
        <time>2018-06-24T09:36:42Z</time>
      </trkpt>
      <trkpt lat="50.07549" lon="3.7589">
        <ele>182</ele>
        <time>2018-06-24T09:36:43Z</time>
      </trkpt>
      <trkpt lat="50.07554" lon="3.75901">
        <ele>182</ele>
        <time>2018-06-24T09:36:44Z</time>
      </trkpt>
      <trkpt lat="50.07559" lon="3.75911">
        <ele>182</ele>
        <time>2018-06-24T09:36:45Z</time>
      </trkpt>
      <trkpt lat="50.07565" lon="3.75921">
        <ele>182</ele>
        <time>2018-06-24T09:36:46Z</time>
      </trkpt>
      <trkpt lat="50.07571" lon="3.7593">
        <ele>182</ele>
        <time>2018-06-24T09:36:47Z</time>
      </trkpt>
      <trkpt lat="50.07577" lon="3.75939">
        <ele>182</ele>
        <time>2018-06-24T09:36:48Z</time>
      </trkpt>
      <trkpt lat="50.07584" lon="3.75947">
        <ele>181</ele>
        <time>2018-06-24T09:36:49Z</time>
      </trkpt>
      <trkpt lat="50.0759" lon="3.75956">
        <ele>181</ele>
        <time>2018-06-24T09:36:50Z</time>
      </trkpt>
      <trkpt lat="50.07596" lon="3.75965">
        <ele>180</ele>
        <time>2018-06-24T09:36:51Z</time>
      </trkpt>
      <trkpt lat="50.07603" lon="3.75974">
        <ele>180</ele>
        <time>2018-06-24T09:36:52Z</time>
      </trkpt>
      <trkpt lat="50.07609" lon="3.75982">
        <ele>180</ele>
        <time>2018-06-24T09:36:53Z</time>
      </trkpt>
      <trkpt lat="50.07615" lon="3.7599">
        <ele>180</ele>
        <time>2018-06-24T09:36:54Z</time>
      </trkpt>
      <trkpt lat="50.07621" lon="3.75998">
        <ele>180</ele>
        <time>2018-06-24T09:36:55Z</time>
      </trkpt>
      <trkpt lat="50.07627" lon="3.76007">
        <ele>179</ele>
        <time>2018-06-24T09:36:56Z</time>
      </trkpt>
      <trkpt lat="50.07633" lon="3.76015">
        <ele>179</ele>
        <time>2018-06-24T09:36:57Z</time>
      </trkpt>
      <trkpt lat="50.07638" lon="3.76023">
        <ele>179</ele>
        <time>2018-06-24T09:36:58Z</time>
      </trkpt>
      <trkpt lat="50.07644" lon="3.7603">
        <ele>179</ele>
        <time>2018-06-24T09:36:59Z</time>
      </trkpt>
      <trkpt lat="50.07649" lon="3.76037">
        <ele>178</ele>
        <time>2018-06-24T09:37:00Z</time>
      </trkpt>
      <trkpt lat="50.07655" lon="3.76044">
        <ele>178</ele>
        <time>2018-06-24T09:37:01Z</time>
      </trkpt>
      <trkpt lat="50.0766" lon="3.76051">
        <ele>178</ele>
        <time>2018-06-24T09:37:02Z</time>
      </trkpt>
      <trkpt lat="50.07664" lon="3.76059">
        <ele>178</ele>
        <time>2018-06-24T09:37:03Z</time>
      </trkpt>
      <trkpt lat="50.07669" lon="3.76068">
        <ele>176</ele>
        <time>2018-06-24T09:37:04Z</time>
      </trkpt>
      <trkpt lat="50.07673" lon="3.76077">
        <ele>177</ele>
        <time>2018-06-24T09:37:05Z</time>
      </trkpt>
      <trkpt lat="50.07678" lon="3.76085">
        <ele>176</ele>
        <time>2018-06-24T09:37:06Z</time>
      </trkpt>
      <trkpt lat="50.07682" lon="3.76095">
        <ele>176</ele>
        <time>2018-06-24T09:37:07Z</time>
      </trkpt>
      <trkpt lat="50.07686" lon="3.76104">
        <ele>176</ele>
        <time>2018-06-24T09:37:08Z</time>
      </trkpt>
      <trkpt lat="50.07691" lon="3.76113">
        <ele>175</ele>
        <time>2018-06-24T09:37:09Z</time>
      </trkpt>
      <trkpt lat="50.07695" lon="3.76123">
        <ele>175</ele>
        <time>2018-06-24T09:37:10Z</time>
      </trkpt>
      <trkpt lat="50.077" lon="3.76132">
        <ele>175</ele>
        <time>2018-06-24T09:37:11Z</time>
      </trkpt>
      <trkpt lat="50.07705" lon="3.76142">
        <ele>175</ele>
        <time>2018-06-24T09:37:12Z</time>
      </trkpt>
      <trkpt lat="50.0771" lon="3.76152">
        <ele>175</ele>
        <time>2018-06-24T09:37:13Z</time>
      </trkpt>
      <trkpt lat="50.07715" lon="3.76162">
        <ele>175</ele>
        <time>2018-06-24T09:37:14Z</time>
      </trkpt>
      <trkpt lat="50.07721" lon="3.76172">
        <ele>174</ele>
        <time>2018-06-24T09:37:15Z</time>
      </trkpt>
      <trkpt lat="50.07726" lon="3.76182">
        <ele>174</ele>
        <time>2018-06-24T09:37:16Z</time>
      </trkpt>
      <trkpt lat="50.0773" lon="3.76192">
        <ele>174</ele>
        <time>2018-06-24T09:37:17Z</time>
      </trkpt>
      <trkpt lat="50.07735" lon="3.76203">
        <ele>174</ele>
        <time>2018-06-24T09:37:18Z</time>
      </trkpt>
      <trkpt lat="50.0774" lon="3.76213">
        <ele>174</ele>
        <time>2018-06-24T09:37:19Z</time>
      </trkpt>
      <trkpt lat="50.07745" lon="3.76224">
        <ele>173</ele>
        <time>2018-06-24T09:37:20Z</time>
      </trkpt>
      <trkpt lat="50.07749" lon="3.76234">
        <ele>173</ele>
        <time>2018-06-24T09:37:21Z</time>
      </trkpt>
      <trkpt lat="50.07754" lon="3.76246">
        <ele>172</ele>
        <time>2018-06-24T09:37:22Z</time>
      </trkpt>
      <trkpt lat="50.07757" lon="3.76259">
        <ele>171</ele>
        <time>2018-06-24T09:37:23Z</time>
      </trkpt>
      <trkpt lat="50.0776" lon="3.76272">
        <ele>171</ele>
        <time>2018-06-24T09:37:24Z</time>
      </trkpt>
      <trkpt lat="50.07762" lon="3.76285">
        <ele>171</ele>
        <time>2018-06-24T09:37:25Z</time>
      </trkpt>
      <trkpt lat="50.07764" lon="3.76298">
        <ele>170</ele>
        <time>2018-06-24T09:37:26Z</time>
      </trkpt>
      <trkpt lat="50.07765" lon="3.76311">
        <ele>170</ele>
        <time>2018-06-24T09:37:27Z</time>
      </trkpt>
      <trkpt lat="50.07767" lon="3.76324">
        <ele>170</ele>
        <time>2018-06-24T09:37:28Z</time>
      </trkpt>
      <trkpt lat="50.07768" lon="3.76337">
        <ele>170</ele>
        <time>2018-06-24T09:37:29Z</time>
      </trkpt>
      <trkpt lat="50.0777" lon="3.76349">
        <ele>170</ele>
        <time>2018-06-24T09:37:30Z</time>
      </trkpt>
      <trkpt lat="50.07772" lon="3.76361">
        <ele>170</ele>
        <time>2018-06-24T09:37:31Z</time>
      </trkpt>
      <trkpt lat="50.07773" lon="3.76375">
        <ele>170</ele>
        <time>2018-06-24T09:37:32Z</time>
      </trkpt>
      <trkpt lat="50.07775" lon="3.76387">
        <ele>170</ele>
        <time>2018-06-24T09:37:33Z</time>
      </trkpt>
      <trkpt lat="50.07779" lon="3.76399">
        <ele>170</ele>
        <time>2018-06-24T09:37:34Z</time>
      </trkpt>
      <trkpt lat="50.07783" lon="3.76409">
        <ele>170</ele>
        <time>2018-06-24T09:37:35Z</time>
      </trkpt>
      <trkpt lat="50.07789" lon="3.76415">
        <ele>170</ele>
        <time>2018-06-24T09:37:36Z</time>
      </trkpt>
      <trkpt lat="50.07797" lon="3.76422">
        <ele>170</ele>
        <time>2018-06-24T09:37:37Z</time>
      </trkpt>
      <trkpt lat="50.07803" lon="3.76429">
        <ele>170</ele>
        <time>2018-06-24T09:37:38Z</time>
      </trkpt>
      <trkpt lat="50.07811" lon="3.76435">
        <ele>170</ele>
        <time>2018-06-24T09:37:39Z</time>
      </trkpt>
      <trkpt lat="50.07818" lon="3.76441">
        <ele>169</ele>
        <time>2018-06-24T09:37:40Z</time>
      </trkpt>
      <trkpt lat="50.07825" lon="3.76447">
        <ele>169</ele>
        <time>2018-06-24T09:37:41Z</time>
      </trkpt>
      <trkpt lat="50.07832" lon="3.76453">
        <ele>169</ele>
        <time>2018-06-24T09:37:42Z</time>
      </trkpt>
      <trkpt lat="50.07839" lon="3.76459">
        <ele>169</ele>
        <time>2018-06-24T09:37:43Z</time>
      </trkpt>
      <trkpt lat="50.07845" lon="3.76464">
        <ele>169</ele>
        <time>2018-06-24T09:37:44Z</time>
      </trkpt>
      <trkpt lat="50.07853" lon="3.76468">
        <ele>169</ele>
        <time>2018-06-24T09:37:45Z</time>
      </trkpt>
      <trkpt lat="50.07859" lon="3.76473">
        <ele>169</ele>
        <time>2018-06-24T09:37:46Z</time>
      </trkpt>
      <trkpt lat="50.07866" lon="3.76477">
        <ele>169</ele>
        <time>2018-06-24T09:37:47Z</time>
      </trkpt>
      <trkpt lat="50.07873" lon="3.76482">
        <ele>169</ele>
        <time>2018-06-24T09:37:48Z</time>
      </trkpt>
      <trkpt lat="50.07881" lon="3.76487">
        <ele>169</ele>
        <time>2018-06-24T09:37:49Z</time>
      </trkpt>
      <trkpt lat="50.07888" lon="3.76491">
        <ele>169</ele>
        <time>2018-06-24T09:37:50Z</time>
      </trkpt>
      <trkpt lat="50.07894" lon="3.76496">
        <ele>170</ele>
        <time>2018-06-24T09:37:51Z</time>
      </trkpt>
      <trkpt lat="50.07901" lon="3.76499">
        <ele>170</ele>
        <time>2018-06-24T09:37:52Z</time>
      </trkpt>
      <trkpt lat="50.07907" lon="3.76504">
        <ele>170</ele>
        <time>2018-06-24T09:37:53Z</time>
      </trkpt>
      <trkpt lat="50.07914" lon="3.7651">
        <ele>170</ele>
        <time>2018-06-24T09:37:54Z</time>
      </trkpt>
      <trkpt lat="50.07919" lon="3.76518">
        <ele>171</ele>
        <time>2018-06-24T09:37:55Z</time>
      </trkpt>
      <trkpt lat="50.07922" lon="3.76526">
        <ele>172</ele>
        <time>2018-06-24T09:37:56Z</time>
      </trkpt>
      <trkpt lat="50.07924" lon="3.76537">
        <ele>172</ele>
        <time>2018-06-24T09:37:57Z</time>
      </trkpt>
      <trkpt lat="50.07926" lon="3.76549">
        <ele>172</ele>
        <time>2018-06-24T09:37:58Z</time>
      </trkpt>
      <trkpt lat="50.07928" lon="3.7656">
        <ele>173</ele>
        <time>2018-06-24T09:37:59Z</time>
      </trkpt>
      <trkpt lat="50.0793" lon="3.76571">
        <ele>173</ele>
        <time>2018-06-24T09:38:00Z</time>
      </trkpt>
      <trkpt lat="50.07934" lon="3.76581">
        <ele>173</ele>
        <time>2018-06-24T09:38:01Z</time>
      </trkpt>
      <trkpt lat="50.07936" lon="3.76591">
        <ele>174</ele>
        <time>2018-06-24T09:38:02Z</time>
      </trkpt>
      <trkpt lat="50.07939" lon="3.766">
        <ele>175</ele>
        <time>2018-06-24T09:38:03Z</time>
      </trkpt>
      <trkpt lat="50.07942" lon="3.76607">
        <ele>175</ele>
        <time>2018-06-24T09:38:04Z</time>
      </trkpt>
      <trkpt lat="50.07946" lon="3.76613">
        <ele>175</ele>
        <time>2018-06-24T09:38:05Z</time>
      </trkpt>
      <trkpt lat="50.07949" lon="3.7662">
        <ele>175</ele>
        <time>2018-06-24T09:38:06Z</time>
      </trkpt>
      <trkpt lat="50.07952" lon="3.76626">
        <ele>175</ele>
        <time>2018-06-24T09:38:07Z</time>
      </trkpt>
      <trkpt lat="50.07955" lon="3.76632">
        <ele>176</ele>
        <time>2018-06-24T09:38:08Z</time>
      </trkpt>
      <trkpt lat="50.07957" lon="3.76638">
        <ele>176</ele>
        <time>2018-06-24T09:38:09Z</time>
      </trkpt>
      <trkpt lat="50.0796" lon="3.76644">
        <ele>176</ele>
        <time>2018-06-24T09:38:10Z</time>
      </trkpt>
      <trkpt lat="50.07961" lon="3.76649">
        <ele>176</ele>
        <time>2018-06-24T09:38:11Z</time>
      </trkpt>
      <trkpt lat="50.07963" lon="3.76655">
        <ele>176</ele>
        <time>2018-06-24T09:38:12Z</time>
      </trkpt>
      <trkpt lat="50.07967" lon="3.76659">
        <ele>176</ele>
        <time>2018-06-24T09:38:13Z</time>
      </trkpt>
      <trkpt lat="50.0797" lon="3.76663">
        <ele>176</ele>
        <time>2018-06-24T09:38:14Z</time>
      </trkpt>
      <trkpt lat="50.07971" lon="3.76667">
        <ele>177</ele>
        <time>2018-06-24T09:38:15Z</time>
      </trkpt>
      <trkpt lat="50.07972" lon="3.76672">
        <ele>177</ele>
        <time>2018-06-24T09:38:16Z</time>
      </trkpt>
      <trkpt lat="50.07971" lon="3.76677">
        <ele>177</ele>
        <time>2018-06-24T09:38:17Z</time>
      </trkpt>
      <trkpt lat="50.0797" lon="3.76681">
        <ele>177</ele>
        <time>2018-06-24T09:38:18Z</time>
      </trkpt>
      <trkpt lat="50.07967" lon="3.76685">
        <ele>177</ele>
        <time>2018-06-24T09:38:19Z</time>
      </trkpt>
      <trkpt lat="50.07963" lon="3.7669">
        <ele>177</ele>
        <time>2018-06-24T09:38:20Z</time>
      </trkpt>
      <trkpt lat="50.07959" lon="3.76695">
        <ele>177</ele>
        <time>2018-06-24T09:38:21Z</time>
      </trkpt>
      <trkpt lat="50.07954" lon="3.767">
        <ele>177</ele>
        <time>2018-06-24T09:38:22Z</time>
      </trkpt>
      <trkpt lat="50.07949" lon="3.76705">
        <ele>177</ele>
        <time>2018-06-24T09:38:23Z</time>
      </trkpt>
      <trkpt lat="50.07944" lon="3.7671">
        <ele>177</ele>
        <time>2018-06-24T09:38:24Z</time>
      </trkpt>
      <trkpt lat="50.0794" lon="3.76716">
        <ele>177</ele>
        <time>2018-06-24T09:38:25Z</time>
      </trkpt>
      <trkpt lat="50.07933" lon="3.76723">
        <ele>177</ele>
        <time>2018-06-24T09:38:26Z</time>
      </trkpt>
      <trkpt lat="50.07927" lon="3.76728">
        <ele>177</ele>
        <time>2018-06-24T09:38:27Z</time>
      </trkpt>
      <trkpt lat="50.07921" lon="3.76735">
        <ele>177</ele>
        <time>2018-06-24T09:38:28Z</time>
      </trkpt>
      <trkpt lat="50.07914" lon="3.76743">
        <ele>176</ele>
        <time>2018-06-24T09:38:29Z</time>
      </trkpt>
      <trkpt lat="50.07908" lon="3.76751">
        <ele>177</ele>
        <time>2018-06-24T09:38:30Z</time>
      </trkpt>
      <trkpt lat="50.07902" lon="3.7676">
        <ele>177</ele>
        <time>2018-06-24T09:38:31Z</time>
      </trkpt>
      <trkpt lat="50.07897" lon="3.76768">
        <ele>177</ele>
        <time>2018-06-24T09:38:32Z</time>
      </trkpt>
      <trkpt lat="50.07892" lon="3.76776">
        <ele>177</ele>
        <time>2018-06-24T09:38:33Z</time>
      </trkpt>
      <trkpt lat="50.07887" lon="3.76784">
        <ele>177</ele>
        <time>2018-06-24T09:38:34Z</time>
      </trkpt>
      <trkpt lat="50.07881" lon="3.76792">
        <ele>177</ele>
        <time>2018-06-24T09:38:35Z</time>
      </trkpt>
      <trkpt lat="50.07876" lon="3.76799">
        <ele>177</ele>
        <time>2018-06-24T09:38:36Z</time>
      </trkpt>
      <trkpt lat="50.07871" lon="3.76807">
        <ele>177</ele>
        <time>2018-06-24T09:38:37Z</time>
      </trkpt>
      <trkpt lat="50.07866" lon="3.76814">
        <ele>177</ele>
        <time>2018-06-24T09:38:38Z</time>
      </trkpt>
      <trkpt lat="50.07863" lon="3.76822">
        <ele>177</ele>
        <time>2018-06-24T09:38:39Z</time>
      </trkpt>
      <trkpt lat="50.07859" lon="3.76829">
        <ele>177</ele>
        <time>2018-06-24T09:38:40Z</time>
      </trkpt>
      <trkpt lat="50.07857" lon="3.76837">
        <ele>178</ele>
        <time>2018-06-24T09:38:41Z</time>
      </trkpt>
      <trkpt lat="50.07854" lon="3.76844">
        <ele>178</ele>
        <time>2018-06-24T09:38:42Z</time>
      </trkpt>
      <trkpt lat="50.07856" lon="3.76853">
        <ele>178</ele>
        <time>2018-06-24T09:38:44Z</time>
      </trkpt>
      <trkpt lat="50.07859" lon="3.76858">
        <ele>179</ele>
        <time>2018-06-24T09:38:45Z</time>
      </trkpt>
      <trkpt lat="50.07862" lon="3.76862">
        <ele>179</ele>
        <time>2018-06-24T09:38:46Z</time>
      </trkpt>
      <trkpt lat="50.07867" lon="3.76866">
        <ele>179</ele>
        <time>2018-06-24T09:38:47Z</time>
      </trkpt>
      <trkpt lat="50.0787" lon="3.76869">
        <ele>179</ele>
        <time>2018-06-24T09:38:48Z</time>
      </trkpt>
      <trkpt lat="50.07873" lon="3.76872">
        <ele>179</ele>
        <time>2018-06-24T09:38:49Z</time>
      </trkpt>
      <trkpt lat="50.07876" lon="3.76873">
        <ele>179</ele>
        <time>2018-06-24T09:38:50Z</time>
      </trkpt>
      <trkpt lat="50.07879" lon="3.76875">
        <ele>179</ele>
        <time>2018-06-24T09:38:51Z</time>
      </trkpt>
      <trkpt lat="50.07882" lon="3.76878">
        <ele>179</ele>
        <time>2018-06-24T09:38:53Z</time>
      </trkpt>
      <trkpt lat="50.07884" lon="3.76882">
        <ele>179</ele>
        <time>2018-06-24T09:38:56Z</time>
      </trkpt>
      <trkpt lat="50.07886" lon="3.76885">
        <ele>179</ele>
        <time>2018-06-24T09:39:01Z</time>
      </trkpt>
      <trkpt lat="50.07889" lon="3.76887">
        <ele>179</ele>
        <time>2018-06-24T09:39:08Z</time>
      </trkpt>
      <trkpt lat="50.07886" lon="3.76883">
        <ele>179</ele>
        <time>2018-06-24T09:39:36Z</time>
      </trkpt>
      <trkpt lat="50.07883" lon="3.7688">
        <ele>179</ele>
        <time>2018-06-24T09:39:37Z</time>
      </trkpt>
      <trkpt lat="50.07879" lon="3.76871">
        <ele>179</ele>
        <time>2018-06-24T09:39:38Z</time>
      </trkpt>
      <trkpt lat="50.07876" lon="3.76867">
        <ele>179</ele>
        <time>2018-06-24T09:39:39Z</time>
      </trkpt>
      <trkpt lat="50.07873" lon="3.76862">
        <ele>179</ele>
        <time>2018-06-24T09:39:40Z</time>
      </trkpt>
      <trkpt lat="50.0787" lon="3.76857">
        <ele>179</ele>
        <time>2018-06-24T09:39:41Z</time>
      </trkpt>
      <trkpt lat="50.07866" lon="3.76853">
        <ele>179</ele>
        <time>2018-06-24T09:39:42Z</time>
      </trkpt>
      <trkpt lat="50.07863" lon="3.76848">
        <ele>178</ele>
        <time>2018-06-24T09:39:43Z</time>
      </trkpt>
      <trkpt lat="50.0786" lon="3.7684">
        <ele>178</ele>
        <time>2018-06-24T09:39:44Z</time>
      </trkpt>
      <trkpt lat="50.07858" lon="3.76832">
        <ele>177</ele>
        <time>2018-06-24T09:39:45Z</time>
      </trkpt>
      <trkpt lat="50.0786" lon="3.76825">
        <ele>177</ele>
        <time>2018-06-24T09:39:46Z</time>
      </trkpt>
      <trkpt lat="50.07864" lon="3.76816">
        <ele>177</ele>
        <time>2018-06-24T09:39:47Z</time>
      </trkpt>
      <trkpt lat="50.07869" lon="3.76809">
        <ele>177</ele>
        <time>2018-06-24T09:39:48Z</time>
      </trkpt>
      <trkpt lat="50.07875" lon="3.76802">
        <ele>177</ele>
        <time>2018-06-24T09:39:49Z</time>
      </trkpt>
      <trkpt lat="50.0788" lon="3.76793">
        <ele>177</ele>
        <time>2018-06-24T09:39:50Z</time>
      </trkpt>
      <trkpt lat="50.07885" lon="3.76787">
        <ele>177</ele>
        <time>2018-06-24T09:39:51Z</time>
      </trkpt>
      <trkpt lat="50.0789" lon="3.76779">
        <ele>177</ele>
        <time>2018-06-24T09:39:52Z</time>
      </trkpt>
      <trkpt lat="50.07895" lon="3.76771">
        <ele>177</ele>
        <time>2018-06-24T09:39:53Z</time>
      </trkpt>
      <trkpt lat="50.079" lon="3.76765">
        <ele>177</ele>
        <time>2018-06-24T09:39:54Z</time>
      </trkpt>
      <trkpt lat="50.07904" lon="3.76759">
        <ele>177</ele>
        <time>2018-06-24T09:39:55Z</time>
      </trkpt>
      <trkpt lat="50.0791" lon="3.76753">
        <ele>177</ele>
        <time>2018-06-24T09:39:56Z</time>
      </trkpt>
      <trkpt lat="50.07916" lon="3.76746">
        <ele>177</ele>
        <time>2018-06-24T09:39:57Z</time>
      </trkpt>
      <trkpt lat="50.07921" lon="3.76739">
        <ele>177</ele>
        <time>2018-06-24T09:39:58Z</time>
      </trkpt>
      <trkpt lat="50.07926" lon="3.76732">
        <ele>177</ele>
        <time>2018-06-24T09:39:59Z</time>
      </trkpt>
      <trkpt lat="50.07931" lon="3.76726">
        <ele>177</ele>
        <time>2018-06-24T09:40:00Z</time>
      </trkpt>
      <trkpt lat="50.07936" lon="3.76718">
        <ele>177</ele>
        <time>2018-06-24T09:40:01Z</time>
      </trkpt>
      <trkpt lat="50.07942" lon="3.76713">
        <ele>177</ele>
        <time>2018-06-24T09:40:02Z</time>
      </trkpt>
      <trkpt lat="50.07948" lon="3.76708">
        <ele>177</ele>
        <time>2018-06-24T09:40:03Z</time>
      </trkpt>
      <trkpt lat="50.07953" lon="3.76703">
        <ele>177</ele>
        <time>2018-06-24T09:40:04Z</time>
      </trkpt>
      <trkpt lat="50.07958" lon="3.76699">
        <ele>177</ele>
        <time>2018-06-24T09:40:05Z</time>
      </trkpt>
      <trkpt lat="50.07963" lon="3.76694">
        <ele>177</ele>
        <time>2018-06-24T09:40:06Z</time>
      </trkpt>
      <trkpt lat="50.07967" lon="3.76689">
        <ele>177</ele>
        <time>2018-06-24T09:40:07Z</time>
      </trkpt>
      <trkpt lat="50.07972" lon="3.76683">
        <ele>177</ele>
        <time>2018-06-24T09:40:08Z</time>
      </trkpt>
      <trkpt lat="50.07976" lon="3.76677">
        <ele>177</ele>
        <time>2018-06-24T09:40:09Z</time>
      </trkpt>
      <trkpt lat="50.07982" lon="3.76675">
        <ele>178</ele>
        <time>2018-06-24T09:40:10Z</time>
      </trkpt>
      <trkpt lat="50.07987" lon="3.7667">
        <ele>178</ele>
        <time>2018-06-24T09:40:11Z</time>
      </trkpt>
      <trkpt lat="50.07992" lon="3.76664">
        <ele>177</ele>
        <time>2018-06-24T09:40:12Z</time>
      </trkpt>
      <trkpt lat="50.07997" lon="3.76659">
        <ele>177</ele>
        <time>2018-06-24T09:40:13Z</time>
      </trkpt>
      <trkpt lat="50.08002" lon="3.76653">
        <ele>178</ele>
        <time>2018-06-24T09:40:14Z</time>
      </trkpt>
      <trkpt lat="50.08007" lon="3.76648">
        <ele>178</ele>
        <time>2018-06-24T09:40:15Z</time>
      </trkpt>
      <trkpt lat="50.08012" lon="3.76642">
        <ele>178</ele>
        <time>2018-06-24T09:40:16Z</time>
      </trkpt>
      <trkpt lat="50.08017" lon="3.76636">
        <ele>178</ele>
        <time>2018-06-24T09:40:17Z</time>
      </trkpt>
      <trkpt lat="50.0802" lon="3.76631">
        <ele>178</ele>
        <time>2018-06-24T09:40:18Z</time>
      </trkpt>
      <trkpt lat="50.08024" lon="3.76624">
        <ele>178</ele>
        <time>2018-06-24T09:40:19Z</time>
      </trkpt>
      <trkpt lat="50.08029" lon="3.7662">
        <ele>178</ele>
        <time>2018-06-24T09:40:20Z</time>
      </trkpt>
      <trkpt lat="50.08033" lon="3.76614">
        <ele>178</ele>
        <time>2018-06-24T09:40:21Z</time>
      </trkpt>
      <trkpt lat="50.08038" lon="3.76606">
        <ele>178</ele>
        <time>2018-06-24T09:40:22Z</time>
      </trkpt>
      <trkpt lat="50.08043" lon="3.76602">
        <ele>178</ele>
        <time>2018-06-24T09:40:23Z</time>
      </trkpt>
      <trkpt lat="50.08048" lon="3.76594">
        <ele>178</ele>
        <time>2018-06-24T09:40:24Z</time>
      </trkpt>
      <trkpt lat="50.08053" lon="3.76587">
        <ele>178</ele>
        <time>2018-06-24T09:40:25Z</time>
      </trkpt>
      <trkpt lat="50.08059" lon="3.76578">
        <ele>177</ele>
        <time>2018-06-24T09:40:26Z</time>
      </trkpt>
      <trkpt lat="50.08064" lon="3.76571">
        <ele>177</ele>
        <time>2018-06-24T09:40:27Z</time>
      </trkpt>
      <trkpt lat="50.08068" lon="3.76564">
        <ele>177</ele>
        <time>2018-06-24T09:40:28Z</time>
      </trkpt>
      <trkpt lat="50.08072" lon="3.76557">
        <ele>177</ele>
        <time>2018-06-24T09:40:29Z</time>
      </trkpt>
      <trkpt lat="50.08078" lon="3.7655">
        <ele>177</ele>
        <time>2018-06-24T09:40:30Z</time>
      </trkpt>
      <trkpt lat="50.08083" lon="3.76543">
        <ele>177</ele>
        <time>2018-06-24T09:40:31Z</time>
      </trkpt>
      <trkpt lat="50.08088" lon="3.76536">
        <ele>179</ele>
        <time>2018-06-24T09:40:32Z</time>
      </trkpt>
      <trkpt lat="50.08092" lon="3.76531">
        <ele>178</ele>
        <time>2018-06-24T09:40:33Z</time>
      </trkpt>
      <trkpt lat="50.08097" lon="3.76525">
        <ele>178</ele>
        <time>2018-06-24T09:40:34Z</time>
      </trkpt>
      <trkpt lat="50.08103" lon="3.76521">
        <ele>178</ele>
        <time>2018-06-24T09:40:35Z</time>
      </trkpt>
      <trkpt lat="50.08108" lon="3.76516">
        <ele>178</ele>
        <time>2018-06-24T09:40:36Z</time>
      </trkpt>
      <trkpt lat="50.08114" lon="3.76512">
        <ele>178</ele>
        <time>2018-06-24T09:40:37Z</time>
      </trkpt>
      <trkpt lat="50.08119" lon="3.76508">
        <ele>179</ele>
        <time>2018-06-24T09:40:38Z</time>
      </trkpt>
      <trkpt lat="50.08125" lon="3.76504">
        <ele>179</ele>
        <time>2018-06-24T09:40:39Z</time>
      </trkpt>
      <trkpt lat="50.0813" lon="3.76499">
        <ele>177</ele>
        <time>2018-06-24T09:40:40Z</time>
      </trkpt>
      <trkpt lat="50.08136" lon="3.76495">
        <ele>177</ele>
        <time>2018-06-24T09:40:41Z</time>
      </trkpt>
      <trkpt lat="50.08142" lon="3.7649">
        <ele>177</ele>
        <time>2018-06-24T09:40:42Z</time>
      </trkpt>
      <trkpt lat="50.08147" lon="3.76485">
        <ele>177</ele>
        <time>2018-06-24T09:40:43Z</time>
      </trkpt>
      <trkpt lat="50.08153" lon="3.76481">
        <ele>177</ele>
        <time>2018-06-24T09:40:44Z</time>
      </trkpt>
      <trkpt lat="50.08158" lon="3.76476">
        <ele>177</ele>
        <time>2018-06-24T09:40:45Z</time>
      </trkpt>
      <trkpt lat="50.08164" lon="3.76472">
        <ele>177</ele>
        <time>2018-06-24T09:40:46Z</time>
      </trkpt>
      <trkpt lat="50.0817" lon="3.76468">
        <ele>178</ele>
        <time>2018-06-24T09:40:47Z</time>
      </trkpt>
      <trkpt lat="50.08175" lon="3.76463">
        <ele>178</ele>
        <time>2018-06-24T09:40:48Z</time>
      </trkpt>
      <trkpt lat="50.08181" lon="3.76458">
        <ele>178</ele>
        <time>2018-06-24T09:40:49Z</time>
      </trkpt>
      <trkpt lat="50.08186" lon="3.76453">
        <ele>177</ele>
        <time>2018-06-24T09:40:50Z</time>
      </trkpt>
      <trkpt lat="50.08191" lon="3.76449">
        <ele>177</ele>
        <time>2018-06-24T09:40:51Z</time>
      </trkpt>
      <trkpt lat="50.08196" lon="3.76445">
        <ele>177</ele>
        <time>2018-06-24T09:40:52Z</time>
      </trkpt>
      <trkpt lat="50.08201" lon="3.76443">
        <ele>177</ele>
        <time>2018-06-24T09:40:53Z</time>
      </trkpt>
      <trkpt lat="50.08207" lon="3.7644">
        <ele>177</ele>
        <time>2018-06-24T09:40:54Z</time>
      </trkpt>
      <trkpt lat="50.08213" lon="3.76441">
        <ele>177</ele>
        <time>2018-06-24T09:40:55Z</time>
      </trkpt>
      <trkpt lat="50.08223" lon="3.76447">
        <ele>178</ele>
        <time>2018-06-24T09:40:56Z</time>
      </trkpt>
      <trkpt lat="50.08228" lon="3.76458">
        <ele>178</ele>
        <time>2018-06-24T09:40:57Z</time>
      </trkpt>
      <trkpt lat="50.08232" lon="3.76467">
        <ele>178</ele>
        <time>2018-06-24T09:40:58Z</time>
      </trkpt>
      <trkpt lat="50.08234" lon="3.76474">
        <ele>178</ele>
        <time>2018-06-24T09:40:59Z</time>
      </trkpt>
      <trkpt lat="50.08238" lon="3.76481">
        <ele>179</ele>
        <time>2018-06-24T09:41:00Z</time>
      </trkpt>
      <trkpt lat="50.08241" lon="3.76489">
        <ele>179</ele>
        <time>2018-06-24T09:41:01Z</time>
      </trkpt>
      <trkpt lat="50.08245" lon="3.76494">
        <ele>179</ele>
        <time>2018-06-24T09:41:02Z</time>
      </trkpt>
      <trkpt lat="50.0825" lon="3.76501">
        <ele>180</ele>
        <time>2018-06-24T09:41:03Z</time>
      </trkpt>
      <trkpt lat="50.08254" lon="3.76506">
        <ele>180</ele>
        <time>2018-06-24T09:41:04Z</time>
      </trkpt>
      <trkpt lat="50.08258" lon="3.76512">
        <ele>181</ele>
        <time>2018-06-24T09:41:05Z</time>
      </trkpt>
      <trkpt lat="50.08263" lon="3.76518">
        <ele>181</ele>
        <time>2018-06-24T09:41:06Z</time>
      </trkpt>
      <trkpt lat="50.08267" lon="3.76522">
        <ele>181</ele>
        <time>2018-06-24T09:41:07Z</time>
      </trkpt>
      <trkpt lat="50.0827" lon="3.76529">
        <ele>182</ele>
        <time>2018-06-24T09:41:08Z</time>
      </trkpt>
      <trkpt lat="50.08273" lon="3.76533">
        <ele>182</ele>
        <time>2018-06-24T09:41:09Z</time>
      </trkpt>
      <trkpt lat="50.08275" lon="3.76538">
        <ele>182</ele>
        <time>2018-06-24T09:41:10Z</time>
      </trkpt>
      <trkpt lat="50.08278" lon="3.76543">
        <ele>182</ele>
        <time>2018-06-24T09:41:11Z</time>
      </trkpt>
      <trkpt lat="50.08283" lon="3.76548">
        <ele>182</ele>
        <time>2018-06-24T09:41:12Z</time>
      </trkpt>
      <trkpt lat="50.08287" lon="3.76554">
        <ele>182</ele>
        <time>2018-06-24T09:41:13Z</time>
      </trkpt>
      <trkpt lat="50.08292" lon="3.76559">
        <ele>182</ele>
        <time>2018-06-24T09:41:14Z</time>
      </trkpt>
      <trkpt lat="50.08296" lon="3.76563">
        <ele>182</ele>
        <time>2018-06-24T09:41:15Z</time>
      </trkpt>
      <trkpt lat="50.08301" lon="3.7657">
        <ele>182</ele>
        <time>2018-06-24T09:41:16Z</time>
      </trkpt>
      <trkpt lat="50.08306" lon="3.76575">
        <ele>183</ele>
        <time>2018-06-24T09:41:17Z</time>
      </trkpt>
      <trkpt lat="50.0831" lon="3.76581">
        <ele>183</ele>
        <time>2018-06-24T09:41:18Z</time>
      </trkpt>
      <trkpt lat="50.08313" lon="3.76586">
        <ele>184</ele>
        <time>2018-06-24T09:41:19Z</time>
      </trkpt>
      <trkpt lat="50.08319" lon="3.76591">
        <ele>184</ele>
        <time>2018-06-24T09:41:20Z</time>
      </trkpt>
      <trkpt lat="50.08322" lon="3.76595">
        <ele>184</ele>
        <time>2018-06-24T09:41:21Z</time>
      </trkpt>
      <trkpt lat="50.08327" lon="3.76595">
        <ele>184</ele>
        <time>2018-06-24T09:41:22Z</time>
      </trkpt>
      <trkpt lat="50.08333" lon="3.76593">
        <ele>184</ele>
        <time>2018-06-24T09:41:23Z</time>
      </trkpt>
      <trkpt lat="50.0834" lon="3.76592">
        <ele>185</ele>
        <time>2018-06-24T09:41:24Z</time>
      </trkpt>
      <trkpt lat="50.08346" lon="3.7659">
        <ele>185</ele>
        <time>2018-06-24T09:41:25Z</time>
      </trkpt>
      <trkpt lat="50.08351" lon="3.76589">
        <ele>185</ele>
        <time>2018-06-24T09:41:26Z</time>
      </trkpt>
      <trkpt lat="50.08355" lon="3.76587">
        <ele>185</ele>
        <time>2018-06-24T09:41:27Z</time>
      </trkpt>
      <trkpt lat="50.08361" lon="3.76583">
        <ele>184</ele>
        <time>2018-06-24T09:41:28Z</time>
      </trkpt>
      <trkpt lat="50.08366" lon="3.76579">
        <ele>184</ele>
        <time>2018-06-24T09:41:29Z</time>
      </trkpt>
      <trkpt lat="50.08372" lon="3.76576">
        <ele>184</ele>
        <time>2018-06-24T09:41:30Z</time>
      </trkpt>
      <trkpt lat="50.08378" lon="3.76573">
        <ele>185</ele>
        <time>2018-06-24T09:41:31Z</time>
      </trkpt>
      <trkpt lat="50.08383" lon="3.76571">
        <ele>185</ele>
        <time>2018-06-24T09:41:32Z</time>
      </trkpt>
      <trkpt lat="50.08389" lon="3.76568">
        <ele>185</ele>
        <time>2018-06-24T09:41:33Z</time>
      </trkpt>
      <trkpt lat="50.08393" lon="3.76567">
        <ele>185</ele>
        <time>2018-06-24T09:41:34Z</time>
      </trkpt>
      <trkpt lat="50.08399" lon="3.76565">
        <ele>185</ele>
        <time>2018-06-24T09:41:35Z</time>
      </trkpt>
      <trkpt lat="50.08403" lon="3.76561">
        <ele>185</ele>
        <time>2018-06-24T09:41:36Z</time>
      </trkpt>
      <trkpt lat="50.08409" lon="3.76558">
        <ele>185</ele>
        <time>2018-06-24T09:41:37Z</time>
      </trkpt>
      <trkpt lat="50.08414" lon="3.76559">
        <ele>185</ele>
        <time>2018-06-24T09:41:38Z</time>
      </trkpt>
      <trkpt lat="50.0842" lon="3.76556">
        <ele>186</ele>
        <time>2018-06-24T09:41:39Z</time>
      </trkpt>
      <trkpt lat="50.08425" lon="3.76555">
        <ele>186</ele>
        <time>2018-06-24T09:41:40Z</time>
      </trkpt>
      <trkpt lat="50.0843" lon="3.76552">
        <ele>186</ele>
        <time>2018-06-24T09:41:41Z</time>
      </trkpt>
      <trkpt lat="50.08434" lon="3.7655">
        <ele>186</ele>
        <time>2018-06-24T09:41:42Z</time>
      </trkpt>
      <trkpt lat="50.08439" lon="3.76548">
        <ele>186</ele>
        <time>2018-06-24T09:41:43Z</time>
      </trkpt>
      <trkpt lat="50.08443" lon="3.76544">
        <ele>186</ele>
        <time>2018-06-24T09:41:44Z</time>
      </trkpt>
      <trkpt lat="50.08448" lon="3.76541">
        <ele>186</ele>
        <time>2018-06-24T09:41:45Z</time>
      </trkpt>
      <trkpt lat="50.08453" lon="3.76537">
        <ele>186</ele>
        <time>2018-06-24T09:41:46Z</time>
      </trkpt>
      <trkpt lat="50.08458" lon="3.76535">
        <ele>186</ele>
        <time>2018-06-24T09:41:47Z</time>
      </trkpt>
      <trkpt lat="50.08463" lon="3.76533">
        <ele>186</ele>
        <time>2018-06-24T09:41:48Z</time>
      </trkpt>
      <trkpt lat="50.08468" lon="3.76529">
        <ele>186</ele>
        <time>2018-06-24T09:41:49Z</time>
      </trkpt>
      <trkpt lat="50.08473" lon="3.76528">
        <ele>186</ele>
        <time>2018-06-24T09:41:50Z</time>
      </trkpt>
      <trkpt lat="50.08479" lon="3.76522">
        <ele>186</ele>
        <time>2018-06-24T09:41:51Z</time>
      </trkpt>
      <trkpt lat="50.08484" lon="3.76519">
        <ele>186</ele>
        <time>2018-06-24T09:41:52Z</time>
      </trkpt>
      <trkpt lat="50.08489" lon="3.76514">
        <ele>186</ele>
        <time>2018-06-24T09:41:53Z</time>
      </trkpt>
      <trkpt lat="50.08494" lon="3.7651">
        <ele>186</ele>
        <time>2018-06-24T09:41:54Z</time>
      </trkpt>
      <trkpt lat="50.08499" lon="3.76508">
        <ele>186</ele>
        <time>2018-06-24T09:41:55Z</time>
      </trkpt>
      <trkpt lat="50.08504" lon="3.76504">
        <ele>186</ele>
        <time>2018-06-24T09:41:56Z</time>
      </trkpt>
      <trkpt lat="50.08509" lon="3.76499">
        <ele>186</ele>
        <time>2018-06-24T09:41:57Z</time>
      </trkpt>
      <trkpt lat="50.08513" lon="3.76495">
        <ele>186</ele>
        <time>2018-06-24T09:41:58Z</time>
      </trkpt>
      <trkpt lat="50.08518" lon="3.76491">
        <ele>186</ele>
        <time>2018-06-24T09:41:59Z</time>
      </trkpt>
      <trkpt lat="50.08524" lon="3.76485">
        <ele>186</ele>
        <time>2018-06-24T09:42:00Z</time>
      </trkpt>
      <trkpt lat="50.08528" lon="3.7648">
        <ele>186</ele>
        <time>2018-06-24T09:42:01Z</time>
      </trkpt>
      <trkpt lat="50.08533" lon="3.76474">
        <ele>186</ele>
        <time>2018-06-24T09:42:02Z</time>
      </trkpt>
      <trkpt lat="50.08537" lon="3.76467">
        <ele>186</ele>
        <time>2018-06-24T09:42:03Z</time>
      </trkpt>
      <trkpt lat="50.08542" lon="3.76462">
        <ele>186</ele>
        <time>2018-06-24T09:42:04Z</time>
      </trkpt>
      <trkpt lat="50.08547" lon="3.76455">
        <ele>186</ele>
        <time>2018-06-24T09:42:05Z</time>
      </trkpt>
      <trkpt lat="50.08552" lon="3.76447">
        <ele>186</ele>
        <time>2018-06-24T09:42:06Z</time>
      </trkpt>
      <trkpt lat="50.08557" lon="3.7644">
        <ele>186</ele>
        <time>2018-06-24T09:42:07Z</time>
      </trkpt>
      <trkpt lat="50.08561" lon="3.76432">
        <ele>186</ele>
        <time>2018-06-24T09:42:08Z</time>
      </trkpt>
      <trkpt lat="50.08567" lon="3.76425">
        <ele>187</ele>
        <time>2018-06-24T09:42:09Z</time>
      </trkpt>
      <trkpt lat="50.08572" lon="3.76417">
        <ele>187</ele>
        <time>2018-06-24T09:42:10Z</time>
      </trkpt>
      <trkpt lat="50.08577" lon="3.76411">
        <ele>186</ele>
        <time>2018-06-24T09:42:11Z</time>
      </trkpt>
      <trkpt lat="50.08583" lon="3.76405">
        <ele>186</ele>
        <time>2018-06-24T09:42:12Z</time>
      </trkpt>
      <trkpt lat="50.08589" lon="3.764">
        <ele>187</ele>
        <time>2018-06-24T09:42:13Z</time>
      </trkpt>
      <trkpt lat="50.08595" lon="3.76397">
        <ele>187</ele>
        <time>2018-06-24T09:42:14Z</time>
      </trkpt>
      <trkpt lat="50.08602" lon="3.76395">
        <ele>187</ele>
        <time>2018-06-24T09:42:15Z</time>
      </trkpt>
      <trkpt lat="50.08609" lon="3.76395">
        <ele>187</ele>
        <time>2018-06-24T09:42:16Z</time>
      </trkpt>
      <trkpt lat="50.08616" lon="3.76394">
        <ele>187</ele>
        <time>2018-06-24T09:42:17Z</time>
      </trkpt>
      <trkpt lat="50.08622" lon="3.76394">
        <ele>187</ele>
        <time>2018-06-24T09:42:18Z</time>
      </trkpt>
      <trkpt lat="50.08629" lon="3.76394">
        <ele>187</ele>
        <time>2018-06-24T09:42:19Z</time>
      </trkpt>
      <trkpt lat="50.08635" lon="3.76394">
        <ele>187</ele>
        <time>2018-06-24T09:42:20Z</time>
      </trkpt>
      <trkpt lat="50.08642" lon="3.76393">
        <ele>187</ele>
        <time>2018-06-24T09:42:21Z</time>
      </trkpt>
      <trkpt lat="50.08649" lon="3.76392">
        <ele>188</ele>
        <time>2018-06-24T09:42:22Z</time>
      </trkpt>
      <trkpt lat="50.08655" lon="3.76391">
        <ele>188</ele>
        <time>2018-06-24T09:42:23Z</time>
      </trkpt>
      <trkpt lat="50.08662" lon="3.76389">
        <ele>188</ele>
        <time>2018-06-24T09:42:24Z</time>
      </trkpt>
      <trkpt lat="50.08669" lon="3.76387">
        <ele>189</ele>
        <time>2018-06-24T09:42:25Z</time>
      </trkpt>
      <trkpt lat="50.08676" lon="3.76385">
        <ele>189</ele>
        <time>2018-06-24T09:42:26Z</time>
      </trkpt>
      <trkpt lat="50.08683" lon="3.76384">
        <ele>189</ele>
        <time>2018-06-24T09:42:27Z</time>
      </trkpt>
      <trkpt lat="50.0869" lon="3.76382">
        <ele>189</ele>
        <time>2018-06-24T09:42:28Z</time>
      </trkpt>
      <trkpt lat="50.08697" lon="3.7638">
        <ele>189</ele>
        <time>2018-06-24T09:42:29Z</time>
      </trkpt>
      <trkpt lat="50.08704" lon="3.76379">
        <ele>189</ele>
        <time>2018-06-24T09:42:30Z</time>
      </trkpt>
      <trkpt lat="50.0871" lon="3.76378">
        <ele>189</ele>
        <time>2018-06-24T09:42:31Z</time>
      </trkpt>
      <trkpt lat="50.08717" lon="3.76376">
        <ele>189</ele>
        <time>2018-06-24T09:42:32Z</time>
      </trkpt>
      <trkpt lat="50.08724" lon="3.76375">
        <ele>189</ele>
        <time>2018-06-24T09:42:33Z</time>
      </trkpt>
      <trkpt lat="50.0873" lon="3.76374">
        <ele>189</ele>
        <time>2018-06-24T09:42:34Z</time>
      </trkpt>
      <trkpt lat="50.08737" lon="3.76374">
        <ele>189</ele>
        <time>2018-06-24T09:42:35Z</time>
      </trkpt>
      <trkpt lat="50.08744" lon="3.76374">
        <ele>189</ele>
        <time>2018-06-24T09:42:36Z</time>
      </trkpt>
      <trkpt lat="50.08751" lon="3.76374">
        <ele>191</ele>
        <time>2018-06-24T09:42:37Z</time>
      </trkpt>
      <trkpt lat="50.08758" lon="3.76374">
        <ele>191</ele>
        <time>2018-06-24T09:42:38Z</time>
      </trkpt>
      <trkpt lat="50.08764" lon="3.76374">
        <ele>191</ele>
        <time>2018-06-24T09:42:39Z</time>
      </trkpt>
      <trkpt lat="50.08771" lon="3.76375">
        <ele>191</ele>
        <time>2018-06-24T09:42:40Z</time>
      </trkpt>
      <trkpt lat="50.08777" lon="3.76375">
        <ele>191</ele>
        <time>2018-06-24T09:42:41Z</time>
      </trkpt>
      <trkpt lat="50.08784" lon="3.76376">
        <ele>191</ele>
        <time>2018-06-24T09:42:42Z</time>
      </trkpt>
      <trkpt lat="50.0879" lon="3.76376">
        <ele>191</ele>
        <time>2018-06-24T09:42:43Z</time>
      </trkpt>
      <trkpt lat="50.08797" lon="3.76377">
        <ele>191</ele>
        <time>2018-06-24T09:42:44Z</time>
      </trkpt>
      <trkpt lat="50.08803" lon="3.76377">
        <ele>191</ele>
        <time>2018-06-24T09:42:45Z</time>
      </trkpt>
      <trkpt lat="50.08809" lon="3.76377">
        <ele>191</ele>
        <time>2018-06-24T09:42:46Z</time>
      </trkpt>
      <trkpt lat="50.08815" lon="3.76377">
        <ele>191</ele>
        <time>2018-06-24T09:42:47Z</time>
      </trkpt>
      <trkpt lat="50.08821" lon="3.76378">
        <ele>191</ele>
        <time>2018-06-24T09:42:48Z</time>
      </trkpt>
      <trkpt lat="50.08827" lon="3.76378">
        <ele>191</ele>
        <time>2018-06-24T09:42:49Z</time>
      </trkpt>
      <trkpt lat="50.08833" lon="3.76378">
        <ele>191</ele>
        <time>2018-06-24T09:42:50Z</time>
      </trkpt>
      <trkpt lat="50.08839" lon="3.76379">
        <ele>193</ele>
        <time>2018-06-24T09:42:51Z</time>
      </trkpt>
      <trkpt lat="50.08845" lon="3.76381">
        <ele>193</ele>
        <time>2018-06-24T09:42:52Z</time>
      </trkpt>
      <trkpt lat="50.08851" lon="3.76382">
        <ele>193</ele>
        <time>2018-06-24T09:42:53Z</time>
      </trkpt>
      <trkpt lat="50.08857" lon="3.76384">
        <ele>193</ele>
        <time>2018-06-24T09:42:54Z</time>
      </trkpt>
      <trkpt lat="50.08862" lon="3.76385">
        <ele>193</ele>
        <time>2018-06-24T09:42:55Z</time>
      </trkpt>
      <trkpt lat="50.08868" lon="3.76386">
        <ele>193</ele>
        <time>2018-06-24T09:42:56Z</time>
      </trkpt>
      <trkpt lat="50.08874" lon="3.76386">
        <ele>193</ele>
        <time>2018-06-24T09:42:57Z</time>
      </trkpt>
      <trkpt lat="50.0888" lon="3.76386">
        <ele>194</ele>
        <time>2018-06-24T09:42:58Z</time>
      </trkpt>
      <trkpt lat="50.08885" lon="3.76382">
        <ele>194</ele>
        <time>2018-06-24T09:42:59Z</time>
      </trkpt>
      <trkpt lat="50.08891" lon="3.7638">
        <ele>194</ele>
        <time>2018-06-24T09:43:00Z</time>
      </trkpt>
      <trkpt lat="50.08896" lon="3.76378">
        <ele>194</ele>
        <time>2018-06-24T09:43:01Z</time>
      </trkpt>
      <trkpt lat="50.08902" lon="3.76376">
        <ele>194</ele>
        <time>2018-06-24T09:43:02Z</time>
      </trkpt>
      <trkpt lat="50.08908" lon="3.76374">
        <ele>194</ele>
        <time>2018-06-24T09:43:03Z</time>
      </trkpt>
      <trkpt lat="50.08914" lon="3.76373">
        <ele>194</ele>
        <time>2018-06-24T09:43:04Z</time>
      </trkpt>
      <trkpt lat="50.08919" lon="3.7637">
        <ele>195</ele>
        <time>2018-06-24T09:43:05Z</time>
      </trkpt>
      <trkpt lat="50.08925" lon="3.76367">
        <ele>195</ele>
        <time>2018-06-24T09:43:06Z</time>
      </trkpt>
      <trkpt lat="50.08931" lon="3.76363">
        <ele>195</ele>
        <time>2018-06-24T09:43:07Z</time>
      </trkpt>
      <trkpt lat="50.08937" lon="3.7636">
        <ele>195</ele>
        <time>2018-06-24T09:43:08Z</time>
      </trkpt>
      <trkpt lat="50.08944" lon="3.76356">
        <ele>195</ele>
        <time>2018-06-24T09:43:09Z</time>
      </trkpt>
      <trkpt lat="50.08949" lon="3.76354">
        <ele>195</ele>
        <time>2018-06-24T09:43:10Z</time>
      </trkpt>
      <trkpt lat="50.08955" lon="3.76351">
        <ele>195</ele>
        <time>2018-06-24T09:43:11Z</time>
      </trkpt>
      <trkpt lat="50.0896" lon="3.76349">
        <ele>195</ele>
        <time>2018-06-24T09:43:12Z</time>
      </trkpt>
      <trkpt lat="50.08965" lon="3.76346">
        <ele>195</ele>
        <time>2018-06-24T09:43:13Z</time>
      </trkpt>
      <trkpt lat="50.0897" lon="3.76346">
        <ele>195</ele>
        <time>2018-06-24T09:43:14Z</time>
      </trkpt>
      <trkpt lat="50.08977" lon="3.76344">
        <ele>195</ele>
        <time>2018-06-24T09:43:15Z</time>
      </trkpt>
      <trkpt lat="50.08983" lon="3.76341">
        <ele>195</ele>
        <time>2018-06-24T09:43:16Z</time>
      </trkpt>
      <trkpt lat="50.08989" lon="3.76338">
        <ele>195</ele>
        <time>2018-06-24T09:43:17Z</time>
      </trkpt>
      <trkpt lat="50.08994" lon="3.76337">
        <ele>195</ele>
        <time>2018-06-24T09:43:18Z</time>
      </trkpt>
      <trkpt lat="50.08999" lon="3.76334">
        <ele>195</ele>
        <time>2018-06-24T09:43:19Z</time>
      </trkpt>
      <trkpt lat="50.09006" lon="3.76331">
        <ele>195</ele>
        <time>2018-06-24T09:43:20Z</time>
      </trkpt>
      <trkpt lat="50.09012" lon="3.76329">
        <ele>195</ele>
        <time>2018-06-24T09:43:21Z</time>
      </trkpt>
      <trkpt lat="50.09018" lon="3.76327">
        <ele>195</ele>
        <time>2018-06-24T09:43:22Z</time>
      </trkpt>
      <trkpt lat="50.09023" lon="3.76326">
        <ele>195</ele>
        <time>2018-06-24T09:43:23Z</time>
      </trkpt>
      <trkpt lat="50.0903" lon="3.76325">
        <ele>195</ele>
        <time>2018-06-24T09:43:24Z</time>
      </trkpt>
      <trkpt lat="50.09037" lon="3.76322">
        <ele>195</ele>
        <time>2018-06-24T09:43:25Z</time>
      </trkpt>
      <trkpt lat="50.09044" lon="3.76321">
        <ele>195</ele>
        <time>2018-06-24T09:43:26Z</time>
      </trkpt>
      <trkpt lat="50.09051" lon="3.7632">
        <ele>195</ele>
        <time>2018-06-24T09:43:27Z</time>
      </trkpt>
      <trkpt lat="50.09058" lon="3.7632">
        <ele>195</ele>
        <time>2018-06-24T09:43:28Z</time>
      </trkpt>
      <trkpt lat="50.09064" lon="3.76319">
        <ele>195</ele>
        <time>2018-06-24T09:43:29Z</time>
      </trkpt>
      <trkpt lat="50.09071" lon="3.76318">
        <ele>195</ele>
        <time>2018-06-24T09:43:30Z</time>
      </trkpt>
      <trkpt lat="50.09078" lon="3.76317">
        <ele>196</ele>
        <time>2018-06-24T09:43:31Z</time>
      </trkpt>
      <trkpt lat="50.09084" lon="3.76316">
        <ele>195</ele>
        <time>2018-06-24T09:43:32Z</time>
      </trkpt>
      <trkpt lat="50.09091" lon="3.76316">
        <ele>195</ele>
        <time>2018-06-24T09:43:33Z</time>
      </trkpt>
      <trkpt lat="50.09097" lon="3.76315">
        <ele>195</ele>
        <time>2018-06-24T09:43:34Z</time>
      </trkpt>
      <trkpt lat="50.09104" lon="3.76314">
        <ele>195</ele>
        <time>2018-06-24T09:43:35Z</time>
      </trkpt>
      <trkpt lat="50.09111" lon="3.76313">
        <ele>195</ele>
        <time>2018-06-24T09:43:36Z</time>
      </trkpt>
      <trkpt lat="50.09118" lon="3.76312">
        <ele>195</ele>
        <time>2018-06-24T09:43:37Z</time>
      </trkpt>
      <trkpt lat="50.09126" lon="3.76311">
        <ele>195</ele>
        <time>2018-06-24T09:43:38Z</time>
      </trkpt>
      <trkpt lat="50.09133" lon="3.7631">
        <ele>195</ele>
        <time>2018-06-24T09:43:39Z</time>
      </trkpt>
      <trkpt lat="50.09141" lon="3.76309">
        <ele>195</ele>
        <time>2018-06-24T09:43:40Z</time>
      </trkpt>
      <trkpt lat="50.09148" lon="3.76308">
        <ele>195</ele>
        <time>2018-06-24T09:43:41Z</time>
      </trkpt>
      <trkpt lat="50.09156" lon="3.76308">
        <ele>194</ele>
        <time>2018-06-24T09:43:42Z</time>
      </trkpt>
      <trkpt lat="50.09164" lon="3.76307">
        <ele>194</ele>
        <time>2018-06-24T09:43:43Z</time>
      </trkpt>
      <trkpt lat="50.09171" lon="3.76306">
        <ele>193</ele>
        <time>2018-06-24T09:43:44Z</time>
      </trkpt>
      <trkpt lat="50.09179" lon="3.76305">
        <ele>193</ele>
        <time>2018-06-24T09:43:45Z</time>
      </trkpt>
      <trkpt lat="50.09187" lon="3.76304">
        <ele>193</ele>
        <time>2018-06-24T09:43:46Z</time>
      </trkpt>
      <trkpt lat="50.09195" lon="3.76303">
        <ele>193</ele>
        <time>2018-06-24T09:43:47Z</time>
      </trkpt>
      <trkpt lat="50.09202" lon="3.76302">
        <ele>193</ele>
        <time>2018-06-24T09:43:48Z</time>
      </trkpt>
      <trkpt lat="50.0921" lon="3.76301">
        <ele>193</ele>
        <time>2018-06-24T09:43:49Z</time>
      </trkpt>
      <trkpt lat="50.09218" lon="3.763">
        <ele>193</ele>
        <time>2018-06-24T09:43:50Z</time>
      </trkpt>
      <trkpt lat="50.09226" lon="3.76299">
        <ele>192</ele>
        <time>2018-06-24T09:43:51Z</time>
      </trkpt>
      <trkpt lat="50.09233" lon="3.76298">
        <ele>192</ele>
        <time>2018-06-24T09:43:52Z</time>
      </trkpt>
      <trkpt lat="50.09241" lon="3.76297">
        <ele>192</ele>
        <time>2018-06-24T09:43:53Z</time>
      </trkpt>
      <trkpt lat="50.09249" lon="3.76296">
        <ele>192</ele>
        <time>2018-06-24T09:43:54Z</time>
      </trkpt>
      <trkpt lat="50.09257" lon="3.76295">
        <ele>191</ele>
        <time>2018-06-24T09:43:55Z</time>
      </trkpt>
      <trkpt lat="50.09265" lon="3.76295">
        <ele>191</ele>
        <time>2018-06-24T09:43:56Z</time>
      </trkpt>
      <trkpt lat="50.09273" lon="3.76295">
        <ele>191</ele>
        <time>2018-06-24T09:43:57Z</time>
      </trkpt>
      <trkpt lat="50.09281" lon="3.76294">
        <ele>191</ele>
        <time>2018-06-24T09:43:58Z</time>
      </trkpt>
      <trkpt lat="50.09289" lon="3.76294">
        <ele>191</ele>
        <time>2018-06-24T09:43:59Z</time>
      </trkpt>
      <trkpt lat="50.09296" lon="3.76293">
        <ele>190</ele>
        <time>2018-06-24T09:44:00Z</time>
      </trkpt>
      <trkpt lat="50.09304" lon="3.76292">
        <ele>190</ele>
        <time>2018-06-24T09:44:01Z</time>
      </trkpt>
      <trkpt lat="50.09311" lon="3.76291">
        <ele>190</ele>
        <time>2018-06-24T09:44:02Z</time>
      </trkpt>
      <trkpt lat="50.09318" lon="3.76289">
        <ele>190</ele>
        <time>2018-06-24T09:44:03Z</time>
      </trkpt>
      <trkpt lat="50.09326" lon="3.76287">
        <ele>190</ele>
        <time>2018-06-24T09:44:04Z</time>
      </trkpt>
      <trkpt lat="50.09334" lon="3.76286">
        <ele>190</ele>
        <time>2018-06-24T09:44:05Z</time>
      </trkpt>
      <trkpt lat="50.09341" lon="3.76285">
        <ele>190</ele>
        <time>2018-06-24T09:44:06Z</time>
      </trkpt>
      <trkpt lat="50.09348" lon="3.76282">
        <ele>190</ele>
        <time>2018-06-24T09:44:07Z</time>
      </trkpt>
      <trkpt lat="50.09356" lon="3.7628">
        <ele>190</ele>
        <time>2018-06-24T09:44:08Z</time>
      </trkpt>
      <trkpt lat="50.09363" lon="3.76278">
        <ele>190</ele>
        <time>2018-06-24T09:44:09Z</time>
      </trkpt>
      <trkpt lat="50.0937" lon="3.76279">
        <ele>190</ele>
        <time>2018-06-24T09:44:10Z</time>
      </trkpt>
      <trkpt lat="50.09378" lon="3.76279">
        <ele>189</ele>
        <time>2018-06-24T09:44:11Z</time>
      </trkpt>
      <trkpt lat="50.09386" lon="3.76278">
        <ele>189</ele>
        <time>2018-06-24T09:44:12Z</time>
      </trkpt>
      <trkpt lat="50.09394" lon="3.76279">
        <ele>189</ele>
        <time>2018-06-24T09:44:13Z</time>
      </trkpt>
      <trkpt lat="50.09402" lon="3.76279">
        <ele>189</ele>
        <time>2018-06-24T09:44:14Z</time>
      </trkpt>
      <trkpt lat="50.09409" lon="3.76279">
        <ele>189</ele>
        <time>2018-06-24T09:44:15Z</time>
      </trkpt>
      <trkpt lat="50.09416" lon="3.76279">
        <ele>189</ele>
        <time>2018-06-24T09:44:16Z</time>
      </trkpt>
      <trkpt lat="50.09424" lon="3.76277">
        <ele>190</ele>
        <time>2018-06-24T09:44:17Z</time>
      </trkpt>
      <trkpt lat="50.09431" lon="3.76275">
        <ele>190</ele>
        <time>2018-06-24T09:44:18Z</time>
      </trkpt>
      <trkpt lat="50.09439" lon="3.76274">
        <ele>190</ele>
        <time>2018-06-24T09:44:19Z</time>
      </trkpt>
      <trkpt lat="50.09447" lon="3.76275">
        <ele>190</ele>
        <time>2018-06-24T09:44:20Z</time>
      </trkpt>
      <trkpt lat="50.09454" lon="3.76275">
        <ele>190</ele>
        <time>2018-06-24T09:44:21Z</time>
      </trkpt>
      <trkpt lat="50.09462" lon="3.76275">
        <ele>190</ele>
        <time>2018-06-24T09:44:22Z</time>
      </trkpt>
      <trkpt lat="50.09469" lon="3.76273">
        <ele>190</ele>
        <time>2018-06-24T09:44:23Z</time>
      </trkpt>
      <trkpt lat="50.09477" lon="3.76271">
        <ele>190</ele>
        <time>2018-06-24T09:44:24Z</time>
      </trkpt>
      <trkpt lat="50.09484" lon="3.76271">
        <ele>190</ele>
        <time>2018-06-24T09:44:25Z</time>
      </trkpt>
      <trkpt lat="50.09491" lon="3.76269">
        <ele>190</ele>
        <time>2018-06-24T09:44:26Z</time>
      </trkpt>
      <trkpt lat="50.09498" lon="3.76269">
        <ele>190</ele>
        <time>2018-06-24T09:44:27Z</time>
      </trkpt>
      <trkpt lat="50.09504" lon="3.76268">
        <ele>190</ele>
        <time>2018-06-24T09:44:28Z</time>
      </trkpt>
      <trkpt lat="50.09512" lon="3.76268">
        <ele>190</ele>
        <time>2018-06-24T09:44:29Z</time>
      </trkpt>
      <trkpt lat="50.09519" lon="3.76266">
        <ele>190</ele>
        <time>2018-06-24T09:44:30Z</time>
      </trkpt>
      <trkpt lat="50.09527" lon="3.76267">
        <ele>190</ele>
        <time>2018-06-24T09:44:31Z</time>
      </trkpt>
      <trkpt lat="50.09534" lon="3.76264">
        <ele>190</ele>
        <time>2018-06-24T09:44:32Z</time>
      </trkpt>
      <trkpt lat="50.09541" lon="3.76263">
        <ele>190</ele>
        <time>2018-06-24T09:44:33Z</time>
      </trkpt>
      <trkpt lat="50.09549" lon="3.76262">
        <ele>190</ele>
        <time>2018-06-24T09:44:34Z</time>
      </trkpt>
      <trkpt lat="50.09556" lon="3.76261">
        <ele>190</ele>
        <time>2018-06-24T09:44:35Z</time>
      </trkpt>
      <trkpt lat="50.09563" lon="3.7626">
        <ele>190</ele>
        <time>2018-06-24T09:44:36Z</time>
      </trkpt>
      <trkpt lat="50.0957" lon="3.7626">
        <ele>190</ele>
        <time>2018-06-24T09:44:37Z</time>
      </trkpt>
      <trkpt lat="50.09577" lon="3.7626">
        <ele>190</ele>
        <time>2018-06-24T09:44:38Z</time>
      </trkpt>
      <trkpt lat="50.09584" lon="3.76261">
        <ele>190</ele>
        <time>2018-06-24T09:44:39Z</time>
      </trkpt>
      <trkpt lat="50.09591" lon="3.76261">
        <ele>190</ele>
        <time>2018-06-24T09:44:40Z</time>
      </trkpt>
      <trkpt lat="50.09597" lon="3.76261">
        <ele>190</ele>
        <time>2018-06-24T09:44:41Z</time>
      </trkpt>
      <trkpt lat="50.09604" lon="3.7626">
        <ele>190</ele>
        <time>2018-06-24T09:44:42Z</time>
      </trkpt>
      <trkpt lat="50.0961" lon="3.76261">
        <ele>190</ele>
        <time>2018-06-24T09:44:43Z</time>
      </trkpt>
      <trkpt lat="50.09617" lon="3.76262">
        <ele>190</ele>
        <time>2018-06-24T09:44:44Z</time>
      </trkpt>
      <trkpt lat="50.09624" lon="3.76262">
        <ele>190</ele>
        <time>2018-06-24T09:44:45Z</time>
      </trkpt>
      <trkpt lat="50.09631" lon="3.76263">
        <ele>190</ele>
        <time>2018-06-24T09:44:46Z</time>
      </trkpt>
      <trkpt lat="50.09638" lon="3.76264">
        <ele>190</ele>
        <time>2018-06-24T09:44:47Z</time>
      </trkpt>
      <trkpt lat="50.09645" lon="3.76265">
        <ele>190</ele>
        <time>2018-06-24T09:44:48Z</time>
      </trkpt>
      <trkpt lat="50.09653" lon="3.76265">
        <ele>190</ele>
        <time>2018-06-24T09:44:49Z</time>
      </trkpt>
      <trkpt lat="50.0966" lon="3.76265">
        <ele>190</ele>
        <time>2018-06-24T09:44:50Z</time>
      </trkpt>
      <trkpt lat="50.09667" lon="3.76266">
        <ele>190</ele>
        <time>2018-06-24T09:44:51Z</time>
      </trkpt>
      <trkpt lat="50.09674" lon="3.76268">
        <ele>190</ele>
        <time>2018-06-24T09:44:52Z</time>
      </trkpt>
      <trkpt lat="50.09682" lon="3.76269">
        <ele>190</ele>
        <time>2018-06-24T09:44:53Z</time>
      </trkpt>
      <trkpt lat="50.09689" lon="3.76269">
        <ele>190</ele>
        <time>2018-06-24T09:44:54Z</time>
      </trkpt>
      <trkpt lat="50.09696" lon="3.7627">
        <ele>190</ele>
        <time>2018-06-24T09:44:55Z</time>
      </trkpt>
      <trkpt lat="50.09704" lon="3.76271">
        <ele>190</ele>
        <time>2018-06-24T09:44:56Z</time>
      </trkpt>
      <trkpt lat="50.09711" lon="3.76273">
        <ele>190</ele>
        <time>2018-06-24T09:44:57Z</time>
      </trkpt>
      <trkpt lat="50.09719" lon="3.76274">
        <ele>190</ele>
        <time>2018-06-24T09:44:58Z</time>
      </trkpt>
      <trkpt lat="50.09726" lon="3.76276">
        <ele>190</ele>
        <time>2018-06-24T09:44:59Z</time>
      </trkpt>
      <trkpt lat="50.09734" lon="3.76278">
        <ele>190</ele>
        <time>2018-06-24T09:45:00Z</time>
      </trkpt>
      <trkpt lat="50.09741" lon="3.7628">
        <ele>190</ele>
        <time>2018-06-24T09:45:01Z</time>
      </trkpt>
      <trkpt lat="50.09749" lon="3.76282">
        <ele>190</ele>
        <time>2018-06-24T09:45:02Z</time>
      </trkpt>
      <trkpt lat="50.09757" lon="3.76285">
        <ele>189</ele>
        <time>2018-06-24T09:45:03Z</time>
      </trkpt>
      <trkpt lat="50.09764" lon="3.76289">
        <ele>189</ele>
        <time>2018-06-24T09:45:04Z</time>
      </trkpt>
      <trkpt lat="50.09772" lon="3.76292">
        <ele>189</ele>
        <time>2018-06-24T09:45:05Z</time>
      </trkpt>
      <trkpt lat="50.09781" lon="3.76295">
        <ele>189</ele>
        <time>2018-06-24T09:45:06Z</time>
      </trkpt>
      <trkpt lat="50.09789" lon="3.76297">
        <ele>189</ele>
        <time>2018-06-24T09:45:07Z</time>
      </trkpt>
      <trkpt lat="50.09797" lon="3.763">
        <ele>188</ele>
        <time>2018-06-24T09:45:08Z</time>
      </trkpt>
      <trkpt lat="50.09804" lon="3.76302">
        <ele>188</ele>
        <time>2018-06-24T09:45:09Z</time>
      </trkpt>
      <trkpt lat="50.09812" lon="3.76306">
        <ele>188</ele>
        <time>2018-06-24T09:45:10Z</time>
      </trkpt>
      <trkpt lat="50.09821" lon="3.76309">
        <ele>188</ele>
        <time>2018-06-24T09:45:11Z</time>
      </trkpt>
      <trkpt lat="50.0983" lon="3.76311">
        <ele>188</ele>
        <time>2018-06-24T09:45:12Z</time>
      </trkpt>
      <trkpt lat="50.09838" lon="3.76313">
        <ele>187</ele>
        <time>2018-06-24T09:45:13Z</time>
      </trkpt>
      <trkpt lat="50.09847" lon="3.76315">
        <ele>187</ele>
        <time>2018-06-24T09:45:14Z</time>
      </trkpt>
      <trkpt lat="50.09855" lon="3.76316">
        <ele>187</ele>
        <time>2018-06-24T09:45:15Z</time>
      </trkpt>
      <trkpt lat="50.09864" lon="3.76318">
        <ele>187</ele>
        <time>2018-06-24T09:45:16Z</time>
      </trkpt>
      <trkpt lat="50.09872" lon="3.76321">
        <ele>187</ele>
        <time>2018-06-24T09:45:17Z</time>
      </trkpt>
      <trkpt lat="50.0988" lon="3.76322">
        <ele>187</ele>
        <time>2018-06-24T09:45:18Z</time>
      </trkpt>
      <trkpt lat="50.09889" lon="3.76323">
        <ele>187</ele>
        <time>2018-06-24T09:45:19Z</time>
      </trkpt>
      <trkpt lat="50.09897" lon="3.76325">
        <ele>186</ele>
        <time>2018-06-24T09:45:20Z</time>
      </trkpt>
      <trkpt lat="50.09905" lon="3.76327">
        <ele>186</ele>
        <time>2018-06-24T09:45:21Z</time>
      </trkpt>
      <trkpt lat="50.09914" lon="3.76329">
        <ele>186</ele>
        <time>2018-06-24T09:45:22Z</time>
      </trkpt>
      <trkpt lat="50.09922" lon="3.76331">
        <ele>186</ele>
        <time>2018-06-24T09:45:23Z</time>
      </trkpt>
      <trkpt lat="50.09931" lon="3.76334">
        <ele>185</ele>
        <time>2018-06-24T09:45:24Z</time>
      </trkpt>
      <trkpt lat="50.09939" lon="3.76335">
        <ele>185</ele>
        <time>2018-06-24T09:45:25Z</time>
      </trkpt>
      <trkpt lat="50.09948" lon="3.76338">
        <ele>184</ele>
        <time>2018-06-24T09:45:26Z</time>
      </trkpt>
      <trkpt lat="50.09956" lon="3.76342">
        <ele>184</ele>
        <time>2018-06-24T09:45:27Z</time>
      </trkpt>
      <trkpt lat="50.09965" lon="3.76345">
        <ele>184</ele>
        <time>2018-06-24T09:45:28Z</time>
      </trkpt>
      <trkpt lat="50.09974" lon="3.76349">
        <ele>183</ele>
        <time>2018-06-24T09:45:29Z</time>
      </trkpt>
      <trkpt lat="50.09983" lon="3.76352">
        <ele>183</ele>
        <time>2018-06-24T09:45:30Z</time>
      </trkpt>
      <trkpt lat="50.09992" lon="3.76356">
        <ele>183</ele>
        <time>2018-06-24T09:45:31Z</time>
      </trkpt>
      <trkpt lat="50.10001" lon="3.76359">
        <ele>182</ele>
        <time>2018-06-24T09:45:32Z</time>
      </trkpt>
      <trkpt lat="50.1001" lon="3.76362">
        <ele>182</ele>
        <time>2018-06-24T09:45:33Z</time>
      </trkpt>
      <trkpt lat="50.10019" lon="3.76363">
        <ele>182</ele>
        <time>2018-06-24T09:45:34Z</time>
      </trkpt>
      <trkpt lat="50.10028" lon="3.76365">
        <ele>182</ele>
        <time>2018-06-24T09:45:35Z</time>
      </trkpt>
      <trkpt lat="50.10036" lon="3.76366">
        <ele>182</ele>
        <time>2018-06-24T09:45:36Z</time>
      </trkpt>
      <trkpt lat="50.10045" lon="3.76367">
        <ele>181</ele>
        <time>2018-06-24T09:45:37Z</time>
      </trkpt>
      <trkpt lat="50.10054" lon="3.76369">
        <ele>181</ele>
        <time>2018-06-24T09:45:38Z</time>
      </trkpt>
      <trkpt lat="50.10063" lon="3.7637">
        <ele>181</ele>
        <time>2018-06-24T09:45:39Z</time>
      </trkpt>
      <trkpt lat="50.10072" lon="3.76372">
        <ele>181</ele>
        <time>2018-06-24T09:45:40Z</time>
      </trkpt>
      <trkpt lat="50.10082" lon="3.76371">
        <ele>181</ele>
        <time>2018-06-24T09:45:41Z</time>
      </trkpt>
      <trkpt lat="50.10091" lon="3.76372">
        <ele>181</ele>
        <time>2018-06-24T09:45:42Z</time>
      </trkpt>
      <trkpt lat="50.101" lon="3.76372">
        <ele>181</ele>
        <time>2018-06-24T09:45:43Z</time>
      </trkpt>
      <trkpt lat="50.10109" lon="3.76371">
        <ele>181</ele>
        <time>2018-06-24T09:45:44Z</time>
      </trkpt>
      <trkpt lat="50.10117" lon="3.76371">
        <ele>181</ele>
        <time>2018-06-24T09:45:45Z</time>
      </trkpt>
      <trkpt lat="50.10126" lon="3.7637">
        <ele>181</ele>
        <time>2018-06-24T09:45:46Z</time>
      </trkpt>
      <trkpt lat="50.10134" lon="3.7637">
        <ele>181</ele>
        <time>2018-06-24T09:45:47Z</time>
      </trkpt>
      <trkpt lat="50.10142" lon="3.7637">
        <ele>181</ele>
        <time>2018-06-24T09:45:48Z</time>
      </trkpt>
      <trkpt lat="50.1015" lon="3.7637">
        <ele>181</ele>
        <time>2018-06-24T09:45:49Z</time>
      </trkpt>
      <trkpt lat="50.10158" lon="3.76369">
        <ele>181</ele>
        <time>2018-06-24T09:45:50Z</time>
      </trkpt>
      <trkpt lat="50.10166" lon="3.76368">
        <ele>181</ele>
        <time>2018-06-24T09:45:51Z</time>
      </trkpt>
      <trkpt lat="50.10175" lon="3.76368">
        <ele>180</ele>
        <time>2018-06-24T09:45:52Z</time>
      </trkpt>
      <trkpt lat="50.10183" lon="3.76368">
        <ele>179</ele>
        <time>2018-06-24T09:45:53Z</time>
      </trkpt>
      <trkpt lat="50.10192" lon="3.76367">
        <ele>179</ele>
        <time>2018-06-24T09:45:54Z</time>
      </trkpt>
      <trkpt lat="50.102" lon="3.76367">
        <ele>179</ele>
        <time>2018-06-24T09:45:55Z</time>
      </trkpt>
      <trkpt lat="50.10208" lon="3.76366">
        <ele>179</ele>
        <time>2018-06-24T09:45:56Z</time>
      </trkpt>
      <trkpt lat="50.10216" lon="3.76367">
        <ele>179</ele>
        <time>2018-06-24T09:45:57Z</time>
      </trkpt>
      <trkpt lat="50.10224" lon="3.76367">
        <ele>179</ele>
        <time>2018-06-24T09:45:58Z</time>
      </trkpt>
      <trkpt lat="50.10233" lon="3.76368">
        <ele>179</ele>
        <time>2018-06-24T09:45:59Z</time>
      </trkpt>
      <trkpt lat="50.10241" lon="3.76368">
        <ele>179</ele>
        <time>2018-06-24T09:46:00Z</time>
      </trkpt>
      <trkpt lat="50.1025" lon="3.76368">
        <ele>176</ele>
        <time>2018-06-24T09:46:01Z</time>
      </trkpt>
      <trkpt lat="50.10259" lon="3.76368">
        <ele>176</ele>
        <time>2018-06-24T09:46:02Z</time>
      </trkpt>
      <trkpt lat="50.10268" lon="3.76368">
        <ele>176</ele>
        <time>2018-06-24T09:46:03Z</time>
      </trkpt>
      <trkpt lat="50.10277" lon="3.76369">
        <ele>176</ele>
        <time>2018-06-24T09:46:04Z</time>
      </trkpt>
      <trkpt lat="50.10286" lon="3.7637">
        <ele>175</ele>
        <time>2018-06-24T09:46:05Z</time>
      </trkpt>
      <trkpt lat="50.10296" lon="3.7637">
        <ele>175</ele>
        <time>2018-06-24T09:46:06Z</time>
      </trkpt>
      <trkpt lat="50.10305" lon="3.76371">
        <ele>175</ele>
        <time>2018-06-24T09:46:07Z</time>
      </trkpt>
      <trkpt lat="50.10314" lon="3.76372">
        <ele>175</ele>
        <time>2018-06-24T09:46:08Z</time>
      </trkpt>
      <trkpt lat="50.10324" lon="3.76373">
        <ele>175</ele>
        <time>2018-06-24T09:46:09Z</time>
      </trkpt>
      <trkpt lat="50.10333" lon="3.76374">
        <ele>174</ele>
        <time>2018-06-24T09:46:10Z</time>
      </trkpt>
      <trkpt lat="50.10342" lon="3.76373">
        <ele>173</ele>
        <time>2018-06-24T09:46:11Z</time>
      </trkpt>
      <trkpt lat="50.10353" lon="3.76373">
        <ele>172</ele>
        <time>2018-06-24T09:46:12Z</time>
      </trkpt>
      <trkpt lat="50.10363" lon="3.76373">
        <ele>172</ele>
        <time>2018-06-24T09:46:13Z</time>
      </trkpt>
      <trkpt lat="50.10373" lon="3.76373">
        <ele>172</ele>
        <time>2018-06-24T09:46:14Z</time>
      </trkpt>
      <trkpt lat="50.10383" lon="3.76373">
        <ele>172</ele>
        <time>2018-06-24T09:46:15Z</time>
      </trkpt>
      <trkpt lat="50.10393" lon="3.76373">
        <ele>172</ele>
        <time>2018-06-24T09:46:16Z</time>
      </trkpt>
      <trkpt lat="50.10403" lon="3.76372">
        <ele>172</ele>
        <time>2018-06-24T09:46:17Z</time>
      </trkpt>
      <trkpt lat="50.10413" lon="3.76374">
        <ele>172</ele>
        <time>2018-06-24T09:46:18Z</time>
      </trkpt>
      <trkpt lat="50.10424" lon="3.76375">
        <ele>171</ele>
        <time>2018-06-24T09:46:19Z</time>
      </trkpt>
      <trkpt lat="50.10433" lon="3.76374">
        <ele>171</ele>
        <time>2018-06-24T09:46:20Z</time>
      </trkpt>
      <trkpt lat="50.10444" lon="3.76375">
        <ele>171</ele>
        <time>2018-06-24T09:46:21Z</time>
      </trkpt>
      <trkpt lat="50.10454" lon="3.76378">
        <ele>171</ele>
        <time>2018-06-24T09:46:22Z</time>
      </trkpt>
      <trkpt lat="50.10464" lon="3.76379">
        <ele>170</ele>
        <time>2018-06-24T09:46:23Z</time>
      </trkpt>
      <trkpt lat="50.10474" lon="3.7638">
        <ele>170</ele>
        <time>2018-06-24T09:46:24Z</time>
      </trkpt>
      <trkpt lat="50.10484" lon="3.76379">
        <ele>170</ele>
        <time>2018-06-24T09:46:25Z</time>
      </trkpt>
      <trkpt lat="50.10494" lon="3.76378">
        <ele>170</ele>
        <time>2018-06-24T09:46:26Z</time>
      </trkpt>
      <trkpt lat="50.10504" lon="3.76375">
        <ele>169</ele>
        <time>2018-06-24T09:46:27Z</time>
      </trkpt>
      <trkpt lat="50.10513" lon="3.7637">
        <ele>169</ele>
        <time>2018-06-24T09:46:28Z</time>
      </trkpt>
      <trkpt lat="50.10521" lon="3.76365">
        <ele>169</ele>
        <time>2018-06-24T09:46:29Z</time>
      </trkpt>
      <trkpt lat="50.1053" lon="3.76358">
        <ele>169</ele>
        <time>2018-06-24T09:46:30Z</time>
      </trkpt>
      <trkpt lat="50.10538" lon="3.76352">
        <ele>169</ele>
        <time>2018-06-24T09:46:31Z</time>
      </trkpt>
      <trkpt lat="50.10546" lon="3.76346">
        <ele>169</ele>
        <time>2018-06-24T09:46:32Z</time>
      </trkpt>
      <trkpt lat="50.10554" lon="3.76341">
        <ele>169</ele>
        <time>2018-06-24T09:46:33Z</time>
      </trkpt>
      <trkpt lat="50.10562" lon="3.76336">
        <ele>169</ele>
        <time>2018-06-24T09:46:34Z</time>
      </trkpt>
      <trkpt lat="50.1057" lon="3.7633">
        <ele>170</ele>
        <time>2018-06-24T09:46:35Z</time>
      </trkpt>
      <trkpt lat="50.10577" lon="3.76325">
        <ele>170</ele>
        <time>2018-06-24T09:46:36Z</time>
      </trkpt>
      <trkpt lat="50.10584" lon="3.76319">
        <ele>169</ele>
        <time>2018-06-24T09:46:37Z</time>
      </trkpt>
      <trkpt lat="50.10592" lon="3.76315">
        <ele>169</ele>
        <time>2018-06-24T09:46:38Z</time>
      </trkpt>
      <trkpt lat="50.106" lon="3.76312">
        <ele>169</ele>
        <time>2018-06-24T09:46:39Z</time>
      </trkpt>
      <trkpt lat="50.10607" lon="3.76308">
        <ele>168</ele>
        <time>2018-06-24T09:46:40Z</time>
      </trkpt>
      <trkpt lat="50.10615" lon="3.76304">
        <ele>168</ele>
        <time>2018-06-24T09:46:41Z</time>
      </trkpt>
      <trkpt lat="50.10623" lon="3.76301">
        <ele>168</ele>
        <time>2018-06-24T09:46:42Z</time>
      </trkpt>
      <trkpt lat="50.1063" lon="3.76298">
        <ele>168</ele>
        <time>2018-06-24T09:46:43Z</time>
      </trkpt>
      <trkpt lat="50.10638" lon="3.76293">
        <ele>168</ele>
        <time>2018-06-24T09:46:44Z</time>
      </trkpt>
      <trkpt lat="50.10645" lon="3.7629">
        <ele>168</ele>
        <time>2018-06-24T09:46:45Z</time>
      </trkpt>
      <trkpt lat="50.10653" lon="3.76286">
        <ele>168</ele>
        <time>2018-06-24T09:46:46Z</time>
      </trkpt>
      <trkpt lat="50.10661" lon="3.76282">
        <ele>168</ele>
        <time>2018-06-24T09:46:47Z</time>
      </trkpt>
      <trkpt lat="50.1067" lon="3.76279">
        <ele>167</ele>
        <time>2018-06-24T09:46:48Z</time>
      </trkpt>
      <trkpt lat="50.10677" lon="3.76275">
        <ele>167</ele>
        <time>2018-06-24T09:46:49Z</time>
      </trkpt>
      <trkpt lat="50.10686" lon="3.76271">
        <ele>167</ele>
        <time>2018-06-24T09:46:50Z</time>
      </trkpt>
      <trkpt lat="50.10694" lon="3.76268">
        <ele>167</ele>
        <time>2018-06-24T09:46:51Z</time>
      </trkpt>
      <trkpt lat="50.10703" lon="3.76264">
        <ele>167</ele>
        <time>2018-06-24T09:46:52Z</time>
      </trkpt>
      <trkpt lat="50.10712" lon="3.76262">
        <ele>167</ele>
        <time>2018-06-24T09:46:53Z</time>
      </trkpt>
      <trkpt lat="50.10722" lon="3.76263">
        <ele>167</ele>
        <time>2018-06-24T09:46:54Z</time>
      </trkpt>
      <trkpt lat="50.1073" lon="3.76264">
        <ele>167</ele>
        <time>2018-06-24T09:46:55Z</time>
      </trkpt>
      <trkpt lat="50.10737" lon="3.76266">
        <ele>167</ele>
        <time>2018-06-24T09:46:56Z</time>
      </trkpt>
      <trkpt lat="50.10744" lon="3.7627">
        <ele>167</ele>
        <time>2018-06-24T09:46:57Z</time>
      </trkpt>
      <trkpt lat="50.10752" lon="3.76272">
        <ele>168</ele>
        <time>2018-06-24T09:46:58Z</time>
      </trkpt>
      <trkpt lat="50.10759" lon="3.76275">
        <ele>168</ele>
        <time>2018-06-24T09:46:59Z</time>
      </trkpt>
      <trkpt lat="50.10767" lon="3.76276">
        <ele>168</ele>
        <time>2018-06-24T09:47:00Z</time>
      </trkpt>
      <trkpt lat="50.10774" lon="3.76276">
        <ele>168</ele>
        <time>2018-06-24T09:47:01Z</time>
      </trkpt>
      <trkpt lat="50.10782" lon="3.7628">
        <ele>168</ele>
        <time>2018-06-24T09:47:02Z</time>
      </trkpt>
      <trkpt lat="50.10789" lon="3.76281">
        <ele>168</ele>
        <time>2018-06-24T09:47:03Z</time>
      </trkpt>
      <trkpt lat="50.10797" lon="3.76282">
        <ele>168</ele>
        <time>2018-06-24T09:47:04Z</time>
      </trkpt>
      <trkpt lat="50.10804" lon="3.76282">
        <ele>168</ele>
        <time>2018-06-24T09:47:05Z</time>
      </trkpt>
      <trkpt lat="50.10812" lon="3.76282">
        <ele>168</ele>
        <time>2018-06-24T09:47:06Z</time>
      </trkpt>
      <trkpt lat="50.10818" lon="3.76284">
        <ele>168</ele>
        <time>2018-06-24T09:47:07Z</time>
      </trkpt>
      <trkpt lat="50.10825" lon="3.76285">
        <ele>168</ele>
        <time>2018-06-24T09:47:08Z</time>
      </trkpt>
      <trkpt lat="50.10832" lon="3.76285">
        <ele>168</ele>
        <time>2018-06-24T09:47:09Z</time>
      </trkpt>
      <trkpt lat="50.10839" lon="3.76286">
        <ele>168</ele>
        <time>2018-06-24T09:47:10Z</time>
      </trkpt>
      <trkpt lat="50.10846" lon="3.76288">
        <ele>168</ele>
        <time>2018-06-24T09:47:11Z</time>
      </trkpt>
      <trkpt lat="50.10854" lon="3.76289">
        <ele>168</ele>
        <time>2018-06-24T09:47:12Z</time>
      </trkpt>
      <trkpt lat="50.10862" lon="3.7629">
        <ele>168</ele>
        <time>2018-06-24T09:47:13Z</time>
      </trkpt>
      <trkpt lat="50.10869" lon="3.7629">
        <ele>168</ele>
        <time>2018-06-24T09:47:14Z</time>
      </trkpt>
      <trkpt lat="50.10877" lon="3.7629">
        <ele>167</ele>
        <time>2018-06-24T09:47:15Z</time>
      </trkpt>
      <trkpt lat="50.10884" lon="3.7629">
        <ele>167</ele>
        <time>2018-06-24T09:47:16Z</time>
      </trkpt>
      <trkpt lat="50.10891" lon="3.76293">
        <ele>167</ele>
        <time>2018-06-24T09:47:17Z</time>
      </trkpt>
      <trkpt lat="50.10899" lon="3.76294">
        <ele>167</ele>
        <time>2018-06-24T09:47:18Z</time>
      </trkpt>
      <trkpt lat="50.10907" lon="3.76295">
        <ele>167</ele>
        <time>2018-06-24T09:47:19Z</time>
      </trkpt>
      <trkpt lat="50.10916" lon="3.76295">
        <ele>167</ele>
        <time>2018-06-24T09:47:20Z</time>
      </trkpt>
      <trkpt lat="50.10924" lon="3.76296">
        <ele>167</ele>
        <time>2018-06-24T09:47:21Z</time>
      </trkpt>
      <trkpt lat="50.10932" lon="3.76295">
        <ele>167</ele>
        <time>2018-06-24T09:47:22Z</time>
      </trkpt>
      <trkpt lat="50.10939" lon="3.76295">
        <ele>168</ele>
        <time>2018-06-24T09:47:23Z</time>
      </trkpt>
      <trkpt lat="50.10948" lon="3.76293">
        <ele>168</ele>
        <time>2018-06-24T09:47:24Z</time>
      </trkpt>
      <trkpt lat="50.10956" lon="3.76291">
        <ele>168</ele>
        <time>2018-06-24T09:47:25Z</time>
      </trkpt>
      <trkpt lat="50.10964" lon="3.76289">
        <ele>168</ele>
        <time>2018-06-24T09:47:26Z</time>
      </trkpt>
      <trkpt lat="50.10971" lon="3.76284">
        <ele>168</ele>
        <time>2018-06-24T09:47:27Z</time>
      </trkpt>
      <trkpt lat="50.10978" lon="3.76278">
        <ele>169</ele>
        <time>2018-06-24T09:47:28Z</time>
      </trkpt>
      <trkpt lat="50.10985" lon="3.76272">
        <ele>169</ele>
        <time>2018-06-24T09:47:29Z</time>
      </trkpt>
      <trkpt lat="50.10993" lon="3.76266">
        <ele>169</ele>
        <time>2018-06-24T09:47:30Z</time>
      </trkpt>
      <trkpt lat="50.11" lon="3.76262">
        <ele>170</ele>
        <time>2018-06-24T09:47:31Z</time>
      </trkpt>
      <trkpt lat="50.11008" lon="3.76258">
        <ele>170</ele>
        <time>2018-06-24T09:47:32Z</time>
      </trkpt>
      <trkpt lat="50.11015" lon="3.76253">
        <ele>170</ele>
        <time>2018-06-24T09:47:33Z</time>
      </trkpt>
      <trkpt lat="50.11022" lon="3.7625">
        <ele>171</ele>
        <time>2018-06-24T09:47:34Z</time>
      </trkpt>
      <trkpt lat="50.11029" lon="3.76244">
        <ele>171</ele>
        <time>2018-06-24T09:47:35Z</time>
      </trkpt>
      <trkpt lat="50.11036" lon="3.76239">
        <ele>171</ele>
        <time>2018-06-24T09:47:36Z</time>
      </trkpt>
      <trkpt lat="50.11042" lon="3.76234">
        <ele>171</ele>
        <time>2018-06-24T09:47:37Z</time>
      </trkpt>
      <trkpt lat="50.1105" lon="3.76228">
        <ele>171</ele>
        <time>2018-06-24T09:47:38Z</time>
      </trkpt>
      <trkpt lat="50.11057" lon="3.76223">
        <ele>171</ele>
        <time>2018-06-24T09:47:39Z</time>
      </trkpt>
      <trkpt lat="50.11064" lon="3.76217">
        <ele>171</ele>
        <time>2018-06-24T09:47:40Z</time>
      </trkpt>
      <trkpt lat="50.1107" lon="3.76212">
        <ele>171</ele>
        <time>2018-06-24T09:47:41Z</time>
      </trkpt>
      <trkpt lat="50.11075" lon="3.76206">
        <ele>171</ele>
        <time>2018-06-24T09:47:42Z</time>
      </trkpt>
      <trkpt lat="50.11082" lon="3.76199">
        <ele>171</ele>
        <time>2018-06-24T09:47:43Z</time>
      </trkpt>
      <trkpt lat="50.11088" lon="3.76196">
        <ele>170</ele>
        <time>2018-06-24T09:47:44Z</time>
      </trkpt>
      <trkpt lat="50.11094" lon="3.7619">
        <ele>170</ele>
        <time>2018-06-24T09:47:45Z</time>
      </trkpt>
      <trkpt lat="50.11101" lon="3.76184">
        <ele>170</ele>
        <time>2018-06-24T09:47:46Z</time>
      </trkpt>
      <trkpt lat="50.11107" lon="3.7618">
        <ele>170</ele>
        <time>2018-06-24T09:47:47Z</time>
      </trkpt>
      <trkpt lat="50.11113" lon="3.76176">
        <ele>169</ele>
        <time>2018-06-24T09:47:48Z</time>
      </trkpt>
      <trkpt lat="50.1112" lon="3.7617">
        <ele>169</ele>
        <time>2018-06-24T09:47:49Z</time>
      </trkpt>
      <trkpt lat="50.11126" lon="3.76165">
        <ele>170</ele>
        <time>2018-06-24T09:47:50Z</time>
      </trkpt>
      <trkpt lat="50.11133" lon="3.76158">
        <ele>170</ele>
        <time>2018-06-24T09:47:51Z</time>
      </trkpt>
      <trkpt lat="50.1114" lon="3.76152">
        <ele>170</ele>
        <time>2018-06-24T09:47:52Z</time>
      </trkpt>
      <trkpt lat="50.11147" lon="3.76147">
        <ele>170</ele>
        <time>2018-06-24T09:47:53Z</time>
      </trkpt>
      <trkpt lat="50.11155" lon="3.76143">
        <ele>170</ele>
        <time>2018-06-24T09:47:54Z</time>
      </trkpt>
      <trkpt lat="50.11163" lon="3.76139">
        <ele>170</ele>
        <time>2018-06-24T09:47:55Z</time>
      </trkpt>
      <trkpt lat="50.1117" lon="3.76134">
        <ele>170</ele>
        <time>2018-06-24T09:47:56Z</time>
      </trkpt>
      <trkpt lat="50.11178" lon="3.76129">
        <ele>170</ele>
        <time>2018-06-24T09:47:57Z</time>
      </trkpt>
      <trkpt lat="50.11186" lon="3.76126">
        <ele>170</ele>
        <time>2018-06-24T09:47:58Z</time>
      </trkpt>
      <trkpt lat="50.11195" lon="3.76123">
        <ele>170</ele>
        <time>2018-06-24T09:47:59Z</time>
      </trkpt>
      <trkpt lat="50.11203" lon="3.76119">
        <ele>170</ele>
        <time>2018-06-24T09:48:00Z</time>
      </trkpt>
      <trkpt lat="50.1121" lon="3.76116">
        <ele>170</ele>
        <time>2018-06-24T09:48:01Z</time>
      </trkpt>
      <trkpt lat="50.11218" lon="3.76113">
        <ele>170</ele>
        <time>2018-06-24T09:48:02Z</time>
      </trkpt>
      <trkpt lat="50.11225" lon="3.76111">
        <ele>170</ele>
        <time>2018-06-24T09:48:03Z</time>
      </trkpt>
      <trkpt lat="50.11232" lon="3.76108">
        <ele>170</ele>
        <time>2018-06-24T09:48:04Z</time>
      </trkpt>
      <trkpt lat="50.11239" lon="3.76102">
        <ele>170</ele>
        <time>2018-06-24T09:48:05Z</time>
      </trkpt>
      <trkpt lat="50.11248" lon="3.76098">
        <ele>170</ele>
        <time>2018-06-24T09:48:06Z</time>
      </trkpt>
      <trkpt lat="50.11256" lon="3.76093">
        <ele>169</ele>
        <time>2018-06-24T09:48:07Z</time>
      </trkpt>
      <trkpt lat="50.11264" lon="3.7609">
        <ele>169</ele>
        <time>2018-06-24T09:48:08Z</time>
      </trkpt>
      <trkpt lat="50.11273" lon="3.76086">
        <ele>169</ele>
        <time>2018-06-24T09:48:09Z</time>
      </trkpt>
      <trkpt lat="50.11281" lon="3.76082">
        <ele>169</ele>
        <time>2018-06-24T09:48:10Z</time>
      </trkpt>
      <trkpt lat="50.1129" lon="3.76078">
        <ele>169</ele>
        <time>2018-06-24T09:48:11Z</time>
      </trkpt>
      <trkpt lat="50.11299" lon="3.76075">
        <ele>169</ele>
        <time>2018-06-24T09:48:12Z</time>
      </trkpt>
      <trkpt lat="50.11308" lon="3.76072">
        <ele>169</ele>
        <time>2018-06-24T09:48:13Z</time>
      </trkpt>
      <trkpt lat="50.11317" lon="3.76069">
        <ele>168</ele>
        <time>2018-06-24T09:48:14Z</time>
      </trkpt>
      <trkpt lat="50.11328" lon="3.76066">
        <ele>168</ele>
        <time>2018-06-24T09:48:15Z</time>
      </trkpt>
      <trkpt lat="50.11337" lon="3.76066">
        <ele>167</ele>
        <time>2018-06-24T09:48:16Z</time>
      </trkpt>
      <trkpt lat="50.11347" lon="3.76066">
        <ele>166</ele>
        <time>2018-06-24T09:48:17Z</time>
      </trkpt>
      <trkpt lat="50.11357" lon="3.76066">
        <ele>166</ele>
        <time>2018-06-24T09:48:18Z</time>
      </trkpt>
      <trkpt lat="50.11367" lon="3.7607">
        <ele>166</ele>
        <time>2018-06-24T09:48:19Z</time>
      </trkpt>
      <trkpt lat="50.11376" lon="3.76072">
        <ele>166</ele>
        <time>2018-06-24T09:48:20Z</time>
      </trkpt>
      <trkpt lat="50.11384" lon="3.76073">
        <ele>166</ele>
        <time>2018-06-24T09:48:21Z</time>
      </trkpt>
      <trkpt lat="50.11392" lon="3.76075">
        <ele>165</ele>
        <time>2018-06-24T09:48:22Z</time>
      </trkpt>
      <trkpt lat="50.11401" lon="3.76077">
        <ele>165</ele>
        <time>2018-06-24T09:48:23Z</time>
      </trkpt>
      <trkpt lat="50.11409" lon="3.7608">
        <ele>165</ele>
        <time>2018-06-24T09:48:24Z</time>
      </trkpt>
      <trkpt lat="50.11418" lon="3.76082">
        <ele>164</ele>
        <time>2018-06-24T09:48:25Z</time>
      </trkpt>
      <trkpt lat="50.11425" lon="3.76084">
        <ele>163</ele>
        <time>2018-06-24T09:48:26Z</time>
      </trkpt>
      <trkpt lat="50.11434" lon="3.76084">
        <ele>163</ele>
        <time>2018-06-24T09:48:27Z</time>
      </trkpt>
      <trkpt lat="50.11442" lon="3.76084">
        <ele>163</ele>
        <time>2018-06-24T09:48:28Z</time>
      </trkpt>
      <trkpt lat="50.11452" lon="3.76083">
        <ele>163</ele>
        <time>2018-06-24T09:48:29Z</time>
      </trkpt>
      <trkpt lat="50.11461" lon="3.76081">
        <ele>163</ele>
        <time>2018-06-24T09:48:30Z</time>
      </trkpt>
      <trkpt lat="50.11471" lon="3.76083">
        <ele>163</ele>
        <time>2018-06-24T09:48:31Z</time>
      </trkpt>
      <trkpt lat="50.1148" lon="3.76083">
        <ele>163</ele>
        <time>2018-06-24T09:48:32Z</time>
      </trkpt>
      <trkpt lat="50.11489" lon="3.76082">
        <ele>163</ele>
        <time>2018-06-24T09:48:33Z</time>
      </trkpt>
      <trkpt lat="50.11499" lon="3.76081">
        <ele>162</ele>
        <time>2018-06-24T09:48:34Z</time>
      </trkpt>
      <trkpt lat="50.11509" lon="3.76079">
        <ele>161</ele>
        <time>2018-06-24T09:48:35Z</time>
      </trkpt>
      <trkpt lat="50.11518" lon="3.76076">
        <ele>161</ele>
        <time>2018-06-24T09:48:36Z</time>
      </trkpt>
      <trkpt lat="50.11527" lon="3.76073">
        <ele>161</ele>
        <time>2018-06-24T09:48:37Z</time>
      </trkpt>
      <trkpt lat="50.11537" lon="3.76069">
        <ele>161</ele>
        <time>2018-06-24T09:48:38Z</time>
      </trkpt>
      <trkpt lat="50.11547" lon="3.76065">
        <ele>160</ele>
        <time>2018-06-24T09:48:39Z</time>
      </trkpt>
      <trkpt lat="50.11556" lon="3.76061">
        <ele>160</ele>
        <time>2018-06-24T09:48:40Z</time>
      </trkpt>
      <trkpt lat="50.11567" lon="3.76058">
        <ele>160</ele>
        <time>2018-06-24T09:48:41Z</time>
      </trkpt>
      <trkpt lat="50.11577" lon="3.76057">
        <ele>160</ele>
        <time>2018-06-24T09:48:42Z</time>
      </trkpt>
      <trkpt lat="50.11588" lon="3.76053">
        <ele>157</ele>
        <time>2018-06-24T09:48:43Z</time>
      </trkpt>
      <trkpt lat="50.116" lon="3.76051">
        <ele>157</ele>
        <time>2018-06-24T09:48:44Z</time>
      </trkpt>
      <trkpt lat="50.11611" lon="3.76048">
        <ele>157</ele>
        <time>2018-06-24T09:48:45Z</time>
      </trkpt>
      <trkpt lat="50.11623" lon="3.76048">
        <ele>156</ele>
        <time>2018-06-24T09:48:46Z</time>
      </trkpt>
      <trkpt lat="50.11636" lon="3.76048">
        <ele>156</ele>
        <time>2018-06-24T09:48:47Z</time>
      </trkpt>
      <trkpt lat="50.11647" lon="3.76053">
        <ele>156</ele>
        <time>2018-06-24T09:48:48Z</time>
      </trkpt>
      <trkpt lat="50.11658" lon="3.76059">
        <ele>155</ele>
        <time>2018-06-24T09:48:49Z</time>
      </trkpt>
      <trkpt lat="50.11669" lon="3.76066">
        <ele>153</ele>
        <time>2018-06-24T09:48:50Z</time>
      </trkpt>
      <trkpt lat="50.11679" lon="3.76073">
        <ele>153</ele>
        <time>2018-06-24T09:48:51Z</time>
      </trkpt>
      <trkpt lat="50.11689" lon="3.76082">
        <ele>153</ele>
        <time>2018-06-24T09:48:52Z</time>
      </trkpt>
      <trkpt lat="50.117" lon="3.76089">
        <ele>152</ele>
        <time>2018-06-24T09:48:53Z</time>
      </trkpt>
      <trkpt lat="50.1171" lon="3.76099">
        <ele>152</ele>
        <time>2018-06-24T09:48:54Z</time>
      </trkpt>
      <trkpt lat="50.11721" lon="3.76106">
        <ele>152</ele>
        <time>2018-06-24T09:48:55Z</time>
      </trkpt>
      <trkpt lat="50.11732" lon="3.76113">
        <ele>152</ele>
        <time>2018-06-24T09:48:56Z</time>
      </trkpt>
      <trkpt lat="50.11742" lon="3.76119">
        <ele>152</ele>
        <time>2018-06-24T09:48:57Z</time>
      </trkpt>
      <trkpt lat="50.11753" lon="3.76124">
        <ele>149</ele>
        <time>2018-06-24T09:48:58Z</time>
      </trkpt>
      <trkpt lat="50.11764" lon="3.7613">
        <ele>149</ele>
        <time>2018-06-24T09:48:59Z</time>
      </trkpt>
      <trkpt lat="50.11775" lon="3.76135">
        <ele>149</ele>
        <time>2018-06-24T09:49:00Z</time>
      </trkpt>
      <trkpt lat="50.11785" lon="3.76141">
        <ele>149</ele>
        <time>2018-06-24T09:49:01Z</time>
      </trkpt>
      <trkpt lat="50.11796" lon="3.76146">
        <ele>148</ele>
        <time>2018-06-24T09:49:02Z</time>
      </trkpt>
      <trkpt lat="50.11806" lon="3.76151">
        <ele>148</ele>
        <time>2018-06-24T09:49:03Z</time>
      </trkpt>
      <trkpt lat="50.11816" lon="3.76158">
        <ele>148</ele>
        <time>2018-06-24T09:49:04Z</time>
      </trkpt>
      <trkpt lat="50.11826" lon="3.76164">
        <ele>147</ele>
        <time>2018-06-24T09:49:05Z</time>
      </trkpt>
      <trkpt lat="50.11837" lon="3.7617">
        <ele>146</ele>
        <time>2018-06-24T09:49:06Z</time>
      </trkpt>
      <trkpt lat="50.11846" lon="3.76177">
        <ele>145</ele>
        <time>2018-06-24T09:49:07Z</time>
      </trkpt>
      <trkpt lat="50.11857" lon="3.76182">
        <ele>144</ele>
        <time>2018-06-24T09:49:08Z</time>
      </trkpt>
      <trkpt lat="50.11866" lon="3.76188">
        <ele>144</ele>
        <time>2018-06-24T09:49:09Z</time>
      </trkpt>
      <trkpt lat="50.11875" lon="3.76195">
        <ele>144</ele>
        <time>2018-06-24T09:49:10Z</time>
      </trkpt>
      <trkpt lat="50.11884" lon="3.76201">
        <ele>144</ele>
        <time>2018-06-24T09:49:11Z</time>
      </trkpt>
      <trkpt lat="50.11892" lon="3.76206">
        <ele>143</ele>
        <time>2018-06-24T09:49:12Z</time>
      </trkpt>
      <trkpt lat="50.119" lon="3.7621">
        <ele>143</ele>
        <time>2018-06-24T09:49:13Z</time>
      </trkpt>
      <trkpt lat="50.11908" lon="3.76211">
        <ele>143</ele>
        <time>2018-06-24T09:49:14Z</time>
      </trkpt>
      <trkpt lat="50.11916" lon="3.7621">
        <ele>143</ele>
        <time>2018-06-24T09:49:15Z</time>
      </trkpt>
      <trkpt lat="50.11924" lon="3.76203">
        <ele>142</ele>
        <time>2018-06-24T09:49:16Z</time>
      </trkpt>
      <trkpt lat="50.11931" lon="3.76193">
        <ele>142</ele>
        <time>2018-06-24T09:49:17Z</time>
      </trkpt>
      <trkpt lat="50.11938" lon="3.76183">
        <ele>142</ele>
        <time>2018-06-24T09:49:18Z</time>
      </trkpt>
      <trkpt lat="50.11944" lon="3.76172">
        <ele>142</ele>
        <time>2018-06-24T09:49:19Z</time>
      </trkpt>
      <trkpt lat="50.11951" lon="3.76162">
        <ele>143</ele>
        <time>2018-06-24T09:49:20Z</time>
      </trkpt>
      <trkpt lat="50.11959" lon="3.76154">
        <ele>143</ele>
        <time>2018-06-24T09:49:21Z</time>
      </trkpt>
      <trkpt lat="50.11967" lon="3.76146">
        <ele>143</ele>
        <time>2018-06-24T09:49:22Z</time>
      </trkpt>
      <trkpt lat="50.11976" lon="3.76142">
        <ele>143</ele>
        <time>2018-06-24T09:49:23Z</time>
      </trkpt>
      <trkpt lat="50.11986" lon="3.76138">
        <ele>143</ele>
        <time>2018-06-24T09:49:24Z</time>
      </trkpt>
      <trkpt lat="50.11995" lon="3.76134">
        <ele>143</ele>
        <time>2018-06-24T09:49:25Z</time>
      </trkpt>
      <trkpt lat="50.12003" lon="3.76128">
        <ele>141</ele>
        <time>2018-06-24T09:49:26Z</time>
      </trkpt>
      <trkpt lat="50.12012" lon="3.76121">
        <ele>141</ele>
        <time>2018-06-24T09:49:27Z</time>
      </trkpt>
      <trkpt lat="50.1202" lon="3.76113">
        <ele>141</ele>
        <time>2018-06-24T09:49:28Z</time>
      </trkpt>
      <trkpt lat="50.12028" lon="3.76105">
        <ele>141</ele>
        <time>2018-06-24T09:49:29Z</time>
      </trkpt>
      <trkpt lat="50.12037" lon="3.76096">
        <ele>141</ele>
        <time>2018-06-24T09:49:30Z</time>
      </trkpt>
      <trkpt lat="50.12045" lon="3.76089">
        <ele>141</ele>
        <time>2018-06-24T09:49:31Z</time>
      </trkpt>
      <trkpt lat="50.12053" lon="3.76081">
        <ele>141</ele>
        <time>2018-06-24T09:49:32Z</time>
      </trkpt>
      <trkpt lat="50.12061" lon="3.76071">
        <ele>140</ele>
        <time>2018-06-24T09:49:33Z</time>
      </trkpt>
      <trkpt lat="50.12067" lon="3.7606">
        <ele>140</ele>
        <time>2018-06-24T09:49:34Z</time>
      </trkpt>
      <trkpt lat="50.12074" lon="3.76047">
        <ele>140</ele>
        <time>2018-06-24T09:49:35Z</time>
      </trkpt>
      <trkpt lat="50.12078" lon="3.76033">
        <ele>140</ele>
        <time>2018-06-24T09:49:36Z</time>
      </trkpt>
      <trkpt lat="50.12083" lon="3.76018">
        <ele>140</ele>
        <time>2018-06-24T09:49:37Z</time>
      </trkpt>
      <trkpt lat="50.12088" lon="3.76003">
        <ele>138</ele>
        <time>2018-06-24T09:49:38Z</time>
      </trkpt>
      <trkpt lat="50.12093" lon="3.75988">
        <ele>139</ele>
        <time>2018-06-24T09:49:39Z</time>
      </trkpt>
      <trkpt lat="50.12097" lon="3.75974">
        <ele>140</ele>
        <time>2018-06-24T09:49:40Z</time>
      </trkpt>
      <trkpt lat="50.12101" lon="3.7596">
        <ele>140</ele>
        <time>2018-06-24T09:49:41Z</time>
      </trkpt>
      <trkpt lat="50.12106" lon="3.75946">
        <ele>140</ele>
        <time>2018-06-24T09:49:42Z</time>
      </trkpt>
      <trkpt lat="50.12111" lon="3.75933">
        <ele>141</ele>
        <time>2018-06-24T09:49:43Z</time>
      </trkpt>
      <trkpt lat="50.12117" lon="3.75922">
        <ele>141</ele>
        <time>2018-06-24T09:49:44Z</time>
      </trkpt>
      <trkpt lat="50.12124" lon="3.75911">
        <ele>142</ele>
        <time>2018-06-24T09:49:45Z</time>
      </trkpt>
      <trkpt lat="50.12131" lon="3.75901">
        <ele>142</ele>
        <time>2018-06-24T09:49:46Z</time>
      </trkpt>
      <trkpt lat="50.12138" lon="3.75892">
        <ele>142</ele>
        <time>2018-06-24T09:49:47Z</time>
      </trkpt>
      <trkpt lat="50.12144" lon="3.75882">
        <ele>142</ele>
        <time>2018-06-24T09:49:48Z</time>
      </trkpt>
      <trkpt lat="50.12151" lon="3.75873">
        <ele>143</ele>
        <time>2018-06-24T09:49:49Z</time>
      </trkpt>
      <trkpt lat="50.12156" lon="3.75863">
        <ele>143</ele>
        <time>2018-06-24T09:49:50Z</time>
      </trkpt>
      <trkpt lat="50.12163" lon="3.75852">
        <ele>143</ele>
        <time>2018-06-24T09:49:51Z</time>
      </trkpt>
      <trkpt lat="50.12168" lon="3.75842">
        <ele>143</ele>
        <time>2018-06-24T09:49:52Z</time>
      </trkpt>
      <trkpt lat="50.12173" lon="3.7583">
        <ele>143</ele>
        <time>2018-06-24T09:49:53Z</time>
      </trkpt>
      <trkpt lat="50.12179" lon="3.75822">
        <ele>143</ele>
        <time>2018-06-24T09:49:54Z</time>
      </trkpt>
      <trkpt lat="50.12184" lon="3.75813">
        <ele>143</ele>
        <time>2018-06-24T09:49:55Z</time>
      </trkpt>
      <trkpt lat="50.12188" lon="3.75803">
        <ele>142</ele>
        <time>2018-06-24T09:49:56Z</time>
      </trkpt>
      <trkpt lat="50.12193" lon="3.75795">
        <ele>142</ele>
        <time>2018-06-24T09:49:57Z</time>
      </trkpt>
      <trkpt lat="50.12198" lon="3.75785">
        <ele>142</ele>
        <time>2018-06-24T09:49:58Z</time>
      </trkpt>
      <trkpt lat="50.12203" lon="3.75774">
        <ele>142</ele>
        <time>2018-06-24T09:49:59Z</time>
      </trkpt>
      <trkpt lat="50.12207" lon="3.75766">
        <ele>142</ele>
        <time>2018-06-24T09:50:00Z</time>
      </trkpt>
      <trkpt lat="50.12211" lon="3.75756">
        <ele>142</ele>
        <time>2018-06-24T09:50:01Z</time>
      </trkpt>
      <trkpt lat="50.12215" lon="3.75746">
        <ele>142</ele>
        <time>2018-06-24T09:50:02Z</time>
      </trkpt>
      <trkpt lat="50.12219" lon="3.75736">
        <ele>142</ele>
        <time>2018-06-24T09:50:03Z</time>
      </trkpt>
      <trkpt lat="50.12224" lon="3.75726">
        <ele>142</ele>
        <time>2018-06-24T09:50:04Z</time>
      </trkpt>
      <trkpt lat="50.12229" lon="3.75717">
        <ele>141</ele>
        <time>2018-06-24T09:50:05Z</time>
      </trkpt>
      <trkpt lat="50.12233" lon="3.75707">
        <ele>141</ele>
        <time>2018-06-24T09:50:06Z</time>
      </trkpt>
      <trkpt lat="50.12238" lon="3.75696">
        <ele>141</ele>
        <time>2018-06-24T09:50:07Z</time>
      </trkpt>
      <trkpt lat="50.12244" lon="3.75687">
        <ele>141</ele>
        <time>2018-06-24T09:50:08Z</time>
      </trkpt>
      <trkpt lat="50.12249" lon="3.75677">
        <ele>141</ele>
        <time>2018-06-24T09:50:09Z</time>
      </trkpt>
      <trkpt lat="50.12254" lon="3.75667">
        <ele>140</ele>
        <time>2018-06-24T09:50:10Z</time>
      </trkpt>
      <trkpt lat="50.1226" lon="3.75659">
        <ele>139</ele>
        <time>2018-06-24T09:50:11Z</time>
      </trkpt>
      <trkpt lat="50.1227" lon="3.75658">
        <ele>139</ele>
        <time>2018-06-24T09:50:12Z</time>
      </trkpt>
      <trkpt lat="50.12279" lon="3.75661">
        <ele>139</ele>
        <time>2018-06-24T09:50:13Z</time>
      </trkpt>
      <trkpt lat="50.12287" lon="3.7567">
        <ele>139</ele>
        <time>2018-06-24T09:50:14Z</time>
      </trkpt>
      <trkpt lat="50.12294" lon="3.75679">
        <ele>139</ele>
        <time>2018-06-24T09:50:15Z</time>
      </trkpt>
      <trkpt lat="50.12301" lon="3.7569">
        <ele>139</ele>
        <time>2018-06-24T09:50:16Z</time>
      </trkpt>
      <trkpt lat="50.12307" lon="3.757">
        <ele>139</ele>
        <time>2018-06-24T09:50:17Z</time>
      </trkpt>
      <trkpt lat="50.12312" lon="3.7571">
        <ele>139</ele>
        <time>2018-06-24T09:50:18Z</time>
      </trkpt>
      <trkpt lat="50.12319" lon="3.75721">
        <ele>139</ele>
        <time>2018-06-24T09:50:19Z</time>
      </trkpt>
      <trkpt lat="50.12325" lon="3.75731">
        <ele>139</ele>
        <time>2018-06-24T09:50:20Z</time>
      </trkpt>
      <trkpt lat="50.12331" lon="3.7574">
        <ele>139</ele>
        <time>2018-06-24T09:50:21Z</time>
      </trkpt>
      <trkpt lat="50.12338" lon="3.75749">
        <ele>139</ele>
        <time>2018-06-24T09:50:22Z</time>
      </trkpt>
      <trkpt lat="50.12345" lon="3.75757">
        <ele>139</ele>
        <time>2018-06-24T09:50:23Z</time>
      </trkpt>
      <trkpt lat="50.12352" lon="3.75765">
        <ele>139</ele>
        <time>2018-06-24T09:50:24Z</time>
      </trkpt>
      <trkpt lat="50.12359" lon="3.75774">
        <ele>139</ele>
        <time>2018-06-24T09:50:25Z</time>
      </trkpt>
      <trkpt lat="50.12367" lon="3.75782">
        <ele>139</ele>
        <time>2018-06-24T09:50:26Z</time>
      </trkpt>
      <trkpt lat="50.12375" lon="3.7579">
        <ele>139</ele>
        <time>2018-06-24T09:50:27Z</time>
      </trkpt>
      <trkpt lat="50.12383" lon="3.75798">
        <ele>139</ele>
        <time>2018-06-24T09:50:28Z</time>
      </trkpt>
      <trkpt lat="50.12392" lon="3.75805">
        <ele>139</ele>
        <time>2018-06-24T09:50:29Z</time>
      </trkpt>
      <trkpt lat="50.124" lon="3.75812">
        <ele>139</ele>
        <time>2018-06-24T09:50:30Z</time>
      </trkpt>
      <trkpt lat="50.12409" lon="3.75818">
        <ele>139</ele>
        <time>2018-06-24T09:50:31Z</time>
      </trkpt>
      <trkpt lat="50.12417" lon="3.75825">
        <ele>138</ele>
        <time>2018-06-24T09:50:32Z</time>
      </trkpt>
      <trkpt lat="50.12426" lon="3.75832">
        <ele>138</ele>
        <time>2018-06-24T09:50:33Z</time>
      </trkpt>
      <trkpt lat="50.12433" lon="3.75839">
        <ele>138</ele>
        <time>2018-06-24T09:50:34Z</time>
      </trkpt>
      <trkpt lat="50.12442" lon="3.75845">
        <ele>138</ele>
        <time>2018-06-24T09:50:35Z</time>
      </trkpt>
      <trkpt lat="50.12451" lon="3.75851">
        <ele>137</ele>
        <time>2018-06-24T09:50:36Z</time>
      </trkpt>
      <trkpt lat="50.12459" lon="3.75855">
        <ele>137</ele>
        <time>2018-06-24T09:50:37Z</time>
      </trkpt>
      <trkpt lat="50.12468" lon="3.75859">
        <ele>137</ele>
        <time>2018-06-24T09:50:38Z</time>
      </trkpt>
      <trkpt lat="50.12478" lon="3.7586">
        <ele>137</ele>
        <time>2018-06-24T09:50:39Z</time>
      </trkpt>
      <trkpt lat="50.12487" lon="3.75861">
        <ele>137</ele>
        <time>2018-06-24T09:50:40Z</time>
      </trkpt>
      <trkpt lat="50.12497" lon="3.75863">
        <ele>137</ele>
        <time>2018-06-24T09:50:41Z</time>
      </trkpt>
      <trkpt lat="50.12506" lon="3.75867">
        <ele>137</ele>
        <time>2018-06-24T09:50:42Z</time>
      </trkpt>
      <trkpt lat="50.12516" lon="3.7587">
        <ele>137</ele>
        <time>2018-06-24T09:50:43Z</time>
      </trkpt>
      <trkpt lat="50.12525" lon="3.7587">
        <ele>137</ele>
        <time>2018-06-24T09:50:44Z</time>
      </trkpt>
      <trkpt lat="50.12535" lon="3.75872">
        <ele>137</ele>
        <time>2018-06-24T09:50:45Z</time>
      </trkpt>
      <trkpt lat="50.12544" lon="3.75875">
        <ele>137</ele>
        <time>2018-06-24T09:50:46Z</time>
      </trkpt>
      <trkpt lat="50.12552" lon="3.7588">
        <ele>137</ele>
        <time>2018-06-24T09:50:47Z</time>
      </trkpt>
      <trkpt lat="50.12561" lon="3.75885">
        <ele>137</ele>
        <time>2018-06-24T09:50:48Z</time>
      </trkpt>
      <trkpt lat="50.12568" lon="3.75892">
        <ele>137</ele>
        <time>2018-06-24T09:50:49Z</time>
      </trkpt>
      <trkpt lat="50.12575" lon="3.759">
        <ele>137</ele>
        <time>2018-06-24T09:50:50Z</time>
      </trkpt>
      <trkpt lat="50.12582" lon="3.75906">
        <ele>137</ele>
        <time>2018-06-24T09:50:51Z</time>
      </trkpt>
      <trkpt lat="50.12588" lon="3.7591">
        <ele>137</ele>
        <time>2018-06-24T09:50:52Z</time>
      </trkpt>
      <trkpt lat="50.12596" lon="3.75908">
        <ele>137</ele>
        <time>2018-06-24T09:50:53Z</time>
      </trkpt>
      <trkpt lat="50.12604" lon="3.75905">
        <ele>136</ele>
        <time>2018-06-24T09:50:54Z</time>
      </trkpt>
      <trkpt lat="50.12613" lon="3.75903">
        <ele>136</ele>
        <time>2018-06-24T09:50:55Z</time>
      </trkpt>
      <trkpt lat="50.12622" lon="3.75901">
        <ele>136</ele>
        <time>2018-06-24T09:50:56Z</time>
      </trkpt>
      <trkpt lat="50.12631" lon="3.759">
        <ele>136</ele>
        <time>2018-06-24T09:50:57Z</time>
      </trkpt>
      <trkpt lat="50.12639" lon="3.75897">
        <ele>136</ele>
        <time>2018-06-24T09:50:58Z</time>
      </trkpt>
      <trkpt lat="50.12649" lon="3.75895">
        <ele>136</ele>
        <time>2018-06-24T09:50:59Z</time>
      </trkpt>
      <trkpt lat="50.12658" lon="3.75893">
        <ele>136</ele>
        <time>2018-06-24T09:51:00Z</time>
      </trkpt>
      <trkpt lat="50.12667" lon="3.75889">
        <ele>135</ele>
        <time>2018-06-24T09:51:01Z</time>
      </trkpt>
      <trkpt lat="50.12676" lon="3.75887">
        <ele>135</ele>
        <time>2018-06-24T09:51:02Z</time>
      </trkpt>
      <trkpt lat="50.12684" lon="3.75885">
        <ele>135</ele>
        <time>2018-06-24T09:51:03Z</time>
      </trkpt>
      <trkpt lat="50.12693" lon="3.75882">
        <ele>135</ele>
        <time>2018-06-24T09:51:04Z</time>
      </trkpt>
      <trkpt lat="50.12702" lon="3.75878">
        <ele>135</ele>
        <time>2018-06-24T09:51:05Z</time>
      </trkpt>
      <trkpt lat="50.12711" lon="3.75876">
        <ele>135</ele>
        <time>2018-06-24T09:51:06Z</time>
      </trkpt>
      <trkpt lat="50.12721" lon="3.75873">
        <ele>135</ele>
        <time>2018-06-24T09:51:07Z</time>
      </trkpt>
      <trkpt lat="50.12731" lon="3.7587">
        <ele>135</ele>
        <time>2018-06-24T09:51:08Z</time>
      </trkpt>
      <trkpt lat="50.1274" lon="3.75868">
        <ele>135</ele>
        <time>2018-06-24T09:51:09Z</time>
      </trkpt>
      <trkpt lat="50.1275" lon="3.75867">
        <ele>135</ele>
        <time>2018-06-24T09:51:10Z</time>
      </trkpt>
      <trkpt lat="50.1276" lon="3.75868">
        <ele>135</ele>
        <time>2018-06-24T09:51:11Z</time>
      </trkpt>
      <trkpt lat="50.1277" lon="3.75872">
        <ele>135</ele>
        <time>2018-06-24T09:51:12Z</time>
      </trkpt>
      <trkpt lat="50.12779" lon="3.7588">
        <ele>135</ele>
        <time>2018-06-24T09:51:13Z</time>
      </trkpt>
      <trkpt lat="50.12786" lon="3.75889">
        <ele>135</ele>
        <time>2018-06-24T09:51:14Z</time>
      </trkpt>
      <trkpt lat="50.12793" lon="3.75899">
        <ele>135</ele>
        <time>2018-06-24T09:51:15Z</time>
      </trkpt>
      <trkpt lat="50.12801" lon="3.75905">
        <ele>135</ele>
        <time>2018-06-24T09:51:16Z</time>
      </trkpt>
      <trkpt lat="50.12808" lon="3.75914">
        <ele>135</ele>
        <time>2018-06-24T09:51:17Z</time>
      </trkpt>
      <trkpt lat="50.12814" lon="3.75923">
        <ele>135</ele>
        <time>2018-06-24T09:51:18Z</time>
      </trkpt>
      <trkpt lat="50.1282" lon="3.75931">
        <ele>135</ele>
        <time>2018-06-24T09:51:19Z</time>
      </trkpt>
      <trkpt lat="50.12827" lon="3.75943">
        <ele>135</ele>
        <time>2018-06-24T09:51:20Z</time>
      </trkpt>
      <trkpt lat="50.12832" lon="3.75954">
        <ele>135</ele>
        <time>2018-06-24T09:51:21Z</time>
      </trkpt>
      <trkpt lat="50.12839" lon="3.75963">
        <ele>135</ele>
        <time>2018-06-24T09:51:22Z</time>
      </trkpt>
      <trkpt lat="50.12846" lon="3.75971">
        <ele>135</ele>
        <time>2018-06-24T09:51:23Z</time>
      </trkpt>
      <trkpt lat="50.12852" lon="3.75978">
        <ele>135</ele>
        <time>2018-06-24T09:51:24Z</time>
      </trkpt>
      <trkpt lat="50.12859" lon="3.75984">
        <ele>135</ele>
        <time>2018-06-24T09:51:25Z</time>
      </trkpt>
      <trkpt lat="50.12867" lon="3.75991">
        <ele>135</ele>
        <time>2018-06-24T09:51:26Z</time>
      </trkpt>
      <trkpt lat="50.12874" lon="3.75995">
        <ele>135</ele>
        <time>2018-06-24T09:51:27Z</time>
      </trkpt>
      <trkpt lat="50.12882" lon="3.75999">
        <ele>135</ele>
        <time>2018-06-24T09:51:28Z</time>
      </trkpt>
      <trkpt lat="50.12889" lon="3.76002">
        <ele>135</ele>
        <time>2018-06-24T09:51:29Z</time>
      </trkpt>
      <trkpt lat="50.12897" lon="3.76004">
        <ele>135</ele>
        <time>2018-06-24T09:51:30Z</time>
      </trkpt>
      <trkpt lat="50.12905" lon="3.76006">
        <ele>134</ele>
        <time>2018-06-24T09:51:31Z</time>
      </trkpt>
      <trkpt lat="50.12912" lon="3.76007">
        <ele>134</ele>
        <time>2018-06-24T09:51:32Z</time>
      </trkpt>
      <trkpt lat="50.1292" lon="3.76009">
        <ele>134</ele>
        <time>2018-06-24T09:51:33Z</time>
      </trkpt>
      <trkpt lat="50.12927" lon="3.7601">
        <ele>134</ele>
        <time>2018-06-24T09:51:34Z</time>
      </trkpt>
      <trkpt lat="50.12934" lon="3.76013">
        <ele>134</ele>
        <time>2018-06-24T09:51:35Z</time>
      </trkpt>
      <trkpt lat="50.12941" lon="3.76014">
        <ele>134</ele>
        <time>2018-06-24T09:51:36Z</time>
      </trkpt>
      <trkpt lat="50.12947" lon="3.76012">
        <ele>134</ele>
        <time>2018-06-24T09:51:37Z</time>
      </trkpt>
      <trkpt lat="50.12954" lon="3.76007">
        <ele>134</ele>
        <time>2018-06-24T09:51:38Z</time>
      </trkpt>
      <trkpt lat="50.12958" lon="3.75994">
        <ele>134</ele>
        <time>2018-06-24T09:51:39Z</time>
      </trkpt>
      <trkpt lat="50.12961" lon="3.75982">
        <ele>134</ele>
        <time>2018-06-24T09:51:40Z</time>
      </trkpt>
      <trkpt lat="50.12964" lon="3.75971">
        <ele>134</ele>
        <time>2018-06-24T09:51:41Z</time>
      </trkpt>
      <trkpt lat="50.12967" lon="3.75961">
        <ele>134</ele>
        <time>2018-06-24T09:51:42Z</time>
      </trkpt>
      <trkpt lat="50.1297" lon="3.75948">
        <ele>134</ele>
        <time>2018-06-24T09:51:43Z</time>
      </trkpt>
      <trkpt lat="50.12972" lon="3.75935">
        <ele>134</ele>
        <time>2018-06-24T09:51:44Z</time>
      </trkpt>
      <trkpt lat="50.12974" lon="3.75923">
        <ele>134</ele>
        <time>2018-06-24T09:51:45Z</time>
      </trkpt>
      <trkpt lat="50.12977" lon="3.7591">
        <ele>134</ele>
        <time>2018-06-24T09:51:46Z</time>
      </trkpt>
      <trkpt lat="50.1298" lon="3.75896">
        <ele>134</ele>
        <time>2018-06-24T09:51:47Z</time>
      </trkpt>
      <trkpt lat="50.12983" lon="3.75883">
        <ele>134</ele>
        <time>2018-06-24T09:51:48Z</time>
      </trkpt>
      <trkpt lat="50.12987" lon="3.75869">
        <ele>134</ele>
        <time>2018-06-24T09:51:49Z</time>
      </trkpt>
      <trkpt lat="50.12989" lon="3.75857">
        <ele>134</ele>
        <time>2018-06-24T09:51:50Z</time>
      </trkpt>
      <trkpt lat="50.12992" lon="3.75844">
        <ele>133</ele>
        <time>2018-06-24T09:51:51Z</time>
      </trkpt>
      <trkpt lat="50.12996" lon="3.75831">
        <ele>133</ele>
        <time>2018-06-24T09:51:52Z</time>
      </trkpt>
      <trkpt lat="50.12999" lon="3.75817">
        <ele>134</ele>
        <time>2018-06-24T09:51:53Z</time>
      </trkpt>
      <trkpt lat="50.13002" lon="3.75804">
        <ele>134</ele>
        <time>2018-06-24T09:51:54Z</time>
      </trkpt>
      <trkpt lat="50.13004" lon="3.75789">
        <ele>134</ele>
        <time>2018-06-24T09:51:55Z</time>
      </trkpt>
      <trkpt lat="50.13006" lon="3.75775">
        <ele>134</ele>
        <time>2018-06-24T09:51:56Z</time>
      </trkpt>
      <trkpt lat="50.13007" lon="3.75761">
        <ele>134</ele>
        <time>2018-06-24T09:51:57Z</time>
      </trkpt>
      <trkpt lat="50.13009" lon="3.75745">
        <ele>134</ele>
        <time>2018-06-24T09:51:58Z</time>
      </trkpt>
      <trkpt lat="50.1301" lon="3.75731">
        <ele>134</ele>
        <time>2018-06-24T09:51:59Z</time>
      </trkpt>
      <trkpt lat="50.13012" lon="3.75718">
        <ele>134</ele>
        <time>2018-06-24T09:52:00Z</time>
      </trkpt>
      <trkpt lat="50.13014" lon="3.75703">
        <ele>134</ele>
        <time>2018-06-24T09:52:01Z</time>
      </trkpt>
      <trkpt lat="50.13015" lon="3.75691">
        <ele>134</ele>
        <time>2018-06-24T09:52:02Z</time>
      </trkpt>
      <trkpt lat="50.13017" lon="3.75677">
        <ele>134</ele>
        <time>2018-06-24T09:52:03Z</time>
      </trkpt>
      <trkpt lat="50.13018" lon="3.75666">
        <ele>134</ele>
        <time>2018-06-24T09:52:04Z</time>
      </trkpt>
      <trkpt lat="50.13018" lon="3.75655">
        <ele>134</ele>
        <time>2018-06-24T09:52:05Z</time>
      </trkpt>
      <trkpt lat="50.13018" lon="3.75645">
        <ele>134</ele>
        <time>2018-06-24T09:52:06Z</time>
      </trkpt>
      <trkpt lat="50.13019" lon="3.75635">
        <ele>134</ele>
        <time>2018-06-24T09:52:07Z</time>
      </trkpt>
      <trkpt lat="50.1302" lon="3.75625">
        <ele>134</ele>
        <time>2018-06-24T09:52:08Z</time>
      </trkpt>
      <trkpt lat="50.13024" lon="3.75618">
        <ele>134</ele>
        <time>2018-06-24T09:52:09Z</time>
      </trkpt>
      <trkpt lat="50.13027" lon="3.75613">
        <ele>134</ele>
        <time>2018-06-24T09:52:10Z</time>
      </trkpt>
      <trkpt lat="50.13031" lon="3.75613">
        <ele>134</ele>
        <time>2018-06-24T09:52:11Z</time>
      </trkpt>
      <trkpt lat="50.13035" lon="3.75615">
        <ele>134</ele>
        <time>2018-06-24T09:52:12Z</time>
      </trkpt>
      <trkpt lat="50.13039" lon="3.75617">
        <ele>134</ele>
        <time>2018-06-24T09:52:13Z</time>
      </trkpt>
      <trkpt lat="50.13043" lon="3.7562">
        <ele>134</ele>
        <time>2018-06-24T09:52:14Z</time>
      </trkpt>
      <trkpt lat="50.13046" lon="3.75627">
        <ele>134</ele>
        <time>2018-06-24T09:52:15Z</time>
      </trkpt>
      <trkpt lat="50.13047" lon="3.75634">
        <ele>134</ele>
        <time>2018-06-24T09:52:16Z</time>
      </trkpt>
      <trkpt lat="50.13049" lon="3.75642">
        <ele>134</ele>
        <time>2018-06-24T09:52:17Z</time>
      </trkpt>
      <trkpt lat="50.13052" lon="3.7565">
        <ele>134</ele>
        <time>2018-06-24T09:52:18Z</time>
      </trkpt>
      <trkpt lat="50.13055" lon="3.75659">
        <ele>134</ele>
        <time>2018-06-24T09:52:19Z</time>
      </trkpt>
      <trkpt lat="50.13058" lon="3.75668">
        <ele>134</ele>
        <time>2018-06-24T09:52:20Z</time>
      </trkpt>
      <trkpt lat="50.1306" lon="3.75681">
        <ele>134</ele>
        <time>2018-06-24T09:52:21Z</time>
      </trkpt>
      <trkpt lat="50.13063" lon="3.7569">
        <ele>134</ele>
        <time>2018-06-24T09:52:22Z</time>
      </trkpt>
      <trkpt lat="50.13067" lon="3.757">
        <ele>134</ele>
        <time>2018-06-24T09:52:23Z</time>
      </trkpt>
      <trkpt lat="50.13072" lon="3.75708">
        <ele>134</ele>
        <time>2018-06-24T09:52:24Z</time>
      </trkpt>
      <trkpt lat="50.13077" lon="3.75713">
        <ele>134</ele>
        <time>2018-06-24T09:52:25Z</time>
      </trkpt>
      <trkpt lat="50.13083" lon="3.7572">
        <ele>134</ele>
        <time>2018-06-24T09:52:26Z</time>
      </trkpt>
      <trkpt lat="50.13093" lon="3.75726">
        <ele>134</ele>
        <time>2018-06-24T09:52:27Z</time>
      </trkpt>
      <trkpt lat="50.13102" lon="3.75731">
        <ele>134</ele>
        <time>2018-06-24T09:52:28Z</time>
      </trkpt>
      <trkpt lat="50.13111" lon="3.75734">
        <ele>134</ele>
        <time>2018-06-24T09:52:29Z</time>
      </trkpt>
      <trkpt lat="50.1312" lon="3.75737">
        <ele>134</ele>
        <time>2018-06-24T09:52:30Z</time>
      </trkpt>
      <trkpt lat="50.13129" lon="3.75737">
        <ele>134</ele>
        <time>2018-06-24T09:52:31Z</time>
      </trkpt>
      <trkpt lat="50.13137" lon="3.75737">
        <ele>134</ele>
        <time>2018-06-24T09:52:32Z</time>
      </trkpt>
      <trkpt lat="50.13146" lon="3.75737">
        <ele>134</ele>
        <time>2018-06-24T09:52:33Z</time>
      </trkpt>
      <trkpt lat="50.13154" lon="3.75737">
        <ele>134</ele>
        <time>2018-06-24T09:52:34Z</time>
      </trkpt>
      <trkpt lat="50.13163" lon="3.75737">
        <ele>134</ele>
        <time>2018-06-24T09:52:35Z</time>
      </trkpt>
      <trkpt lat="50.13172" lon="3.75736">
        <ele>134</ele>
        <time>2018-06-24T09:52:36Z</time>
      </trkpt>
      <trkpt lat="50.13182" lon="3.75736">
        <ele>134</ele>
        <time>2018-06-24T09:52:37Z</time>
      </trkpt>
      <trkpt lat="50.13191" lon="3.75736">
        <ele>134</ele>
        <time>2018-06-24T09:52:38Z</time>
      </trkpt>
      <trkpt lat="50.13199" lon="3.75736">
        <ele>134</ele>
        <time>2018-06-24T09:52:39Z</time>
      </trkpt>
      <trkpt lat="50.13208" lon="3.75736">
        <ele>134</ele>
        <time>2018-06-24T09:52:40Z</time>
      </trkpt>
      <trkpt lat="50.13217" lon="3.75736">
        <ele>135</ele>
        <time>2018-06-24T09:52:41Z</time>
      </trkpt>
      <trkpt lat="50.13225" lon="3.75736">
        <ele>135</ele>
        <time>2018-06-24T09:52:42Z</time>
      </trkpt>
      <trkpt lat="50.13233" lon="3.75736">
        <ele>135</ele>
        <time>2018-06-24T09:52:43Z</time>
      </trkpt>
      <trkpt lat="50.13242" lon="3.75734">
        <ele>135</ele>
        <time>2018-06-24T09:52:44Z</time>
      </trkpt>
      <trkpt lat="50.1325" lon="3.75735">
        <ele>136</ele>
        <time>2018-06-24T09:52:45Z</time>
      </trkpt>
      <trkpt lat="50.13258" lon="3.75735">
        <ele>136</ele>
        <time>2018-06-24T09:52:46Z</time>
      </trkpt>
      <trkpt lat="50.13267" lon="3.75736">
        <ele>136</ele>
        <time>2018-06-24T09:52:47Z</time>
      </trkpt>
      <trkpt lat="50.13274" lon="3.75736">
        <ele>136</ele>
        <time>2018-06-24T09:52:48Z</time>
      </trkpt>
      <trkpt lat="50.13282" lon="3.75735">
        <ele>136</ele>
        <time>2018-06-24T09:52:49Z</time>
      </trkpt>
      <trkpt lat="50.1329" lon="3.75735">
        <ele>136</ele>
        <time>2018-06-24T09:52:50Z</time>
      </trkpt>
      <trkpt lat="50.13298" lon="3.75735">
        <ele>136</ele>
        <time>2018-06-24T09:52:51Z</time>
      </trkpt>
      <trkpt lat="50.13306" lon="3.75737">
        <ele>137</ele>
        <time>2018-06-24T09:52:52Z</time>
      </trkpt>
      <trkpt lat="50.13314" lon="3.75739">
        <ele>137</ele>
        <time>2018-06-24T09:52:53Z</time>
      </trkpt>
      <trkpt lat="50.13322" lon="3.75745">
        <ele>137</ele>
        <time>2018-06-24T09:52:54Z</time>
      </trkpt>
      <trkpt lat="50.13329" lon="3.75751">
        <ele>138</ele>
        <time>2018-06-24T09:52:55Z</time>
      </trkpt>
      <trkpt lat="50.13335" lon="3.75758">
        <ele>139</ele>
        <time>2018-06-24T09:52:56Z</time>
      </trkpt>
      <trkpt lat="50.13341" lon="3.75766">
        <ele>139</ele>
        <time>2018-06-24T09:52:57Z</time>
      </trkpt>
      <trkpt lat="50.13346" lon="3.75773">
        <ele>139</ele>
        <time>2018-06-24T09:52:58Z</time>
      </trkpt>
      <trkpt lat="50.13352" lon="3.75779">
        <ele>139</ele>
        <time>2018-06-24T09:52:59Z</time>
      </trkpt>
      <trkpt lat="50.13357" lon="3.75787">
        <ele>140</ele>
        <time>2018-06-24T09:53:00Z</time>
      </trkpt>
      <trkpt lat="50.13362" lon="3.75795">
        <ele>140</ele>
        <time>2018-06-24T09:53:01Z</time>
      </trkpt>
      <trkpt lat="50.13367" lon="3.75801">
        <ele>140</ele>
        <time>2018-06-24T09:53:02Z</time>
      </trkpt>
      <trkpt lat="50.13372" lon="3.75809">
        <ele>140</ele>
        <time>2018-06-24T09:53:03Z</time>
      </trkpt>
      <trkpt lat="50.13377" lon="3.75817">
        <ele>140</ele>
        <time>2018-06-24T09:53:04Z</time>
      </trkpt>
      <trkpt lat="50.13382" lon="3.75824">
        <ele>141</ele>
        <time>2018-06-24T09:53:05Z</time>
      </trkpt>
      <trkpt lat="50.13386" lon="3.75833">
        <ele>141</ele>
        <time>2018-06-24T09:53:06Z</time>
      </trkpt>
      <trkpt lat="50.13389" lon="3.75841">
        <ele>142</ele>
        <time>2018-06-24T09:53:07Z</time>
      </trkpt>
      <trkpt lat="50.13391" lon="3.75848">
        <ele>142</ele>
        <time>2018-06-24T09:53:08Z</time>
      </trkpt>
      <trkpt lat="50.13391" lon="3.75857">
        <ele>142</ele>
        <time>2018-06-24T09:53:09Z</time>
      </trkpt>
      <trkpt lat="50.13391" lon="3.75866">
        <ele>142</ele>
        <time>2018-06-24T09:53:10Z</time>
      </trkpt>
      <trkpt lat="50.13392" lon="3.75874">
        <ele>142</ele>
        <time>2018-06-24T09:53:11Z</time>
      </trkpt>
      <trkpt lat="50.13392" lon="3.75882">
        <ele>142</ele>
        <time>2018-06-24T09:53:12Z</time>
      </trkpt>
      <trkpt lat="50.13393" lon="3.75889">
        <ele>143</ele>
        <time>2018-06-24T09:53:13Z</time>
      </trkpt>
      <trkpt lat="50.13393" lon="3.75897">
        <ele>143</ele>
        <time>2018-06-24T09:53:14Z</time>
      </trkpt>
      <trkpt lat="50.13394" lon="3.75905">
        <ele>143</ele>
        <time>2018-06-24T09:53:15Z</time>
      </trkpt>
      <trkpt lat="50.13394" lon="3.75914">
        <ele>143</ele>
        <time>2018-06-24T09:53:16Z</time>
      </trkpt>
      <trkpt lat="50.13393" lon="3.75921">
        <ele>144</ele>
        <time>2018-06-24T09:53:17Z</time>
      </trkpt>
      <trkpt lat="50.13394" lon="3.75928">
        <ele>145</ele>
        <time>2018-06-24T09:53:18Z</time>
      </trkpt>
      <trkpt lat="50.13393" lon="3.75935">
        <ele>145</ele>
        <time>2018-06-24T09:53:19Z</time>
      </trkpt>
      <trkpt lat="50.13394" lon="3.75943">
        <ele>145</ele>
        <time>2018-06-24T09:53:20Z</time>
      </trkpt>
      <trkpt lat="50.13395" lon="3.7595">
        <ele>145</ele>
        <time>2018-06-24T09:53:21Z</time>
      </trkpt>
      <trkpt lat="50.13395" lon="3.75957">
        <ele>145</ele>
        <time>2018-06-24T09:53:22Z</time>
      </trkpt>
      <trkpt lat="50.13395" lon="3.75964">
        <ele>145</ele>
        <time>2018-06-24T09:53:23Z</time>
      </trkpt>
      <trkpt lat="50.13396" lon="3.75972">
        <ele>145</ele>
        <time>2018-06-24T09:53:24Z</time>
      </trkpt>
      <trkpt lat="50.13396" lon="3.75978">
        <ele>146</ele>
        <time>2018-06-24T09:53:25Z</time>
      </trkpt>
      <trkpt lat="50.13397" lon="3.75984">
        <ele>146</ele>
        <time>2018-06-24T09:53:26Z</time>
      </trkpt>
      <trkpt lat="50.13398" lon="3.7599">
        <ele>146</ele>
        <time>2018-06-24T09:53:27Z</time>
      </trkpt>
      <trkpt lat="50.134" lon="3.75995">
        <ele>146</ele>
        <time>2018-06-24T09:53:28Z</time>
      </trkpt>
      <trkpt lat="50.13401" lon="3.76001">
        <ele>147</ele>
        <time>2018-06-24T09:53:29Z</time>
      </trkpt>
      <trkpt lat="50.13404" lon="3.76007">
        <ele>147</ele>
        <time>2018-06-24T09:53:30Z</time>
      </trkpt>
      <trkpt lat="50.13406" lon="3.76014">
        <ele>147</ele>
        <time>2018-06-24T09:53:31Z</time>
      </trkpt>
      <trkpt lat="50.13409" lon="3.76019">
        <ele>147</ele>
        <time>2018-06-24T09:53:32Z</time>
      </trkpt>
      <trkpt lat="50.13412" lon="3.76023">
        <ele>147</ele>
        <time>2018-06-24T09:53:33Z</time>
      </trkpt>
      <trkpt lat="50.13416" lon="3.76027">
        <ele>147</ele>
        <time>2018-06-24T09:53:34Z</time>
      </trkpt>
      <trkpt lat="50.13419" lon="3.76032">
        <ele>149</ele>
        <time>2018-06-24T09:53:35Z</time>
      </trkpt>
      <trkpt lat="50.13423" lon="3.76035">
        <ele>149</ele>
        <time>2018-06-24T09:53:36Z</time>
      </trkpt>
      <trkpt lat="50.13427" lon="3.76039">
        <ele>149</ele>
        <time>2018-06-24T09:53:37Z</time>
      </trkpt>
      <trkpt lat="50.13431" lon="3.76041">
        <ele>149</ele>
        <time>2018-06-24T09:53:38Z</time>
      </trkpt>
      <trkpt lat="50.13437" lon="3.76043">
        <ele>149</ele>
        <time>2018-06-24T09:53:39Z</time>
      </trkpt>
      <trkpt lat="50.13441" lon="3.76047">
        <ele>149</ele>
        <time>2018-06-24T09:53:40Z</time>
      </trkpt>
      <trkpt lat="50.13446" lon="3.7605">
        <ele>149</ele>
        <time>2018-06-24T09:53:41Z</time>
      </trkpt>
      <trkpt lat="50.13452" lon="3.76053">
        <ele>149</ele>
        <time>2018-06-24T09:53:42Z</time>
      </trkpt>
      <trkpt lat="50.13458" lon="3.76058">
        <ele>149</ele>
        <time>2018-06-24T09:53:43Z</time>
      </trkpt>
      <trkpt lat="50.13463" lon="3.76061">
        <ele>149</ele>
        <time>2018-06-24T09:53:44Z</time>
      </trkpt>
      <trkpt lat="50.13467" lon="3.76063">
        <ele>150</ele>
        <time>2018-06-24T09:53:45Z</time>
      </trkpt>
      <trkpt lat="50.13473" lon="3.76066">
        <ele>150</ele>
        <time>2018-06-24T09:53:46Z</time>
      </trkpt>
      <trkpt lat="50.13477" lon="3.76069">
        <ele>150</ele>
        <time>2018-06-24T09:53:47Z</time>
      </trkpt>
      <trkpt lat="50.13482" lon="3.76072">
        <ele>150</ele>
        <time>2018-06-24T09:53:48Z</time>
      </trkpt>
      <trkpt lat="50.13487" lon="3.76074">
        <ele>150</ele>
        <time>2018-06-24T09:53:49Z</time>
      </trkpt>
      <trkpt lat="50.13491" lon="3.76077">
        <ele>150</ele>
        <time>2018-06-24T09:53:50Z</time>
      </trkpt>
      <trkpt lat="50.13495" lon="3.76081">
        <ele>151</ele>
        <time>2018-06-24T09:53:51Z</time>
      </trkpt>
      <trkpt lat="50.13499" lon="3.76084">
        <ele>151</ele>
        <time>2018-06-24T09:53:52Z</time>
      </trkpt>
      <trkpt lat="50.13503" lon="3.76087">
        <ele>151</ele>
        <time>2018-06-24T09:53:53Z</time>
      </trkpt>
      <trkpt lat="50.13507" lon="3.76091">
        <ele>152</ele>
        <time>2018-06-24T09:53:54Z</time>
      </trkpt>
      <trkpt lat="50.13511" lon="3.76095">
        <ele>152</ele>
        <time>2018-06-24T09:53:55Z</time>
      </trkpt>
      <trkpt lat="50.13514" lon="3.76099">
        <ele>152</ele>
        <time>2018-06-24T09:53:56Z</time>
      </trkpt>
      <trkpt lat="50.13518" lon="3.76104">
        <ele>152</ele>
        <time>2018-06-24T09:53:57Z</time>
      </trkpt>
      <trkpt lat="50.13521" lon="3.76109">
        <ele>152</ele>
        <time>2018-06-24T09:53:58Z</time>
      </trkpt>
      <trkpt lat="50.13524" lon="3.76115">
        <ele>152</ele>
        <time>2018-06-24T09:53:59Z</time>
      </trkpt>
      <trkpt lat="50.13526" lon="3.76123">
        <ele>153</ele>
        <time>2018-06-24T09:54:00Z</time>
      </trkpt>
      <trkpt lat="50.13529" lon="3.7613">
        <ele>153</ele>
        <time>2018-06-24T09:54:01Z</time>
      </trkpt>
      <trkpt lat="50.13531" lon="3.76137">
        <ele>153</ele>
        <time>2018-06-24T09:54:02Z</time>
      </trkpt>
      <trkpt lat="50.13532" lon="3.76146">
        <ele>153</ele>
        <time>2018-06-24T09:54:03Z</time>
      </trkpt>
      <trkpt lat="50.13533" lon="3.76153">
        <ele>153</ele>
        <time>2018-06-24T09:54:04Z</time>
      </trkpt>
      <trkpt lat="50.13534" lon="3.76162">
        <ele>153</ele>
        <time>2018-06-24T09:54:05Z</time>
      </trkpt>
      <trkpt lat="50.13534" lon="3.76172">
        <ele>154</ele>
        <time>2018-06-24T09:54:06Z</time>
      </trkpt>
      <trkpt lat="50.13534" lon="3.76181">
        <ele>154</ele>
        <time>2018-06-24T09:54:07Z</time>
      </trkpt>
      <trkpt lat="50.13534" lon="3.7619">
        <ele>154</ele>
        <time>2018-06-24T09:54:08Z</time>
      </trkpt>
      <trkpt lat="50.13533" lon="3.76199">
        <ele>154</ele>
        <time>2018-06-24T09:54:09Z</time>
      </trkpt>
      <trkpt lat="50.13532" lon="3.76208">
        <ele>154</ele>
        <time>2018-06-24T09:54:10Z</time>
      </trkpt>
      <trkpt lat="50.1353" lon="3.76216">
        <ele>154</ele>
        <time>2018-06-24T09:54:11Z</time>
      </trkpt>
      <trkpt lat="50.13528" lon="3.76225">
        <ele>154</ele>
        <time>2018-06-24T09:54:12Z</time>
      </trkpt>
      <trkpt lat="50.13526" lon="3.76234">
        <ele>154</ele>
        <time>2018-06-24T09:54:13Z</time>
      </trkpt>
      <trkpt lat="50.13524" lon="3.76243">
        <ele>154</ele>
        <time>2018-06-24T09:54:14Z</time>
      </trkpt>
      <trkpt lat="50.13522" lon="3.76252">
        <ele>155</ele>
        <time>2018-06-24T09:54:15Z</time>
      </trkpt>
      <trkpt lat="50.1352" lon="3.76261">
        <ele>155</ele>
        <time>2018-06-24T09:54:16Z</time>
      </trkpt>
      <trkpt lat="50.13518" lon="3.7627">
        <ele>155</ele>
        <time>2018-06-24T09:54:17Z</time>
      </trkpt>
      <trkpt lat="50.13516" lon="3.7628">
        <ele>156</ele>
        <time>2018-06-24T09:54:18Z</time>
      </trkpt>
      <trkpt lat="50.13514" lon="3.76289">
        <ele>156</ele>
        <time>2018-06-24T09:54:19Z</time>
      </trkpt>
      <trkpt lat="50.13513" lon="3.76299">
        <ele>156</ele>
        <time>2018-06-24T09:54:20Z</time>
      </trkpt>
      <trkpt lat="50.13512" lon="3.76308">
        <ele>156</ele>
        <time>2018-06-24T09:54:21Z</time>
      </trkpt>
      <trkpt lat="50.1351" lon="3.76316">
        <ele>156</ele>
        <time>2018-06-24T09:54:22Z</time>
      </trkpt>
      <trkpt lat="50.13509" lon="3.76324">
        <ele>156</ele>
        <time>2018-06-24T09:54:23Z</time>
      </trkpt>
      <trkpt lat="50.13507" lon="3.76334">
        <ele>157</ele>
        <time>2018-06-24T09:54:24Z</time>
      </trkpt>
      <trkpt lat="50.13506" lon="3.76344">
        <ele>157</ele>
        <time>2018-06-24T09:54:25Z</time>
      </trkpt>
      <trkpt lat="50.13505" lon="3.76352">
        <ele>157</ele>
        <time>2018-06-24T09:54:26Z</time>
      </trkpt>
      <trkpt lat="50.13503" lon="3.7636">
        <ele>158</ele>
        <time>2018-06-24T09:54:27Z</time>
      </trkpt>
      <trkpt lat="50.13502" lon="3.76369">
        <ele>158</ele>
        <time>2018-06-24T09:54:28Z</time>
      </trkpt>
      <trkpt lat="50.135" lon="3.76379">
        <ele>157</ele>
        <time>2018-06-24T09:54:29Z</time>
      </trkpt>
      <trkpt lat="50.13498" lon="3.7639">
        <ele>157</ele>
        <time>2018-06-24T09:54:30Z</time>
      </trkpt>
      <trkpt lat="50.13496" lon="3.764">
        <ele>158</ele>
        <time>2018-06-24T09:54:31Z</time>
      </trkpt>
      <trkpt lat="50.13494" lon="3.76409">
        <ele>158</ele>
        <time>2018-06-24T09:54:32Z</time>
      </trkpt>
      <trkpt lat="50.13493" lon="3.76418">
        <ele>159</ele>
        <time>2018-06-24T09:54:33Z</time>
      </trkpt>
      <trkpt lat="50.13491" lon="3.76428">
        <ele>159</ele>
        <time>2018-06-24T09:54:34Z</time>
      </trkpt>
      <trkpt lat="50.1349" lon="3.76438">
        <ele>159</ele>
        <time>2018-06-24T09:54:35Z</time>
      </trkpt>
      <trkpt lat="50.13489" lon="3.76448">
        <ele>160</ele>
        <time>2018-06-24T09:54:36Z</time>
      </trkpt>
      <trkpt lat="50.13488" lon="3.76458">
        <ele>160</ele>
        <time>2018-06-24T09:54:37Z</time>
      </trkpt>
      <trkpt lat="50.13487" lon="3.76468">
        <ele>160</ele>
        <time>2018-06-24T09:54:38Z</time>
      </trkpt>
      <trkpt lat="50.13486" lon="3.76477">
        <ele>160</ele>
        <time>2018-06-24T09:54:39Z</time>
      </trkpt>
      <trkpt lat="50.13486" lon="3.76487">
        <ele>161</ele>
        <time>2018-06-24T09:54:40Z</time>
      </trkpt>
      <trkpt lat="50.13485" lon="3.76497">
        <ele>161</ele>
        <time>2018-06-24T09:54:41Z</time>
      </trkpt>
      <trkpt lat="50.13486" lon="3.76506">
        <ele>162</ele>
        <time>2018-06-24T09:54:42Z</time>
      </trkpt>
      <trkpt lat="50.13486" lon="3.76515">
        <ele>162</ele>
        <time>2018-06-24T09:54:43Z</time>
      </trkpt>
      <trkpt lat="50.13486" lon="3.76524">
        <ele>162</ele>
        <time>2018-06-24T09:54:44Z</time>
      </trkpt>
      <trkpt lat="50.13486" lon="3.76533">
        <ele>162</ele>
        <time>2018-06-24T09:54:45Z</time>
      </trkpt>
      <trkpt lat="50.13486" lon="3.76543">
        <ele>162</ele>
        <time>2018-06-24T09:54:46Z</time>
      </trkpt>
      <trkpt lat="50.13486" lon="3.76553">
        <ele>162</ele>
        <time>2018-06-24T09:54:47Z</time>
      </trkpt>
      <trkpt lat="50.13486" lon="3.76561">
        <ele>162</ele>
        <time>2018-06-24T09:54:48Z</time>
      </trkpt>
      <trkpt lat="50.13487" lon="3.76573">
        <ele>163</ele>
        <time>2018-06-24T09:54:49Z</time>
      </trkpt>
      <trkpt lat="50.13487" lon="3.76582">
        <ele>163</ele>
        <time>2018-06-24T09:54:50Z</time>
      </trkpt>
      <trkpt lat="50.13486" lon="3.76592">
        <ele>164</ele>
        <time>2018-06-24T09:54:51Z</time>
      </trkpt>
      <trkpt lat="50.13485" lon="3.766">
        <ele>164</ele>
        <time>2018-06-24T09:54:52Z</time>
      </trkpt>
      <trkpt lat="50.13485" lon="3.76609">
        <ele>164</ele>
        <time>2018-06-24T09:54:53Z</time>
      </trkpt>
      <trkpt lat="50.13485" lon="3.76618">
        <ele>164</ele>
        <time>2018-06-24T09:54:54Z</time>
      </trkpt>
      <trkpt lat="50.13484" lon="3.76628">
        <ele>164</ele>
        <time>2018-06-24T09:54:55Z</time>
      </trkpt>
      <trkpt lat="50.13484" lon="3.76638">
        <ele>164</ele>
        <time>2018-06-24T09:54:56Z</time>
      </trkpt>
      <trkpt lat="50.13483" lon="3.76647">
        <ele>164</ele>
        <time>2018-06-24T09:54:57Z</time>
      </trkpt>
      <trkpt lat="50.13483" lon="3.76658">
        <ele>164</ele>
        <time>2018-06-24T09:54:58Z</time>
      </trkpt>
      <trkpt lat="50.13483" lon="3.76668">
        <ele>165</ele>
        <time>2018-06-24T09:54:59Z</time>
      </trkpt>
      <trkpt lat="50.13482" lon="3.76677">
        <ele>165</ele>
        <time>2018-06-24T09:55:00Z</time>
      </trkpt>
      <trkpt lat="50.13482" lon="3.76687">
        <ele>165</ele>
        <time>2018-06-24T09:55:01Z</time>
      </trkpt>
      <trkpt lat="50.13482" lon="3.76697">
        <ele>165</ele>
        <time>2018-06-24T09:55:02Z</time>
      </trkpt>
      <trkpt lat="50.13482" lon="3.76707">
        <ele>165</ele>
        <time>2018-06-24T09:55:03Z</time>
      </trkpt>
      <trkpt lat="50.13481" lon="3.76716">
        <ele>165</ele>
        <time>2018-06-24T09:55:04Z</time>
      </trkpt>
      <trkpt lat="50.13481" lon="3.76726">
        <ele>165</ele>
        <time>2018-06-24T09:55:05Z</time>
      </trkpt>
      <trkpt lat="50.1348" lon="3.76737">
        <ele>165</ele>
        <time>2018-06-24T09:55:06Z</time>
      </trkpt>
      <trkpt lat="50.1348" lon="3.76747">
        <ele>165</ele>
        <time>2018-06-24T09:55:07Z</time>
      </trkpt>
      <trkpt lat="50.13481" lon="3.76757">
        <ele>165</ele>
        <time>2018-06-24T09:55:08Z</time>
      </trkpt>
      <trkpt lat="50.13481" lon="3.76766">
        <ele>165</ele>
        <time>2018-06-24T09:55:09Z</time>
      </trkpt>
      <trkpt lat="50.13481" lon="3.76776">
        <ele>165</ele>
        <time>2018-06-24T09:55:10Z</time>
      </trkpt>
      <trkpt lat="50.1348" lon="3.76785">
        <ele>165</ele>
        <time>2018-06-24T09:55:11Z</time>
      </trkpt>
      <trkpt lat="50.13477" lon="3.76795">
        <ele>166</ele>
        <time>2018-06-24T09:55:12Z</time>
      </trkpt>
      <trkpt lat="50.13474" lon="3.76806">
        <ele>166</ele>
        <time>2018-06-24T09:55:13Z</time>
      </trkpt>
      <trkpt lat="50.13471" lon="3.76816">
        <ele>166</ele>
        <time>2018-06-24T09:55:14Z</time>
      </trkpt>
      <trkpt lat="50.13469" lon="3.76825">
        <ele>166</ele>
        <time>2018-06-24T09:55:15Z</time>
      </trkpt>
      <trkpt lat="50.13467" lon="3.76835">
        <ele>166</ele>
        <time>2018-06-24T09:55:16Z</time>
      </trkpt>
      <trkpt lat="50.13464" lon="3.76846">
        <ele>166</ele>
        <time>2018-06-24T09:55:17Z</time>
      </trkpt>
      <trkpt lat="50.13462" lon="3.76857">
        <ele>166</ele>
        <time>2018-06-24T09:55:18Z</time>
      </trkpt>
      <trkpt lat="50.13459" lon="3.76867">
        <ele>166</ele>
        <time>2018-06-24T09:55:19Z</time>
      </trkpt>
      <trkpt lat="50.13457" lon="3.76877">
        <ele>166</ele>
        <time>2018-06-24T09:55:20Z</time>
      </trkpt>
      <trkpt lat="50.13455" lon="3.76888">
        <ele>166</ele>
        <time>2018-06-24T09:55:21Z</time>
      </trkpt>
      <trkpt lat="50.13453" lon="3.76898">
        <ele>166</ele>
        <time>2018-06-24T09:55:22Z</time>
      </trkpt>
      <trkpt lat="50.13451" lon="3.76907">
        <ele>166</ele>
        <time>2018-06-24T09:55:23Z</time>
      </trkpt>
      <trkpt lat="50.1345" lon="3.76917">
        <ele>167</ele>
        <time>2018-06-24T09:55:24Z</time>
      </trkpt>
      <trkpt lat="50.13448" lon="3.76928">
        <ele>167</ele>
        <time>2018-06-24T09:55:25Z</time>
      </trkpt>
      <trkpt lat="50.13447" lon="3.76937">
        <ele>167</ele>
        <time>2018-06-24T09:55:26Z</time>
      </trkpt>
      <trkpt lat="50.13447" lon="3.76948">
        <ele>167</ele>
        <time>2018-06-24T09:55:27Z</time>
      </trkpt>
      <trkpt lat="50.1345" lon="3.76956">
        <ele>167</ele>
        <time>2018-06-24T09:55:28Z</time>
      </trkpt>
      <trkpt lat="50.13453" lon="3.76963">
        <ele>167</ele>
        <time>2018-06-24T09:55:29Z</time>
      </trkpt>
      <trkpt lat="50.13454" lon="3.76971">
        <ele>167</ele>
        <time>2018-06-24T09:55:30Z</time>
      </trkpt>
      <trkpt lat="50.13456" lon="3.76978">
        <ele>167</ele>
        <time>2018-06-24T09:55:31Z</time>
      </trkpt>
      <trkpt lat="50.13458" lon="3.76984">
        <ele>167</ele>
        <time>2018-06-24T09:55:32Z</time>
      </trkpt>
      <trkpt lat="50.1346" lon="3.76988">
        <ele>168</ele>
        <time>2018-06-24T09:55:33Z</time>
      </trkpt>
      <trkpt lat="50.13461" lon="3.76995">
        <ele>168</ele>
        <time>2018-06-24T09:55:34Z</time>
      </trkpt>
      <trkpt lat="50.13465" lon="3.76996">
        <ele>168</ele>
        <time>2018-06-24T09:55:36Z</time>
      </trkpt>
      <trkpt lat="50.13466" lon="3.7699">
        <ele>168</ele>
        <time>2018-06-24T09:55:38Z</time>
      </trkpt>
      <trkpt lat="50.13467" lon="3.7698">
        <ele>168</ele>
        <time>2018-06-24T09:55:40Z</time>
      </trkpt>
      <trkpt lat="50.13465" lon="3.76974">
        <ele>167</ele>
        <time>2018-06-24T09:55:46Z</time>
      </trkpt>
      <trkpt lat="50.13468" lon="3.76972">
        <ele>167</ele>
        <time>2018-06-24T09:55:49Z</time>
      </trkpt>
      <trkpt lat="50.13481" lon="3.76733">
        <ele>165</ele>
        <time>2018-06-24T10:10:27Z</time>
      </trkpt>
      <trkpt lat="50.13481" lon="3.76724">
        <ele>165</ele>
        <time>2018-06-24T10:10:28Z</time>
      </trkpt>
      <trkpt lat="50.13481" lon="3.76714">
        <ele>165</ele>
        <time>2018-06-24T10:10:29Z</time>
      </trkpt>
      <trkpt lat="50.13481" lon="3.76704">
        <ele>165</ele>
        <time>2018-06-24T10:10:30Z</time>
      </trkpt>
      <trkpt lat="50.13482" lon="3.76693">
        <ele>165</ele>
        <time>2018-06-24T10:10:31Z</time>
      </trkpt>
      <trkpt lat="50.13483" lon="3.76683">
        <ele>165</ele>
        <time>2018-06-24T10:10:32Z</time>
      </trkpt>
      <trkpt lat="50.13484" lon="3.76671">
        <ele>165</ele>
        <time>2018-06-24T10:10:33Z</time>
      </trkpt>
      <trkpt lat="50.13484" lon="3.7666">
        <ele>164</ele>
        <time>2018-06-24T10:10:34Z</time>
      </trkpt>
      <trkpt lat="50.13485" lon="3.76648">
        <ele>164</ele>
        <time>2018-06-24T10:10:35Z</time>
      </trkpt>
      <trkpt lat="50.13485" lon="3.76635">
        <ele>164</ele>
        <time>2018-06-24T10:10:36Z</time>
      </trkpt>
      <trkpt lat="50.13485" lon="3.76623">
        <ele>164</ele>
        <time>2018-06-24T10:10:37Z</time>
      </trkpt>
      <trkpt lat="50.13486" lon="3.76611">
        <ele>164</ele>
        <time>2018-06-24T10:10:38Z</time>
      </trkpt>
      <trkpt lat="50.13486" lon="3.76599">
        <ele>164</ele>
        <time>2018-06-24T10:10:39Z</time>
      </trkpt>
      <trkpt lat="50.13486" lon="3.76586">
        <ele>163</ele>
        <time>2018-06-24T10:10:40Z</time>
      </trkpt>
      <trkpt lat="50.13487" lon="3.76575">
        <ele>163</ele>
        <time>2018-06-24T10:10:41Z</time>
      </trkpt>
      <trkpt lat="50.13487" lon="3.76563">
        <ele>162</ele>
        <time>2018-06-24T10:10:42Z</time>
      </trkpt>
      <trkpt lat="50.13488" lon="3.76551">
        <ele>162</ele>
        <time>2018-06-24T10:10:43Z</time>
      </trkpt>
      <trkpt lat="50.13488" lon="3.76539">
        <ele>162</ele>
        <time>2018-06-24T10:10:44Z</time>
      </trkpt>
      <trkpt lat="50.13489" lon="3.76528">
        <ele>162</ele>
        <time>2018-06-24T10:10:45Z</time>
      </trkpt>
      <trkpt lat="50.1349" lon="3.76515">
        <ele>162</ele>
        <time>2018-06-24T10:10:46Z</time>
      </trkpt>
      <trkpt lat="50.1349" lon="3.76503">
        <ele>162</ele>
        <time>2018-06-24T10:10:47Z</time>
      </trkpt>
      <trkpt lat="50.13491" lon="3.76491">
        <ele>161</ele>
        <time>2018-06-24T10:10:48Z</time>
      </trkpt>
      <trkpt lat="50.13491" lon="3.76479">
        <ele>160</ele>
        <time>2018-06-24T10:10:49Z</time>
      </trkpt>
      <trkpt lat="50.13491" lon="3.76467">
        <ele>160</ele>
        <time>2018-06-24T10:10:50Z</time>
      </trkpt>
      <trkpt lat="50.13492" lon="3.76455">
        <ele>160</ele>
        <time>2018-06-24T10:10:51Z</time>
      </trkpt>
      <trkpt lat="50.13492" lon="3.76444">
        <ele>160</ele>
        <time>2018-06-24T10:10:52Z</time>
      </trkpt>
      <trkpt lat="50.13493" lon="3.76433">
        <ele>159</ele>
        <time>2018-06-24T10:10:53Z</time>
      </trkpt>
      <trkpt lat="50.13495" lon="3.76422">
        <ele>159</ele>
        <time>2018-06-24T10:10:54Z</time>
      </trkpt>
      <trkpt lat="50.13498" lon="3.7641">
        <ele>158</ele>
        <time>2018-06-24T10:10:55Z</time>
      </trkpt>
      <trkpt lat="50.135" lon="3.76398">
        <ele>158</ele>
        <time>2018-06-24T10:10:56Z</time>
      </trkpt>
      <trkpt lat="50.13502" lon="3.76386">
        <ele>158</ele>
        <time>2018-06-24T10:10:57Z</time>
      </trkpt>
      <trkpt lat="50.13503" lon="3.76374">
        <ele>158</ele>
        <time>2018-06-24T10:10:58Z</time>
      </trkpt>
      <trkpt lat="50.13506" lon="3.76361">
        <ele>158</ele>
        <time>2018-06-24T10:10:59Z</time>
      </trkpt>
      <trkpt lat="50.13508" lon="3.76349">
        <ele>157</ele>
        <time>2018-06-24T10:11:00Z</time>
      </trkpt>
      <trkpt lat="50.1351" lon="3.76336">
        <ele>157</ele>
        <time>2018-06-24T10:11:01Z</time>
      </trkpt>
      <trkpt lat="50.13513" lon="3.76323">
        <ele>156</ele>
        <time>2018-06-24T10:11:02Z</time>
      </trkpt>
      <trkpt lat="50.13515" lon="3.76311">
        <ele>156</ele>
        <time>2018-06-24T10:11:03Z</time>
      </trkpt>
      <trkpt lat="50.13517" lon="3.76298">
        <ele>156</ele>
        <time>2018-06-24T10:11:04Z</time>
      </trkpt>
      <trkpt lat="50.13519" lon="3.76285">
        <ele>156</ele>
        <time>2018-06-24T10:11:05Z</time>
      </trkpt>
      <trkpt lat="50.13521" lon="3.76273">
        <ele>155</ele>
        <time>2018-06-24T10:11:06Z</time>
      </trkpt>
      <trkpt lat="50.13522" lon="3.76261">
        <ele>155</ele>
        <time>2018-06-24T10:11:07Z</time>
      </trkpt>
      <trkpt lat="50.13524" lon="3.7625">
        <ele>154</ele>
        <time>2018-06-24T10:11:08Z</time>
      </trkpt>
      <trkpt lat="50.13526" lon="3.76239">
        <ele>154</ele>
        <time>2018-06-24T10:11:09Z</time>
      </trkpt>
      <trkpt lat="50.13528" lon="3.76228">
        <ele>154</ele>
        <time>2018-06-24T10:11:10Z</time>
      </trkpt>
      <trkpt lat="50.1353" lon="3.76217">
        <ele>154</ele>
        <time>2018-06-24T10:11:11Z</time>
      </trkpt>
      <trkpt lat="50.13532" lon="3.76207">
        <ele>154</ele>
        <time>2018-06-24T10:11:12Z</time>
      </trkpt>
      <trkpt lat="50.13534" lon="3.76197">
        <ele>154</ele>
        <time>2018-06-24T10:11:13Z</time>
      </trkpt>
      <trkpt lat="50.13536" lon="3.76187">
        <ele>154</ele>
        <time>2018-06-24T10:11:14Z</time>
      </trkpt>
      <trkpt lat="50.13538" lon="3.76177">
        <ele>154</ele>
        <time>2018-06-24T10:11:15Z</time>
      </trkpt>
      <trkpt lat="50.13539" lon="3.76167">
        <ele>154</ele>
        <time>2018-06-24T10:11:16Z</time>
      </trkpt>
      <trkpt lat="50.1354" lon="3.76156">
        <ele>153</ele>
        <time>2018-06-24T10:11:17Z</time>
      </trkpt>
      <trkpt lat="50.1354" lon="3.76145">
        <ele>153</ele>
        <time>2018-06-24T10:11:18Z</time>
      </trkpt>
      <trkpt lat="50.13539" lon="3.76135">
        <ele>153</ele>
        <time>2018-06-24T10:11:19Z</time>
      </trkpt>
      <trkpt lat="50.13536" lon="3.76124">
        <ele>153</ele>
        <time>2018-06-24T10:11:20Z</time>
      </trkpt>
      <trkpt lat="50.13533" lon="3.76115">
        <ele>153</ele>
        <time>2018-06-24T10:11:21Z</time>
      </trkpt>
      <trkpt lat="50.13528" lon="3.76107">
        <ele>152</ele>
        <time>2018-06-24T10:11:22Z</time>
      </trkpt>
      <trkpt lat="50.13523" lon="3.76099">
        <ele>152</ele>
        <time>2018-06-24T10:11:23Z</time>
      </trkpt>
      <trkpt lat="50.13517" lon="3.76092">
        <ele>152</ele>
        <time>2018-06-24T10:11:24Z</time>
      </trkpt>
      <trkpt lat="50.13511" lon="3.76086">
        <ele>152</ele>
        <time>2018-06-24T10:11:25Z</time>
      </trkpt>
      <trkpt lat="50.13504" lon="3.76081">
        <ele>151</ele>
        <time>2018-06-24T10:11:26Z</time>
      </trkpt>
      <trkpt lat="50.13497" lon="3.76077">
        <ele>151</ele>
        <time>2018-06-24T10:11:27Z</time>
      </trkpt>
      <trkpt lat="50.1349" lon="3.76072">
        <ele>150</ele>
        <time>2018-06-24T10:11:28Z</time>
      </trkpt>
      <trkpt lat="50.13483" lon="3.76068">
        <ele>150</ele>
        <time>2018-06-24T10:11:29Z</time>
      </trkpt>
      <trkpt lat="50.13475" lon="3.76063">
        <ele>150</ele>
        <time>2018-06-24T10:11:30Z</time>
      </trkpt>
      <trkpt lat="50.13468" lon="3.76058">
        <ele>150</ele>
        <time>2018-06-24T10:11:31Z</time>
      </trkpt>
      <trkpt lat="50.13461" lon="3.76053">
        <ele>149</ele>
        <time>2018-06-24T10:11:32Z</time>
      </trkpt>
      <trkpt lat="50.13454" lon="3.76048">
        <ele>149</ele>
        <time>2018-06-24T10:11:33Z</time>
      </trkpt>
      <trkpt lat="50.13446" lon="3.76042">
        <ele>149</ele>
        <time>2018-06-24T10:11:34Z</time>
      </trkpt>
      <trkpt lat="50.13439" lon="3.76036">
        <ele>149</ele>
        <time>2018-06-24T10:11:35Z</time>
      </trkpt>
      <trkpt lat="50.13431" lon="3.76031">
        <ele>149</ele>
        <time>2018-06-24T10:11:36Z</time>
      </trkpt>
      <trkpt lat="50.13424" lon="3.76024">
        <ele>149</ele>
        <time>2018-06-24T10:11:37Z</time>
      </trkpt>
      <trkpt lat="50.13417" lon="3.76018">
        <ele>149</ele>
        <time>2018-06-24T10:11:38Z</time>
      </trkpt>
      <trkpt lat="50.13411" lon="3.7601">
        <ele>147</ele>
        <time>2018-06-24T10:11:39Z</time>
      </trkpt>
      <trkpt lat="50.13406" lon="3.76">
        <ele>147</ele>
        <time>2018-06-24T10:11:40Z</time>
      </trkpt>
      <trkpt lat="50.13402" lon="3.7599">
        <ele>146</ele>
        <time>2018-06-24T10:11:41Z</time>
      </trkpt>
      <trkpt lat="50.13399" lon="3.75979">
        <ele>146</ele>
        <time>2018-06-24T10:11:42Z</time>
      </trkpt>
      <trkpt lat="50.13397" lon="3.75968">
        <ele>145</ele>
        <time>2018-06-24T10:11:43Z</time>
      </trkpt>
      <trkpt lat="50.13397" lon="3.75956">
        <ele>145</ele>
        <time>2018-06-24T10:11:44Z</time>
      </trkpt>
      <trkpt lat="50.13396" lon="3.75943">
        <ele>145</ele>
        <time>2018-06-24T10:11:45Z</time>
      </trkpt>
      <trkpt lat="50.13396" lon="3.7593">
        <ele>145</ele>
        <time>2018-06-24T10:11:46Z</time>
      </trkpt>
      <trkpt lat="50.13395" lon="3.75917">
        <ele>145</ele>
        <time>2018-06-24T10:11:47Z</time>
      </trkpt>
      <trkpt lat="50.13394" lon="3.75903">
        <ele>143</ele>
        <time>2018-06-24T10:11:48Z</time>
      </trkpt>
      <trkpt lat="50.13393" lon="3.75889">
        <ele>143</ele>
        <time>2018-06-24T10:11:49Z</time>
      </trkpt>
      <trkpt lat="50.13393" lon="3.75875">
        <ele>142</ele>
        <time>2018-06-24T10:11:50Z</time>
      </trkpt>
      <trkpt lat="50.13392" lon="3.75861">
        <ele>142</ele>
        <time>2018-06-24T10:11:51Z</time>
      </trkpt>
      <trkpt lat="50.13391" lon="3.75847">
        <ele>142</ele>
        <time>2018-06-24T10:11:52Z</time>
      </trkpt>
      <trkpt lat="50.13389" lon="3.75833">
        <ele>141</ele>
        <time>2018-06-24T10:11:53Z</time>
      </trkpt>
      <trkpt lat="50.13385" lon="3.75819">
        <ele>141</ele>
        <time>2018-06-24T10:11:54Z</time>
      </trkpt>
      <trkpt lat="50.13379" lon="3.75807">
        <ele>140</ele>
        <time>2018-06-24T10:11:55Z</time>
      </trkpt>
      <trkpt lat="50.13372" lon="3.75796">
        <ele>140</ele>
        <time>2018-06-24T10:11:56Z</time>
      </trkpt>
      <trkpt lat="50.13364" lon="3.75786">
        <ele>140</ele>
        <time>2018-06-24T10:11:57Z</time>
      </trkpt>
      <trkpt lat="50.13356" lon="3.75776">
        <ele>139</ele>
        <time>2018-06-24T10:11:58Z</time>
      </trkpt>
      <trkpt lat="50.13348" lon="3.75766">
        <ele>139</ele>
        <time>2018-06-24T10:11:59Z</time>
      </trkpt>
      <trkpt lat="50.13341" lon="3.75756">
        <ele>139</ele>
        <time>2018-06-24T10:12:00Z</time>
      </trkpt>
      <trkpt lat="50.13333" lon="3.75747">
        <ele>138</ele>
        <time>2018-06-24T10:12:01Z</time>
      </trkpt>
      <trkpt lat="50.13324" lon="3.7574">
        <ele>137</ele>
        <time>2018-06-24T10:12:02Z</time>
      </trkpt>
      <trkpt lat="50.13315" lon="3.75735">
        <ele>137</ele>
        <time>2018-06-24T10:12:03Z</time>
      </trkpt>
      <trkpt lat="50.13306" lon="3.75731">
        <ele>137</ele>
        <time>2018-06-24T10:12:04Z</time>
      </trkpt>
      <trkpt lat="50.13297" lon="3.7573">
        <ele>136</ele>
        <time>2018-06-24T10:12:05Z</time>
      </trkpt>
      <trkpt lat="50.13288" lon="3.75729">
        <ele>136</ele>
        <time>2018-06-24T10:12:06Z</time>
      </trkpt>
      <trkpt lat="50.13279" lon="3.75729">
        <ele>136</ele>
        <time>2018-06-24T10:12:07Z</time>
      </trkpt>
      <trkpt lat="50.1327" lon="3.75729">
        <ele>136</ele>
        <time>2018-06-24T10:12:08Z</time>
      </trkpt>
      <trkpt lat="50.13261" lon="3.7573">
        <ele>136</ele>
        <time>2018-06-24T10:12:09Z</time>
      </trkpt>
      <trkpt lat="50.13253" lon="3.7573">
        <ele>136</ele>
        <time>2018-06-24T10:12:10Z</time>
      </trkpt>
      <trkpt lat="50.13245" lon="3.7573">
        <ele>135</ele>
        <time>2018-06-24T10:12:11Z</time>
      </trkpt>
      <trkpt lat="50.13237" lon="3.75729">
        <ele>135</ele>
        <time>2018-06-24T10:12:12Z</time>
      </trkpt>
      <trkpt lat="50.13228" lon="3.7573">
        <ele>135</ele>
        <time>2018-06-24T10:12:13Z</time>
      </trkpt>
      <trkpt lat="50.1322" lon="3.7573">
        <ele>135</ele>
        <time>2018-06-24T10:12:14Z</time>
      </trkpt>
      <trkpt lat="50.13213" lon="3.75731">
        <ele>135</ele>
        <time>2018-06-24T10:12:15Z</time>
      </trkpt>
      <trkpt lat="50.13205" lon="3.75731">
        <ele>134</ele>
        <time>2018-06-24T10:12:16Z</time>
      </trkpt>
      <trkpt lat="50.13197" lon="3.75732">
        <ele>134</ele>
        <time>2018-06-24T10:12:17Z</time>
      </trkpt>
      <trkpt lat="50.13189" lon="3.75732">
        <ele>134</ele>
        <time>2018-06-24T10:12:18Z</time>
      </trkpt>
      <trkpt lat="50.13181" lon="3.75732">
        <ele>134</ele>
        <time>2018-06-24T10:12:19Z</time>
      </trkpt>
      <trkpt lat="50.13173" lon="3.75731">
        <ele>134</ele>
        <time>2018-06-24T10:12:20Z</time>
      </trkpt>
      <trkpt lat="50.13165" lon="3.75731">
        <ele>134</ele>
        <time>2018-06-24T10:12:21Z</time>
      </trkpt>
      <trkpt lat="50.13158" lon="3.7573">
        <ele>134</ele>
        <time>2018-06-24T10:12:22Z</time>
      </trkpt>
      <trkpt lat="50.1315" lon="3.75731">
        <ele>134</ele>
        <time>2018-06-24T10:12:23Z</time>
      </trkpt>
      <trkpt lat="50.13141" lon="3.7573">
        <ele>134</ele>
        <time>2018-06-24T10:12:24Z</time>
      </trkpt>
      <trkpt lat="50.13134" lon="3.75729">
        <ele>134</ele>
        <time>2018-06-24T10:12:25Z</time>
      </trkpt>
      <trkpt lat="50.13126" lon="3.75728">
        <ele>134</ele>
        <time>2018-06-24T10:12:26Z</time>
      </trkpt>
      <trkpt lat="50.13118" lon="3.75727">
        <ele>134</ele>
        <time>2018-06-24T10:12:27Z</time>
      </trkpt>
      <trkpt lat="50.13111" lon="3.75725">
        <ele>134</ele>
        <time>2018-06-24T10:12:28Z</time>
      </trkpt>
      <trkpt lat="50.13103" lon="3.75723">
        <ele>134</ele>
        <time>2018-06-24T10:12:29Z</time>
      </trkpt>
      <trkpt lat="50.13095" lon="3.75719">
        <ele>134</ele>
        <time>2018-06-24T10:12:30Z</time>
      </trkpt>
      <trkpt lat="50.13087" lon="3.75714">
        <ele>134</ele>
        <time>2018-06-24T10:12:31Z</time>
      </trkpt>
      <trkpt lat="50.1308" lon="3.75707">
        <ele>134</ele>
        <time>2018-06-24T10:12:32Z</time>
      </trkpt>
      <trkpt lat="50.13074" lon="3.75698">
        <ele>134</ele>
        <time>2018-06-24T10:12:33Z</time>
      </trkpt>
      <trkpt lat="50.13069" lon="3.7569">
        <ele>134</ele>
        <time>2018-06-24T10:12:34Z</time>
      </trkpt>
      <trkpt lat="50.13063" lon="3.7568">
        <ele>133</ele>
        <time>2018-06-24T10:12:35Z</time>
      </trkpt>
      <trkpt lat="50.13059" lon="3.7567">
        <ele>133</ele>
        <time>2018-06-24T10:12:36Z</time>
      </trkpt>
      <trkpt lat="50.13054" lon="3.75661">
        <ele>134</ele>
        <time>2018-06-24T10:12:37Z</time>
      </trkpt>
      <trkpt lat="50.13049" lon="3.75651">
        <ele>134</ele>
        <time>2018-06-24T10:12:38Z</time>
      </trkpt>
      <trkpt lat="50.13046" lon="3.75641">
        <ele>134</ele>
        <time>2018-06-24T10:12:39Z</time>
      </trkpt>
      <trkpt lat="50.13042" lon="3.75631">
        <ele>134</ele>
        <time>2018-06-24T10:12:40Z</time>
      </trkpt>
      <trkpt lat="50.13039" lon="3.75619">
        <ele>134</ele>
        <time>2018-06-24T10:12:41Z</time>
      </trkpt>
      <trkpt lat="50.13037" lon="3.7561">
        <ele>134</ele>
        <time>2018-06-24T10:12:42Z</time>
      </trkpt>
      <trkpt lat="50.13034" lon="3.75603">
        <ele>134</ele>
        <time>2018-06-24T10:12:43Z</time>
      </trkpt>
      <trkpt lat="50.13031" lon="3.75598">
        <ele>134</ele>
        <time>2018-06-24T10:12:44Z</time>
      </trkpt>
      <trkpt lat="50.13027" lon="3.75599">
        <ele>134</ele>
        <time>2018-06-24T10:12:45Z</time>
      </trkpt>
      <trkpt lat="50.13023" lon="3.75606">
        <ele>134</ele>
        <time>2018-06-24T10:12:46Z</time>
      </trkpt>
      <trkpt lat="50.13019" lon="3.75614">
        <ele>134</ele>
        <time>2018-06-24T10:12:47Z</time>
      </trkpt>
      <trkpt lat="50.13016" lon="3.75623">
        <ele>134</ele>
        <time>2018-06-24T10:12:48Z</time>
      </trkpt>
      <trkpt lat="50.13016" lon="3.75634">
        <ele>134</ele>
        <time>2018-06-24T10:12:49Z</time>
      </trkpt>
      <trkpt lat="50.13015" lon="3.75645">
        <ele>134</ele>
        <time>2018-06-24T10:12:50Z</time>
      </trkpt>
      <trkpt lat="50.13015" lon="3.75656">
        <ele>134</ele>
        <time>2018-06-24T10:12:51Z</time>
      </trkpt>
      <trkpt lat="50.13014" lon="3.75667">
        <ele>134</ele>
        <time>2018-06-24T10:12:52Z</time>
      </trkpt>
      <trkpt lat="50.13013" lon="3.75679">
        <ele>134</ele>
        <time>2018-06-24T10:12:53Z</time>
      </trkpt>
      <trkpt lat="50.13011" lon="3.7569">
        <ele>134</ele>
        <time>2018-06-24T10:12:54Z</time>
      </trkpt>
      <trkpt lat="50.13009" lon="3.75701">
        <ele>134</ele>
        <time>2018-06-24T10:12:55Z</time>
      </trkpt>
      <trkpt lat="50.13008" lon="3.75713">
        <ele>134</ele>
        <time>2018-06-24T10:12:56Z</time>
      </trkpt>
      <trkpt lat="50.13006" lon="3.75724">
        <ele>134</ele>
        <time>2018-06-24T10:12:57Z</time>
      </trkpt>
      <trkpt lat="50.13005" lon="3.75736">
        <ele>134</ele>
        <time>2018-06-24T10:12:58Z</time>
      </trkpt>
      <trkpt lat="50.13003" lon="3.75748">
        <ele>134</ele>
        <time>2018-06-24T10:12:59Z</time>
      </trkpt>
      <trkpt lat="50.13001" lon="3.75759">
        <ele>134</ele>
        <time>2018-06-24T10:13:00Z</time>
      </trkpt>
      <trkpt lat="50.13" lon="3.75771">
        <ele>134</ele>
        <time>2018-06-24T10:13:01Z</time>
      </trkpt>
      <trkpt lat="50.12998" lon="3.75782">
        <ele>134</ele>
        <time>2018-06-24T10:13:02Z</time>
      </trkpt>
      <trkpt lat="50.12996" lon="3.75794">
        <ele>134</ele>
        <time>2018-06-24T10:13:03Z</time>
      </trkpt>
      <trkpt lat="50.12996" lon="3.75805">
        <ele>134</ele>
        <time>2018-06-24T10:13:04Z</time>
      </trkpt>
      <trkpt lat="50.12995" lon="3.75817">
        <ele>134</ele>
        <time>2018-06-24T10:13:05Z</time>
      </trkpt>
      <trkpt lat="50.12993" lon="3.75829">
        <ele>133</ele>
        <time>2018-06-24T10:13:06Z</time>
      </trkpt>
      <trkpt lat="50.12991" lon="3.75841">
        <ele>133</ele>
        <time>2018-06-24T10:13:07Z</time>
      </trkpt>
      <trkpt lat="50.12989" lon="3.75851">
        <ele>134</ele>
        <time>2018-06-24T10:13:08Z</time>
      </trkpt>
      <trkpt lat="50.12986" lon="3.75862">
        <ele>134</ele>
        <time>2018-06-24T10:13:09Z</time>
      </trkpt>
      <trkpt lat="50.12984" lon="3.75872">
        <ele>134</ele>
        <time>2018-06-24T10:13:10Z</time>
      </trkpt>
      <trkpt lat="50.12983" lon="3.75882">
        <ele>134</ele>
        <time>2018-06-24T10:13:11Z</time>
      </trkpt>
      <trkpt lat="50.1298" lon="3.75892">
        <ele>134</ele>
        <time>2018-06-24T10:13:12Z</time>
      </trkpt>
      <trkpt lat="50.12977" lon="3.75903">
        <ele>134</ele>
        <time>2018-06-24T10:13:13Z</time>
      </trkpt>
      <trkpt lat="50.12974" lon="3.75914">
        <ele>134</ele>
        <time>2018-06-24T10:13:14Z</time>
      </trkpt>
      <trkpt lat="50.12972" lon="3.75925">
        <ele>134</ele>
        <time>2018-06-24T10:13:15Z</time>
      </trkpt>
      <trkpt lat="50.1297" lon="3.75936">
        <ele>134</ele>
        <time>2018-06-24T10:13:16Z</time>
      </trkpt>
      <trkpt lat="50.12967" lon="3.75947">
        <ele>134</ele>
        <time>2018-06-24T10:13:17Z</time>
      </trkpt>
      <trkpt lat="50.12964" lon="3.75957">
        <ele>134</ele>
        <time>2018-06-24T10:13:18Z</time>
      </trkpt>
      <trkpt lat="50.12961" lon="3.75967">
        <ele>134</ele>
        <time>2018-06-24T10:13:19Z</time>
      </trkpt>
      <trkpt lat="50.12958" lon="3.75977">
        <ele>134</ele>
        <time>2018-06-24T10:13:20Z</time>
      </trkpt>
      <trkpt lat="50.12955" lon="3.75986">
        <ele>134</ele>
        <time>2018-06-24T10:13:21Z</time>
      </trkpt>
      <trkpt lat="50.12952" lon="3.75993">
        <ele>134</ele>
        <time>2018-06-24T10:13:22Z</time>
      </trkpt>
      <trkpt lat="50.12949" lon="3.76001">
        <ele>134</ele>
        <time>2018-06-24T10:13:23Z</time>
      </trkpt>
      <trkpt lat="50.12946" lon="3.76009">
        <ele>134</ele>
        <time>2018-06-24T10:13:24Z</time>
      </trkpt>
      <trkpt lat="50.12942" lon="3.76014">
        <ele>134</ele>
        <time>2018-06-24T10:13:25Z</time>
      </trkpt>
      <trkpt lat="50.12937" lon="3.76015">
        <ele>134</ele>
        <time>2018-06-24T10:13:26Z</time>
      </trkpt>
      <trkpt lat="50.12929" lon="3.76011">
        <ele>134</ele>
        <time>2018-06-24T10:13:27Z</time>
      </trkpt>
      <trkpt lat="50.12921" lon="3.76009">
        <ele>134</ele>
        <time>2018-06-24T10:13:28Z</time>
      </trkpt>
      <trkpt lat="50.12913" lon="3.76006">
        <ele>134</ele>
        <time>2018-06-24T10:13:29Z</time>
      </trkpt>
      <trkpt lat="50.12906" lon="3.76004">
        <ele>134</ele>
        <time>2018-06-24T10:13:30Z</time>
      </trkpt>
      <trkpt lat="50.12898" lon="3.76003">
        <ele>135</ele>
        <time>2018-06-24T10:13:31Z</time>
      </trkpt>
      <trkpt lat="50.1289" lon="3.76">
        <ele>135</ele>
        <time>2018-06-24T10:13:32Z</time>
      </trkpt>
      <trkpt lat="50.12881" lon="3.75997">
        <ele>135</ele>
        <time>2018-06-24T10:13:33Z</time>
      </trkpt>
      <trkpt lat="50.12873" lon="3.75996">
        <ele>135</ele>
        <time>2018-06-24T10:13:34Z</time>
      </trkpt>
      <trkpt lat="50.12867" lon="3.75994">
        <ele>135</ele>
        <time>2018-06-24T10:13:35Z</time>
      </trkpt>
      <trkpt lat="50.1286" lon="3.75991">
        <ele>135</ele>
        <time>2018-06-24T10:13:36Z</time>
      </trkpt>
      <trkpt lat="50.12854" lon="3.75988">
        <ele>135</ele>
        <time>2018-06-24T10:13:37Z</time>
      </trkpt>
      <trkpt lat="50.12848" lon="3.75985">
        <ele>135</ele>
        <time>2018-06-24T10:13:38Z</time>
      </trkpt>
      <trkpt lat="50.12842" lon="3.7598">
        <ele>135</ele>
        <time>2018-06-24T10:13:39Z</time>
      </trkpt>
      <trkpt lat="50.12837" lon="3.75974">
        <ele>135</ele>
        <time>2018-06-24T10:13:40Z</time>
      </trkpt>
      <trkpt lat="50.12831" lon="3.75968">
        <ele>135</ele>
        <time>2018-06-24T10:13:41Z</time>
      </trkpt>
      <trkpt lat="50.12826" lon="3.75963">
        <ele>135</ele>
        <time>2018-06-24T10:13:42Z</time>
      </trkpt>
      <trkpt lat="50.1282" lon="3.75956">
        <ele>135</ele>
        <time>2018-06-24T10:13:43Z</time>
      </trkpt>
      <trkpt lat="50.12815" lon="3.7595">
        <ele>135</ele>
        <time>2018-06-24T10:13:44Z</time>
      </trkpt>
      <trkpt lat="50.12809" lon="3.75943">
        <ele>135</ele>
        <time>2018-06-24T10:13:45Z</time>
      </trkpt>
      <trkpt lat="50.12804" lon="3.75935">
        <ele>135</ele>
        <time>2018-06-24T10:13:46Z</time>
      </trkpt>
      <trkpt lat="50.12799" lon="3.75928">
        <ele>135</ele>
        <time>2018-06-24T10:13:47Z</time>
      </trkpt>
      <trkpt lat="50.12793" lon="3.75921">
        <ele>135</ele>
        <time>2018-06-24T10:13:48Z</time>
      </trkpt>
      <trkpt lat="50.12788" lon="3.75913">
        <ele>135</ele>
        <time>2018-06-24T10:13:49Z</time>
      </trkpt>
      <trkpt lat="50.12782" lon="3.75906">
        <ele>135</ele>
        <time>2018-06-24T10:13:50Z</time>
      </trkpt>
      <trkpt lat="50.12777" lon="3.75899">
        <ele>135</ele>
        <time>2018-06-24T10:13:51Z</time>
      </trkpt>
      <trkpt lat="50.12771" lon="3.75893">
        <ele>135</ele>
        <time>2018-06-24T10:13:52Z</time>
      </trkpt>
      <trkpt lat="50.12765" lon="3.75886">
        <ele>135</ele>
        <time>2018-06-24T10:13:53Z</time>
      </trkpt>
      <trkpt lat="50.12759" lon="3.7588">
        <ele>135</ele>
        <time>2018-06-24T10:13:54Z</time>
      </trkpt>
      <trkpt lat="50.12754" lon="3.75874">
        <ele>135</ele>
        <time>2018-06-24T10:13:55Z</time>
      </trkpt>
      <trkpt lat="50.12748" lon="3.7587">
        <ele>135</ele>
        <time>2018-06-24T10:13:56Z</time>
      </trkpt>
      <trkpt lat="50.12742" lon="3.75867">
        <ele>135</ele>
        <time>2018-06-24T10:13:57Z</time>
      </trkpt>
      <trkpt lat="50.12734" lon="3.75866">
        <ele>135</ele>
        <time>2018-06-24T10:13:58Z</time>
      </trkpt>
      <trkpt lat="50.12727" lon="3.75867">
        <ele>135</ele>
        <time>2018-06-24T10:13:59Z</time>
      </trkpt>
      <trkpt lat="50.12719" lon="3.75868">
        <ele>135</ele>
        <time>2018-06-24T10:14:00Z</time>
      </trkpt>
      <trkpt lat="50.12711" lon="3.75871">
        <ele>135</ele>
        <time>2018-06-24T10:14:01Z</time>
      </trkpt>
      <trkpt lat="50.12704" lon="3.75873">
        <ele>135</ele>
        <time>2018-06-24T10:14:02Z</time>
      </trkpt>
      <trkpt lat="50.12697" lon="3.75875">
        <ele>135</ele>
        <time>2018-06-24T10:14:03Z</time>
      </trkpt>
      <trkpt lat="50.1269" lon="3.75877">
        <ele>135</ele>
        <time>2018-06-24T10:14:04Z</time>
      </trkpt>
      <trkpt lat="50.12682" lon="3.75879">
        <ele>135</ele>
        <time>2018-06-24T10:14:05Z</time>
      </trkpt>
      <trkpt lat="50.12675" lon="3.75882">
        <ele>135</ele>
        <time>2018-06-24T10:14:06Z</time>
      </trkpt>
      <trkpt lat="50.12668" lon="3.75885">
        <ele>135</ele>
        <time>2018-06-24T10:14:07Z</time>
      </trkpt>
      <trkpt lat="50.1266" lon="3.75887">
        <ele>136</ele>
        <time>2018-06-24T10:14:08Z</time>
      </trkpt>
      <trkpt lat="50.12653" lon="3.75889">
        <ele>136</ele>
        <time>2018-06-24T10:14:09Z</time>
      </trkpt>
      <trkpt lat="50.12645" lon="3.75891">
        <ele>136</ele>
        <time>2018-06-24T10:14:10Z</time>
      </trkpt>
      <trkpt lat="50.12638" lon="3.75892">
        <ele>136</ele>
        <time>2018-06-24T10:14:11Z</time>
      </trkpt>
      <trkpt lat="50.1263" lon="3.75893">
        <ele>136</ele>
        <time>2018-06-24T10:14:12Z</time>
      </trkpt>
      <trkpt lat="50.12623" lon="3.75895">
        <ele>136</ele>
        <time>2018-06-24T10:14:13Z</time>
      </trkpt>
      <trkpt lat="50.12615" lon="3.75896">
        <ele>136</ele>
        <time>2018-06-24T10:14:14Z</time>
      </trkpt>
      <trkpt lat="50.12608" lon="3.75898">
        <ele>136</ele>
        <time>2018-06-24T10:14:15Z</time>
      </trkpt>
      <trkpt lat="50.12601" lon="3.75899">
        <ele>136</ele>
        <time>2018-06-24T10:14:16Z</time>
      </trkpt>
      <trkpt lat="50.12594" lon="3.759">
        <ele>136</ele>
        <time>2018-06-24T10:14:17Z</time>
      </trkpt>
      <trkpt lat="50.12586" lon="3.75902">
        <ele>137</ele>
        <time>2018-06-24T10:14:18Z</time>
      </trkpt>
      <trkpt lat="50.12579" lon="3.75902">
        <ele>137</ele>
        <time>2018-06-24T10:14:19Z</time>
      </trkpt>
      <trkpt lat="50.12571" lon="3.75899">
        <ele>137</ele>
        <time>2018-06-24T10:14:20Z</time>
      </trkpt>
      <trkpt lat="50.12564" lon="3.75897">
        <ele>137</ele>
        <time>2018-06-24T10:14:21Z</time>
      </trkpt>
      <trkpt lat="50.12558" lon="3.75892">
        <ele>137</ele>
        <time>2018-06-24T10:14:22Z</time>
      </trkpt>
      <trkpt lat="50.12551" lon="3.75886">
        <ele>137</ele>
        <time>2018-06-24T10:14:23Z</time>
      </trkpt>
      <trkpt lat="50.12545" lon="3.75879">
        <ele>137</ele>
        <time>2018-06-24T10:14:24Z</time>
      </trkpt>
      <trkpt lat="50.12538" lon="3.75874">
        <ele>137</ele>
        <time>2018-06-24T10:14:25Z</time>
      </trkpt>
      <trkpt lat="50.12531" lon="3.75869">
        <ele>137</ele>
        <time>2018-06-24T10:14:26Z</time>
      </trkpt>
      <trkpt lat="50.12524" lon="3.75866">
        <ele>137</ele>
        <time>2018-06-24T10:14:27Z</time>
      </trkpt>
      <trkpt lat="50.12516" lon="3.75864">
        <ele>137</ele>
        <time>2018-06-24T10:14:28Z</time>
      </trkpt>
      <trkpt lat="50.12508" lon="3.75862">
        <ele>137</ele>
        <time>2018-06-24T10:14:29Z</time>
      </trkpt>
      <trkpt lat="50.125" lon="3.7586">
        <ele>137</ele>
        <time>2018-06-24T10:14:30Z</time>
      </trkpt>
      <trkpt lat="50.12493" lon="3.75858">
        <ele>137</ele>
        <time>2018-06-24T10:14:31Z</time>
      </trkpt>
      <trkpt lat="50.12485" lon="3.75856">
        <ele>137</ele>
        <time>2018-06-24T10:14:32Z</time>
      </trkpt>
      <trkpt lat="50.12477" lon="3.75854">
        <ele>137</ele>
        <time>2018-06-24T10:14:33Z</time>
      </trkpt>
      <trkpt lat="50.1247" lon="3.75852">
        <ele>137</ele>
        <time>2018-06-24T10:14:34Z</time>
      </trkpt>
      <trkpt lat="50.12462" lon="3.75849">
        <ele>137</ele>
        <time>2018-06-24T10:14:35Z</time>
      </trkpt>
      <trkpt lat="50.12455" lon="3.75847">
        <ele>137</ele>
        <time>2018-06-24T10:14:36Z</time>
      </trkpt>
      <trkpt lat="50.12447" lon="3.75844">
        <ele>138</ele>
        <time>2018-06-24T10:14:37Z</time>
      </trkpt>
      <trkpt lat="50.12439" lon="3.7584">
        <ele>138</ele>
        <time>2018-06-24T10:14:38Z</time>
      </trkpt>
      <trkpt lat="50.12432" lon="3.75835">
        <ele>138</ele>
        <time>2018-06-24T10:14:39Z</time>
      </trkpt>
      <trkpt lat="50.12425" lon="3.7583">
        <ele>138</ele>
        <time>2018-06-24T10:14:40Z</time>
      </trkpt>
      <trkpt lat="50.12418" lon="3.75825">
        <ele>138</ele>
        <time>2018-06-24T10:14:41Z</time>
      </trkpt>
      <trkpt lat="50.12411" lon="3.75819">
        <ele>139</ele>
        <time>2018-06-24T10:14:42Z</time>
      </trkpt>
      <trkpt lat="50.12404" lon="3.75814">
        <ele>139</ele>
        <time>2018-06-24T10:14:43Z</time>
      </trkpt>
      <trkpt lat="50.12398" lon="3.75808">
        <ele>139</ele>
        <time>2018-06-24T10:14:44Z</time>
      </trkpt>
      <trkpt lat="50.12391" lon="3.75802">
        <ele>139</ele>
        <time>2018-06-24T10:14:45Z</time>
      </trkpt>
      <trkpt lat="50.12385" lon="3.75796">
        <ele>139</ele>
        <time>2018-06-24T10:14:46Z</time>
      </trkpt>
      <trkpt lat="50.12379" lon="3.7579">
        <ele>139</ele>
        <time>2018-06-24T10:14:47Z</time>
      </trkpt>
      <trkpt lat="50.12372" lon="3.75783">
        <ele>139</ele>
        <time>2018-06-24T10:14:48Z</time>
      </trkpt>
      <trkpt lat="50.12366" lon="3.75777">
        <ele>139</ele>
        <time>2018-06-24T10:14:49Z</time>
      </trkpt>
      <trkpt lat="50.1236" lon="3.75771">
        <ele>139</ele>
        <time>2018-06-24T10:14:50Z</time>
      </trkpt>
      <trkpt lat="50.12354" lon="3.75764">
        <ele>139</ele>
        <time>2018-06-24T10:14:51Z</time>
      </trkpt>
      <trkpt lat="50.12348" lon="3.75758">
        <ele>139</ele>
        <time>2018-06-24T10:14:52Z</time>
      </trkpt>
      <trkpt lat="50.12342" lon="3.75751">
        <ele>139</ele>
        <time>2018-06-24T10:14:53Z</time>
      </trkpt>
      <trkpt lat="50.12336" lon="3.75744">
        <ele>139</ele>
        <time>2018-06-24T10:14:54Z</time>
      </trkpt>
      <trkpt lat="50.1233" lon="3.75737">
        <ele>139</ele>
        <time>2018-06-24T10:14:55Z</time>
      </trkpt>
      <trkpt lat="50.12325" lon="3.7573">
        <ele>139</ele>
        <time>2018-06-24T10:14:56Z</time>
      </trkpt>
      <trkpt lat="50.12319" lon="3.75722">
        <ele>139</ele>
        <time>2018-06-24T10:14:57Z</time>
      </trkpt>
      <trkpt lat="50.12314" lon="3.75715">
        <ele>139</ele>
        <time>2018-06-24T10:14:58Z</time>
      </trkpt>
      <trkpt lat="50.12309" lon="3.75707">
        <ele>139</ele>
        <time>2018-06-24T10:14:59Z</time>
      </trkpt>
      <trkpt lat="50.12304" lon="3.75699">
        <ele>139</ele>
        <time>2018-06-24T10:15:00Z</time>
      </trkpt>
      <trkpt lat="50.12299" lon="3.75691">
        <ele>139</ele>
        <time>2018-06-24T10:15:01Z</time>
      </trkpt>
      <trkpt lat="50.12293" lon="3.75683">
        <ele>139</ele>
        <time>2018-06-24T10:15:02Z</time>
      </trkpt>
      <trkpt lat="50.12288" lon="3.75676">
        <ele>139</ele>
        <time>2018-06-24T10:15:03Z</time>
      </trkpt>
      <trkpt lat="50.12282" lon="3.75669">
        <ele>139</ele>
        <time>2018-06-24T10:15:04Z</time>
      </trkpt>
      <trkpt lat="50.12277" lon="3.75663">
        <ele>139</ele>
        <time>2018-06-24T10:15:05Z</time>
      </trkpt>
      <trkpt lat="50.12271" lon="3.7566">
        <ele>139</ele>
        <time>2018-06-24T10:15:06Z</time>
      </trkpt>
      <trkpt lat="50.12264" lon="3.7566">
        <ele>139</ele>
        <time>2018-06-24T10:15:07Z</time>
      </trkpt>
      <trkpt lat="50.12258" lon="3.75663">
        <ele>140</ele>
        <time>2018-06-24T10:15:08Z</time>
      </trkpt>
      <trkpt lat="50.12252" lon="3.75669">
        <ele>140</ele>
        <time>2018-06-24T10:15:09Z</time>
      </trkpt>
      <trkpt lat="50.12248" lon="3.75677">
        <ele>141</ele>
        <time>2018-06-24T10:15:10Z</time>
      </trkpt>
      <trkpt lat="50.12243" lon="3.75685">
        <ele>141</ele>
        <time>2018-06-24T10:15:11Z</time>
      </trkpt>
      <trkpt lat="50.12239" lon="3.75693">
        <ele>141</ele>
        <time>2018-06-24T10:15:12Z</time>
      </trkpt>
      <trkpt lat="50.12234" lon="3.757">
        <ele>141</ele>
        <time>2018-06-24T10:15:13Z</time>
      </trkpt>
      <trkpt lat="50.1223" lon="3.75709">
        <ele>141</ele>
        <time>2018-06-24T10:15:14Z</time>
      </trkpt>
      <trkpt lat="50.12227" lon="3.75717">
        <ele>142</ele>
        <time>2018-06-24T10:15:15Z</time>
      </trkpt>
      <trkpt lat="50.12223" lon="3.75724">
        <ele>142</ele>
        <time>2018-06-24T10:15:16Z</time>
      </trkpt>
      <trkpt lat="50.12219" lon="3.75732">
        <ele>142</ele>
        <time>2018-06-24T10:15:17Z</time>
      </trkpt>
      <trkpt lat="50.12215" lon="3.75739">
        <ele>142</ele>
        <time>2018-06-24T10:15:18Z</time>
      </trkpt>
      <trkpt lat="50.12211" lon="3.75746">
        <ele>142</ele>
        <time>2018-06-24T10:15:19Z</time>
      </trkpt>
      <trkpt lat="50.12207" lon="3.75753">
        <ele>142</ele>
        <time>2018-06-24T10:15:20Z</time>
      </trkpt>
      <trkpt lat="50.12203" lon="3.7576">
        <ele>142</ele>
        <time>2018-06-24T10:15:21Z</time>
      </trkpt>
      <trkpt lat="50.122" lon="3.75767">
        <ele>142</ele>
        <time>2018-06-24T10:15:22Z</time>
      </trkpt>
      <trkpt lat="50.12197" lon="3.75775">
        <ele>142</ele>
        <time>2018-06-24T10:15:23Z</time>
      </trkpt>
      <trkpt lat="50.12193" lon="3.75783">
        <ele>142</ele>
        <time>2018-06-24T10:15:24Z</time>
      </trkpt>
      <trkpt lat="50.1219" lon="3.75791">
        <ele>142</ele>
        <time>2018-06-24T10:15:25Z</time>
      </trkpt>
      <trkpt lat="50.12186" lon="3.75799">
        <ele>142</ele>
        <time>2018-06-24T10:15:26Z</time>
      </trkpt>
      <trkpt lat="50.12182" lon="3.75807">
        <ele>143</ele>
        <time>2018-06-24T10:15:27Z</time>
      </trkpt>
      <trkpt lat="50.12177" lon="3.75814">
        <ele>143</ele>
        <time>2018-06-24T10:15:28Z</time>
      </trkpt>
      <trkpt lat="50.12173" lon="3.75822">
        <ele>143</ele>
        <time>2018-06-24T10:15:29Z</time>
      </trkpt>
      <trkpt lat="50.12168" lon="3.75831">
        <ele>143</ele>
        <time>2018-06-24T10:15:30Z</time>
      </trkpt>
      <trkpt lat="50.12164" lon="3.75838">
        <ele>143</ele>
        <time>2018-06-24T10:15:31Z</time>
      </trkpt>
      <trkpt lat="50.12159" lon="3.75847">
        <ele>143</ele>
        <time>2018-06-24T10:15:32Z</time>
      </trkpt>
      <trkpt lat="50.12153" lon="3.75855">
        <ele>143</ele>
        <time>2018-06-24T10:15:33Z</time>
      </trkpt>
      <trkpt lat="50.12148" lon="3.75863">
        <ele>143</ele>
        <time>2018-06-24T10:15:34Z</time>
      </trkpt>
      <trkpt lat="50.12143" lon="3.75873">
        <ele>143</ele>
        <time>2018-06-24T10:15:35Z</time>
      </trkpt>
      <trkpt lat="50.12138" lon="3.75881">
        <ele>142</ele>
        <time>2018-06-24T10:15:36Z</time>
      </trkpt>
      <trkpt lat="50.12132" lon="3.7589">
        <ele>142</ele>
        <time>2018-06-24T10:15:37Z</time>
      </trkpt>
      <trkpt lat="50.12127" lon="3.75898">
        <ele>142</ele>
        <time>2018-06-24T10:15:38Z</time>
      </trkpt>
      <trkpt lat="50.12121" lon="3.75907">
        <ele>142</ele>
        <time>2018-06-24T10:15:39Z</time>
      </trkpt>
      <trkpt lat="50.12116" lon="3.75915">
        <ele>142</ele>
        <time>2018-06-24T10:15:40Z</time>
      </trkpt>
      <trkpt lat="50.1211" lon="3.75924">
        <ele>141</ele>
        <time>2018-06-24T10:15:41Z</time>
      </trkpt>
      <trkpt lat="50.12105" lon="3.75933">
        <ele>141</ele>
        <time>2018-06-24T10:15:42Z</time>
      </trkpt>
      <trkpt lat="50.121" lon="3.75942">
        <ele>140</ele>
        <time>2018-06-24T10:15:43Z</time>
      </trkpt>
      <trkpt lat="50.12095" lon="3.75951">
        <ele>140</ele>
        <time>2018-06-24T10:15:44Z</time>
      </trkpt>
      <trkpt lat="50.12091" lon="3.75961">
        <ele>140</ele>
        <time>2018-06-24T10:15:45Z</time>
      </trkpt>
      <trkpt lat="50.12086" lon="3.75971">
        <ele>140</ele>
        <time>2018-06-24T10:15:46Z</time>
      </trkpt>
      <trkpt lat="50.12082" lon="3.75981">
        <ele>140</ele>
        <time>2018-06-24T10:15:47Z</time>
      </trkpt>
      <trkpt lat="50.12078" lon="3.75991">
        <ele>139</ele>
        <time>2018-06-24T10:15:48Z</time>
      </trkpt>
      <trkpt lat="50.12074" lon="3.76002">
        <ele>139</ele>
        <time>2018-06-24T10:15:49Z</time>
      </trkpt>
      <trkpt lat="50.12071" lon="3.76013">
        <ele>140</ele>
        <time>2018-06-24T10:15:50Z</time>
      </trkpt>
      <trkpt lat="50.12067" lon="3.76023">
        <ele>140</ele>
        <time>2018-06-24T10:15:51Z</time>
      </trkpt>
      <trkpt lat="50.12063" lon="3.76034">
        <ele>140</ele>
        <time>2018-06-24T10:15:52Z</time>
      </trkpt>
      <trkpt lat="50.12059" lon="3.76045">
        <ele>141</ele>
        <time>2018-06-24T10:15:53Z</time>
      </trkpt>
      <trkpt lat="50.12055" lon="3.76055">
        <ele>141</ele>
        <time>2018-06-24T10:15:54Z</time>
      </trkpt>
      <trkpt lat="50.12051" lon="3.76064">
        <ele>141</ele>
        <time>2018-06-24T10:15:55Z</time>
      </trkpt>
      <trkpt lat="50.12047" lon="3.76073">
        <ele>141</ele>
        <time>2018-06-24T10:15:56Z</time>
      </trkpt>
      <trkpt lat="50.12043" lon="3.76081">
        <ele>141</ele>
        <time>2018-06-24T10:15:57Z</time>
      </trkpt>
      <trkpt lat="50.12037" lon="3.76087">
        <ele>141</ele>
        <time>2018-06-24T10:15:58Z</time>
      </trkpt>
      <trkpt lat="50.1203" lon="3.76093">
        <ele>141</ele>
        <time>2018-06-24T10:15:59Z</time>
      </trkpt>
      <trkpt lat="50.12024" lon="3.761">
        <ele>141</ele>
        <time>2018-06-24T10:16:00Z</time>
      </trkpt>
      <trkpt lat="50.12018" lon="3.76106">
        <ele>142</ele>
        <time>2018-06-24T10:16:01Z</time>
      </trkpt>
      <trkpt lat="50.12013" lon="3.76111">
        <ele>142</ele>
        <time>2018-06-24T10:16:02Z</time>
      </trkpt>
      <trkpt lat="50.12007" lon="3.76116">
        <ele>142</ele>
        <time>2018-06-24T10:16:03Z</time>
      </trkpt>
      <trkpt lat="50.12002" lon="3.76121">
        <ele>142</ele>
        <time>2018-06-24T10:16:04Z</time>
      </trkpt>
      <trkpt lat="50.11996" lon="3.76126">
        <ele>143</ele>
        <time>2018-06-24T10:16:05Z</time>
      </trkpt>
      <trkpt lat="50.1199" lon="3.76131">
        <ele>143</ele>
        <time>2018-06-24T10:16:06Z</time>
      </trkpt>
      <trkpt lat="50.11983" lon="3.76135">
        <ele>143</ele>
        <time>2018-06-24T10:16:07Z</time>
      </trkpt>
      <trkpt lat="50.11976" lon="3.76139">
        <ele>143</ele>
        <time>2018-06-24T10:16:08Z</time>
      </trkpt>
      <trkpt lat="50.1197" lon="3.76142">
        <ele>143</ele>
        <time>2018-06-24T10:16:09Z</time>
      </trkpt>
      <trkpt lat="50.11963" lon="3.76145">
        <ele>143</ele>
        <time>2018-06-24T10:16:10Z</time>
      </trkpt>
      <trkpt lat="50.11957" lon="3.76149">
        <ele>143</ele>
        <time>2018-06-24T10:16:11Z</time>
      </trkpt>
      <trkpt lat="50.1195" lon="3.76155">
        <ele>143</ele>
        <time>2018-06-24T10:16:12Z</time>
      </trkpt>
      <trkpt lat="50.11944" lon="3.76161">
        <ele>143</ele>
        <time>2018-06-24T10:16:13Z</time>
      </trkpt>
      <trkpt lat="50.11939" lon="3.76168">
        <ele>142</ele>
        <time>2018-06-24T10:16:14Z</time>
      </trkpt>
      <trkpt lat="50.11934" lon="3.76175">
        <ele>142</ele>
        <time>2018-06-24T10:16:15Z</time>
      </trkpt>
      <trkpt lat="50.11929" lon="3.76183">
        <ele>142</ele>
        <time>2018-06-24T10:16:16Z</time>
      </trkpt>
      <trkpt lat="50.11925" lon="3.76189">
        <ele>142</ele>
        <time>2018-06-24T10:16:17Z</time>
      </trkpt>
      <trkpt lat="50.11921" lon="3.76196">
        <ele>142</ele>
        <time>2018-06-24T10:16:18Z</time>
      </trkpt>
      <trkpt lat="50.11917" lon="3.76201">
        <ele>142</ele>
        <time>2018-06-24T10:16:19Z</time>
      </trkpt>
      <trkpt lat="50.11914" lon="3.76206">
        <ele>143</ele>
        <time>2018-06-24T10:16:20Z</time>
      </trkpt>
      <trkpt lat="50.11912" lon="3.76213">
        <ele>143</ele>
        <time>2018-06-24T10:16:21Z</time>
      </trkpt>
      <trkpt lat="50.11912" lon="3.76219">
        <ele>143</ele>
        <time>2018-06-24T10:16:22Z</time>
      </trkpt>
      <trkpt lat="50.11912" lon="3.76226">
        <ele>143</ele>
        <time>2018-06-24T10:16:23Z</time>
      </trkpt>
      <trkpt lat="50.11914" lon="3.76234">
        <ele>143</ele>
        <time>2018-06-24T10:16:24Z</time>
      </trkpt>
      <trkpt lat="50.11918" lon="3.7624">
        <ele>142</ele>
        <time>2018-06-24T10:16:25Z</time>
      </trkpt>
      <trkpt lat="50.11923" lon="3.76247">
        <ele>142</ele>
        <time>2018-06-24T10:16:26Z</time>
      </trkpt>
      <trkpt lat="50.11929" lon="3.76254">
        <ele>142</ele>
        <time>2018-06-24T10:16:27Z</time>
      </trkpt>
      <trkpt lat="50.11933" lon="3.76261">
        <ele>142</ele>
        <time>2018-06-24T10:16:28Z</time>
      </trkpt>
      <trkpt lat="50.11938" lon="3.7627">
        <ele>142</ele>
        <time>2018-06-24T10:16:29Z</time>
      </trkpt>
      <trkpt lat="50.11942" lon="3.76279">
        <ele>142</ele>
        <time>2018-06-24T10:16:30Z</time>
      </trkpt>
      <trkpt lat="50.11947" lon="3.7629">
        <ele>142</ele>
        <time>2018-06-24T10:16:31Z</time>
      </trkpt>
      <trkpt lat="50.11949" lon="3.76302">
        <ele>142</ele>
        <time>2018-06-24T10:16:32Z</time>
      </trkpt>
      <trkpt lat="50.11951" lon="3.76314">
        <ele>142</ele>
        <time>2018-06-24T10:16:33Z</time>
      </trkpt>
      <trkpt lat="50.11953" lon="3.76326">
        <ele>142</ele>
        <time>2018-06-24T10:16:34Z</time>
      </trkpt>
      <trkpt lat="50.11955" lon="3.76338">
        <ele>142</ele>
        <time>2018-06-24T10:16:35Z</time>
      </trkpt>
      <trkpt lat="50.11957" lon="3.7635">
        <ele>142</ele>
        <time>2018-06-24T10:16:36Z</time>
      </trkpt>
      <trkpt lat="50.11959" lon="3.76362">
        <ele>142</ele>
        <time>2018-06-24T10:16:37Z</time>
      </trkpt>
      <trkpt lat="50.1196" lon="3.76374">
        <ele>142</ele>
        <time>2018-06-24T10:16:38Z</time>
      </trkpt>
      <trkpt lat="50.11962" lon="3.76385">
        <ele>142</ele>
        <time>2018-06-24T10:16:39Z</time>
      </trkpt>
      <trkpt lat="50.11964" lon="3.76397">
        <ele>142</ele>
        <time>2018-06-24T10:16:40Z</time>
      </trkpt>
      <trkpt lat="50.11966" lon="3.76408">
        <ele>142</ele>
        <time>2018-06-24T10:16:41Z</time>
      </trkpt>
      <trkpt lat="50.11968" lon="3.76419">
        <ele>143</ele>
        <time>2018-06-24T10:16:42Z</time>
      </trkpt>
      <trkpt lat="50.1197" lon="3.76429">
        <ele>143</ele>
        <time>2018-06-24T10:16:43Z</time>
      </trkpt>
      <trkpt lat="50.11973" lon="3.7644">
        <ele>143</ele>
        <time>2018-06-24T10:16:44Z</time>
      </trkpt>
      <trkpt lat="50.11976" lon="3.7645">
        <ele>143</ele>
        <time>2018-06-24T10:16:45Z</time>
      </trkpt>
      <trkpt lat="50.11978" lon="3.76461">
        <ele>143</ele>
        <time>2018-06-24T10:16:46Z</time>
      </trkpt>
      <trkpt lat="50.11981" lon="3.76471">
        <ele>143</ele>
        <time>2018-06-24T10:16:47Z</time>
      </trkpt>
      <trkpt lat="50.11984" lon="3.76481">
        <ele>143</ele>
        <time>2018-06-24T10:16:48Z</time>
      </trkpt>
      <trkpt lat="50.11986" lon="3.76491">
        <ele>143</ele>
        <time>2018-06-24T10:16:49Z</time>
      </trkpt>
      <trkpt lat="50.11989" lon="3.76501">
        <ele>143</ele>
        <time>2018-06-24T10:16:50Z</time>
      </trkpt>
      <trkpt lat="50.11991" lon="3.76512">
        <ele>143</ele>
        <time>2018-06-24T10:16:51Z</time>
      </trkpt>
      <trkpt lat="50.11994" lon="3.76522">
        <ele>143</ele>
        <time>2018-06-24T10:16:52Z</time>
      </trkpt>
      <trkpt lat="50.11996" lon="3.76533">
        <ele>143</ele>
        <time>2018-06-24T10:16:53Z</time>
      </trkpt>
      <trkpt lat="50.11998" lon="3.76543">
        <ele>143</ele>
        <time>2018-06-24T10:16:54Z</time>
      </trkpt>
      <trkpt lat="50.12" lon="3.76554">
        <ele>143</ele>
        <time>2018-06-24T10:16:55Z</time>
      </trkpt>
      <trkpt lat="50.12001" lon="3.76565">
        <ele>143</ele>
        <time>2018-06-24T10:16:56Z</time>
      </trkpt>
      <trkpt lat="50.12003" lon="3.76576">
        <ele>143</ele>
        <time>2018-06-24T10:16:57Z</time>
      </trkpt>
      <trkpt lat="50.12004" lon="3.76586">
        <ele>143</ele>
        <time>2018-06-24T10:16:58Z</time>
      </trkpt>
      <trkpt lat="50.12005" lon="3.76596">
        <ele>143</ele>
        <time>2018-06-24T10:16:59Z</time>
      </trkpt>
      <trkpt lat="50.12006" lon="3.76607">
        <ele>143</ele>
        <time>2018-06-24T10:17:00Z</time>
      </trkpt>
      <trkpt lat="50.12006" lon="3.76617">
        <ele>143</ele>
        <time>2018-06-24T10:17:01Z</time>
      </trkpt>
      <trkpt lat="50.12008" lon="3.76628">
        <ele>143</ele>
        <time>2018-06-24T10:17:02Z</time>
      </trkpt>
      <trkpt lat="50.12009" lon="3.76639">
        <ele>143</ele>
        <time>2018-06-24T10:17:03Z</time>
      </trkpt>
      <trkpt lat="50.12009" lon="3.7665">
        <ele>143</ele>
        <time>2018-06-24T10:17:04Z</time>
      </trkpt>
      <trkpt lat="50.1201" lon="3.76661">
        <ele>143</ele>
        <time>2018-06-24T10:17:05Z</time>
      </trkpt>
      <trkpt lat="50.12011" lon="3.76673">
        <ele>142</ele>
        <time>2018-06-24T10:17:06Z</time>
      </trkpt>
      <trkpt lat="50.12012" lon="3.76685">
        <ele>142</ele>
        <time>2018-06-24T10:17:07Z</time>
      </trkpt>
      <trkpt lat="50.12013" lon="3.76697">
        <ele>142</ele>
        <time>2018-06-24T10:17:08Z</time>
      </trkpt>
      <trkpt lat="50.12014" lon="3.76708">
        <ele>141</ele>
        <time>2018-06-24T10:17:09Z</time>
      </trkpt>
      <trkpt lat="50.12015" lon="3.7672">
        <ele>141</ele>
        <time>2018-06-24T10:17:10Z</time>
      </trkpt>
      <trkpt lat="50.12016" lon="3.76731">
        <ele>141</ele>
        <time>2018-06-24T10:17:11Z</time>
      </trkpt>
      <trkpt lat="50.12017" lon="3.76742">
        <ele>141</ele>
        <time>2018-06-24T10:17:12Z</time>
      </trkpt>
      <trkpt lat="50.12017" lon="3.76753">
        <ele>140</ele>
        <time>2018-06-24T10:17:13Z</time>
      </trkpt>
      <trkpt lat="50.12017" lon="3.76765">
        <ele>140</ele>
        <time>2018-06-24T10:17:14Z</time>
      </trkpt>
      <trkpt lat="50.12017" lon="3.76777">
        <ele>140</ele>
        <time>2018-06-24T10:17:15Z</time>
      </trkpt>
      <trkpt lat="50.12017" lon="3.76789">
        <ele>140</ele>
        <time>2018-06-24T10:17:16Z</time>
      </trkpt>
      <trkpt lat="50.12017" lon="3.76801">
        <ele>139</ele>
        <time>2018-06-24T10:17:17Z</time>
      </trkpt>
      <trkpt lat="50.12016" lon="3.76813">
        <ele>139</ele>
        <time>2018-06-24T10:17:18Z</time>
      </trkpt>
      <trkpt lat="50.12016" lon="3.76826">
        <ele>139</ele>
        <time>2018-06-24T10:17:19Z</time>
      </trkpt>
      <trkpt lat="50.12015" lon="3.76838">
        <ele>139</ele>
        <time>2018-06-24T10:17:20Z</time>
      </trkpt>
      <trkpt lat="50.12013" lon="3.7685">
        <ele>139</ele>
        <time>2018-06-24T10:17:21Z</time>
      </trkpt>
      <trkpt lat="50.12012" lon="3.76861">
        <ele>139</ele>
        <time>2018-06-24T10:17:22Z</time>
      </trkpt>
      <trkpt lat="50.12011" lon="3.76873">
        <ele>139</ele>
        <time>2018-06-24T10:17:23Z</time>
      </trkpt>
      <trkpt lat="50.12009" lon="3.76885">
        <ele>139</ele>
        <time>2018-06-24T10:17:24Z</time>
      </trkpt>
      <trkpt lat="50.12007" lon="3.76897">
        <ele>139</ele>
        <time>2018-06-24T10:17:25Z</time>
      </trkpt>
      <trkpt lat="50.12005" lon="3.76908">
        <ele>139</ele>
        <time>2018-06-24T10:17:26Z</time>
      </trkpt>
      <trkpt lat="50.12002" lon="3.76919">
        <ele>139</ele>
        <time>2018-06-24T10:17:27Z</time>
      </trkpt>
      <trkpt lat="50.11999" lon="3.7693">
        <ele>139</ele>
        <time>2018-06-24T10:17:28Z</time>
      </trkpt>
      <trkpt lat="50.11995" lon="3.76941">
        <ele>139</ele>
        <time>2018-06-24T10:17:29Z</time>
      </trkpt>
      <trkpt lat="50.11992" lon="3.76952">
        <ele>139</ele>
        <time>2018-06-24T10:17:30Z</time>
      </trkpt>
      <trkpt lat="50.1199" lon="3.76962">
        <ele>139</ele>
        <time>2018-06-24T10:17:31Z</time>
      </trkpt>
      <trkpt lat="50.11987" lon="3.76973">
        <ele>139</ele>
        <time>2018-06-24T10:17:32Z</time>
      </trkpt>
      <trkpt lat="50.11984" lon="3.76984">
        <ele>139</ele>
        <time>2018-06-24T10:17:33Z</time>
      </trkpt>
      <trkpt lat="50.11982" lon="3.76994">
        <ele>139</ele>
        <time>2018-06-24T10:17:34Z</time>
      </trkpt>
      <trkpt lat="50.11979" lon="3.77006">
        <ele>139</ele>
        <time>2018-06-24T10:17:35Z</time>
      </trkpt>
      <trkpt lat="50.11977" lon="3.77017">
        <ele>139</ele>
        <time>2018-06-24T10:17:36Z</time>
      </trkpt>
      <trkpt lat="50.11976" lon="3.77029">
        <ele>139</ele>
        <time>2018-06-24T10:17:37Z</time>
      </trkpt>
      <trkpt lat="50.11975" lon="3.7704">
        <ele>139</ele>
        <time>2018-06-24T10:17:38Z</time>
      </trkpt>
      <trkpt lat="50.11974" lon="3.77052">
        <ele>140</ele>
        <time>2018-06-24T10:17:39Z</time>
      </trkpt>
      <trkpt lat="50.11974" lon="3.77063">
        <ele>140</ele>
        <time>2018-06-24T10:17:40Z</time>
      </trkpt>
      <trkpt lat="50.11974" lon="3.77075">
        <ele>140</ele>
        <time>2018-06-24T10:17:41Z</time>
      </trkpt>
      <trkpt lat="50.11974" lon="3.77086">
        <ele>140</ele>
        <time>2018-06-24T10:17:42Z</time>
      </trkpt>
      <trkpt lat="50.11974" lon="3.77098">
        <ele>141</ele>
        <time>2018-06-24T10:17:43Z</time>
      </trkpt>
      <trkpt lat="50.11975" lon="3.77109">
        <ele>141</ele>
        <time>2018-06-24T10:17:44Z</time>
      </trkpt>
      <trkpt lat="50.11975" lon="3.7712">
        <ele>141</ele>
        <time>2018-06-24T10:17:45Z</time>
      </trkpt>
      <trkpt lat="50.11977" lon="3.77131">
        <ele>141</ele>
        <time>2018-06-24T10:17:46Z</time>
      </trkpt>
      <trkpt lat="50.11977" lon="3.77142">
        <ele>141</ele>
        <time>2018-06-24T10:17:47Z</time>
      </trkpt>
      <trkpt lat="50.11977" lon="3.77154">
        <ele>141</ele>
        <time>2018-06-24T10:17:48Z</time>
      </trkpt>
      <trkpt lat="50.11977" lon="3.77165">
        <ele>141</ele>
        <time>2018-06-24T10:17:49Z</time>
      </trkpt>
      <trkpt lat="50.11976" lon="3.77177">
        <ele>142</ele>
        <time>2018-06-24T10:17:50Z</time>
      </trkpt>
      <trkpt lat="50.11975" lon="3.77188">
        <ele>142</ele>
        <time>2018-06-24T10:17:51Z</time>
      </trkpt>
      <trkpt lat="50.11975" lon="3.77198">
        <ele>142</ele>
        <time>2018-06-24T10:17:52Z</time>
      </trkpt>
      <trkpt lat="50.11974" lon="3.7721">
        <ele>142</ele>
        <time>2018-06-24T10:17:53Z</time>
      </trkpt>
      <trkpt lat="50.11972" lon="3.77221">
        <ele>142</ele>
        <time>2018-06-24T10:17:54Z</time>
      </trkpt>
      <trkpt lat="50.11971" lon="3.77232">
        <ele>142</ele>
        <time>2018-06-24T10:17:55Z</time>
      </trkpt>
      <trkpt lat="50.1197" lon="3.77243">
        <ele>142</ele>
        <time>2018-06-24T10:17:56Z</time>
      </trkpt>
      <trkpt lat="50.11969" lon="3.77253">
        <ele>142</ele>
        <time>2018-06-24T10:17:57Z</time>
      </trkpt>
      <trkpt lat="50.11968" lon="3.77264">
        <ele>142</ele>
        <time>2018-06-24T10:17:58Z</time>
      </trkpt>
      <trkpt lat="50.11967" lon="3.77275">
        <ele>142</ele>
        <time>2018-06-24T10:17:59Z</time>
      </trkpt>
      <trkpt lat="50.11967" lon="3.77286">
        <ele>142</ele>
        <time>2018-06-24T10:18:00Z</time>
      </trkpt>
      <trkpt lat="50.11967" lon="3.77295">
        <ele>142</ele>
        <time>2018-06-24T10:18:01Z</time>
      </trkpt>
      <trkpt lat="50.11968" lon="3.77305">
        <ele>142</ele>
        <time>2018-06-24T10:18:02Z</time>
      </trkpt>
      <trkpt lat="50.11972" lon="3.77313">
        <ele>142</ele>
        <time>2018-06-24T10:18:03Z</time>
      </trkpt>
      <trkpt lat="50.11977" lon="3.77321">
        <ele>142</ele>
        <time>2018-06-24T10:18:04Z</time>
      </trkpt>
      <trkpt lat="50.11983" lon="3.77327">
        <ele>142</ele>
        <time>2018-06-24T10:18:05Z</time>
      </trkpt>
      <trkpt lat="50.1199" lon="3.77332">
        <ele>141</ele>
        <time>2018-06-24T10:18:06Z</time>
      </trkpt>
      <trkpt lat="50.11996" lon="3.77338">
        <ele>141</ele>
        <time>2018-06-24T10:18:07Z</time>
      </trkpt>
      <trkpt lat="50.12002" lon="3.77343">
        <ele>141</ele>
        <time>2018-06-24T10:18:08Z</time>
      </trkpt>
      <trkpt lat="50.12008" lon="3.7735">
        <ele>141</ele>
        <time>2018-06-24T10:18:09Z</time>
      </trkpt>
      <trkpt lat="50.12014" lon="3.77356">
        <ele>141</ele>
        <time>2018-06-24T10:18:10Z</time>
      </trkpt>
      <trkpt lat="50.12021" lon="3.77362">
        <ele>141</ele>
        <time>2018-06-24T10:18:11Z</time>
      </trkpt>
      <trkpt lat="50.12026" lon="3.77368">
        <ele>141</ele>
        <time>2018-06-24T10:18:12Z</time>
      </trkpt>
      <trkpt lat="50.12032" lon="3.77376">
        <ele>141</ele>
        <time>2018-06-24T10:18:13Z</time>
      </trkpt>
      <trkpt lat="50.12036" lon="3.77387">
        <ele>141</ele>
        <time>2018-06-24T10:18:14Z</time>
      </trkpt>
      <trkpt lat="50.1204" lon="3.77399">
        <ele>141</ele>
        <time>2018-06-24T10:18:15Z</time>
      </trkpt>
      <trkpt lat="50.12042" lon="3.77413">
        <ele>141</ele>
        <time>2018-06-24T10:18:16Z</time>
      </trkpt>
      <trkpt lat="50.12042" lon="3.77424">
        <ele>141</ele>
        <time>2018-06-24T10:18:17Z</time>
      </trkpt>
      <trkpt lat="50.12041" lon="3.77435">
        <ele>142</ele>
        <time>2018-06-24T10:18:18Z</time>
      </trkpt>
      <trkpt lat="50.1204" lon="3.77446">
        <ele>142</ele>
        <time>2018-06-24T10:18:19Z</time>
      </trkpt>
      <trkpt lat="50.12039" lon="3.77457">
        <ele>142</ele>
        <time>2018-06-24T10:18:20Z</time>
      </trkpt>
      <trkpt lat="50.12038" lon="3.77468">
        <ele>142</ele>
        <time>2018-06-24T10:18:21Z</time>
      </trkpt>
      <trkpt lat="50.12037" lon="3.77479">
        <ele>142</ele>
        <time>2018-06-24T10:18:22Z</time>
      </trkpt>
      <trkpt lat="50.12036" lon="3.7749">
        <ele>142</ele>
        <time>2018-06-24T10:18:23Z</time>
      </trkpt>
      <trkpt lat="50.12035" lon="3.77501">
        <ele>143</ele>
        <time>2018-06-24T10:18:24Z</time>
      </trkpt>
      <trkpt lat="50.12033" lon="3.77511">
        <ele>143</ele>
        <time>2018-06-24T10:18:25Z</time>
      </trkpt>
      <trkpt lat="50.12032" lon="3.77522">
        <ele>143</ele>
        <time>2018-06-24T10:18:26Z</time>
      </trkpt>
      <trkpt lat="50.12031" lon="3.77534">
        <ele>143</ele>
        <time>2018-06-24T10:18:27Z</time>
      </trkpt>
      <trkpt lat="50.1203" lon="3.77544">
        <ele>143</ele>
        <time>2018-06-24T10:18:28Z</time>
      </trkpt>
      <trkpt lat="50.12029" lon="3.77554">
        <ele>143</ele>
        <time>2018-06-24T10:18:29Z</time>
      </trkpt>
      <trkpt lat="50.12028" lon="3.77564">
        <ele>143</ele>
        <time>2018-06-24T10:18:30Z</time>
      </trkpt>
      <trkpt lat="50.12026" lon="3.77575">
        <ele>143</ele>
        <time>2018-06-24T10:18:31Z</time>
      </trkpt>
      <trkpt lat="50.12025" lon="3.77586">
        <ele>143</ele>
        <time>2018-06-24T10:18:32Z</time>
      </trkpt>
      <trkpt lat="50.12023" lon="3.77597">
        <ele>143</ele>
        <time>2018-06-24T10:18:33Z</time>
      </trkpt>
      <trkpt lat="50.12022" lon="3.77608">
        <ele>143</ele>
        <time>2018-06-24T10:18:34Z</time>
      </trkpt>
      <trkpt lat="50.12021" lon="3.77619">
        <ele>143</ele>
        <time>2018-06-24T10:18:35Z</time>
      </trkpt>
      <trkpt lat="50.12019" lon="3.77629">
        <ele>143</ele>
        <time>2018-06-24T10:18:36Z</time>
      </trkpt>
      <trkpt lat="50.12017" lon="3.77639">
        <ele>143</ele>
        <time>2018-06-24T10:18:37Z</time>
      </trkpt>
      <trkpt lat="50.12015" lon="3.7765">
        <ele>143</ele>
        <time>2018-06-24T10:18:38Z</time>
      </trkpt>
      <trkpt lat="50.12013" lon="3.77661">
        <ele>143</ele>
        <time>2018-06-24T10:18:39Z</time>
      </trkpt>
      <trkpt lat="50.12012" lon="3.7767">
        <ele>144</ele>
        <time>2018-06-24T10:18:40Z</time>
      </trkpt>
      <trkpt lat="50.1201" lon="3.7768">
        <ele>144</ele>
        <time>2018-06-24T10:18:41Z</time>
      </trkpt>
      <trkpt lat="50.12009" lon="3.7769">
        <ele>144</ele>
        <time>2018-06-24T10:18:42Z</time>
      </trkpt>
      <trkpt lat="50.12007" lon="3.77699">
        <ele>144</ele>
        <time>2018-06-24T10:18:43Z</time>
      </trkpt>
      <trkpt lat="50.12005" lon="3.77709">
        <ele>144</ele>
        <time>2018-06-24T10:18:44Z</time>
      </trkpt>
      <trkpt lat="50.12002" lon="3.77719">
        <ele>144</ele>
        <time>2018-06-24T10:18:45Z</time>
      </trkpt>
      <trkpt lat="50.12" lon="3.77729">
        <ele>144</ele>
        <time>2018-06-24T10:18:46Z</time>
      </trkpt>
      <trkpt lat="50.11998" lon="3.77738">
        <ele>145</ele>
        <time>2018-06-24T10:18:47Z</time>
      </trkpt>
      <trkpt lat="50.11996" lon="3.77748">
        <ele>145</ele>
        <time>2018-06-24T10:18:48Z</time>
      </trkpt>
      <trkpt lat="50.11993" lon="3.77758">
        <ele>145</ele>
        <time>2018-06-24T10:18:49Z</time>
      </trkpt>
      <trkpt lat="50.11991" lon="3.77766">
        <ele>145</ele>
        <time>2018-06-24T10:18:50Z</time>
      </trkpt>
      <trkpt lat="50.11988" lon="3.77776">
        <ele>146</ele>
        <time>2018-06-24T10:18:51Z</time>
      </trkpt>
      <trkpt lat="50.11986" lon="3.77786">
        <ele>146</ele>
        <time>2018-06-24T10:18:52Z</time>
      </trkpt>
      <trkpt lat="50.11984" lon="3.77796">
        <ele>146</ele>
        <time>2018-06-24T10:18:53Z</time>
      </trkpt>
      <trkpt lat="50.11981" lon="3.77805">
        <ele>146</ele>
        <time>2018-06-24T10:18:54Z</time>
      </trkpt>
      <trkpt lat="50.11979" lon="3.77814">
        <ele>146</ele>
        <time>2018-06-24T10:18:55Z</time>
      </trkpt>
      <trkpt lat="50.11977" lon="3.77826">
        <ele>146</ele>
        <time>2018-06-24T10:18:56Z</time>
      </trkpt>
      <trkpt lat="50.11975" lon="3.77837">
        <ele>146</ele>
        <time>2018-06-24T10:18:57Z</time>
      </trkpt>
      <trkpt lat="50.11972" lon="3.77849">
        <ele>146</ele>
        <time>2018-06-24T10:18:58Z</time>
      </trkpt>
      <trkpt lat="50.1197" lon="3.77859">
        <ele>146</ele>
        <time>2018-06-24T10:18:59Z</time>
      </trkpt>
      <trkpt lat="50.11968" lon="3.7787">
        <ele>146</ele>
        <time>2018-06-24T10:19:00Z</time>
      </trkpt>
      <trkpt lat="50.11966" lon="3.7788">
        <ele>146</ele>
        <time>2018-06-24T10:19:01Z</time>
      </trkpt>
      <trkpt lat="50.11964" lon="3.77891">
        <ele>146</ele>
        <time>2018-06-24T10:19:02Z</time>
      </trkpt>
      <trkpt lat="50.11962" lon="3.77901">
        <ele>146</ele>
        <time>2018-06-24T10:19:03Z</time>
      </trkpt>
      <trkpt lat="50.1196" lon="3.77912">
        <ele>146</ele>
        <time>2018-06-24T10:19:04Z</time>
      </trkpt>
      <trkpt lat="50.11957" lon="3.77923">
        <ele>145</ele>
        <time>2018-06-24T10:19:05Z</time>
      </trkpt>
      <trkpt lat="50.11953" lon="3.77934">
        <ele>145</ele>
        <time>2018-06-24T10:19:06Z</time>
      </trkpt>
      <trkpt lat="50.11951" lon="3.77944">
        <ele>145</ele>
        <time>2018-06-24T10:19:07Z</time>
      </trkpt>
      <trkpt lat="50.11948" lon="3.77954">
        <ele>145</ele>
        <time>2018-06-24T10:19:08Z</time>
      </trkpt>
      <trkpt lat="50.11946" lon="3.77965">
        <ele>145</ele>
        <time>2018-06-24T10:19:09Z</time>
      </trkpt>
      <trkpt lat="50.11943" lon="3.77976">
        <ele>145</ele>
        <time>2018-06-24T10:19:10Z</time>
      </trkpt>
      <trkpt lat="50.11939" lon="3.77987">
        <ele>145</ele>
        <time>2018-06-24T10:19:11Z</time>
      </trkpt>
      <trkpt lat="50.11936" lon="3.77998">
        <ele>145</ele>
        <time>2018-06-24T10:19:12Z</time>
      </trkpt>
      <trkpt lat="50.11933" lon="3.78009">
        <ele>144</ele>
        <time>2018-06-24T10:19:13Z</time>
      </trkpt>
      <trkpt lat="50.1193" lon="3.78021">
        <ele>144</ele>
        <time>2018-06-24T10:19:14Z</time>
      </trkpt>
      <trkpt lat="50.11928" lon="3.78032">
        <ele>144</ele>
        <time>2018-06-24T10:19:15Z</time>
      </trkpt>
      <trkpt lat="50.11926" lon="3.78043">
        <ele>144</ele>
        <time>2018-06-24T10:19:16Z</time>
      </trkpt>
      <trkpt lat="50.11925" lon="3.78055">
        <ele>144</ele>
        <time>2018-06-24T10:19:17Z</time>
      </trkpt>
      <trkpt lat="50.11923" lon="3.78066">
        <ele>144</ele>
        <time>2018-06-24T10:19:18Z</time>
      </trkpt>
      <trkpt lat="50.11922" lon="3.78078">
        <ele>144</ele>
        <time>2018-06-24T10:19:19Z</time>
      </trkpt>
      <trkpt lat="50.11921" lon="3.78091">
        <ele>143</ele>
        <time>2018-06-24T10:19:20Z</time>
      </trkpt>
      <trkpt lat="50.1192" lon="3.78105">
        <ele>143</ele>
        <time>2018-06-24T10:19:21Z</time>
      </trkpt>
      <trkpt lat="50.11918" lon="3.78117">
        <ele>143</ele>
        <time>2018-06-24T10:19:22Z</time>
      </trkpt>
      <trkpt lat="50.11917" lon="3.7813">
        <ele>142</ele>
        <time>2018-06-24T10:19:23Z</time>
      </trkpt>
      <trkpt lat="50.11915" lon="3.78143">
        <ele>143</ele>
        <time>2018-06-24T10:19:24Z</time>
      </trkpt>
      <trkpt lat="50.11914" lon="3.78156">
        <ele>142</ele>
        <time>2018-06-24T10:19:25Z</time>
      </trkpt>
      <trkpt lat="50.11913" lon="3.78168">
        <ele>142</ele>
        <time>2018-06-24T10:19:26Z</time>
      </trkpt>
      <trkpt lat="50.11911" lon="3.7818">
        <ele>142</ele>
        <time>2018-06-24T10:19:27Z</time>
      </trkpt>
      <trkpt lat="50.11909" lon="3.78193">
        <ele>141</ele>
        <time>2018-06-24T10:19:28Z</time>
      </trkpt>
      <trkpt lat="50.11908" lon="3.78204">
        <ele>141</ele>
        <time>2018-06-24T10:19:29Z</time>
      </trkpt>
      <trkpt lat="50.11906" lon="3.78216">
        <ele>141</ele>
        <time>2018-06-24T10:19:30Z</time>
      </trkpt>
      <trkpt lat="50.11904" lon="3.78228">
        <ele>141</ele>
        <time>2018-06-24T10:19:31Z</time>
      </trkpt>
      <trkpt lat="50.11901" lon="3.7824">
        <ele>141</ele>
        <time>2018-06-24T10:19:32Z</time>
      </trkpt>
      <trkpt lat="50.11899" lon="3.78252">
        <ele>139</ele>
        <time>2018-06-24T10:19:33Z</time>
      </trkpt>
      <trkpt lat="50.11897" lon="3.78264">
        <ele>139</ele>
        <time>2018-06-24T10:19:34Z</time>
      </trkpt>
      <trkpt lat="50.11895" lon="3.78276">
        <ele>139</ele>
        <time>2018-06-24T10:19:35Z</time>
      </trkpt>
      <trkpt lat="50.11892" lon="3.78287">
        <ele>139</ele>
        <time>2018-06-24T10:19:36Z</time>
      </trkpt>
      <trkpt lat="50.11889" lon="3.78297">
        <ele>139</ele>
        <time>2018-06-24T10:19:37Z</time>
      </trkpt>
      <trkpt lat="50.11886" lon="3.78309">
        <ele>139</ele>
        <time>2018-06-24T10:19:38Z</time>
      </trkpt>
      <trkpt lat="50.11883" lon="3.7832">
        <ele>138</ele>
        <time>2018-06-24T10:19:39Z</time>
      </trkpt>
      <trkpt lat="50.1188" lon="3.78331">
        <ele>138</ele>
        <time>2018-06-24T10:19:40Z</time>
      </trkpt>
      <trkpt lat="50.11878" lon="3.78344">
        <ele>138</ele>
        <time>2018-06-24T10:19:41Z</time>
      </trkpt>
      <trkpt lat="50.11877" lon="3.78356">
        <ele>138</ele>
        <time>2018-06-24T10:19:42Z</time>
      </trkpt>
      <trkpt lat="50.11877" lon="3.7837">
        <ele>138</ele>
        <time>2018-06-24T10:19:43Z</time>
      </trkpt>
      <trkpt lat="50.1188" lon="3.78381">
        <ele>138</ele>
        <time>2018-06-24T10:19:44Z</time>
      </trkpt>
      <trkpt lat="50.11884" lon="3.78393">
        <ele>138</ele>
        <time>2018-06-24T10:19:45Z</time>
      </trkpt>
      <trkpt lat="50.11888" lon="3.78404">
        <ele>138</ele>
        <time>2018-06-24T10:19:46Z</time>
      </trkpt>
      <trkpt lat="50.11891" lon="3.78415">
        <ele>138</ele>
        <time>2018-06-24T10:19:47Z</time>
      </trkpt>
      <trkpt lat="50.11894" lon="3.78428">
        <ele>138</ele>
        <time>2018-06-24T10:19:48Z</time>
      </trkpt>
      <trkpt lat="50.11896" lon="3.78441">
        <ele>138</ele>
        <time>2018-06-24T10:19:49Z</time>
      </trkpt>
      <trkpt lat="50.11897" lon="3.78454">
        <ele>138</ele>
        <time>2018-06-24T10:19:50Z</time>
      </trkpt>
      <trkpt lat="50.11898" lon="3.78466">
        <ele>138</ele>
        <time>2018-06-24T10:19:51Z</time>
      </trkpt>
      <trkpt lat="50.11895" lon="3.78477">
        <ele>138</ele>
        <time>2018-06-24T10:19:52Z</time>
      </trkpt>
      <trkpt lat="50.11891" lon="3.78488">
        <ele>138</ele>
        <time>2018-06-24T10:19:53Z</time>
      </trkpt>
      <trkpt lat="50.11887" lon="3.78498">
        <ele>138</ele>
        <time>2018-06-24T10:19:54Z</time>
      </trkpt>
      <trkpt lat="50.11883" lon="3.78509">
        <ele>138</ele>
        <time>2018-06-24T10:19:55Z</time>
      </trkpt>
      <trkpt lat="50.1188" lon="3.7852">
        <ele>138</ele>
        <time>2018-06-24T10:19:56Z</time>
      </trkpt>
      <trkpt lat="50.11875" lon="3.7853">
        <ele>138</ele>
        <time>2018-06-24T10:19:57Z</time>
      </trkpt>
      <trkpt lat="50.11871" lon="3.7854">
        <ele>137</ele>
        <time>2018-06-24T10:19:58Z</time>
      </trkpt>
      <trkpt lat="50.11867" lon="3.7855">
        <ele>137</ele>
        <time>2018-06-24T10:19:59Z</time>
      </trkpt>
      <trkpt lat="50.11862" lon="3.7856">
        <ele>137</ele>
        <time>2018-06-24T10:20:00Z</time>
      </trkpt>
      <trkpt lat="50.11857" lon="3.78569">
        <ele>137</ele>
        <time>2018-06-24T10:20:01Z</time>
      </trkpt>
      <trkpt lat="50.11852" lon="3.78579">
        <ele>137</ele>
        <time>2018-06-24T10:20:02Z</time>
      </trkpt>
      <trkpt lat="50.11848" lon="3.78589">
        <ele>137</ele>
        <time>2018-06-24T10:20:03Z</time>
      </trkpt>
      <trkpt lat="50.11844" lon="3.78599">
        <ele>137</ele>
        <time>2018-06-24T10:20:04Z</time>
      </trkpt>
      <trkpt lat="50.1184" lon="3.78609">
        <ele>137</ele>
        <time>2018-06-24T10:20:05Z</time>
      </trkpt>
      <trkpt lat="50.11837" lon="3.78619">
        <ele>137</ele>
        <time>2018-06-24T10:20:06Z</time>
      </trkpt>
      <trkpt lat="50.11834" lon="3.78629">
        <ele>137</ele>
        <time>2018-06-24T10:20:07Z</time>
      </trkpt>
      <trkpt lat="50.11831" lon="3.7864">
        <ele>137</ele>
        <time>2018-06-24T10:20:08Z</time>
      </trkpt>
      <trkpt lat="50.11828" lon="3.7865">
        <ele>137</ele>
        <time>2018-06-24T10:20:09Z</time>
      </trkpt>
      <trkpt lat="50.11824" lon="3.7866">
        <ele>137</ele>
        <time>2018-06-24T10:20:10Z</time>
      </trkpt>
      <trkpt lat="50.11822" lon="3.7867">
        <ele>137</ele>
        <time>2018-06-24T10:20:11Z</time>
      </trkpt>
      <trkpt lat="50.1182" lon="3.7868">
        <ele>137</ele>
        <time>2018-06-24T10:20:12Z</time>
      </trkpt>
      <trkpt lat="50.11817" lon="3.78691">
        <ele>137</ele>
        <time>2018-06-24T10:20:13Z</time>
      </trkpt>
      <trkpt lat="50.11814" lon="3.78701">
        <ele>137</ele>
        <time>2018-06-24T10:20:14Z</time>
      </trkpt>
      <trkpt lat="50.11811" lon="3.78711">
        <ele>137</ele>
        <time>2018-06-24T10:20:15Z</time>
      </trkpt>
      <trkpt lat="50.11808" lon="3.78719">
        <ele>137</ele>
        <time>2018-06-24T10:20:16Z</time>
      </trkpt>
      <trkpt lat="50.11804" lon="3.7873">
        <ele>137</ele>
        <time>2018-06-24T10:20:17Z</time>
      </trkpt>
      <trkpt lat="50.11801" lon="3.7874">
        <ele>137</ele>
        <time>2018-06-24T10:20:18Z</time>
      </trkpt>
      <trkpt lat="50.11799" lon="3.7875">
        <ele>137</ele>
        <time>2018-06-24T10:20:19Z</time>
      </trkpt>
      <trkpt lat="50.11796" lon="3.7876">
        <ele>137</ele>
        <time>2018-06-24T10:20:20Z</time>
      </trkpt>
      <trkpt lat="50.11793" lon="3.7877">
        <ele>137</ele>
        <time>2018-06-24T10:20:21Z</time>
      </trkpt>
      <trkpt lat="50.1179" lon="3.78781">
        <ele>137</ele>
        <time>2018-06-24T10:20:22Z</time>
      </trkpt>
      <trkpt lat="50.11788" lon="3.78791">
        <ele>137</ele>
        <time>2018-06-24T10:20:23Z</time>
      </trkpt>
      <trkpt lat="50.11785" lon="3.78802">
        <ele>137</ele>
        <time>2018-06-24T10:20:24Z</time>
      </trkpt>
      <trkpt lat="50.11782" lon="3.78812">
        <ele>137</ele>
        <time>2018-06-24T10:20:25Z</time>
      </trkpt>
      <trkpt lat="50.11779" lon="3.78821">
        <ele>137</ele>
        <time>2018-06-24T10:20:26Z</time>
      </trkpt>
      <trkpt lat="50.11776" lon="3.78831">
        <ele>137</ele>
        <time>2018-06-24T10:20:27Z</time>
      </trkpt>
      <trkpt lat="50.11773" lon="3.78842">
        <ele>137</ele>
        <time>2018-06-24T10:20:28Z</time>
      </trkpt>
      <trkpt lat="50.1177" lon="3.78852">
        <ele>137</ele>
        <time>2018-06-24T10:20:29Z</time>
      </trkpt>
      <trkpt lat="50.11766" lon="3.78862">
        <ele>137</ele>
        <time>2018-06-24T10:20:30Z</time>
      </trkpt>
      <trkpt lat="50.11764" lon="3.78873">
        <ele>137</ele>
        <time>2018-06-24T10:20:31Z</time>
      </trkpt>
      <trkpt lat="50.11761" lon="3.78883">
        <ele>137</ele>
        <time>2018-06-24T10:20:32Z</time>
      </trkpt>
      <trkpt lat="50.11758" lon="3.78894">
        <ele>137</ele>
        <time>2018-06-24T10:20:33Z</time>
      </trkpt>
      <trkpt lat="50.11756" lon="3.78905">
        <ele>137</ele>
        <time>2018-06-24T10:20:34Z</time>
      </trkpt>
      <trkpt lat="50.11753" lon="3.78916">
        <ele>137</ele>
        <time>2018-06-24T10:20:35Z</time>
      </trkpt>
      <trkpt lat="50.11751" lon="3.78926">
        <ele>137</ele>
        <time>2018-06-24T10:20:36Z</time>
      </trkpt>
      <trkpt lat="50.11748" lon="3.78938">
        <ele>137</ele>
        <time>2018-06-24T10:20:37Z</time>
      </trkpt>
      <trkpt lat="50.11745" lon="3.78949">
        <ele>138</ele>
        <time>2018-06-24T10:20:38Z</time>
      </trkpt>
      <trkpt lat="50.11742" lon="3.7896">
        <ele>137</ele>
        <time>2018-06-24T10:20:39Z</time>
      </trkpt>
      <trkpt lat="50.1174" lon="3.78971">
        <ele>137</ele>
        <time>2018-06-24T10:20:40Z</time>
      </trkpt>
      <trkpt lat="50.11738" lon="3.78981">
        <ele>137</ele>
        <time>2018-06-24T10:20:41Z</time>
      </trkpt>
      <trkpt lat="50.11736" lon="3.78992">
        <ele>137</ele>
        <time>2018-06-24T10:20:42Z</time>
      </trkpt>
      <trkpt lat="50.11733" lon="3.79003">
        <ele>137</ele>
        <time>2018-06-24T10:20:43Z</time>
      </trkpt>
      <trkpt lat="50.11731" lon="3.79013">
        <ele>137</ele>
        <time>2018-06-24T10:20:44Z</time>
      </trkpt>
      <trkpt lat="50.11729" lon="3.79024">
        <ele>137</ele>
        <time>2018-06-24T10:20:45Z</time>
      </trkpt>
      <trkpt lat="50.11726" lon="3.79035">
        <ele>137</ele>
        <time>2018-06-24T10:20:46Z</time>
      </trkpt>
      <trkpt lat="50.11724" lon="3.79045">
        <ele>138</ele>
        <time>2018-06-24T10:20:47Z</time>
      </trkpt>
      <trkpt lat="50.11721" lon="3.79055">
        <ele>138</ele>
        <time>2018-06-24T10:20:48Z</time>
      </trkpt>
      <trkpt lat="50.11719" lon="3.79067">
        <ele>138</ele>
        <time>2018-06-24T10:20:49Z</time>
      </trkpt>
      <trkpt lat="50.11717" lon="3.79077">
        <ele>138</ele>
        <time>2018-06-24T10:20:50Z</time>
      </trkpt>
      <trkpt lat="50.11715" lon="3.79088">
        <ele>138</ele>
        <time>2018-06-24T10:20:51Z</time>
      </trkpt>
      <trkpt lat="50.11714" lon="3.79098">
        <ele>138</ele>
        <time>2018-06-24T10:20:52Z</time>
      </trkpt>
      <trkpt lat="50.11713" lon="3.79109">
        <ele>138</ele>
        <time>2018-06-24T10:20:53Z</time>
      </trkpt>
      <trkpt lat="50.11712" lon="3.7912">
        <ele>138</ele>
        <time>2018-06-24T10:20:54Z</time>
      </trkpt>
      <trkpt lat="50.11711" lon="3.79131">
        <ele>138</ele>
        <time>2018-06-24T10:20:55Z</time>
      </trkpt>
      <trkpt lat="50.11711" lon="3.79142">
        <ele>138</ele>
        <time>2018-06-24T10:20:56Z</time>
      </trkpt>
      <trkpt lat="50.1171" lon="3.79153">
        <ele>138</ele>
        <time>2018-06-24T10:20:57Z</time>
      </trkpt>
      <trkpt lat="50.1171" lon="3.79164">
        <ele>138</ele>
        <time>2018-06-24T10:20:58Z</time>
      </trkpt>
      <trkpt lat="50.11709" lon="3.79175">
        <ele>138</ele>
        <time>2018-06-24T10:20:59Z</time>
      </trkpt>
      <trkpt lat="50.11708" lon="3.79187">
        <ele>138</ele>
        <time>2018-06-24T10:21:00Z</time>
      </trkpt>
      <trkpt lat="50.11707" lon="3.79198">
        <ele>138</ele>
        <time>2018-06-24T10:21:01Z</time>
      </trkpt>
      <trkpt lat="50.11706" lon="3.79208">
        <ele>138</ele>
        <time>2018-06-24T10:21:02Z</time>
      </trkpt>
      <trkpt lat="50.11705" lon="3.79218">
        <ele>138</ele>
        <time>2018-06-24T10:21:03Z</time>
      </trkpt>
      <trkpt lat="50.11704" lon="3.79229">
        <ele>138</ele>
        <time>2018-06-24T10:21:04Z</time>
      </trkpt>
      <trkpt lat="50.11703" lon="3.79239">
        <ele>138</ele>
        <time>2018-06-24T10:21:05Z</time>
      </trkpt>
      <trkpt lat="50.11702" lon="3.79248">
        <ele>138</ele>
        <time>2018-06-24T10:21:06Z</time>
      </trkpt>
      <trkpt lat="50.11701" lon="3.79259">
        <ele>138</ele>
        <time>2018-06-24T10:21:07Z</time>
      </trkpt>
      <trkpt lat="50.11699" lon="3.79269">
        <ele>138</ele>
        <time>2018-06-24T10:21:08Z</time>
      </trkpt>
      <trkpt lat="50.11698" lon="3.79279">
        <ele>138</ele>
        <time>2018-06-24T10:21:09Z</time>
      </trkpt>
      <trkpt lat="50.11697" lon="3.79289">
        <ele>138</ele>
        <time>2018-06-24T10:21:10Z</time>
      </trkpt>
      <trkpt lat="50.11695" lon="3.79299">
        <ele>138</ele>
        <time>2018-06-24T10:21:11Z</time>
      </trkpt>
      <trkpt lat="50.11693" lon="3.79309">
        <ele>138</ele>
        <time>2018-06-24T10:21:12Z</time>
      </trkpt>
      <trkpt lat="50.11692" lon="3.79319">
        <ele>138</ele>
        <time>2018-06-24T10:21:13Z</time>
      </trkpt>
      <trkpt lat="50.1169" lon="3.79329">
        <ele>139</ele>
        <time>2018-06-24T10:21:14Z</time>
      </trkpt>
      <trkpt lat="50.11689" lon="3.79339">
        <ele>139</ele>
        <time>2018-06-24T10:21:15Z</time>
      </trkpt>
      <trkpt lat="50.11687" lon="3.79349">
        <ele>139</ele>
        <time>2018-06-24T10:21:16Z</time>
      </trkpt>
      <trkpt lat="50.11686" lon="3.79358">
        <ele>139</ele>
        <time>2018-06-24T10:21:17Z</time>
      </trkpt>
      <trkpt lat="50.11684" lon="3.79368">
        <ele>139</ele>
        <time>2018-06-24T10:21:18Z</time>
      </trkpt>
      <trkpt lat="50.11682" lon="3.79379">
        <ele>139</ele>
        <time>2018-06-24T10:21:19Z</time>
      </trkpt>
      <trkpt lat="50.11679" lon="3.79388">
        <ele>139</ele>
        <time>2018-06-24T10:21:20Z</time>
      </trkpt>
      <trkpt lat="50.11677" lon="3.79398">
        <ele>139</ele>
        <time>2018-06-24T10:21:21Z</time>
      </trkpt>
      <trkpt lat="50.11675" lon="3.79408">
        <ele>139</ele>
        <time>2018-06-24T10:21:22Z</time>
      </trkpt>
      <trkpt lat="50.11673" lon="3.79419">
        <ele>139</ele>
        <time>2018-06-24T10:21:23Z</time>
      </trkpt>
      <trkpt lat="50.11671" lon="3.7943">
        <ele>139</ele>
        <time>2018-06-24T10:21:24Z</time>
      </trkpt>
      <trkpt lat="50.11668" lon="3.79441">
        <ele>138</ele>
        <time>2018-06-24T10:21:25Z</time>
      </trkpt>
      <trkpt lat="50.11667" lon="3.79453">
        <ele>138</ele>
        <time>2018-06-24T10:21:26Z</time>
      </trkpt>
      <trkpt lat="50.11665" lon="3.79465">
        <ele>139</ele>
        <time>2018-06-24T10:21:27Z</time>
      </trkpt>
      <trkpt lat="50.11664" lon="3.79477">
        <ele>138</ele>
        <time>2018-06-24T10:21:28Z</time>
      </trkpt>
      <trkpt lat="50.11663" lon="3.79489">
        <ele>138</ele>
        <time>2018-06-24T10:21:29Z</time>
      </trkpt>
      <trkpt lat="50.11662" lon="3.795">
        <ele>138</ele>
        <time>2018-06-24T10:21:30Z</time>
      </trkpt>
      <trkpt lat="50.11661" lon="3.7951">
        <ele>138</ele>
        <time>2018-06-24T10:21:31Z</time>
      </trkpt>
      <trkpt lat="50.11658" lon="3.79521">
        <ele>138</ele>
        <time>2018-06-24T10:21:32Z</time>
      </trkpt>
      <trkpt lat="50.11657" lon="3.79533">
        <ele>138</ele>
        <time>2018-06-24T10:21:33Z</time>
      </trkpt>
      <trkpt lat="50.11655" lon="3.79545">
        <ele>138</ele>
        <time>2018-06-24T10:21:34Z</time>
      </trkpt>
      <trkpt lat="50.11654" lon="3.79555">
        <ele>138</ele>
        <time>2018-06-24T10:21:35Z</time>
      </trkpt>
      <trkpt lat="50.11652" lon="3.79567">
        <ele>138</ele>
        <time>2018-06-24T10:21:36Z</time>
      </trkpt>
      <trkpt lat="50.1165" lon="3.79578">
        <ele>138</ele>
        <time>2018-06-24T10:21:37Z</time>
      </trkpt>
      <trkpt lat="50.11647" lon="3.79589">
        <ele>138</ele>
        <time>2018-06-24T10:21:38Z</time>
      </trkpt>
      <trkpt lat="50.11644" lon="3.79599">
        <ele>138</ele>
        <time>2018-06-24T10:21:39Z</time>
      </trkpt>
      <trkpt lat="50.11642" lon="3.79608">
        <ele>138</ele>
        <time>2018-06-24T10:21:40Z</time>
      </trkpt>
      <trkpt lat="50.11639" lon="3.79618">
        <ele>138</ele>
        <time>2018-06-24T10:21:41Z</time>
      </trkpt>
      <trkpt lat="50.11635" lon="3.79629">
        <ele>138</ele>
        <time>2018-06-24T10:21:42Z</time>
      </trkpt>
      <trkpt lat="50.11632" lon="3.7964">
        <ele>138</ele>
        <time>2018-06-24T10:21:43Z</time>
      </trkpt>
      <trkpt lat="50.11628" lon="3.79651">
        <ele>138</ele>
        <time>2018-06-24T10:21:44Z</time>
      </trkpt>
      <trkpt lat="50.11625" lon="3.79661">
        <ele>138</ele>
        <time>2018-06-24T10:21:45Z</time>
      </trkpt>
      <trkpt lat="50.11622" lon="3.79671">
        <ele>138</ele>
        <time>2018-06-24T10:21:46Z</time>
      </trkpt>
      <trkpt lat="50.11619" lon="3.79683">
        <ele>138</ele>
        <time>2018-06-24T10:21:47Z</time>
      </trkpt>
      <trkpt lat="50.11616" lon="3.79692">
        <ele>138</ele>
        <time>2018-06-24T10:21:48Z</time>
      </trkpt>
      <trkpt lat="50.11612" lon="3.79701">
        <ele>138</ele>
        <time>2018-06-24T10:21:49Z</time>
      </trkpt>
      <trkpt lat="50.11609" lon="3.79711">
        <ele>139</ele>
        <time>2018-06-24T10:21:50Z</time>
      </trkpt>
      <trkpt lat="50.11604" lon="3.79718">
        <ele>139</ele>
        <time>2018-06-24T10:21:51Z</time>
      </trkpt>
      <trkpt lat="50.116" lon="3.79727">
        <ele>139</ele>
        <time>2018-06-24T10:21:52Z</time>
      </trkpt>
      <trkpt lat="50.11595" lon="3.79735">
        <ele>139</ele>
        <time>2018-06-24T10:21:53Z</time>
      </trkpt>
      <trkpt lat="50.11591" lon="3.79744">
        <ele>139</ele>
        <time>2018-06-24T10:21:54Z</time>
      </trkpt>
      <trkpt lat="50.11586" lon="3.79752">
        <ele>139</ele>
        <time>2018-06-24T10:21:55Z</time>
      </trkpt>
      <trkpt lat="50.11582" lon="3.7976">
        <ele>139</ele>
        <time>2018-06-24T10:21:56Z</time>
      </trkpt>
      <trkpt lat="50.11577" lon="3.79769">
        <ele>139</ele>
        <time>2018-06-24T10:21:57Z</time>
      </trkpt>
      <trkpt lat="50.11572" lon="3.79778">
        <ele>140</ele>
        <time>2018-06-24T10:21:58Z</time>
      </trkpt>
      <trkpt lat="50.11567" lon="3.79786">
        <ele>140</ele>
        <time>2018-06-24T10:21:59Z</time>
      </trkpt>
      <trkpt lat="50.11563" lon="3.79795">
        <ele>140</ele>
        <time>2018-06-24T10:22:00Z</time>
      </trkpt>
      <trkpt lat="50.11559" lon="3.79804">
        <ele>140</ele>
        <time>2018-06-24T10:22:01Z</time>
      </trkpt>
      <trkpt lat="50.11555" lon="3.79813">
        <ele>140</ele>
        <time>2018-06-24T10:22:02Z</time>
      </trkpt>
      <trkpt lat="50.11551" lon="3.79822">
        <ele>140</ele>
        <time>2018-06-24T10:22:03Z</time>
      </trkpt>
      <trkpt lat="50.11548" lon="3.79832">
        <ele>140</ele>
        <time>2018-06-24T10:22:04Z</time>
      </trkpt>
      <trkpt lat="50.11544" lon="3.79841">
        <ele>140</ele>
        <time>2018-06-24T10:22:05Z</time>
      </trkpt>
      <trkpt lat="50.11541" lon="3.7985">
        <ele>141</ele>
        <time>2018-06-24T10:22:06Z</time>
      </trkpt>
      <trkpt lat="50.11537" lon="3.7986">
        <ele>141</ele>
        <time>2018-06-24T10:22:07Z</time>
      </trkpt>
      <trkpt lat="50.11534" lon="3.79869">
        <ele>141</ele>
        <time>2018-06-24T10:22:08Z</time>
      </trkpt>
      <trkpt lat="50.1153" lon="3.79879">
        <ele>141</ele>
        <time>2018-06-24T10:22:09Z</time>
      </trkpt>
      <trkpt lat="50.11526" lon="3.79888">
        <ele>141</ele>
        <time>2018-06-24T10:22:10Z</time>
      </trkpt>
      <trkpt lat="50.11522" lon="3.79897">
        <ele>141</ele>
        <time>2018-06-24T10:22:11Z</time>
      </trkpt>
      <trkpt lat="50.11518" lon="3.79906">
        <ele>141</ele>
        <time>2018-06-24T10:22:12Z</time>
      </trkpt>
      <trkpt lat="50.11514" lon="3.79914">
        <ele>141</ele>
        <time>2018-06-24T10:22:13Z</time>
      </trkpt>
      <trkpt lat="50.1151" lon="3.79924">
        <ele>141</ele>
        <time>2018-06-24T10:22:14Z</time>
      </trkpt>
      <trkpt lat="50.11506" lon="3.79933">
        <ele>141</ele>
        <time>2018-06-24T10:22:15Z</time>
      </trkpt>
      <trkpt lat="50.11502" lon="3.79941">
        <ele>141</ele>
        <time>2018-06-24T10:22:16Z</time>
      </trkpt>
      <trkpt lat="50.11498" lon="3.7995">
        <ele>141</ele>
        <time>2018-06-24T10:22:17Z</time>
      </trkpt>
      <trkpt lat="50.11493" lon="3.79957">
        <ele>141</ele>
        <time>2018-06-24T10:22:18Z</time>
      </trkpt>
      <trkpt lat="50.11489" lon="3.79966">
        <ele>141</ele>
        <time>2018-06-24T10:22:19Z</time>
      </trkpt>
      <trkpt lat="50.11485" lon="3.79974">
        <ele>141</ele>
        <time>2018-06-24T10:22:20Z</time>
      </trkpt>
      <trkpt lat="50.11481" lon="3.79982">
        <ele>141</ele>
        <time>2018-06-24T10:22:21Z</time>
      </trkpt>
      <trkpt lat="50.11475" lon="3.7999">
        <ele>141</ele>
        <time>2018-06-24T10:22:22Z</time>
      </trkpt>
      <trkpt lat="50.11469" lon="3.79999">
        <ele>140</ele>
        <time>2018-06-24T10:22:23Z</time>
      </trkpt>
      <trkpt lat="50.11463" lon="3.80006">
        <ele>140</ele>
        <time>2018-06-24T10:22:24Z</time>
      </trkpt>
      <trkpt lat="50.11457" lon="3.80014">
        <ele>140</ele>
        <time>2018-06-24T10:22:25Z</time>
      </trkpt>
      <trkpt lat="50.11451" lon="3.80021">
        <ele>140</ele>
        <time>2018-06-24T10:22:26Z</time>
      </trkpt>
      <trkpt lat="50.11444" lon="3.80029">
        <ele>140</ele>
        <time>2018-06-24T10:22:27Z</time>
      </trkpt>
      <trkpt lat="50.11439" lon="3.80037">
        <ele>140</ele>
        <time>2018-06-24T10:22:28Z</time>
      </trkpt>
      <trkpt lat="50.11433" lon="3.80045">
        <ele>140</ele>
        <time>2018-06-24T10:22:29Z</time>
      </trkpt>
      <trkpt lat="50.11426" lon="3.80053">
        <ele>140</ele>
        <time>2018-06-24T10:22:30Z</time>
      </trkpt>
      <trkpt lat="50.11421" lon="3.8006">
        <ele>140</ele>
        <time>2018-06-24T10:22:31Z</time>
      </trkpt>
      <trkpt lat="50.11415" lon="3.80067">
        <ele>140</ele>
        <time>2018-06-24T10:22:32Z</time>
      </trkpt>
      <trkpt lat="50.1141" lon="3.80075">
        <ele>140</ele>
        <time>2018-06-24T10:22:33Z</time>
      </trkpt>
      <trkpt lat="50.11405" lon="3.80083">
        <ele>140</ele>
        <time>2018-06-24T10:22:34Z</time>
      </trkpt>
      <trkpt lat="50.114" lon="3.80092">
        <ele>140</ele>
        <time>2018-06-24T10:22:35Z</time>
      </trkpt>
      <trkpt lat="50.11396" lon="3.80101">
        <ele>140</ele>
        <time>2018-06-24T10:22:36Z</time>
      </trkpt>
      <trkpt lat="50.11393" lon="3.80111">
        <ele>140</ele>
        <time>2018-06-24T10:22:37Z</time>
      </trkpt>
      <trkpt lat="50.1139" lon="3.80121">
        <ele>140</ele>
        <time>2018-06-24T10:22:38Z</time>
      </trkpt>
      <trkpt lat="50.11387" lon="3.80131">
        <ele>140</ele>
        <time>2018-06-24T10:22:39Z</time>
      </trkpt>
      <trkpt lat="50.11383" lon="3.80141">
        <ele>140</ele>
        <time>2018-06-24T10:22:40Z</time>
      </trkpt>
      <trkpt lat="50.1138" lon="3.80151">
        <ele>140</ele>
        <time>2018-06-24T10:22:41Z</time>
      </trkpt>
      <trkpt lat="50.11376" lon="3.80162">
        <ele>140</ele>
        <time>2018-06-24T10:22:42Z</time>
      </trkpt>
      <trkpt lat="50.11372" lon="3.80172">
        <ele>141</ele>
        <time>2018-06-24T10:22:43Z</time>
      </trkpt>
      <trkpt lat="50.1137" lon="3.80182">
        <ele>141</ele>
        <time>2018-06-24T10:22:44Z</time>
      </trkpt>
      <trkpt lat="50.11367" lon="3.80193">
        <ele>141</ele>
        <time>2018-06-24T10:22:45Z</time>
      </trkpt>
      <trkpt lat="50.11365" lon="3.80203">
        <ele>141</ele>
        <time>2018-06-24T10:22:46Z</time>
      </trkpt>
      <trkpt lat="50.11364" lon="3.80215">
        <ele>141</ele>
        <time>2018-06-24T10:22:47Z</time>
      </trkpt>
      <trkpt lat="50.11362" lon="3.80226">
        <ele>141</ele>
        <time>2018-06-24T10:22:48Z</time>
      </trkpt>
      <trkpt lat="50.1136" lon="3.80237">
        <ele>141</ele>
        <time>2018-06-24T10:22:49Z</time>
      </trkpt>
      <trkpt lat="50.11358" lon="3.80247">
        <ele>141</ele>
        <time>2018-06-24T10:22:50Z</time>
      </trkpt>
      <trkpt lat="50.11355" lon="3.80255">
        <ele>141</ele>
        <time>2018-06-24T10:22:51Z</time>
      </trkpt>
      <trkpt lat="50.11351" lon="3.80264">
        <ele>141</ele>
        <time>2018-06-24T10:22:52Z</time>
      </trkpt>
      <trkpt lat="50.11346" lon="3.80271">
        <ele>141</ele>
        <time>2018-06-24T10:22:53Z</time>
      </trkpt>
      <trkpt lat="50.1134" lon="3.80277">
        <ele>141</ele>
        <time>2018-06-24T10:22:54Z</time>
      </trkpt>
      <trkpt lat="50.11334" lon="3.80282">
        <ele>141</ele>
        <time>2018-06-24T10:22:55Z</time>
      </trkpt>
      <trkpt lat="50.11328" lon="3.80289">
        <ele>142</ele>
        <time>2018-06-24T10:22:56Z</time>
      </trkpt>
      <trkpt lat="50.11322" lon="3.80296">
        <ele>142</ele>
        <time>2018-06-24T10:22:57Z</time>
      </trkpt>
      <trkpt lat="50.11316" lon="3.80303">
        <ele>142</ele>
        <time>2018-06-24T10:22:58Z</time>
      </trkpt>
      <trkpt lat="50.11311" lon="3.80309">
        <ele>142</ele>
        <time>2018-06-24T10:22:59Z</time>
      </trkpt>
      <trkpt lat="50.11305" lon="3.80315">
        <ele>142</ele>
        <time>2018-06-24T10:23:00Z</time>
      </trkpt>
      <trkpt lat="50.11299" lon="3.80321">
        <ele>142</ele>
        <time>2018-06-24T10:23:01Z</time>
      </trkpt>
      <trkpt lat="50.11294" lon="3.80328">
        <ele>142</ele>
        <time>2018-06-24T10:23:02Z</time>
      </trkpt>
      <trkpt lat="50.11289" lon="3.80334">
        <ele>142</ele>
        <time>2018-06-24T10:23:03Z</time>
      </trkpt>
      <trkpt lat="50.11284" lon="3.8034">
        <ele>142</ele>
        <time>2018-06-24T10:23:04Z</time>
      </trkpt>
      <trkpt lat="50.11278" lon="3.80345">
        <ele>142</ele>
        <time>2018-06-24T10:23:05Z</time>
      </trkpt>
      <trkpt lat="50.11274" lon="3.80351">
        <ele>142</ele>
        <time>2018-06-24T10:23:06Z</time>
      </trkpt>
      <trkpt lat="50.11268" lon="3.80356">
        <ele>142</ele>
        <time>2018-06-24T10:23:07Z</time>
      </trkpt>
      <trkpt lat="50.11262" lon="3.80361">
        <ele>142</ele>
        <time>2018-06-24T10:23:08Z</time>
      </trkpt>
      <trkpt lat="50.11256" lon="3.80365">
        <ele>142</ele>
        <time>2018-06-24T10:23:09Z</time>
      </trkpt>
      <trkpt lat="50.11251" lon="3.80367">
        <ele>142</ele>
        <time>2018-06-24T10:23:10Z</time>
      </trkpt>
      <trkpt lat="50.11244" lon="3.80367">
        <ele>142</ele>
        <time>2018-06-24T10:23:11Z</time>
      </trkpt>
      <trkpt lat="50.11237" lon="3.80364">
        <ele>142</ele>
        <time>2018-06-24T10:23:12Z</time>
      </trkpt>
      <trkpt lat="50.11231" lon="3.80357">
        <ele>142</ele>
        <time>2018-06-24T10:23:13Z</time>
      </trkpt>
      <trkpt lat="50.11226" lon="3.80348">
        <ele>142</ele>
        <time>2018-06-24T10:23:14Z</time>
      </trkpt>
      <trkpt lat="50.11221" lon="3.80338">
        <ele>142</ele>
        <time>2018-06-24T10:23:15Z</time>
      </trkpt>
      <trkpt lat="50.11217" lon="3.80331">
        <ele>142</ele>
        <time>2018-06-24T10:23:16Z</time>
      </trkpt>
      <trkpt lat="50.11212" lon="3.80323">
        <ele>142</ele>
        <time>2018-06-24T10:23:17Z</time>
      </trkpt>
      <trkpt lat="50.11206" lon="3.80315">
        <ele>142</ele>
        <time>2018-06-24T10:23:18Z</time>
      </trkpt>
      <trkpt lat="50.11201" lon="3.80307">
        <ele>142</ele>
        <time>2018-06-24T10:23:19Z</time>
      </trkpt>
      <trkpt lat="50.11196" lon="3.803">
        <ele>142</ele>
        <time>2018-06-24T10:23:20Z</time>
      </trkpt>
      <trkpt lat="50.11191" lon="3.80292">
        <ele>142</ele>
        <time>2018-06-24T10:23:21Z</time>
      </trkpt>
      <trkpt lat="50.11187" lon="3.80284">
        <ele>143</ele>
        <time>2018-06-24T10:23:22Z</time>
      </trkpt>
      <trkpt lat="50.11182" lon="3.80277">
        <ele>143</ele>
        <time>2018-06-24T10:23:23Z</time>
      </trkpt>
      <trkpt lat="50.11177" lon="3.8027">
        <ele>143</ele>
        <time>2018-06-24T10:23:24Z</time>
      </trkpt>
      <trkpt lat="50.11172" lon="3.80262">
        <ele>143</ele>
        <time>2018-06-24T10:23:25Z</time>
      </trkpt>
      <trkpt lat="50.11167" lon="3.80254">
        <ele>143</ele>
        <time>2018-06-24T10:23:26Z</time>
      </trkpt>
      <trkpt lat="50.11162" lon="3.80246">
        <ele>143</ele>
        <time>2018-06-24T10:23:27Z</time>
      </trkpt>
      <trkpt lat="50.11157" lon="3.80238">
        <ele>143</ele>
        <time>2018-06-24T10:23:28Z</time>
      </trkpt>
      <trkpt lat="50.11152" lon="3.8023">
        <ele>143</ele>
        <time>2018-06-24T10:23:29Z</time>
      </trkpt>
      <trkpt lat="50.11147" lon="3.80223">
        <ele>143</ele>
        <time>2018-06-24T10:23:30Z</time>
      </trkpt>
      <trkpt lat="50.11141" lon="3.80216">
        <ele>143</ele>
        <time>2018-06-24T10:23:31Z</time>
      </trkpt>
      <trkpt lat="50.11136" lon="3.80207">
        <ele>143</ele>
        <time>2018-06-24T10:23:32Z</time>
      </trkpt>
      <trkpt lat="50.11131" lon="3.802">
        <ele>143</ele>
        <time>2018-06-24T10:23:33Z</time>
      </trkpt>
      <trkpt lat="50.11124" lon="3.80194">
        <ele>143</ele>
        <time>2018-06-24T10:23:34Z</time>
      </trkpt>
      <trkpt lat="50.11117" lon="3.80189">
        <ele>143</ele>
        <time>2018-06-24T10:23:35Z</time>
      </trkpt>
      <trkpt lat="50.1111" lon="3.80187">
        <ele>143</ele>
        <time>2018-06-24T10:23:36Z</time>
      </trkpt>
      <trkpt lat="50.11102" lon="3.80186">
        <ele>143</ele>
        <time>2018-06-24T10:23:37Z</time>
      </trkpt>
      <trkpt lat="50.11094" lon="3.80187">
        <ele>143</ele>
        <time>2018-06-24T10:23:38Z</time>
      </trkpt>
      <trkpt lat="50.11087" lon="3.80187">
        <ele>143</ele>
        <time>2018-06-24T10:23:39Z</time>
      </trkpt>
      <trkpt lat="50.11079" lon="3.80188">
        <ele>143</ele>
        <time>2018-06-24T10:23:40Z</time>
      </trkpt>
      <trkpt lat="50.11072" lon="3.80188">
        <ele>143</ele>
        <time>2018-06-24T10:23:41Z</time>
      </trkpt>
      <trkpt lat="50.11063" lon="3.80188">
        <ele>143</ele>
        <time>2018-06-24T10:23:42Z</time>
      </trkpt>
      <trkpt lat="50.11055" lon="3.80188">
        <ele>143</ele>
        <time>2018-06-24T10:23:43Z</time>
      </trkpt>
      <trkpt lat="50.11048" lon="3.80189">
        <ele>143</ele>
        <time>2018-06-24T10:23:44Z</time>
      </trkpt>
      <trkpt lat="50.11039" lon="3.80189">
        <ele>144</ele>
        <time>2018-06-24T10:23:45Z</time>
      </trkpt>
      <trkpt lat="50.11031" lon="3.80191">
        <ele>144</ele>
        <time>2018-06-24T10:23:46Z</time>
      </trkpt>
      <trkpt lat="50.11023" lon="3.80193">
        <ele>144</ele>
        <time>2018-06-24T10:23:47Z</time>
      </trkpt>
      <trkpt lat="50.11014" lon="3.80194">
        <ele>144</ele>
        <time>2018-06-24T10:23:48Z</time>
      </trkpt>
      <trkpt lat="50.11006" lon="3.80196">
        <ele>144</ele>
        <time>2018-06-24T10:23:49Z</time>
      </trkpt>
      <trkpt lat="50.10999" lon="3.80198">
        <ele>144</ele>
        <time>2018-06-24T10:23:50Z</time>
      </trkpt>
      <trkpt lat="50.10991" lon="3.80198">
        <ele>144</ele>
        <time>2018-06-24T10:23:51Z</time>
      </trkpt>
      <trkpt lat="50.10984" lon="3.802">
        <ele>145</ele>
        <time>2018-06-24T10:23:52Z</time>
      </trkpt>
      <trkpt lat="50.10977" lon="3.80201">
        <ele>145</ele>
        <time>2018-06-24T10:23:53Z</time>
      </trkpt>
      <trkpt lat="50.1097" lon="3.80201">
        <ele>145</ele>
        <time>2018-06-24T10:23:54Z</time>
      </trkpt>
      <trkpt lat="50.10964" lon="3.80202">
        <ele>145</ele>
        <time>2018-06-24T10:23:55Z</time>
      </trkpt>
      <trkpt lat="50.10957" lon="3.80202">
        <ele>145</ele>
        <time>2018-06-24T10:23:56Z</time>
      </trkpt>
      <trkpt lat="50.10951" lon="3.80203">
        <ele>145</ele>
        <time>2018-06-24T10:23:57Z</time>
      </trkpt>
      <trkpt lat="50.10944" lon="3.80205">
        <ele>145</ele>
        <time>2018-06-24T10:23:58Z</time>
      </trkpt>
      <trkpt lat="50.10938" lon="3.80205">
        <ele>145</ele>
        <time>2018-06-24T10:23:59Z</time>
      </trkpt>
      <trkpt lat="50.10931" lon="3.80206">
        <ele>145</ele>
        <time>2018-06-24T10:24:00Z</time>
      </trkpt>
      <trkpt lat="50.10924" lon="3.80206">
        <ele>145</ele>
        <time>2018-06-24T10:24:01Z</time>
      </trkpt>
      <trkpt lat="50.10916" lon="3.80204">
        <ele>145</ele>
        <time>2018-06-24T10:24:02Z</time>
      </trkpt>
      <trkpt lat="50.10909" lon="3.80202">
        <ele>145</ele>
        <time>2018-06-24T10:24:03Z</time>
      </trkpt>
      <trkpt lat="50.10901" lon="3.80198">
        <ele>145</ele>
        <time>2018-06-24T10:24:04Z</time>
      </trkpt>
      <trkpt lat="50.10894" lon="3.80196">
        <ele>145</ele>
        <time>2018-06-24T10:24:05Z</time>
      </trkpt>
      <trkpt lat="50.10887" lon="3.80192">
        <ele>145</ele>
        <time>2018-06-24T10:24:06Z</time>
      </trkpt>
      <trkpt lat="50.1088" lon="3.80188">
        <ele>145</ele>
        <time>2018-06-24T10:24:07Z</time>
      </trkpt>
      <trkpt lat="50.10873" lon="3.80183">
        <ele>145</ele>
        <time>2018-06-24T10:24:08Z</time>
      </trkpt>
      <trkpt lat="50.10866" lon="3.80179">
        <ele>145</ele>
        <time>2018-06-24T10:24:09Z</time>
      </trkpt>
      <trkpt lat="50.10858" lon="3.80175">
        <ele>145</ele>
        <time>2018-06-24T10:24:10Z</time>
      </trkpt>
      <trkpt lat="50.10851" lon="3.80172">
        <ele>145</ele>
        <time>2018-06-24T10:24:11Z</time>
      </trkpt>
      <trkpt lat="50.10844" lon="3.80167">
        <ele>144</ele>
        <time>2018-06-24T10:24:12Z</time>
      </trkpt>
      <trkpt lat="50.10837" lon="3.80162">
        <ele>144</ele>
        <time>2018-06-24T10:24:13Z</time>
      </trkpt>
      <trkpt lat="50.1083" lon="3.80158">
        <ele>144</ele>
        <time>2018-06-24T10:24:14Z</time>
      </trkpt>
      <trkpt lat="50.10823" lon="3.80152">
        <ele>144</ele>
        <time>2018-06-24T10:24:15Z</time>
      </trkpt>
      <trkpt lat="50.10817" lon="3.80149">
        <ele>144</ele>
        <time>2018-06-24T10:24:16Z</time>
      </trkpt>
      <trkpt lat="50.1081" lon="3.80146">
        <ele>143</ele>
        <time>2018-06-24T10:24:17Z</time>
      </trkpt>
      <trkpt lat="50.10802" lon="3.80142">
        <ele>143</ele>
        <time>2018-06-24T10:24:18Z</time>
      </trkpt>
      <trkpt lat="50.10795" lon="3.8014">
        <ele>143</ele>
        <time>2018-06-24T10:24:19Z</time>
      </trkpt>
      <trkpt lat="50.10788" lon="3.80138">
        <ele>143</ele>
        <time>2018-06-24T10:24:20Z</time>
      </trkpt>
      <trkpt lat="50.1078" lon="3.80136">
        <ele>143</ele>
        <time>2018-06-24T10:24:21Z</time>
      </trkpt>
      <trkpt lat="50.10772" lon="3.80135">
        <ele>143</ele>
        <time>2018-06-24T10:24:22Z</time>
      </trkpt>
      <trkpt lat="50.10765" lon="3.80133">
        <ele>143</ele>
        <time>2018-06-24T10:24:23Z</time>
      </trkpt>
      <trkpt lat="50.10757" lon="3.80131">
        <ele>143</ele>
        <time>2018-06-24T10:24:24Z</time>
      </trkpt>
      <trkpt lat="50.1075" lon="3.8013">
        <ele>143</ele>
        <time>2018-06-24T10:24:25Z</time>
      </trkpt>
      <trkpt lat="50.10743" lon="3.80128">
        <ele>143</ele>
        <time>2018-06-24T10:24:26Z</time>
      </trkpt>
      <trkpt lat="50.10735" lon="3.80126">
        <ele>143</ele>
        <time>2018-06-24T10:24:27Z</time>
      </trkpt>
      <trkpt lat="50.10728" lon="3.80126">
        <ele>143</ele>
        <time>2018-06-24T10:24:28Z</time>
      </trkpt>
      <trkpt lat="50.10721" lon="3.80125">
        <ele>143</ele>
        <time>2018-06-24T10:24:29Z</time>
      </trkpt>
      <trkpt lat="50.10714" lon="3.80123">
        <ele>143</ele>
        <time>2018-06-24T10:24:30Z</time>
      </trkpt>
      <trkpt lat="50.10706" lon="3.80121">
        <ele>143</ele>
        <time>2018-06-24T10:24:31Z</time>
      </trkpt>
      <trkpt lat="50.10699" lon="3.80119">
        <ele>143</ele>
        <time>2018-06-24T10:24:32Z</time>
      </trkpt>
      <trkpt lat="50.10692" lon="3.80117">
        <ele>143</ele>
        <time>2018-06-24T10:24:33Z</time>
      </trkpt>
      <trkpt lat="50.10685" lon="3.80114">
        <ele>143</ele>
        <time>2018-06-24T10:24:34Z</time>
      </trkpt>
      <trkpt lat="50.10678" lon="3.80112">
        <ele>143</ele>
        <time>2018-06-24T10:24:35Z</time>
      </trkpt>
      <trkpt lat="50.10671" lon="3.8011">
        <ele>143</ele>
        <time>2018-06-24T10:24:36Z</time>
      </trkpt>
      <trkpt lat="50.10664" lon="3.80107">
        <ele>144</ele>
        <time>2018-06-24T10:24:37Z</time>
      </trkpt>
      <trkpt lat="50.10656" lon="3.80105">
        <ele>144</ele>
        <time>2018-06-24T10:24:38Z</time>
      </trkpt>
      <trkpt lat="50.10649" lon="3.80103">
        <ele>144</ele>
        <time>2018-06-24T10:24:39Z</time>
      </trkpt>
      <trkpt lat="50.10642" lon="3.801">
        <ele>144</ele>
        <time>2018-06-24T10:24:40Z</time>
      </trkpt>
      <trkpt lat="50.10635" lon="3.80097">
        <ele>144</ele>
        <time>2018-06-24T10:24:41Z</time>
      </trkpt>
      <trkpt lat="50.10628" lon="3.80094">
        <ele>144</ele>
        <time>2018-06-24T10:24:42Z</time>
      </trkpt>
      <trkpt lat="50.1062" lon="3.80092">
        <ele>145</ele>
        <time>2018-06-24T10:24:43Z</time>
      </trkpt>
      <trkpt lat="50.10614" lon="3.80089">
        <ele>145</ele>
        <time>2018-06-24T10:24:44Z</time>
      </trkpt>
      <trkpt lat="50.10607" lon="3.80085">
        <ele>145</ele>
        <time>2018-06-24T10:24:45Z</time>
      </trkpt>
      <trkpt lat="50.106" lon="3.80082">
        <ele>146</ele>
        <time>2018-06-24T10:24:46Z</time>
      </trkpt>
      <trkpt lat="50.10593" lon="3.80079">
        <ele>146</ele>
        <time>2018-06-24T10:24:47Z</time>
      </trkpt>
      <trkpt lat="50.10586" lon="3.80075">
        <ele>146</ele>
        <time>2018-06-24T10:24:48Z</time>
      </trkpt>
      <trkpt lat="50.1058" lon="3.80072">
        <ele>146</ele>
        <time>2018-06-24T10:24:49Z</time>
      </trkpt>
      <trkpt lat="50.10573" lon="3.80068">
        <ele>146</ele>
        <time>2018-06-24T10:24:50Z</time>
      </trkpt>
      <trkpt lat="50.10566" lon="3.80065">
        <ele>146</ele>
        <time>2018-06-24T10:24:51Z</time>
      </trkpt>
      <trkpt lat="50.1056" lon="3.80062">
        <ele>147</ele>
        <time>2018-06-24T10:24:52Z</time>
      </trkpt>
      <trkpt lat="50.10553" lon="3.80058">
        <ele>147</ele>
        <time>2018-06-24T10:24:53Z</time>
      </trkpt>
      <trkpt lat="50.10547" lon="3.80054">
        <ele>147</ele>
        <time>2018-06-24T10:24:54Z</time>
      </trkpt>
      <trkpt lat="50.10541" lon="3.8005">
        <ele>147</ele>
        <time>2018-06-24T10:24:55Z</time>
      </trkpt>
      <trkpt lat="50.10534" lon="3.80047">
        <ele>147</ele>
        <time>2018-06-24T10:24:56Z</time>
      </trkpt>
      <trkpt lat="50.10528" lon="3.80043">
        <ele>147</ele>
        <time>2018-06-24T10:24:57Z</time>
      </trkpt>
      <trkpt lat="50.10521" lon="3.80039">
        <ele>147</ele>
        <time>2018-06-24T10:24:58Z</time>
      </trkpt>
      <trkpt lat="50.10515" lon="3.80035">
        <ele>147</ele>
        <time>2018-06-24T10:24:59Z</time>
      </trkpt>
      <trkpt lat="50.10508" lon="3.80032">
        <ele>147</ele>
        <time>2018-06-24T10:25:00Z</time>
      </trkpt>
      <trkpt lat="50.10502" lon="3.80028">
        <ele>147</ele>
        <time>2018-06-24T10:25:01Z</time>
      </trkpt>
      <trkpt lat="50.10496" lon="3.80025">
        <ele>147</ele>
        <time>2018-06-24T10:25:02Z</time>
      </trkpt>
      <trkpt lat="50.1049" lon="3.80021">
        <ele>147</ele>
        <time>2018-06-24T10:25:03Z</time>
      </trkpt>
      <trkpt lat="50.10483" lon="3.80018">
        <ele>147</ele>
        <time>2018-06-24T10:25:04Z</time>
      </trkpt>
      <trkpt lat="50.10477" lon="3.80014">
        <ele>147</ele>
        <time>2018-06-24T10:25:05Z</time>
      </trkpt>
      <trkpt lat="50.1047" lon="3.80011">
        <ele>147</ele>
        <time>2018-06-24T10:25:06Z</time>
      </trkpt>
      <trkpt lat="50.10464" lon="3.80007">
        <ele>147</ele>
        <time>2018-06-24T10:25:07Z</time>
      </trkpt>
      <trkpt lat="50.10458" lon="3.80004">
        <ele>147</ele>
        <time>2018-06-24T10:25:08Z</time>
      </trkpt>
      <trkpt lat="50.10452" lon="3.80001">
        <ele>147</ele>
        <time>2018-06-24T10:25:09Z</time>
      </trkpt>
      <trkpt lat="50.10445" lon="3.79997">
        <ele>148</ele>
        <time>2018-06-24T10:25:10Z</time>
      </trkpt>
      <trkpt lat="50.10437" lon="3.79993">
        <ele>148</ele>
        <time>2018-06-24T10:25:11Z</time>
      </trkpt>
      <trkpt lat="50.1043" lon="3.79988">
        <ele>148</ele>
        <time>2018-06-24T10:25:12Z</time>
      </trkpt>
      <trkpt lat="50.10422" lon="3.79984">
        <ele>147</ele>
        <time>2018-06-24T10:25:13Z</time>
      </trkpt>
      <trkpt lat="50.10415" lon="3.79979">
        <ele>147</ele>
        <time>2018-06-24T10:25:14Z</time>
      </trkpt>
      <trkpt lat="50.10408" lon="3.79974">
        <ele>148</ele>
        <time>2018-06-24T10:25:15Z</time>
      </trkpt>
      <trkpt lat="50.10401" lon="3.79969">
        <ele>148</ele>
        <time>2018-06-24T10:25:16Z</time>
      </trkpt>
      <trkpt lat="50.10396" lon="3.79963">
        <ele>148</ele>
        <time>2018-06-24T10:25:17Z</time>
      </trkpt>
      <trkpt lat="50.1039" lon="3.79957">
        <ele>148</ele>
        <time>2018-06-24T10:25:18Z</time>
      </trkpt>
      <trkpt lat="50.10385" lon="3.79951">
        <ele>148</ele>
        <time>2018-06-24T10:25:19Z</time>
      </trkpt>
      <trkpt lat="50.1038" lon="3.79945">
        <ele>148</ele>
        <time>2018-06-24T10:25:20Z</time>
      </trkpt>
      <trkpt lat="50.10375" lon="3.79937">
        <ele>148</ele>
        <time>2018-06-24T10:25:21Z</time>
      </trkpt>
      <trkpt lat="50.10369" lon="3.7993">
        <ele>148</ele>
        <time>2018-06-24T10:25:22Z</time>
      </trkpt>
      <trkpt lat="50.10363" lon="3.79923">
        <ele>148</ele>
        <time>2018-06-24T10:25:23Z</time>
      </trkpt>
      <trkpt lat="50.10357" lon="3.79916">
        <ele>148</ele>
        <time>2018-06-24T10:25:24Z</time>
      </trkpt>
      <trkpt lat="50.10352" lon="3.79909">
        <ele>148</ele>
        <time>2018-06-24T10:25:25Z</time>
      </trkpt>
      <trkpt lat="50.10346" lon="3.79902">
        <ele>148</ele>
        <time>2018-06-24T10:25:26Z</time>
      </trkpt>
      <trkpt lat="50.1034" lon="3.79895">
        <ele>148</ele>
        <time>2018-06-24T10:25:27Z</time>
      </trkpt>
      <trkpt lat="50.10334" lon="3.79889">
        <ele>148</ele>
        <time>2018-06-24T10:25:28Z</time>
      </trkpt>
      <trkpt lat="50.10328" lon="3.79884">
        <ele>148</ele>
        <time>2018-06-24T10:25:29Z</time>
      </trkpt>
      <trkpt lat="50.10322" lon="3.79879">
        <ele>149</ele>
        <time>2018-06-24T10:25:30Z</time>
      </trkpt>
      <trkpt lat="50.10316" lon="3.79874">
        <ele>149</ele>
        <time>2018-06-24T10:25:31Z</time>
      </trkpt>
      <trkpt lat="50.1031" lon="3.79869">
        <ele>149</ele>
        <time>2018-06-24T10:25:32Z</time>
      </trkpt>
      <trkpt lat="50.10304" lon="3.79865">
        <ele>149</ele>
        <time>2018-06-24T10:25:33Z</time>
      </trkpt>
      <trkpt lat="50.10299" lon="3.79861">
        <ele>149</ele>
        <time>2018-06-24T10:25:34Z</time>
      </trkpt>
      <trkpt lat="50.10293" lon="3.79859">
        <ele>149</ele>
        <time>2018-06-24T10:25:35Z</time>
      </trkpt>
      <trkpt lat="50.10286" lon="3.79857">
        <ele>149</ele>
        <time>2018-06-24T10:25:36Z</time>
      </trkpt>
      <trkpt lat="50.10279" lon="3.79855">
        <ele>149</ele>
        <time>2018-06-24T10:25:37Z</time>
      </trkpt>
      <trkpt lat="50.10272" lon="3.79851">
        <ele>149</ele>
        <time>2018-06-24T10:25:38Z</time>
      </trkpt>
      <trkpt lat="50.10265" lon="3.79849">
        <ele>149</ele>
        <time>2018-06-24T10:25:39Z</time>
      </trkpt>
      <trkpt lat="50.10258" lon="3.79846">
        <ele>149</ele>
        <time>2018-06-24T10:25:40Z</time>
      </trkpt>
      <trkpt lat="50.10251" lon="3.79843">
        <ele>150</ele>
        <time>2018-06-24T10:25:41Z</time>
      </trkpt>
      <trkpt lat="50.10245" lon="3.79841">
        <ele>150</ele>
        <time>2018-06-24T10:25:42Z</time>
      </trkpt>
      <trkpt lat="50.10238" lon="3.79839">
        <ele>150</ele>
        <time>2018-06-24T10:25:43Z</time>
      </trkpt>
      <trkpt lat="50.10232" lon="3.79837">
        <ele>150</ele>
        <time>2018-06-24T10:25:44Z</time>
      </trkpt>
      <trkpt lat="50.10226" lon="3.79834">
        <ele>150</ele>
        <time>2018-06-24T10:25:45Z</time>
      </trkpt>
      <trkpt lat="50.10219" lon="3.79832">
        <ele>150</ele>
        <time>2018-06-24T10:25:46Z</time>
      </trkpt>
      <trkpt lat="50.10214" lon="3.7983">
        <ele>150</ele>
        <time>2018-06-24T10:25:47Z</time>
      </trkpt>
      <trkpt lat="50.10207" lon="3.79829">
        <ele>150</ele>
        <time>2018-06-24T10:25:48Z</time>
      </trkpt>
      <trkpt lat="50.10201" lon="3.79826">
        <ele>150</ele>
        <time>2018-06-24T10:25:49Z</time>
      </trkpt>
      <trkpt lat="50.10195" lon="3.79824">
        <ele>150</ele>
        <time>2018-06-24T10:25:50Z</time>
      </trkpt>
      <trkpt lat="50.10188" lon="3.7982">
        <ele>150</ele>
        <time>2018-06-24T10:25:51Z</time>
      </trkpt>
      <trkpt lat="50.10182" lon="3.79818">
        <ele>150</ele>
        <time>2018-06-24T10:25:52Z</time>
      </trkpt>
      <trkpt lat="50.10177" lon="3.79815">
        <ele>150</ele>
        <time>2018-06-24T10:25:53Z</time>
      </trkpt>
      <trkpt lat="50.10171" lon="3.79812">
        <ele>150</ele>
        <time>2018-06-24T10:25:54Z</time>
      </trkpt>
      <trkpt lat="50.10165" lon="3.79808">
        <ele>149</ele>
        <time>2018-06-24T10:25:55Z</time>
      </trkpt>
      <trkpt lat="50.10159" lon="3.79805">
        <ele>149</ele>
        <time>2018-06-24T10:25:56Z</time>
      </trkpt>
      <trkpt lat="50.10154" lon="3.79801">
        <ele>149</ele>
        <time>2018-06-24T10:25:57Z</time>
      </trkpt>
      <trkpt lat="50.10148" lon="3.79798">
        <ele>149</ele>
        <time>2018-06-24T10:25:58Z</time>
      </trkpt>
      <trkpt lat="50.10142" lon="3.79793">
        <ele>149</ele>
        <time>2018-06-24T10:25:59Z</time>
      </trkpt>
      <trkpt lat="50.10136" lon="3.79787">
        <ele>149</ele>
        <time>2018-06-24T10:26:00Z</time>
      </trkpt>
      <trkpt lat="50.10131" lon="3.79782">
        <ele>149</ele>
        <time>2018-06-24T10:26:01Z</time>
      </trkpt>
      <trkpt lat="50.10125" lon="3.79778">
        <ele>149</ele>
        <time>2018-06-24T10:26:02Z</time>
      </trkpt>
      <trkpt lat="50.10119" lon="3.79773">
        <ele>149</ele>
        <time>2018-06-24T10:26:03Z</time>
      </trkpt>
      <trkpt lat="50.10113" lon="3.79768">
        <ele>149</ele>
        <time>2018-06-24T10:26:04Z</time>
      </trkpt>
      <trkpt lat="50.10108" lon="3.79764">
        <ele>149</ele>
        <time>2018-06-24T10:26:05Z</time>
      </trkpt>
      <trkpt lat="50.10102" lon="3.79758">
        <ele>149</ele>
        <time>2018-06-24T10:26:06Z</time>
      </trkpt>
      <trkpt lat="50.10096" lon="3.79753">
        <ele>149</ele>
        <time>2018-06-24T10:26:07Z</time>
      </trkpt>
      <trkpt lat="50.1009" lon="3.79748">
        <ele>149</ele>
        <time>2018-06-24T10:26:08Z</time>
      </trkpt>
      <trkpt lat="50.10085" lon="3.79743">
        <ele>149</ele>
        <time>2018-06-24T10:26:09Z</time>
      </trkpt>
      <trkpt lat="50.10079" lon="3.79737">
        <ele>150</ele>
        <time>2018-06-24T10:26:10Z</time>
      </trkpt>
      <trkpt lat="50.10074" lon="3.79732">
        <ele>150</ele>
        <time>2018-06-24T10:26:11Z</time>
      </trkpt>
      <trkpt lat="50.10068" lon="3.79727">
        <ele>150</ele>
        <time>2018-06-24T10:26:12Z</time>
      </trkpt>
      <trkpt lat="50.10063" lon="3.79721">
        <ele>150</ele>
        <time>2018-06-24T10:26:13Z</time>
      </trkpt>
      <trkpt lat="50.10057" lon="3.79716">
        <ele>150</ele>
        <time>2018-06-24T10:26:14Z</time>
      </trkpt>
      <trkpt lat="50.10051" lon="3.79711">
        <ele>151</ele>
        <time>2018-06-24T10:26:15Z</time>
      </trkpt>
      <trkpt lat="50.10046" lon="3.79705">
        <ele>151</ele>
        <time>2018-06-24T10:26:16Z</time>
      </trkpt>
      <trkpt lat="50.1004" lon="3.797">
        <ele>151</ele>
        <time>2018-06-24T10:26:17Z</time>
      </trkpt>
      <trkpt lat="50.10035" lon="3.79695">
        <ele>151</ele>
        <time>2018-06-24T10:26:18Z</time>
      </trkpt>
      <trkpt lat="50.10029" lon="3.7969">
        <ele>151</ele>
        <time>2018-06-24T10:26:19Z</time>
      </trkpt>
      <trkpt lat="50.10024" lon="3.79685">
        <ele>151</ele>
        <time>2018-06-24T10:26:20Z</time>
      </trkpt>
      <trkpt lat="50.10019" lon="3.79681">
        <ele>152</ele>
        <time>2018-06-24T10:26:21Z</time>
      </trkpt>
      <trkpt lat="50.10014" lon="3.79676">
        <ele>152</ele>
        <time>2018-06-24T10:26:22Z</time>
      </trkpt>
      <trkpt lat="50.10008" lon="3.7967">
        <ele>152</ele>
        <time>2018-06-24T10:26:23Z</time>
      </trkpt>
      <trkpt lat="50.10002" lon="3.79664">
        <ele>153</ele>
        <time>2018-06-24T10:26:24Z</time>
      </trkpt>
      <trkpt lat="50.09996" lon="3.79658">
        <ele>153</ele>
        <time>2018-06-24T10:26:25Z</time>
      </trkpt>
      <trkpt lat="50.0999" lon="3.79652">
        <ele>153</ele>
        <time>2018-06-24T10:26:26Z</time>
      </trkpt>
      <trkpt lat="50.09984" lon="3.79647">
        <ele>152</ele>
        <time>2018-06-24T10:26:27Z</time>
      </trkpt>
      <trkpt lat="50.09979" lon="3.79641">
        <ele>152</ele>
        <time>2018-06-24T10:26:28Z</time>
      </trkpt>
      <trkpt lat="50.09973" lon="3.79635">
        <ele>152</ele>
        <time>2018-06-24T10:26:29Z</time>
      </trkpt>
      <trkpt lat="50.09968" lon="3.7963">
        <ele>152</ele>
        <time>2018-06-24T10:26:30Z</time>
      </trkpt>
      <trkpt lat="50.09963" lon="3.79624">
        <ele>152</ele>
        <time>2018-06-24T10:26:31Z</time>
      </trkpt>
      <trkpt lat="50.09958" lon="3.79618">
        <ele>152</ele>
        <time>2018-06-24T10:26:32Z</time>
      </trkpt>
      <trkpt lat="50.09953" lon="3.79613">
        <ele>152</ele>
        <time>2018-06-24T10:26:33Z</time>
      </trkpt>
      <trkpt lat="50.09948" lon="3.79607">
        <ele>152</ele>
        <time>2018-06-24T10:26:34Z</time>
      </trkpt>
      <trkpt lat="50.09943" lon="3.796">
        <ele>152</ele>
        <time>2018-06-24T10:26:35Z</time>
      </trkpt>
      <trkpt lat="50.09937" lon="3.79595">
        <ele>153</ele>
        <time>2018-06-24T10:26:36Z</time>
      </trkpt>
      <trkpt lat="50.09932" lon="3.79589">
        <ele>153</ele>
        <time>2018-06-24T10:26:37Z</time>
      </trkpt>
      <trkpt lat="50.09927" lon="3.79583">
        <ele>153</ele>
        <time>2018-06-24T10:26:38Z</time>
      </trkpt>
      <trkpt lat="50.09921" lon="3.79576">
        <ele>153</ele>
        <time>2018-06-24T10:26:39Z</time>
      </trkpt>
      <trkpt lat="50.09916" lon="3.7957">
        <ele>153</ele>
        <time>2018-06-24T10:26:40Z</time>
      </trkpt>
      <trkpt lat="50.09911" lon="3.79564">
        <ele>153</ele>
        <time>2018-06-24T10:26:41Z</time>
      </trkpt>
      <trkpt lat="50.09906" lon="3.79558">
        <ele>153</ele>
        <time>2018-06-24T10:26:42Z</time>
      </trkpt>
      <trkpt lat="50.099" lon="3.79552">
        <ele>153</ele>
        <time>2018-06-24T10:26:43Z</time>
      </trkpt>
      <trkpt lat="50.09895" lon="3.79546">
        <ele>154</ele>
        <time>2018-06-24T10:26:44Z</time>
      </trkpt>
      <trkpt lat="50.09889" lon="3.7954">
        <ele>154</ele>
        <time>2018-06-24T10:26:45Z</time>
      </trkpt>
      <trkpt lat="50.09883" lon="3.79534">
        <ele>154</ele>
        <time>2018-06-24T10:26:46Z</time>
      </trkpt>
      <trkpt lat="50.09877" lon="3.79527">
        <ele>154</ele>
        <time>2018-06-24T10:26:47Z</time>
      </trkpt>
      <trkpt lat="50.09871" lon="3.79521">
        <ele>154</ele>
        <time>2018-06-24T10:26:48Z</time>
      </trkpt>
      <trkpt lat="50.09866" lon="3.79515">
        <ele>154</ele>
        <time>2018-06-24T10:26:49Z</time>
      </trkpt>
      <trkpt lat="50.0986" lon="3.79509">
        <ele>154</ele>
        <time>2018-06-24T10:26:50Z</time>
      </trkpt>
      <trkpt lat="50.09855" lon="3.79503">
        <ele>154</ele>
        <time>2018-06-24T10:26:51Z</time>
      </trkpt>
      <trkpt lat="50.0985" lon="3.79497">
        <ele>155</ele>
        <time>2018-06-24T10:26:52Z</time>
      </trkpt>
      <trkpt lat="50.09845" lon="3.79492">
        <ele>154</ele>
        <time>2018-06-24T10:26:53Z</time>
      </trkpt>
      <trkpt lat="50.09839" lon="3.79486">
        <ele>154</ele>
        <time>2018-06-24T10:26:54Z</time>
      </trkpt>
      <trkpt lat="50.09834" lon="3.79481">
        <ele>155</ele>
        <time>2018-06-24T10:26:55Z</time>
      </trkpt>
      <trkpt lat="50.09828" lon="3.79476">
        <ele>155</ele>
        <time>2018-06-24T10:26:56Z</time>
      </trkpt>
      <trkpt lat="50.09823" lon="3.79471">
        <ele>155</ele>
        <time>2018-06-24T10:26:57Z</time>
      </trkpt>
      <trkpt lat="50.09817" lon="3.79466">
        <ele>155</ele>
        <time>2018-06-24T10:26:58Z</time>
      </trkpt>
      <trkpt lat="50.09812" lon="3.79461">
        <ele>155</ele>
        <time>2018-06-24T10:26:59Z</time>
      </trkpt>
      <trkpt lat="50.09806" lon="3.79455">
        <ele>155</ele>
        <time>2018-06-24T10:27:00Z</time>
      </trkpt>
      <trkpt lat="50.098" lon="3.7945">
        <ele>155</ele>
        <time>2018-06-24T10:27:01Z</time>
      </trkpt>
      <trkpt lat="50.09794" lon="3.79445">
        <ele>155</ele>
        <time>2018-06-24T10:27:02Z</time>
      </trkpt>
      <trkpt lat="50.09789" lon="3.79441">
        <ele>156</ele>
        <time>2018-06-24T10:27:03Z</time>
      </trkpt>
      <trkpt lat="50.09783" lon="3.79436">
        <ele>156</ele>
        <time>2018-06-24T10:27:04Z</time>
      </trkpt>
      <trkpt lat="50.09778" lon="3.79432">
        <ele>156</ele>
        <time>2018-06-24T10:27:05Z</time>
      </trkpt>
      <trkpt lat="50.09771" lon="3.79428">
        <ele>156</ele>
        <time>2018-06-24T10:27:06Z</time>
      </trkpt>
      <trkpt lat="50.09765" lon="3.79423">
        <ele>156</ele>
        <time>2018-06-24T10:27:07Z</time>
      </trkpt>
      <trkpt lat="50.0976" lon="3.79419">
        <ele>156</ele>
        <time>2018-06-24T10:27:08Z</time>
      </trkpt>
      <trkpt lat="50.09754" lon="3.79415">
        <ele>157</ele>
        <time>2018-06-24T10:27:09Z</time>
      </trkpt>
      <trkpt lat="50.09749" lon="3.7941">
        <ele>157</ele>
        <time>2018-06-24T10:27:10Z</time>
      </trkpt>
      <trkpt lat="50.09743" lon="3.79406">
        <ele>157</ele>
        <time>2018-06-24T10:27:11Z</time>
      </trkpt>
      <trkpt lat="50.09738" lon="3.79401">
        <ele>158</ele>
        <time>2018-06-24T10:27:12Z</time>
      </trkpt>
      <trkpt lat="50.09732" lon="3.79397">
        <ele>158</ele>
        <time>2018-06-24T10:27:13Z</time>
      </trkpt>
      <trkpt lat="50.09726" lon="3.79393">
        <ele>158</ele>
        <time>2018-06-24T10:27:14Z</time>
      </trkpt>
      <trkpt lat="50.0972" lon="3.79388">
        <ele>158</ele>
        <time>2018-06-24T10:27:15Z</time>
      </trkpt>
      <trkpt lat="50.09714" lon="3.79383">
        <ele>158</ele>
        <time>2018-06-24T10:27:16Z</time>
      </trkpt>
      <trkpt lat="50.09708" lon="3.79379">
        <ele>158</ele>
        <time>2018-06-24T10:27:17Z</time>
      </trkpt>
      <trkpt lat="50.09702" lon="3.79374">
        <ele>158</ele>
        <time>2018-06-24T10:27:18Z</time>
      </trkpt>
      <trkpt lat="50.09696" lon="3.7937">
        <ele>158</ele>
        <time>2018-06-24T10:27:19Z</time>
      </trkpt>
      <trkpt lat="50.0969" lon="3.79365">
        <ele>158</ele>
        <time>2018-06-24T10:27:20Z</time>
      </trkpt>
      <trkpt lat="50.09683" lon="3.79359">
        <ele>158</ele>
        <time>2018-06-24T10:27:21Z</time>
      </trkpt>
      <trkpt lat="50.09677" lon="3.79354">
        <ele>158</ele>
        <time>2018-06-24T10:27:22Z</time>
      </trkpt>
      <trkpt lat="50.09671" lon="3.79349">
        <ele>158</ele>
        <time>2018-06-24T10:27:23Z</time>
      </trkpt>
      <trkpt lat="50.09664" lon="3.79344">
        <ele>158</ele>
        <time>2018-06-24T10:27:24Z</time>
      </trkpt>
      <trkpt lat="50.09658" lon="3.79338">
        <ele>158</ele>
        <time>2018-06-24T10:27:25Z</time>
      </trkpt>
      <trkpt lat="50.09651" lon="3.79333">
        <ele>158</ele>
        <time>2018-06-24T10:27:26Z</time>
      </trkpt>
      <trkpt lat="50.09645" lon="3.79327">
        <ele>158</ele>
        <time>2018-06-24T10:27:27Z</time>
      </trkpt>
      <trkpt lat="50.09638" lon="3.79322">
        <ele>158</ele>
        <time>2018-06-24T10:27:28Z</time>
      </trkpt>
      <trkpt lat="50.09631" lon="3.79316">
        <ele>157</ele>
        <time>2018-06-24T10:27:29Z</time>
      </trkpt>
      <trkpt lat="50.09624" lon="3.7931">
        <ele>157</ele>
        <time>2018-06-24T10:27:30Z</time>
      </trkpt>
      <trkpt lat="50.09617" lon="3.79305">
        <ele>157</ele>
        <time>2018-06-24T10:27:31Z</time>
      </trkpt>
      <trkpt lat="50.09611" lon="3.793">
        <ele>157</ele>
        <time>2018-06-24T10:27:32Z</time>
      </trkpt>
      <trkpt lat="50.09604" lon="3.79295">
        <ele>157</ele>
        <time>2018-06-24T10:27:33Z</time>
      </trkpt>
      <trkpt lat="50.09598" lon="3.79291">
        <ele>157</ele>
        <time>2018-06-24T10:27:34Z</time>
      </trkpt>
      <trkpt lat="50.09591" lon="3.79287">
        <ele>157</ele>
        <time>2018-06-24T10:27:35Z</time>
      </trkpt>
      <trkpt lat="50.09584" lon="3.79284">
        <ele>157</ele>
        <time>2018-06-24T10:27:36Z</time>
      </trkpt>
      <trkpt lat="50.09577" lon="3.79283">
        <ele>156</ele>
        <time>2018-06-24T10:27:37Z</time>
      </trkpt>
      <trkpt lat="50.09569" lon="3.79281">
        <ele>156</ele>
        <time>2018-06-24T10:27:38Z</time>
      </trkpt>
      <trkpt lat="50.09562" lon="3.7928">
        <ele>156</ele>
        <time>2018-06-24T10:27:39Z</time>
      </trkpt>
      <trkpt lat="50.09555" lon="3.79279">
        <ele>156</ele>
        <time>2018-06-24T10:27:40Z</time>
      </trkpt>
      <trkpt lat="50.09547" lon="3.79277">
        <ele>156</ele>
        <time>2018-06-24T10:27:41Z</time>
      </trkpt>
      <trkpt lat="50.09539" lon="3.79275">
        <ele>156</ele>
        <time>2018-06-24T10:27:42Z</time>
      </trkpt>
      <trkpt lat="50.09532" lon="3.79271">
        <ele>156</ele>
        <time>2018-06-24T10:27:43Z</time>
      </trkpt>
      <trkpt lat="50.09524" lon="3.79266">
        <ele>156</ele>
        <time>2018-06-24T10:27:44Z</time>
      </trkpt>
      <trkpt lat="50.09518" lon="3.79261">
        <ele>156</ele>
        <time>2018-06-24T10:27:45Z</time>
      </trkpt>
      <trkpt lat="50.09511" lon="3.79255">
        <ele>155</ele>
        <time>2018-06-24T10:27:46Z</time>
      </trkpt>
      <trkpt lat="50.09505" lon="3.79249">
        <ele>155</ele>
        <time>2018-06-24T10:27:47Z</time>
      </trkpt>
      <trkpt lat="50.095" lon="3.79243">
        <ele>155</ele>
        <time>2018-06-24T10:27:48Z</time>
      </trkpt>
      <trkpt lat="50.09494" lon="3.79236">
        <ele>156</ele>
        <time>2018-06-24T10:27:49Z</time>
      </trkpt>
      <trkpt lat="50.09489" lon="3.7923">
        <ele>156</ele>
        <time>2018-06-24T10:27:50Z</time>
      </trkpt>
      <trkpt lat="50.09483" lon="3.79224">
        <ele>156</ele>
        <time>2018-06-24T10:27:51Z</time>
      </trkpt>
      <trkpt lat="50.09477" lon="3.79219">
        <ele>156</ele>
        <time>2018-06-24T10:27:52Z</time>
      </trkpt>
      <trkpt lat="50.09471" lon="3.79213">
        <ele>156</ele>
        <time>2018-06-24T10:27:53Z</time>
      </trkpt>
      <trkpt lat="50.09465" lon="3.79207">
        <ele>156</ele>
        <time>2018-06-24T10:27:54Z</time>
      </trkpt>
      <trkpt lat="50.0946" lon="3.79201">
        <ele>156</ele>
        <time>2018-06-24T10:27:55Z</time>
      </trkpt>
      <trkpt lat="50.09454" lon="3.79194">
        <ele>157</ele>
        <time>2018-06-24T10:27:56Z</time>
      </trkpt>
      <trkpt lat="50.09449" lon="3.79188">
        <ele>157</ele>
        <time>2018-06-24T10:27:57Z</time>
      </trkpt>
      <trkpt lat="50.09443" lon="3.79181">
        <ele>157</ele>
        <time>2018-06-24T10:27:58Z</time>
      </trkpt>
      <trkpt lat="50.09438" lon="3.79174">
        <ele>157</ele>
        <time>2018-06-24T10:27:59Z</time>
      </trkpt>
      <trkpt lat="50.09432" lon="3.79168">
        <ele>157</ele>
        <time>2018-06-24T10:28:00Z</time>
      </trkpt>
      <trkpt lat="50.09427" lon="3.79162">
        <ele>158</ele>
        <time>2018-06-24T10:28:01Z</time>
      </trkpt>
      <trkpt lat="50.09422" lon="3.79155">
        <ele>158</ele>
        <time>2018-06-24T10:28:02Z</time>
      </trkpt>
      <trkpt lat="50.09417" lon="3.79148">
        <ele>158</ele>
        <time>2018-06-24T10:28:03Z</time>
      </trkpt>
      <trkpt lat="50.09413" lon="3.79141">
        <ele>160</ele>
        <time>2018-06-24T10:28:04Z</time>
      </trkpt>
      <trkpt lat="50.09409" lon="3.79134">
        <ele>160</ele>
        <time>2018-06-24T10:28:05Z</time>
      </trkpt>
      <trkpt lat="50.09405" lon="3.79127">
        <ele>160</ele>
        <time>2018-06-24T10:28:06Z</time>
      </trkpt>
      <trkpt lat="50.09402" lon="3.79119">
        <ele>160</ele>
        <time>2018-06-24T10:28:07Z</time>
      </trkpt>
      <trkpt lat="50.09399" lon="3.79111">
        <ele>160</ele>
        <time>2018-06-24T10:28:08Z</time>
      </trkpt>
      <trkpt lat="50.09396" lon="3.79103">
        <ele>160</ele>
        <time>2018-06-24T10:28:09Z</time>
      </trkpt>
      <trkpt lat="50.09393" lon="3.79095">
        <ele>160</ele>
        <time>2018-06-24T10:28:10Z</time>
      </trkpt>
      <trkpt lat="50.0939" lon="3.79087">
        <ele>160</ele>
        <time>2018-06-24T10:28:11Z</time>
      </trkpt>
      <trkpt lat="50.09387" lon="3.79079">
        <ele>161</ele>
        <time>2018-06-24T10:28:12Z</time>
      </trkpt>
      <trkpt lat="50.09384" lon="3.79071">
        <ele>161</ele>
        <time>2018-06-24T10:28:13Z</time>
      </trkpt>
      <trkpt lat="50.09381" lon="3.79064">
        <ele>162</ele>
        <time>2018-06-24T10:28:14Z</time>
      </trkpt>
      <trkpt lat="50.09378" lon="3.79057">
        <ele>162</ele>
        <time>2018-06-24T10:28:15Z</time>
      </trkpt>
      <trkpt lat="50.09376" lon="3.7905">
        <ele>162</ele>
        <time>2018-06-24T10:28:16Z</time>
      </trkpt>
      <trkpt lat="50.09373" lon="3.79044">
        <ele>162</ele>
        <time>2018-06-24T10:28:17Z</time>
      </trkpt>
      <trkpt lat="50.09371" lon="3.79037">
        <ele>162</ele>
        <time>2018-06-24T10:28:18Z</time>
      </trkpt>
      <trkpt lat="50.09368" lon="3.79031">
        <ele>162</ele>
        <time>2018-06-24T10:28:19Z</time>
      </trkpt>
      <trkpt lat="50.09366" lon="3.79024">
        <ele>162</ele>
        <time>2018-06-24T10:28:20Z</time>
      </trkpt>
      <trkpt lat="50.09363" lon="3.79018">
        <ele>163</ele>
        <time>2018-06-24T10:28:21Z</time>
      </trkpt>
      <trkpt lat="50.09361" lon="3.79012">
        <ele>163</ele>
        <time>2018-06-24T10:28:22Z</time>
      </trkpt>
      <trkpt lat="50.09359" lon="3.79006">
        <ele>163</ele>
        <time>2018-06-24T10:28:23Z</time>
      </trkpt>
      <trkpt lat="50.09356" lon="3.79">
        <ele>164</ele>
        <time>2018-06-24T10:28:24Z</time>
      </trkpt>
      <trkpt lat="50.09353" lon="3.78995">
        <ele>164</ele>
        <time>2018-06-24T10:28:25Z</time>
      </trkpt>
      <trkpt lat="50.09351" lon="3.78988">
        <ele>164</ele>
        <time>2018-06-24T10:28:26Z</time>
      </trkpt>
      <trkpt lat="50.09348" lon="3.78983">
        <ele>164</ele>
        <time>2018-06-24T10:28:27Z</time>
      </trkpt>
      <trkpt lat="50.09346" lon="3.78977">
        <ele>164</ele>
        <time>2018-06-24T10:28:28Z</time>
      </trkpt>
      <trkpt lat="50.09343" lon="3.78972">
        <ele>164</ele>
        <time>2018-06-24T10:28:29Z</time>
      </trkpt>
      <trkpt lat="50.0934" lon="3.78966">
        <ele>164</ele>
        <time>2018-06-24T10:28:30Z</time>
      </trkpt>
      <trkpt lat="50.09337" lon="3.78961">
        <ele>164</ele>
        <time>2018-06-24T10:28:31Z</time>
      </trkpt>
      <trkpt lat="50.09334" lon="3.78955">
        <ele>164</ele>
        <time>2018-06-24T10:28:32Z</time>
      </trkpt>
      <trkpt lat="50.09331" lon="3.78949">
        <ele>166</ele>
        <time>2018-06-24T10:28:33Z</time>
      </trkpt>
      <trkpt lat="50.09329" lon="3.78943">
        <ele>166</ele>
        <time>2018-06-24T10:28:34Z</time>
      </trkpt>
      <trkpt lat="50.09325" lon="3.78938">
        <ele>166</ele>
        <time>2018-06-24T10:28:35Z</time>
      </trkpt>
      <trkpt lat="50.09321" lon="3.78934">
        <ele>166</ele>
        <time>2018-06-24T10:28:36Z</time>
      </trkpt>
      <trkpt lat="50.09317" lon="3.78928">
        <ele>166</ele>
        <time>2018-06-24T10:28:37Z</time>
      </trkpt>
      <trkpt lat="50.09313" lon="3.78924">
        <ele>166</ele>
        <time>2018-06-24T10:28:38Z</time>
      </trkpt>
      <trkpt lat="50.0931" lon="3.7892">
        <ele>166</ele>
        <time>2018-06-24T10:28:39Z</time>
      </trkpt>
      <trkpt lat="50.09307" lon="3.78915">
        <ele>166</ele>
        <time>2018-06-24T10:28:40Z</time>
      </trkpt>
      <trkpt lat="50.09303" lon="3.78911">
        <ele>167</ele>
        <time>2018-06-24T10:28:41Z</time>
      </trkpt>
      <trkpt lat="50.09299" lon="3.78909">
        <ele>167</ele>
        <time>2018-06-24T10:28:42Z</time>
      </trkpt>
      <trkpt lat="50.09295" lon="3.78907">
        <ele>167</ele>
        <time>2018-06-24T10:28:43Z</time>
      </trkpt>
      <trkpt lat="50.09291" lon="3.78904">
        <ele>167</ele>
        <time>2018-06-24T10:28:44Z</time>
      </trkpt>
      <trkpt lat="50.09287" lon="3.789">
        <ele>167</ele>
        <time>2018-06-24T10:28:45Z</time>
      </trkpt>
      <trkpt lat="50.09283" lon="3.78898">
        <ele>167</ele>
        <time>2018-06-24T10:28:46Z</time>
      </trkpt>
      <trkpt lat="50.09279" lon="3.78895">
        <ele>167</ele>
        <time>2018-06-24T10:28:47Z</time>
      </trkpt>
      <trkpt lat="50.09275" lon="3.78891">
        <ele>167</ele>
        <time>2018-06-24T10:28:48Z</time>
      </trkpt>
      <trkpt lat="50.09271" lon="3.78888">
        <ele>168</ele>
        <time>2018-06-24T10:28:49Z</time>
      </trkpt>
      <trkpt lat="50.09267" lon="3.78885">
        <ele>168</ele>
        <time>2018-06-24T10:28:50Z</time>
      </trkpt>
      <trkpt lat="50.09262" lon="3.78882">
        <ele>168</ele>
        <time>2018-06-24T10:28:51Z</time>
      </trkpt>
      <trkpt lat="50.09258" lon="3.78879">
        <ele>168</ele>
        <time>2018-06-24T10:28:52Z</time>
      </trkpt>
      <trkpt lat="50.09254" lon="3.78877">
        <ele>168</ele>
        <time>2018-06-24T10:28:53Z</time>
      </trkpt>
      <trkpt lat="50.0925" lon="3.78875">
        <ele>168</ele>
        <time>2018-06-24T10:28:54Z</time>
      </trkpt>
      <trkpt lat="50.09246" lon="3.78872">
        <ele>170</ele>
        <time>2018-06-24T10:28:55Z</time>
      </trkpt>
      <trkpt lat="50.09242" lon="3.78869">
        <ele>170</ele>
        <time>2018-06-24T10:28:56Z</time>
      </trkpt>
      <trkpt lat="50.09238" lon="3.78865">
        <ele>170</ele>
        <time>2018-06-24T10:28:57Z</time>
      </trkpt>
      <trkpt lat="50.09234" lon="3.78862">
        <ele>170</ele>
        <time>2018-06-24T10:28:58Z</time>
      </trkpt>
      <trkpt lat="50.09229" lon="3.78859">
        <ele>170</ele>
        <time>2018-06-24T10:28:59Z</time>
      </trkpt>
      <trkpt lat="50.09224" lon="3.78857">
        <ele>170</ele>
        <time>2018-06-24T10:29:00Z</time>
      </trkpt>
      <trkpt lat="50.0922" lon="3.78855">
        <ele>170</ele>
        <time>2018-06-24T10:29:01Z</time>
      </trkpt>
      <trkpt lat="50.09217" lon="3.78853">
        <ele>170</ele>
        <time>2018-06-24T10:29:02Z</time>
      </trkpt>
      <trkpt lat="50.09212" lon="3.78851">
        <ele>170</ele>
        <time>2018-06-24T10:29:03Z</time>
      </trkpt>
      <trkpt lat="50.09209" lon="3.7885">
        <ele>170</ele>
        <time>2018-06-24T10:29:04Z</time>
      </trkpt>
      <trkpt lat="50.09205" lon="3.7885">
        <ele>170</ele>
        <time>2018-06-24T10:29:05Z</time>
      </trkpt>
      <trkpt lat="50.092" lon="3.78849">
        <ele>170</ele>
        <time>2018-06-24T10:29:06Z</time>
      </trkpt>
      <trkpt lat="50.09196" lon="3.78849">
        <ele>170</ele>
        <time>2018-06-24T10:29:07Z</time>
      </trkpt>
      <trkpt lat="50.09193" lon="3.78848">
        <ele>170</ele>
        <time>2018-06-24T10:29:08Z</time>
      </trkpt>
      <trkpt lat="50.09189" lon="3.78846">
        <ele>170</ele>
        <time>2018-06-24T10:29:09Z</time>
      </trkpt>
      <trkpt lat="50.09185" lon="3.78844">
        <ele>170</ele>
        <time>2018-06-24T10:29:10Z</time>
      </trkpt>
      <trkpt lat="50.09181" lon="3.78844">
        <ele>170</ele>
        <time>2018-06-24T10:29:11Z</time>
      </trkpt>
      <trkpt lat="50.09178" lon="3.78842">
        <ele>171</ele>
        <time>2018-06-24T10:29:12Z</time>
      </trkpt>
      <trkpt lat="50.09175" lon="3.78841">
        <ele>171</ele>
        <time>2018-06-24T10:29:13Z</time>
      </trkpt>
      <trkpt lat="50.09171" lon="3.78841">
        <ele>171</ele>
        <time>2018-06-24T10:29:14Z</time>
      </trkpt>
      <trkpt lat="50.09167" lon="3.7884">
        <ele>171</ele>
        <time>2018-06-24T10:29:15Z</time>
      </trkpt>
      <trkpt lat="50.09163" lon="3.7884">
        <ele>171</ele>
        <time>2018-06-24T10:29:16Z</time>
      </trkpt>
      <trkpt lat="50.09159" lon="3.78839">
        <ele>171</ele>
        <time>2018-06-24T10:29:17Z</time>
      </trkpt>
      <trkpt lat="50.09155" lon="3.78838">
        <ele>171</ele>
        <time>2018-06-24T10:29:18Z</time>
      </trkpt>
      <trkpt lat="50.09149" lon="3.78838">
        <ele>172</ele>
        <time>2018-06-24T10:29:19Z</time>
      </trkpt>
      <trkpt lat="50.09145" lon="3.78837">
        <ele>172</ele>
        <time>2018-06-24T10:29:20Z</time>
      </trkpt>
      <trkpt lat="50.0914" lon="3.78836">
        <ele>172</ele>
        <time>2018-06-24T10:29:21Z</time>
      </trkpt>
      <trkpt lat="50.09135" lon="3.78836">
        <ele>172</ele>
        <time>2018-06-24T10:29:22Z</time>
      </trkpt>
      <trkpt lat="50.09131" lon="3.78835">
        <ele>172</ele>
        <time>2018-06-24T10:29:23Z</time>
      </trkpt>
      <trkpt lat="50.09128" lon="3.78834">
        <ele>172</ele>
        <time>2018-06-24T10:29:24Z</time>
      </trkpt>
      <trkpt lat="50.09124" lon="3.78832">
        <ele>172</ele>
        <time>2018-06-24T10:29:25Z</time>
      </trkpt>
      <trkpt lat="50.0912" lon="3.78831">
        <ele>172</ele>
        <time>2018-06-24T10:29:26Z</time>
      </trkpt>
      <trkpt lat="50.09115" lon="3.7883">
        <ele>172</ele>
        <time>2018-06-24T10:29:27Z</time>
      </trkpt>
      <trkpt lat="50.09111" lon="3.78829">
        <ele>172</ele>
        <time>2018-06-24T10:29:28Z</time>
      </trkpt>
      <trkpt lat="50.09106" lon="3.78828">
        <ele>172</ele>
        <time>2018-06-24T10:29:29Z</time>
      </trkpt>
      <trkpt lat="50.09102" lon="3.78827">
        <ele>173</ele>
        <time>2018-06-24T10:29:30Z</time>
      </trkpt>
      <trkpt lat="50.09098" lon="3.78827">
        <ele>173</ele>
        <time>2018-06-24T10:29:31Z</time>
      </trkpt>
      <trkpt lat="50.09093" lon="3.78826">
        <ele>173</ele>
        <time>2018-06-24T10:29:32Z</time>
      </trkpt>
      <trkpt lat="50.09089" lon="3.78826">
        <ele>173</ele>
        <time>2018-06-24T10:29:33Z</time>
      </trkpt>
      <trkpt lat="50.09084" lon="3.78826">
        <ele>173</ele>
        <time>2018-06-24T10:29:34Z</time>
      </trkpt>
      <trkpt lat="50.0908" lon="3.78825">
        <ele>174</ele>
        <time>2018-06-24T10:29:35Z</time>
      </trkpt>
      <trkpt lat="50.09074" lon="3.78825">
        <ele>174</ele>
        <time>2018-06-24T10:29:36Z</time>
      </trkpt>
      <trkpt lat="50.09069" lon="3.78823">
        <ele>174</ele>
        <time>2018-06-24T10:29:37Z</time>
      </trkpt>
      <trkpt lat="50.09064" lon="3.78823">
        <ele>174</ele>
        <time>2018-06-24T10:29:38Z</time>
      </trkpt>
      <trkpt lat="50.09059" lon="3.78822">
        <ele>174</ele>
        <time>2018-06-24T10:29:39Z</time>
      </trkpt>
      <trkpt lat="50.09054" lon="3.78821">
        <ele>174</ele>
        <time>2018-06-24T10:29:40Z</time>
      </trkpt>
      <trkpt lat="50.09049" lon="3.7882">
        <ele>174</ele>
        <time>2018-06-24T10:29:41Z</time>
      </trkpt>
      <trkpt lat="50.09044" lon="3.78819">
        <ele>174</ele>
        <time>2018-06-24T10:29:42Z</time>
      </trkpt>
      <trkpt lat="50.09039" lon="3.78819">
        <ele>175</ele>
        <time>2018-06-24T10:29:43Z</time>
      </trkpt>
      <trkpt lat="50.09035" lon="3.78818">
        <ele>175</ele>
        <time>2018-06-24T10:29:44Z</time>
      </trkpt>
      <trkpt lat="50.0903" lon="3.78817">
        <ele>175</ele>
        <time>2018-06-24T10:29:45Z</time>
      </trkpt>
      <trkpt lat="50.09026" lon="3.78817">
        <ele>175</ele>
        <time>2018-06-24T10:29:46Z</time>
      </trkpt>
      <trkpt lat="50.09021" lon="3.78816">
        <ele>175</ele>
        <time>2018-06-24T10:29:47Z</time>
      </trkpt>
      <trkpt lat="50.09016" lon="3.78816">
        <ele>175</ele>
        <time>2018-06-24T10:29:48Z</time>
      </trkpt>
      <trkpt lat="50.09012" lon="3.78815">
        <ele>175</ele>
        <time>2018-06-24T10:29:49Z</time>
      </trkpt>
      <trkpt lat="50.09008" lon="3.78814">
        <ele>175</ele>
        <time>2018-06-24T10:29:50Z</time>
      </trkpt>
      <trkpt lat="50.09003" lon="3.78812">
        <ele>175</ele>
        <time>2018-06-24T10:29:51Z</time>
      </trkpt>
      <trkpt lat="50.08998" lon="3.78812">
        <ele>176</ele>
        <time>2018-06-24T10:29:52Z</time>
      </trkpt>
      <trkpt lat="50.08993" lon="3.7881">
        <ele>176</ele>
        <time>2018-06-24T10:29:53Z</time>
      </trkpt>
      <trkpt lat="50.0899" lon="3.7881">
        <ele>176</ele>
        <time>2018-06-24T10:29:54Z</time>
      </trkpt>
      <trkpt lat="50.08985" lon="3.78808">
        <ele>176</ele>
        <time>2018-06-24T10:29:55Z</time>
      </trkpt>
      <trkpt lat="50.0898" lon="3.78807">
        <ele>176</ele>
        <time>2018-06-24T10:29:56Z</time>
      </trkpt>
      <trkpt lat="50.08976" lon="3.78806">
        <ele>176</ele>
        <time>2018-06-24T10:29:57Z</time>
      </trkpt>
      <trkpt lat="50.08971" lon="3.78804">
        <ele>176</ele>
        <time>2018-06-24T10:29:58Z</time>
      </trkpt>
      <trkpt lat="50.08966" lon="3.78802">
        <ele>176</ele>
        <time>2018-06-24T10:29:59Z</time>
      </trkpt>
      <trkpt lat="50.08961" lon="3.78801">
        <ele>176</ele>
        <time>2018-06-24T10:30:00Z</time>
      </trkpt>
      <trkpt lat="50.08956" lon="3.78799">
        <ele>176</ele>
        <time>2018-06-24T10:30:01Z</time>
      </trkpt>
      <trkpt lat="50.08952" lon="3.78797">
        <ele>176</ele>
        <time>2018-06-24T10:30:02Z</time>
      </trkpt>
      <trkpt lat="50.08948" lon="3.78794">
        <ele>177</ele>
        <time>2018-06-24T10:30:03Z</time>
      </trkpt>
      <trkpt lat="50.08945" lon="3.78791">
        <ele>177</ele>
        <time>2018-06-24T10:30:04Z</time>
      </trkpt>
      <trkpt lat="50.08942" lon="3.78788">
        <ele>177</ele>
        <time>2018-06-24T10:30:05Z</time>
      </trkpt>
      <trkpt lat="50.08937" lon="3.78783">
        <ele>177</ele>
        <time>2018-06-24T10:30:06Z</time>
      </trkpt>
      <trkpt lat="50.08933" lon="3.78779">
        <ele>177</ele>
        <time>2018-06-24T10:30:07Z</time>
      </trkpt>
      <trkpt lat="50.08929" lon="3.78774">
        <ele>177</ele>
        <time>2018-06-24T10:30:08Z</time>
      </trkpt>
      <trkpt lat="50.08926" lon="3.78768">
        <ele>177</ele>
        <time>2018-06-24T10:30:09Z</time>
      </trkpt>
      <trkpt lat="50.08922" lon="3.78762">
        <ele>177</ele>
        <time>2018-06-24T10:30:10Z</time>
      </trkpt>
      <trkpt lat="50.08918" lon="3.78757">
        <ele>178</ele>
        <time>2018-06-24T10:30:11Z</time>
      </trkpt>
      <trkpt lat="50.08913" lon="3.78752">
        <ele>178</ele>
        <time>2018-06-24T10:30:12Z</time>
      </trkpt>
      <trkpt lat="50.08909" lon="3.7875">
        <ele>178</ele>
        <time>2018-06-24T10:30:13Z</time>
      </trkpt>
      <trkpt lat="50.08905" lon="3.78745">
        <ele>179</ele>
        <time>2018-06-24T10:30:14Z</time>
      </trkpt>
      <trkpt lat="50.08901" lon="3.7874">
        <ele>179</ele>
        <time>2018-06-24T10:30:15Z</time>
      </trkpt>
      <trkpt lat="50.08897" lon="3.78737">
        <ele>180</ele>
        <time>2018-06-24T10:30:16Z</time>
      </trkpt>
      <trkpt lat="50.08892" lon="3.78733">
        <ele>180</ele>
        <time>2018-06-24T10:30:17Z</time>
      </trkpt>
      <trkpt lat="50.08888" lon="3.78727">
        <ele>180</ele>
        <time>2018-06-24T10:30:18Z</time>
      </trkpt>
      <trkpt lat="50.08883" lon="3.78723">
        <ele>180</ele>
        <time>2018-06-24T10:30:19Z</time>
      </trkpt>
      <trkpt lat="50.0888" lon="3.78718">
        <ele>180</ele>
        <time>2018-06-24T10:30:20Z</time>
      </trkpt>
      <trkpt lat="50.08876" lon="3.78714">
        <ele>180</ele>
        <time>2018-06-24T10:30:21Z</time>
      </trkpt>
      <trkpt lat="50.08872" lon="3.7871">
        <ele>181</ele>
        <time>2018-06-24T10:30:22Z</time>
      </trkpt>
      <trkpt lat="50.08868" lon="3.78707">
        <ele>181</ele>
        <time>2018-06-24T10:30:23Z</time>
      </trkpt>
      <trkpt lat="50.08865" lon="3.78702">
        <ele>181</ele>
        <time>2018-06-24T10:30:24Z</time>
      </trkpt>
      <trkpt lat="50.08862" lon="3.78698">
        <ele>181</ele>
        <time>2018-06-24T10:30:25Z</time>
      </trkpt>
      <trkpt lat="50.08859" lon="3.78695">
        <ele>181</ele>
        <time>2018-06-24T10:30:26Z</time>
      </trkpt>
      <trkpt lat="50.08856" lon="3.7869">
        <ele>181</ele>
        <time>2018-06-24T10:30:27Z</time>
      </trkpt>
      <trkpt lat="50.08853" lon="3.78687">
        <ele>181</ele>
        <time>2018-06-24T10:30:28Z</time>
      </trkpt>
      <trkpt lat="50.08849" lon="3.78683">
        <ele>182</ele>
        <time>2018-06-24T10:30:29Z</time>
      </trkpt>
      <trkpt lat="50.08846" lon="3.78677">
        <ele>182</ele>
        <time>2018-06-24T10:30:30Z</time>
      </trkpt>
      <trkpt lat="50.08842" lon="3.78673">
        <ele>182</ele>
        <time>2018-06-24T10:30:31Z</time>
      </trkpt>
      <trkpt lat="50.08838" lon="3.78667">
        <ele>183</ele>
        <time>2018-06-24T10:30:32Z</time>
      </trkpt>
      <trkpt lat="50.08835" lon="3.78663">
        <ele>183</ele>
        <time>2018-06-24T10:30:33Z</time>
      </trkpt>
      <trkpt lat="50.08831" lon="3.78658">
        <ele>183</ele>
        <time>2018-06-24T10:30:34Z</time>
      </trkpt>
      <trkpt lat="50.08827" lon="3.78655">
        <ele>184</ele>
        <time>2018-06-24T10:30:35Z</time>
      </trkpt>
      <trkpt lat="50.08822" lon="3.78651">
        <ele>184</ele>
        <time>2018-06-24T10:30:36Z</time>
      </trkpt>
      <trkpt lat="50.08817" lon="3.78649">
        <ele>184</ele>
        <time>2018-06-24T10:30:37Z</time>
      </trkpt>
      <trkpt lat="50.08813" lon="3.78646">
        <ele>184</ele>
        <time>2018-06-24T10:30:38Z</time>
      </trkpt>
      <trkpt lat="50.0881" lon="3.78643">
        <ele>184</ele>
        <time>2018-06-24T10:30:39Z</time>
      </trkpt>
      <trkpt lat="50.08807" lon="3.7864">
        <ele>184</ele>
        <time>2018-06-24T10:30:40Z</time>
      </trkpt>
      <trkpt lat="50.08803" lon="3.78636">
        <ele>184</ele>
        <time>2018-06-24T10:30:41Z</time>
      </trkpt>
      <trkpt lat="50.088" lon="3.78633">
        <ele>184</ele>
        <time>2018-06-24T10:30:42Z</time>
      </trkpt>
      <trkpt lat="50.08797" lon="3.7863">
        <ele>184</ele>
        <time>2018-06-24T10:30:43Z</time>
      </trkpt>
      <trkpt lat="50.08793" lon="3.78626">
        <ele>184</ele>
        <time>2018-06-24T10:30:44Z</time>
      </trkpt>
      <trkpt lat="50.0879" lon="3.78624">
        <ele>184</ele>
        <time>2018-06-24T10:30:45Z</time>
      </trkpt>
      <trkpt lat="50.08787" lon="3.7862">
        <ele>184</ele>
        <time>2018-06-24T10:30:46Z</time>
      </trkpt>
      <trkpt lat="50.08783" lon="3.78617">
        <ele>184</ele>
        <time>2018-06-24T10:30:47Z</time>
      </trkpt>
      <trkpt lat="50.0878" lon="3.78615">
        <ele>184</ele>
        <time>2018-06-24T10:30:48Z</time>
      </trkpt>
      <trkpt lat="50.08776" lon="3.78612">
        <ele>185</ele>
        <time>2018-06-24T10:30:49Z</time>
      </trkpt>
      <trkpt lat="50.08773" lon="3.78609">
        <ele>185</ele>
        <time>2018-06-24T10:30:50Z</time>
      </trkpt>
      <trkpt lat="50.08769" lon="3.78606">
        <ele>185</ele>
        <time>2018-06-24T10:30:51Z</time>
      </trkpt>
      <trkpt lat="50.08766" lon="3.78603">
        <ele>185</ele>
        <time>2018-06-24T10:30:52Z</time>
      </trkpt>
      <trkpt lat="50.08763" lon="3.786">
        <ele>185</ele>
        <time>2018-06-24T10:30:53Z</time>
      </trkpt>
      <trkpt lat="50.0876" lon="3.78596">
        <ele>185</ele>
        <time>2018-06-24T10:30:54Z</time>
      </trkpt>
      <trkpt lat="50.08756" lon="3.78593">
        <ele>185</ele>
        <time>2018-06-24T10:30:55Z</time>
      </trkpt>
      <trkpt lat="50.08753" lon="3.78589">
        <ele>186</ele>
        <time>2018-06-24T10:30:56Z</time>
      </trkpt>
      <trkpt lat="50.0875" lon="3.78585">
        <ele>186</ele>
        <time>2018-06-24T10:30:57Z</time>
      </trkpt>
      <trkpt lat="50.08746" lon="3.78581">
        <ele>186</ele>
        <time>2018-06-24T10:30:58Z</time>
      </trkpt>
      <trkpt lat="50.08743" lon="3.78578">
        <ele>187</ele>
        <time>2018-06-24T10:30:59Z</time>
      </trkpt>
      <trkpt lat="50.0874" lon="3.78575">
        <ele>187</ele>
        <time>2018-06-24T10:31:00Z</time>
      </trkpt>
      <trkpt lat="50.08736" lon="3.78572">
        <ele>187</ele>
        <time>2018-06-24T10:31:01Z</time>
      </trkpt>
      <trkpt lat="50.08733" lon="3.78569">
        <ele>187</ele>
        <time>2018-06-24T10:31:02Z</time>
      </trkpt>
      <trkpt lat="50.08729" lon="3.78566">
        <ele>187</ele>
        <time>2018-06-24T10:31:03Z</time>
      </trkpt>
      <trkpt lat="50.08726" lon="3.78563">
        <ele>187</ele>
        <time>2018-06-24T10:31:04Z</time>
      </trkpt>
      <trkpt lat="50.08722" lon="3.78559">
        <ele>188</ele>
        <time>2018-06-24T10:31:05Z</time>
      </trkpt>
      <trkpt lat="50.08718" lon="3.78555">
        <ele>188</ele>
        <time>2018-06-24T10:31:06Z</time>
      </trkpt>
      <trkpt lat="50.08714" lon="3.78551">
        <ele>188</ele>
        <time>2018-06-24T10:31:07Z</time>
      </trkpt>
      <trkpt lat="50.0871" lon="3.78546">
        <ele>188</ele>
        <time>2018-06-24T10:31:08Z</time>
      </trkpt>
      <trkpt lat="50.08705" lon="3.78541">
        <ele>188</ele>
        <time>2018-06-24T10:31:09Z</time>
      </trkpt>
      <trkpt lat="50.087" lon="3.78537">
        <ele>188</ele>
        <time>2018-06-24T10:31:10Z</time>
      </trkpt>
      <trkpt lat="50.08696" lon="3.78533">
        <ele>188</ele>
        <time>2018-06-24T10:31:11Z</time>
      </trkpt>
      <trkpt lat="50.08691" lon="3.78529">
        <ele>188</ele>
        <time>2018-06-24T10:31:12Z</time>
      </trkpt>
      <trkpt lat="50.08688" lon="3.78526">
        <ele>188</ele>
        <time>2018-06-24T10:31:13Z</time>
      </trkpt>
      <trkpt lat="50.08685" lon="3.78523">
        <ele>189</ele>
        <time>2018-06-24T10:31:14Z</time>
      </trkpt>
      <trkpt lat="50.08681" lon="3.7852">
        <ele>189</ele>
        <time>2018-06-24T10:31:15Z</time>
      </trkpt>
      <trkpt lat="50.08677" lon="3.78515">
        <ele>189</ele>
        <time>2018-06-24T10:31:16Z</time>
      </trkpt>
      <trkpt lat="50.08674" lon="3.78512">
        <ele>189</ele>
        <time>2018-06-24T10:31:17Z</time>
      </trkpt>
      <trkpt lat="50.0867" lon="3.78507">
        <ele>189</ele>
        <time>2018-06-24T10:31:18Z</time>
      </trkpt>
      <trkpt lat="50.08667" lon="3.78504">
        <ele>190</ele>
        <time>2018-06-24T10:31:19Z</time>
      </trkpt>
      <trkpt lat="50.08664" lon="3.78501">
        <ele>190</ele>
        <time>2018-06-24T10:31:20Z</time>
      </trkpt>
      <trkpt lat="50.08661" lon="3.78497">
        <ele>190</ele>
        <time>2018-06-24T10:31:21Z</time>
      </trkpt>
      <trkpt lat="50.08656" lon="3.78493">
        <ele>190</ele>
        <time>2018-06-24T10:31:22Z</time>
      </trkpt>
      <trkpt lat="50.08652" lon="3.7849">
        <ele>190</ele>
        <time>2018-06-24T10:31:23Z</time>
      </trkpt>
      <trkpt lat="50.08647" lon="3.78487">
        <ele>190</ele>
        <time>2018-06-24T10:31:24Z</time>
      </trkpt>
      <trkpt lat="50.08643" lon="3.78484">
        <ele>190</ele>
        <time>2018-06-24T10:31:25Z</time>
      </trkpt>
      <trkpt lat="50.0864" lon="3.78481">
        <ele>190</ele>
        <time>2018-06-24T10:31:26Z</time>
      </trkpt>
      <trkpt lat="50.08638" lon="3.78479">
        <ele>190</ele>
        <time>2018-06-24T10:31:27Z</time>
      </trkpt>
      <trkpt lat="50.08635" lon="3.78475">
        <ele>190</ele>
        <time>2018-06-24T10:31:28Z</time>
      </trkpt>
      <trkpt lat="50.08631" lon="3.78472">
        <ele>190</ele>
        <time>2018-06-24T10:31:29Z</time>
      </trkpt>
      <trkpt lat="50.08628" lon="3.78468">
        <ele>190</ele>
        <time>2018-06-24T10:31:30Z</time>
      </trkpt>
      <trkpt lat="50.08625" lon="3.78464">
        <ele>190</ele>
        <time>2018-06-24T10:31:31Z</time>
      </trkpt>
      <trkpt lat="50.08622" lon="3.78461">
        <ele>190</ele>
        <time>2018-06-24T10:31:32Z</time>
      </trkpt>
      <trkpt lat="50.08619" lon="3.78456">
        <ele>190</ele>
        <time>2018-06-24T10:31:33Z</time>
      </trkpt>
      <trkpt lat="50.08616" lon="3.78453">
        <ele>190</ele>
        <time>2018-06-24T10:31:34Z</time>
      </trkpt>
      <trkpt lat="50.08614" lon="3.78449">
        <ele>190</ele>
        <time>2018-06-24T10:31:35Z</time>
      </trkpt>
      <trkpt lat="50.08611" lon="3.78444">
        <ele>190</ele>
        <time>2018-06-24T10:31:36Z</time>
      </trkpt>
      <trkpt lat="50.08607" lon="3.7844">
        <ele>190</ele>
        <time>2018-06-24T10:31:37Z</time>
      </trkpt>
      <trkpt lat="50.08603" lon="3.78435">
        <ele>190</ele>
        <time>2018-06-24T10:31:38Z</time>
      </trkpt>
      <trkpt lat="50.08599" lon="3.78432">
        <ele>190</ele>
        <time>2018-06-24T10:31:39Z</time>
      </trkpt>
      <trkpt lat="50.08594" lon="3.78427">
        <ele>190</ele>
        <time>2018-06-24T10:31:40Z</time>
      </trkpt>
      <trkpt lat="50.0859" lon="3.78424">
        <ele>190</ele>
        <time>2018-06-24T10:31:41Z</time>
      </trkpt>
      <trkpt lat="50.08587" lon="3.78421">
        <ele>190</ele>
        <time>2018-06-24T10:31:42Z</time>
      </trkpt>
      <trkpt lat="50.08583" lon="3.78419">
        <ele>190</ele>
        <time>2018-06-24T10:31:43Z</time>
      </trkpt>
      <trkpt lat="50.08579" lon="3.78415">
        <ele>190</ele>
        <time>2018-06-24T10:31:44Z</time>
      </trkpt>
      <trkpt lat="50.08574" lon="3.78411">
        <ele>190</ele>
        <time>2018-06-24T10:31:45Z</time>
      </trkpt>
      <trkpt lat="50.0857" lon="3.78406">
        <ele>190</ele>
        <time>2018-06-24T10:31:46Z</time>
      </trkpt>
      <trkpt lat="50.08566" lon="3.78401">
        <ele>190</ele>
        <time>2018-06-24T10:31:47Z</time>
      </trkpt>
      <trkpt lat="50.08561" lon="3.78397">
        <ele>191</ele>
        <time>2018-06-24T10:31:48Z</time>
      </trkpt>
      <trkpt lat="50.08558" lon="3.78394">
        <ele>191</ele>
        <time>2018-06-24T10:31:49Z</time>
      </trkpt>
      <trkpt lat="50.08553" lon="3.7839">
        <ele>191</ele>
        <time>2018-06-24T10:31:50Z</time>
      </trkpt>
      <trkpt lat="50.08549" lon="3.78387">
        <ele>191</ele>
        <time>2018-06-24T10:31:51Z</time>
      </trkpt>
      <trkpt lat="50.08546" lon="3.78382">
        <ele>191</ele>
        <time>2018-06-24T10:31:52Z</time>
      </trkpt>
      <trkpt lat="50.08542" lon="3.7838">
        <ele>191</ele>
        <time>2018-06-24T10:31:53Z</time>
      </trkpt>
      <trkpt lat="50.08537" lon="3.78375">
        <ele>191</ele>
        <time>2018-06-24T10:31:54Z</time>
      </trkpt>
      <trkpt lat="50.08533" lon="3.7837">
        <ele>191</ele>
        <time>2018-06-24T10:31:55Z</time>
      </trkpt>
      <trkpt lat="50.08529" lon="3.78366">
        <ele>191</ele>
        <time>2018-06-24T10:31:56Z</time>
      </trkpt>
      <trkpt lat="50.08525" lon="3.78361">
        <ele>191</ele>
        <time>2018-06-24T10:31:57Z</time>
      </trkpt>
      <trkpt lat="50.08521" lon="3.78356">
        <ele>191</ele>
        <time>2018-06-24T10:31:58Z</time>
      </trkpt>
      <trkpt lat="50.08517" lon="3.78352">
        <ele>191</ele>
        <time>2018-06-24T10:31:59Z</time>
      </trkpt>
      <trkpt lat="50.08513" lon="3.78349">
        <ele>191</ele>
        <time>2018-06-24T10:32:00Z</time>
      </trkpt>
      <trkpt lat="50.08509" lon="3.78346">
        <ele>191</ele>
        <time>2018-06-24T10:32:01Z</time>
      </trkpt>
      <trkpt lat="50.08504" lon="3.7834">
        <ele>192</ele>
        <time>2018-06-24T10:32:02Z</time>
      </trkpt>
      <trkpt lat="50.085" lon="3.78335">
        <ele>192</ele>
        <time>2018-06-24T10:32:03Z</time>
      </trkpt>
      <trkpt lat="50.08495" lon="3.78332">
        <ele>192</ele>
        <time>2018-06-24T10:32:04Z</time>
      </trkpt>
      <trkpt lat="50.08491" lon="3.78329">
        <ele>193</ele>
        <time>2018-06-24T10:32:05Z</time>
      </trkpt>
      <trkpt lat="50.08487" lon="3.78324">
        <ele>193</ele>
        <time>2018-06-24T10:32:06Z</time>
      </trkpt>
      <trkpt lat="50.08483" lon="3.78319">
        <ele>193</ele>
        <time>2018-06-24T10:32:07Z</time>
      </trkpt>
      <trkpt lat="50.0848" lon="3.78316">
        <ele>193</ele>
        <time>2018-06-24T10:32:08Z</time>
      </trkpt>
      <trkpt lat="50.08476" lon="3.78313">
        <ele>193</ele>
        <time>2018-06-24T10:32:09Z</time>
      </trkpt>
      <trkpt lat="50.08473" lon="3.7831">
        <ele>193</ele>
        <time>2018-06-24T10:32:10Z</time>
      </trkpt>
      <trkpt lat="50.0847" lon="3.78307">
        <ele>193</ele>
        <time>2018-06-24T10:32:11Z</time>
      </trkpt>
      <trkpt lat="50.08466" lon="3.78303">
        <ele>193</ele>
        <time>2018-06-24T10:32:12Z</time>
      </trkpt>
      <trkpt lat="50.08464" lon="3.78301">
        <ele>193</ele>
        <time>2018-06-24T10:32:13Z</time>
      </trkpt>
      <trkpt lat="50.08461" lon="3.78295">
        <ele>193</ele>
        <time>2018-06-24T10:32:15Z</time>
      </trkpt>
      <trkpt lat="50.08461" lon="3.7829">
        <ele>193</ele>
        <time>2018-06-24T10:32:21Z</time>
      </trkpt>
      <trkpt lat="50.0846" lon="3.78284">
        <ele>194</ele>
        <time>2018-06-24T10:32:23Z</time>
      </trkpt>
      <trkpt lat="50.08459" lon="3.78279">
        <ele>194</ele>
        <time>2018-06-24T10:32:24Z</time>
      </trkpt>
      <trkpt lat="50.08459" lon="3.78273">
        <ele>194</ele>
        <time>2018-06-24T10:32:25Z</time>
      </trkpt>
      <trkpt lat="50.08458" lon="3.78265">
        <ele>194</ele>
        <time>2018-06-24T10:32:26Z</time>
      </trkpt>
      <trkpt lat="50.08457" lon="3.78258">
        <ele>194</ele>
        <time>2018-06-24T10:32:27Z</time>
      </trkpt>
      <trkpt lat="50.08457" lon="3.7825">
        <ele>194</ele>
        <time>2018-06-24T10:32:28Z</time>
      </trkpt>
      <trkpt lat="50.08457" lon="3.78241">
        <ele>194</ele>
        <time>2018-06-24T10:32:29Z</time>
      </trkpt>
      <trkpt lat="50.08457" lon="3.78232">
        <ele>194</ele>
        <time>2018-06-24T10:32:30Z</time>
      </trkpt>
      <trkpt lat="50.08457" lon="3.78222">
        <ele>194</ele>
        <time>2018-06-24T10:32:31Z</time>
      </trkpt>
      <trkpt lat="50.08456" lon="3.78212">
        <ele>194</ele>
        <time>2018-06-24T10:32:32Z</time>
      </trkpt>
      <trkpt lat="50.08455" lon="3.78205">
        <ele>194</ele>
        <time>2018-06-24T10:32:33Z</time>
      </trkpt>
      <trkpt lat="50.08453" lon="3.78197">
        <ele>194</ele>
        <time>2018-06-24T10:32:34Z</time>
      </trkpt>
      <trkpt lat="50.08453" lon="3.78189">
        <ele>194</ele>
        <time>2018-06-24T10:32:35Z</time>
      </trkpt>
      <trkpt lat="50.08452" lon="3.7818">
        <ele>194</ele>
        <time>2018-06-24T10:32:36Z</time>
      </trkpt>
      <trkpt lat="50.08451" lon="3.78172">
        <ele>195</ele>
        <time>2018-06-24T10:32:37Z</time>
      </trkpt>
      <trkpt lat="50.0845" lon="3.78164">
        <ele>195</ele>
        <time>2018-06-24T10:32:38Z</time>
      </trkpt>
      <trkpt lat="50.08449" lon="3.78156">
        <ele>195</ele>
        <time>2018-06-24T10:32:39Z</time>
      </trkpt>
      <trkpt lat="50.08449" lon="3.78149">
        <ele>195</ele>
        <time>2018-06-24T10:32:40Z</time>
      </trkpt>
      <trkpt lat="50.08448" lon="3.7814">
        <ele>194</ele>
        <time>2018-06-24T10:32:41Z</time>
      </trkpt>
      <trkpt lat="50.08447" lon="3.78132">
        <ele>194</ele>
        <time>2018-06-24T10:32:42Z</time>
      </trkpt>
      <trkpt lat="50.08446" lon="3.78123">
        <ele>194</ele>
        <time>2018-06-24T10:32:43Z</time>
      </trkpt>
      <trkpt lat="50.08445" lon="3.78113">
        <ele>194</ele>
        <time>2018-06-24T10:32:44Z</time>
      </trkpt>
      <trkpt lat="50.08444" lon="3.78104">
        <ele>194</ele>
        <time>2018-06-24T10:32:45Z</time>
      </trkpt>
      <trkpt lat="50.08443" lon="3.78096">
        <ele>194</ele>
        <time>2018-06-24T10:32:46Z</time>
      </trkpt>
      <trkpt lat="50.08442" lon="3.78087">
        <ele>194</ele>
        <time>2018-06-24T10:32:47Z</time>
      </trkpt>
      <trkpt lat="50.08441" lon="3.78079">
        <ele>194</ele>
        <time>2018-06-24T10:32:48Z</time>
      </trkpt>
      <trkpt lat="50.08439" lon="3.7807">
        <ele>194</ele>
        <time>2018-06-24T10:32:49Z</time>
      </trkpt>
      <trkpt lat="50.08437" lon="3.78061">
        <ele>194</ele>
        <time>2018-06-24T10:32:50Z</time>
      </trkpt>
      <trkpt lat="50.08436" lon="3.78051">
        <ele>194</ele>
        <time>2018-06-24T10:32:51Z</time>
      </trkpt>
      <trkpt lat="50.08434" lon="3.7804">
        <ele>194</ele>
        <time>2018-06-24T10:32:52Z</time>
      </trkpt>
      <trkpt lat="50.08432" lon="3.7803">
        <ele>194</ele>
        <time>2018-06-24T10:32:53Z</time>
      </trkpt>
      <trkpt lat="50.0843" lon="3.7802">
        <ele>194</ele>
        <time>2018-06-24T10:32:54Z</time>
      </trkpt>
      <trkpt lat="50.08427" lon="3.7801">
        <ele>194</ele>
        <time>2018-06-24T10:32:55Z</time>
      </trkpt>
      <trkpt lat="50.08425" lon="3.78">
        <ele>194</ele>
        <time>2018-06-24T10:32:56Z</time>
      </trkpt>
      <trkpt lat="50.08423" lon="3.7799">
        <ele>194</ele>
        <time>2018-06-24T10:32:57Z</time>
      </trkpt>
      <trkpt lat="50.08421" lon="3.7798">
        <ele>194</ele>
        <time>2018-06-24T10:32:58Z</time>
      </trkpt>
      <trkpt lat="50.08419" lon="3.77971">
        <ele>194</ele>
        <time>2018-06-24T10:32:59Z</time>
      </trkpt>
      <trkpt lat="50.08417" lon="3.77961">
        <ele>194</ele>
        <time>2018-06-24T10:33:00Z</time>
      </trkpt>
      <trkpt lat="50.08415" lon="3.77951">
        <ele>194</ele>
        <time>2018-06-24T10:33:01Z</time>
      </trkpt>
      <trkpt lat="50.08412" lon="3.77941">
        <ele>194</ele>
        <time>2018-06-24T10:33:02Z</time>
      </trkpt>
      <trkpt lat="50.0841" lon="3.77932">
        <ele>194</ele>
        <time>2018-06-24T10:33:03Z</time>
      </trkpt>
      <trkpt lat="50.08408" lon="3.77922">
        <ele>194</ele>
        <time>2018-06-24T10:33:04Z</time>
      </trkpt>
      <trkpt lat="50.08405" lon="3.77913">
        <ele>194</ele>
        <time>2018-06-24T10:33:05Z</time>
      </trkpt>
      <trkpt lat="50.08403" lon="3.77903">
        <ele>194</ele>
        <time>2018-06-24T10:33:06Z</time>
      </trkpt>
      <trkpt lat="50.084" lon="3.77893">
        <ele>194</ele>
        <time>2018-06-24T10:33:07Z</time>
      </trkpt>
      <trkpt lat="50.08398" lon="3.77881">
        <ele>193</ele>
        <time>2018-06-24T10:33:08Z</time>
      </trkpt>
      <trkpt lat="50.08395" lon="3.7787">
        <ele>193</ele>
        <time>2018-06-24T10:33:09Z</time>
      </trkpt>
      <trkpt lat="50.08392" lon="3.77859">
        <ele>193</ele>
        <time>2018-06-24T10:33:10Z</time>
      </trkpt>
      <trkpt lat="50.08389" lon="3.77849">
        <ele>193</ele>
        <time>2018-06-24T10:33:11Z</time>
      </trkpt>
      <trkpt lat="50.08387" lon="3.77837">
        <ele>193</ele>
        <time>2018-06-24T10:33:12Z</time>
      </trkpt>
      <trkpt lat="50.08385" lon="3.77826">
        <ele>193</ele>
        <time>2018-06-24T10:33:13Z</time>
      </trkpt>
      <trkpt lat="50.08382" lon="3.77816">
        <ele>193</ele>
        <time>2018-06-24T10:33:14Z</time>
      </trkpt>
      <trkpt lat="50.08379" lon="3.77805">
        <ele>193</ele>
        <time>2018-06-24T10:33:15Z</time>
      </trkpt>
      <trkpt lat="50.08376" lon="3.77794">
        <ele>193</ele>
        <time>2018-06-24T10:33:16Z</time>
      </trkpt>
      <trkpt lat="50.08374" lon="3.77783">
        <ele>192</ele>
        <time>2018-06-24T10:33:17Z</time>
      </trkpt>
      <trkpt lat="50.08371" lon="3.77773">
        <ele>192</ele>
        <time>2018-06-24T10:33:18Z</time>
      </trkpt>
      <trkpt lat="50.08368" lon="3.77762">
        <ele>192</ele>
        <time>2018-06-24T10:33:19Z</time>
      </trkpt>
      <trkpt lat="50.08366" lon="3.77751">
        <ele>192</ele>
        <time>2018-06-24T10:33:20Z</time>
      </trkpt>
      <trkpt lat="50.08363" lon="3.7774">
        <ele>192</ele>
        <time>2018-06-24T10:33:21Z</time>
      </trkpt>
      <trkpt lat="50.0836" lon="3.77729">
        <ele>192</ele>
        <time>2018-06-24T10:33:22Z</time>
      </trkpt>
      <trkpt lat="50.08359" lon="3.77719">
        <ele>192</ele>
        <time>2018-06-24T10:33:23Z</time>
      </trkpt>
      <trkpt lat="50.08356" lon="3.77709">
        <ele>191</ele>
        <time>2018-06-24T10:33:24Z</time>
      </trkpt>
      <trkpt lat="50.08354" lon="3.77699">
        <ele>191</ele>
        <time>2018-06-24T10:33:25Z</time>
      </trkpt>
      <trkpt lat="50.08351" lon="3.77688">
        <ele>191</ele>
        <time>2018-06-24T10:33:26Z</time>
      </trkpt>
      <trkpt lat="50.08349" lon="3.77678">
        <ele>191</ele>
        <time>2018-06-24T10:33:27Z</time>
      </trkpt>
      <trkpt lat="50.08345" lon="3.77668">
        <ele>191</ele>
        <time>2018-06-24T10:33:28Z</time>
      </trkpt>
      <trkpt lat="50.08342" lon="3.77658">
        <ele>190</ele>
        <time>2018-06-24T10:33:29Z</time>
      </trkpt>
      <trkpt lat="50.08339" lon="3.77648">
        <ele>191</ele>
        <time>2018-06-24T10:33:30Z</time>
      </trkpt>
      <trkpt lat="50.08336" lon="3.77639">
        <ele>191</ele>
        <time>2018-06-24T10:33:31Z</time>
      </trkpt>
      <trkpt lat="50.08331" lon="3.77629">
        <ele>190</ele>
        <time>2018-06-24T10:33:32Z</time>
      </trkpt>
      <trkpt lat="50.08327" lon="3.7762">
        <ele>190</ele>
        <time>2018-06-24T10:33:33Z</time>
      </trkpt>
      <trkpt lat="50.08323" lon="3.7761">
        <ele>190</ele>
        <time>2018-06-24T10:33:34Z</time>
      </trkpt>
      <trkpt lat="50.08319" lon="3.77601">
        <ele>190</ele>
        <time>2018-06-24T10:33:35Z</time>
      </trkpt>
      <trkpt lat="50.08314" lon="3.77591">
        <ele>190</ele>
        <time>2018-06-24T10:33:36Z</time>
      </trkpt>
      <trkpt lat="50.0831" lon="3.77582">
        <ele>190</ele>
        <time>2018-06-24T10:33:37Z</time>
      </trkpt>
      <trkpt lat="50.08305" lon="3.77573">
        <ele>190</ele>
        <time>2018-06-24T10:33:38Z</time>
      </trkpt>
      <trkpt lat="50.08301" lon="3.77563">
        <ele>190</ele>
        <time>2018-06-24T10:33:39Z</time>
      </trkpt>
      <trkpt lat="50.08296" lon="3.77554">
        <ele>190</ele>
        <time>2018-06-24T10:33:40Z</time>
      </trkpt>
      <trkpt lat="50.08292" lon="3.77544">
        <ele>191</ele>
        <time>2018-06-24T10:33:41Z</time>
      </trkpt>
      <trkpt lat="50.08287" lon="3.77535">
        <ele>191</ele>
        <time>2018-06-24T10:33:42Z</time>
      </trkpt>
      <trkpt lat="50.08283" lon="3.77525">
        <ele>191</ele>
        <time>2018-06-24T10:33:43Z</time>
      </trkpt>
      <trkpt lat="50.08278" lon="3.77515">
        <ele>191</ele>
        <time>2018-06-24T10:33:44Z</time>
      </trkpt>
      <trkpt lat="50.08274" lon="3.77505">
        <ele>191</ele>
        <time>2018-06-24T10:33:45Z</time>
      </trkpt>
      <trkpt lat="50.08269" lon="3.77496">
        <ele>191</ele>
        <time>2018-06-24T10:33:46Z</time>
      </trkpt>
      <trkpt lat="50.08265" lon="3.77486">
        <ele>191</ele>
        <time>2018-06-24T10:33:47Z</time>
      </trkpt>
      <trkpt lat="50.08261" lon="3.77476">
        <ele>190</ele>
        <time>2018-06-24T10:33:48Z</time>
      </trkpt>
      <trkpt lat="50.08256" lon="3.77466">
        <ele>190</ele>
        <time>2018-06-24T10:33:49Z</time>
      </trkpt>
      <trkpt lat="50.08252" lon="3.77457">
        <ele>190</ele>
        <time>2018-06-24T10:33:50Z</time>
      </trkpt>
      <trkpt lat="50.08248" lon="3.77446">
        <ele>191</ele>
        <time>2018-06-24T10:33:51Z</time>
      </trkpt>
      <trkpt lat="50.08244" lon="3.77436">
        <ele>191</ele>
        <time>2018-06-24T10:33:52Z</time>
      </trkpt>
      <trkpt lat="50.08239" lon="3.77427">
        <ele>190</ele>
        <time>2018-06-24T10:33:53Z</time>
      </trkpt>
      <trkpt lat="50.08235" lon="3.77417">
        <ele>190</ele>
        <time>2018-06-24T10:33:54Z</time>
      </trkpt>
      <trkpt lat="50.08231" lon="3.77407">
        <ele>191</ele>
        <time>2018-06-24T10:33:55Z</time>
      </trkpt>
      <trkpt lat="50.08227" lon="3.77398">
        <ele>191</ele>
        <time>2018-06-24T10:33:56Z</time>
      </trkpt>
      <trkpt lat="50.08223" lon="3.77388">
        <ele>191</ele>
        <time>2018-06-24T10:33:57Z</time>
      </trkpt>
      <trkpt lat="50.08218" lon="3.77379">
        <ele>191</ele>
        <time>2018-06-24T10:33:58Z</time>
      </trkpt>
      <trkpt lat="50.08214" lon="3.7737">
        <ele>191</ele>
        <time>2018-06-24T10:33:59Z</time>
      </trkpt>
      <trkpt lat="50.0821" lon="3.7736">
        <ele>191</ele>
        <time>2018-06-24T10:34:00Z</time>
      </trkpt>
      <trkpt lat="50.08206" lon="3.77351">
        <ele>191</ele>
        <time>2018-06-24T10:34:01Z</time>
      </trkpt>
      <trkpt lat="50.08201" lon="3.77342">
        <ele>191</ele>
        <time>2018-06-24T10:34:02Z</time>
      </trkpt>
      <trkpt lat="50.08197" lon="3.77332">
        <ele>191</ele>
        <time>2018-06-24T10:34:03Z</time>
      </trkpt>
      <trkpt lat="50.08193" lon="3.77323">
        <ele>191</ele>
        <time>2018-06-24T10:34:04Z</time>
      </trkpt>
      <trkpt lat="50.08189" lon="3.77314">
        <ele>191</ele>
        <time>2018-06-24T10:34:05Z</time>
      </trkpt>
      <trkpt lat="50.08185" lon="3.77305">
        <ele>191</ele>
        <time>2018-06-24T10:34:06Z</time>
      </trkpt>
      <trkpt lat="50.0818" lon="3.77296">
        <ele>191</ele>
        <time>2018-06-24T10:34:07Z</time>
      </trkpt>
      <trkpt lat="50.08176" lon="3.77287">
        <ele>190</ele>
        <time>2018-06-24T10:34:08Z</time>
      </trkpt>
      <trkpt lat="50.08171" lon="3.77278">
        <ele>190</ele>
        <time>2018-06-24T10:34:09Z</time>
      </trkpt>
      <trkpt lat="50.08167" lon="3.77269">
        <ele>191</ele>
        <time>2018-06-24T10:34:10Z</time>
      </trkpt>
      <trkpt lat="50.08162" lon="3.77261">
        <ele>190</ele>
        <time>2018-06-24T10:34:11Z</time>
      </trkpt>
      <trkpt lat="50.08158" lon="3.77252">
        <ele>190</ele>
        <time>2018-06-24T10:34:12Z</time>
      </trkpt>
      <trkpt lat="50.08153" lon="3.77243">
        <ele>190</ele>
        <time>2018-06-24T10:34:13Z</time>
      </trkpt>
      <trkpt lat="50.08148" lon="3.77235">
        <ele>190</ele>
        <time>2018-06-24T10:34:14Z</time>
      </trkpt>
      <trkpt lat="50.08143" lon="3.77226">
        <ele>189</ele>
        <time>2018-06-24T10:34:15Z</time>
      </trkpt>
      <trkpt lat="50.08139" lon="3.77218">
        <ele>189</ele>
        <time>2018-06-24T10:34:16Z</time>
      </trkpt>
      <trkpt lat="50.08134" lon="3.7721">
        <ele>189</ele>
        <time>2018-06-24T10:34:17Z</time>
      </trkpt>
      <trkpt lat="50.08129" lon="3.77202">
        <ele>189</ele>
        <time>2018-06-24T10:34:18Z</time>
      </trkpt>
      <trkpt lat="50.08124" lon="3.77194">
        <ele>189</ele>
        <time>2018-06-24T10:34:19Z</time>
      </trkpt>
      <trkpt lat="50.08119" lon="3.77186">
        <ele>189</ele>
        <time>2018-06-24T10:34:20Z</time>
      </trkpt>
      <trkpt lat="50.08114" lon="3.77178">
        <ele>189</ele>
        <time>2018-06-24T10:34:21Z</time>
      </trkpt>
      <trkpt lat="50.08109" lon="3.77171">
        <ele>189</ele>
        <time>2018-06-24T10:34:22Z</time>
      </trkpt>
      <trkpt lat="50.08103" lon="3.77163">
        <ele>188</ele>
        <time>2018-06-24T10:34:23Z</time>
      </trkpt>
      <trkpt lat="50.08098" lon="3.77155">
        <ele>188</ele>
        <time>2018-06-24T10:34:24Z</time>
      </trkpt>
      <trkpt lat="50.08092" lon="3.77146">
        <ele>188</ele>
        <time>2018-06-24T10:34:25Z</time>
      </trkpt>
      <trkpt lat="50.08087" lon="3.77138">
        <ele>188</ele>
        <time>2018-06-24T10:34:26Z</time>
      </trkpt>
      <trkpt lat="50.08081" lon="3.7713">
        <ele>187</ele>
        <time>2018-06-24T10:34:27Z</time>
      </trkpt>
      <trkpt lat="50.08076" lon="3.77122">
        <ele>187</ele>
        <time>2018-06-24T10:34:28Z</time>
      </trkpt>
      <trkpt lat="50.08071" lon="3.77113">
        <ele>187</ele>
        <time>2018-06-24T10:34:29Z</time>
      </trkpt>
      <trkpt lat="50.08065" lon="3.77105">
        <ele>187</ele>
        <time>2018-06-24T10:34:30Z</time>
      </trkpt>
      <trkpt lat="50.0806" lon="3.77096">
        <ele>187</ele>
        <time>2018-06-24T10:34:31Z</time>
      </trkpt>
      <trkpt lat="50.08054" lon="3.77088">
        <ele>187</ele>
        <time>2018-06-24T10:34:32Z</time>
      </trkpt>
      <trkpt lat="50.08049" lon="3.77079">
        <ele>185</ele>
        <time>2018-06-24T10:34:33Z</time>
      </trkpt>
      <trkpt lat="50.08043" lon="3.7707">
        <ele>185</ele>
        <time>2018-06-24T10:34:34Z</time>
      </trkpt>
      <trkpt lat="50.08037" lon="3.77061">
        <ele>185</ele>
        <time>2018-06-24T10:34:35Z</time>
      </trkpt>
      <trkpt lat="50.08031" lon="3.77052">
        <ele>185</ele>
        <time>2018-06-24T10:34:36Z</time>
      </trkpt>
      <trkpt lat="50.08025" lon="3.77042">
        <ele>185</ele>
        <time>2018-06-24T10:34:37Z</time>
      </trkpt>
      <trkpt lat="50.08019" lon="3.77033">
        <ele>185</ele>
        <time>2018-06-24T10:34:38Z</time>
      </trkpt>
      <trkpt lat="50.08012" lon="3.77024">
        <ele>185</ele>
        <time>2018-06-24T10:34:39Z</time>
      </trkpt>
      <trkpt lat="50.08005" lon="3.77015">
        <ele>184</ele>
        <time>2018-06-24T10:34:40Z</time>
      </trkpt>
      <trkpt lat="50.07998" lon="3.77006">
        <ele>184</ele>
        <time>2018-06-24T10:34:41Z</time>
      </trkpt>
      <trkpt lat="50.07992" lon="3.76997">
        <ele>184</ele>
        <time>2018-06-24T10:34:42Z</time>
      </trkpt>
      <trkpt lat="50.07984" lon="3.76988">
        <ele>183</ele>
        <time>2018-06-24T10:34:43Z</time>
      </trkpt>
      <trkpt lat="50.07977" lon="3.7698">
        <ele>183</ele>
        <time>2018-06-24T10:34:44Z</time>
      </trkpt>
      <trkpt lat="50.0797" lon="3.76972">
        <ele>183</ele>
        <time>2018-06-24T10:34:45Z</time>
      </trkpt>
      <trkpt lat="50.07962" lon="3.76963">
        <ele>183</ele>
        <time>2018-06-24T10:34:46Z</time>
      </trkpt>
      <trkpt lat="50.07955" lon="3.76955">
        <ele>182</ele>
        <time>2018-06-24T10:34:47Z</time>
      </trkpt>
      <trkpt lat="50.07948" lon="3.76946">
        <ele>182</ele>
        <time>2018-06-24T10:34:48Z</time>
      </trkpt>
      <trkpt lat="50.07941" lon="3.76938">
        <ele>182</ele>
        <time>2018-06-24T10:34:49Z</time>
      </trkpt>
      <trkpt lat="50.07934" lon="3.7693">
        <ele>182</ele>
        <time>2018-06-24T10:34:50Z</time>
      </trkpt>
      <trkpt lat="50.07926" lon="3.76922">
        <ele>182</ele>
        <time>2018-06-24T10:34:51Z</time>
      </trkpt>
      <trkpt lat="50.07919" lon="3.76914">
        <ele>181</ele>
        <time>2018-06-24T10:34:52Z</time>
      </trkpt>
      <trkpt lat="50.07911" lon="3.76905">
        <ele>180</ele>
        <time>2018-06-24T10:34:53Z</time>
      </trkpt>
      <trkpt lat="50.07904" lon="3.76897">
        <ele>180</ele>
        <time>2018-06-24T10:34:54Z</time>
      </trkpt>
      <trkpt lat="50.07896" lon="3.76888">
        <ele>179</ele>
        <time>2018-06-24T10:34:55Z</time>
      </trkpt>
      <trkpt lat="50.07888" lon="3.76879">
        <ele>179</ele>
        <time>2018-06-24T10:34:56Z</time>
      </trkpt>
      <trkpt lat="50.07881" lon="3.76871">
        <ele>179</ele>
        <time>2018-06-24T10:34:57Z</time>
      </trkpt>
      <trkpt lat="50.07874" lon="3.76864">
        <ele>179</ele>
        <time>2018-06-24T10:34:58Z</time>
      </trkpt>
      <trkpt lat="50.07868" lon="3.76858">
        <ele>179</ele>
        <time>2018-06-24T10:34:59Z</time>
      </trkpt>
      <trkpt lat="50.07862" lon="3.7685">
        <ele>178</ele>
        <time>2018-06-24T10:35:00Z</time>
      </trkpt>
      <trkpt lat="50.07859" lon="3.76839">
        <ele>178</ele>
        <time>2018-06-24T10:35:01Z</time>
      </trkpt>
      <trkpt lat="50.07861" lon="3.76826">
        <ele>177</ele>
        <time>2018-06-24T10:35:02Z</time>
      </trkpt>
      <trkpt lat="50.07864" lon="3.76814">
        <ele>177</ele>
        <time>2018-06-24T10:35:03Z</time>
      </trkpt>
      <trkpt lat="50.07869" lon="3.76804">
        <ele>177</ele>
        <time>2018-06-24T10:35:04Z</time>
      </trkpt>
      <trkpt lat="50.07875" lon="3.76795">
        <ele>177</ele>
        <time>2018-06-24T10:35:05Z</time>
      </trkpt>
      <trkpt lat="50.07881" lon="3.76786">
        <ele>177</ele>
        <time>2018-06-24T10:35:06Z</time>
      </trkpt>
      <trkpt lat="50.07887" lon="3.76777">
        <ele>177</ele>
        <time>2018-06-24T10:35:07Z</time>
      </trkpt>
      <trkpt lat="50.07894" lon="3.76768">
        <ele>177</ele>
        <time>2018-06-24T10:35:08Z</time>
      </trkpt>
      <trkpt lat="50.07901" lon="3.7676">
        <ele>177</ele>
        <time>2018-06-24T10:35:09Z</time>
      </trkpt>
      <trkpt lat="50.07908" lon="3.76752">
        <ele>177</ele>
        <time>2018-06-24T10:35:10Z</time>
      </trkpt>
      <trkpt lat="50.07915" lon="3.76745">
        <ele>177</ele>
        <time>2018-06-24T10:35:11Z</time>
      </trkpt>
      <trkpt lat="50.07922" lon="3.76737">
        <ele>177</ele>
        <time>2018-06-24T10:35:12Z</time>
      </trkpt>
      <trkpt lat="50.07928" lon="3.7673">
        <ele>177</ele>
        <time>2018-06-24T10:35:13Z</time>
      </trkpt>
      <trkpt lat="50.07935" lon="3.76722">
        <ele>177</ele>
        <time>2018-06-24T10:35:14Z</time>
      </trkpt>
      <trkpt lat="50.07941" lon="3.76714">
        <ele>177</ele>
        <time>2018-06-24T10:35:15Z</time>
      </trkpt>
      <trkpt lat="50.07947" lon="3.76708">
        <ele>177</ele>
        <time>2018-06-24T10:35:16Z</time>
      </trkpt>
      <trkpt lat="50.07953" lon="3.76701">
        <ele>177</ele>
        <time>2018-06-24T10:35:17Z</time>
      </trkpt>
      <trkpt lat="50.07958" lon="3.76694">
        <ele>177</ele>
        <time>2018-06-24T10:35:18Z</time>
      </trkpt>
      <trkpt lat="50.07965" lon="3.7669">
        <ele>177</ele>
        <time>2018-06-24T10:35:19Z</time>
      </trkpt>
      <trkpt lat="50.0797" lon="3.76684">
        <ele>177</ele>
        <time>2018-06-24T10:35:20Z</time>
      </trkpt>
      <trkpt lat="50.07975" lon="3.76678">
        <ele>177</ele>
        <time>2018-06-24T10:35:21Z</time>
      </trkpt>
      <trkpt lat="50.07981" lon="3.76674">
        <ele>178</ele>
        <time>2018-06-24T10:35:22Z</time>
      </trkpt>
      <trkpt lat="50.07986" lon="3.76668">
        <ele>178</ele>
        <time>2018-06-24T10:35:23Z</time>
      </trkpt>
      <trkpt lat="50.07992" lon="3.76663">
        <ele>177</ele>
        <time>2018-06-24T10:35:24Z</time>
      </trkpt>
      <trkpt lat="50.07998" lon="3.76657">
        <ele>177</ele>
        <time>2018-06-24T10:35:25Z</time>
      </trkpt>
      <trkpt lat="50.08003" lon="3.7665">
        <ele>178</ele>
        <time>2018-06-24T10:35:26Z</time>
      </trkpt>
      <trkpt lat="50.08009" lon="3.76645">
        <ele>178</ele>
        <time>2018-06-24T10:35:27Z</time>
      </trkpt>
      <trkpt lat="50.08014" lon="3.76639">
        <ele>178</ele>
        <time>2018-06-24T10:35:28Z</time>
      </trkpt>
      <trkpt lat="50.08019" lon="3.76632">
        <ele>178</ele>
        <time>2018-06-24T10:35:29Z</time>
      </trkpt>
      <trkpt lat="50.08024" lon="3.76626">
        <ele>178</ele>
        <time>2018-06-24T10:35:30Z</time>
      </trkpt>
      <trkpt lat="50.0803" lon="3.76619">
        <ele>178</ele>
        <time>2018-06-24T10:35:31Z</time>
      </trkpt>
      <trkpt lat="50.08037" lon="3.76613">
        <ele>178</ele>
        <time>2018-06-24T10:35:32Z</time>
      </trkpt>
      <trkpt lat="50.08042" lon="3.76606">
        <ele>178</ele>
        <time>2018-06-24T10:35:33Z</time>
      </trkpt>
      <trkpt lat="50.08048" lon="3.76598">
        <ele>178</ele>
        <time>2018-06-24T10:35:34Z</time>
      </trkpt>
      <trkpt lat="50.08054" lon="3.7659">
        <ele>178</ele>
        <time>2018-06-24T10:35:35Z</time>
      </trkpt>
      <trkpt lat="50.08059" lon="3.76583">
        <ele>177</ele>
        <time>2018-06-24T10:35:36Z</time>
      </trkpt>
      <trkpt lat="50.08064" lon="3.76577">
        <ele>177</ele>
        <time>2018-06-24T10:35:37Z</time>
      </trkpt>
      <trkpt lat="50.08069" lon="3.76569">
        <ele>177</ele>
        <time>2018-06-24T10:35:38Z</time>
      </trkpt>
      <trkpt lat="50.08074" lon="3.76562">
        <ele>177</ele>
        <time>2018-06-24T10:35:39Z</time>
      </trkpt>
      <trkpt lat="50.0808" lon="3.76556">
        <ele>177</ele>
        <time>2018-06-24T10:35:40Z</time>
      </trkpt>
      <trkpt lat="50.08084" lon="3.76546">
        <ele>179</ele>
        <time>2018-06-24T10:35:41Z</time>
      </trkpt>
      <trkpt lat="50.0809" lon="3.76539">
        <ele>179</ele>
        <time>2018-06-24T10:35:42Z</time>
      </trkpt>
      <trkpt lat="50.08096" lon="3.76533">
        <ele>179</ele>
        <time>2018-06-24T10:35:43Z</time>
      </trkpt>
      <trkpt lat="50.08101" lon="3.76525">
        <ele>178</ele>
        <time>2018-06-24T10:35:44Z</time>
      </trkpt>
      <trkpt lat="50.08106" lon="3.76518">
        <ele>178</ele>
        <time>2018-06-24T10:35:45Z</time>
      </trkpt>
      <trkpt lat="50.08112" lon="3.76511">
        <ele>178</ele>
        <time>2018-06-24T10:35:46Z</time>
      </trkpt>
      <trkpt lat="50.08119" lon="3.76506">
        <ele>179</ele>
        <time>2018-06-24T10:35:47Z</time>
      </trkpt>
      <trkpt lat="50.08125" lon="3.765">
        <ele>177</ele>
        <time>2018-06-24T10:35:48Z</time>
      </trkpt>
      <trkpt lat="50.08132" lon="3.76495">
        <ele>177</ele>
        <time>2018-06-24T10:35:49Z</time>
      </trkpt>
      <trkpt lat="50.08138" lon="3.7649">
        <ele>177</ele>
        <time>2018-06-24T10:35:50Z</time>
      </trkpt>
      <trkpt lat="50.08143" lon="3.76485">
        <ele>177</ele>
        <time>2018-06-24T10:35:51Z</time>
      </trkpt>
      <trkpt lat="50.0815" lon="3.76481">
        <ele>177</ele>
        <time>2018-06-24T10:35:52Z</time>
      </trkpt>
      <trkpt lat="50.08156" lon="3.76477">
        <ele>177</ele>
        <time>2018-06-24T10:35:53Z</time>
      </trkpt>
      <trkpt lat="50.08162" lon="3.76472">
        <ele>177</ele>
        <time>2018-06-24T10:35:54Z</time>
      </trkpt>
      <trkpt lat="50.08167" lon="3.76467">
        <ele>178</ele>
        <time>2018-06-24T10:35:55Z</time>
      </trkpt>
      <trkpt lat="50.08174" lon="3.76463">
        <ele>178</ele>
        <time>2018-06-24T10:35:56Z</time>
      </trkpt>
      <trkpt lat="50.0818" lon="3.76459">
        <ele>178</ele>
        <time>2018-06-24T10:35:57Z</time>
      </trkpt>
      <trkpt lat="50.08185" lon="3.76454">
        <ele>177</ele>
        <time>2018-06-24T10:35:58Z</time>
      </trkpt>
      <trkpt lat="50.0819" lon="3.7645">
        <ele>177</ele>
        <time>2018-06-24T10:35:59Z</time>
      </trkpt>
      <trkpt lat="50.08195" lon="3.76446">
        <ele>177</ele>
        <time>2018-06-24T10:36:00Z</time>
      </trkpt>
      <trkpt lat="50.082" lon="3.76442">
        <ele>177</ele>
        <time>2018-06-24T10:36:01Z</time>
      </trkpt>
      <trkpt lat="50.08206" lon="3.76442">
        <ele>177</ele>
        <time>2018-06-24T10:36:02Z</time>
      </trkpt>
      <trkpt lat="50.08212" lon="3.76446">
        <ele>178</ele>
        <time>2018-06-24T10:36:03Z</time>
      </trkpt>
      <trkpt lat="50.08217" lon="3.76456">
        <ele>178</ele>
        <time>2018-06-24T10:36:04Z</time>
      </trkpt>
      <trkpt lat="50.08222" lon="3.76464">
        <ele>178</ele>
        <time>2018-06-24T10:36:05Z</time>
      </trkpt>
      <trkpt lat="50.08226" lon="3.7647">
        <ele>178</ele>
        <time>2018-06-24T10:36:06Z</time>
      </trkpt>
      <trkpt lat="50.08231" lon="3.76477">
        <ele>178</ele>
        <time>2018-06-24T10:36:07Z</time>
      </trkpt>
      <trkpt lat="50.08235" lon="3.76486">
        <ele>179</ele>
        <time>2018-06-24T10:36:08Z</time>
      </trkpt>
      <trkpt lat="50.08239" lon="3.76494">
        <ele>179</ele>
        <time>2018-06-24T10:36:09Z</time>
      </trkpt>
      <trkpt lat="50.08243" lon="3.76499">
        <ele>179</ele>
        <time>2018-06-24T10:36:10Z</time>
      </trkpt>
      <trkpt lat="50.08248" lon="3.76506">
        <ele>180</ele>
        <time>2018-06-24T10:36:11Z</time>
      </trkpt>
      <trkpt lat="50.08252" lon="3.7651">
        <ele>181</ele>
        <time>2018-06-24T10:36:12Z</time>
      </trkpt>
      <trkpt lat="50.08256" lon="3.76517">
        <ele>181</ele>
        <time>2018-06-24T10:36:13Z</time>
      </trkpt>
      <trkpt lat="50.0826" lon="3.76523">
        <ele>181</ele>
        <time>2018-06-24T10:36:14Z</time>
      </trkpt>
      <trkpt lat="50.08264" lon="3.76529">
        <ele>181</ele>
        <time>2018-06-24T10:36:15Z</time>
      </trkpt>
      <trkpt lat="50.08268" lon="3.76535">
        <ele>182</ele>
        <time>2018-06-24T10:36:16Z</time>
      </trkpt>
      <trkpt lat="50.08271" lon="3.76541">
        <ele>182</ele>
        <time>2018-06-24T10:36:17Z</time>
      </trkpt>
      <trkpt lat="50.08275" lon="3.76546">
        <ele>182</ele>
        <time>2018-06-24T10:36:18Z</time>
      </trkpt>
      <trkpt lat="50.0828" lon="3.76551">
        <ele>182</ele>
        <time>2018-06-24T10:36:19Z</time>
      </trkpt>
      <trkpt lat="50.08284" lon="3.76557">
        <ele>182</ele>
        <time>2018-06-24T10:36:20Z</time>
      </trkpt>
      <trkpt lat="50.08289" lon="3.76564">
        <ele>182</ele>
        <time>2018-06-24T10:36:21Z</time>
      </trkpt>
      <trkpt lat="50.08293" lon="3.7657">
        <ele>182</ele>
        <time>2018-06-24T10:36:22Z</time>
      </trkpt>
      <trkpt lat="50.08298" lon="3.76575">
        <ele>182</ele>
        <time>2018-06-24T10:36:23Z</time>
      </trkpt>
      <trkpt lat="50.08302" lon="3.76579">
        <ele>183</ele>
        <time>2018-06-24T10:36:24Z</time>
      </trkpt>
      <trkpt lat="50.08307" lon="3.76584">
        <ele>184</ele>
        <time>2018-06-24T10:36:25Z</time>
      </trkpt>
      <trkpt lat="50.08313" lon="3.76589">
        <ele>184</ele>
        <time>2018-06-24T10:36:26Z</time>
      </trkpt>
      <trkpt lat="50.08318" lon="3.76592">
        <ele>184</ele>
        <time>2018-06-24T10:36:27Z</time>
      </trkpt>
      <trkpt lat="50.08324" lon="3.76593">
        <ele>184</ele>
        <time>2018-06-24T10:36:28Z</time>
      </trkpt>
      <trkpt lat="50.08331" lon="3.76591">
        <ele>184</ele>
        <time>2018-06-24T10:36:29Z</time>
      </trkpt>
      <trkpt lat="50.08336" lon="3.76591">
        <ele>185</ele>
        <time>2018-06-24T10:36:30Z</time>
      </trkpt>
      <trkpt lat="50.08343" lon="3.7659">
        <ele>185</ele>
        <time>2018-06-24T10:36:31Z</time>
      </trkpt>
      <trkpt lat="50.08349" lon="3.76588">
        <ele>185</ele>
        <time>2018-06-24T10:36:32Z</time>
      </trkpt>
      <trkpt lat="50.08354" lon="3.76585">
        <ele>185</ele>
        <time>2018-06-24T10:36:33Z</time>
      </trkpt>
      <trkpt lat="50.08359" lon="3.76584">
        <ele>185</ele>
        <time>2018-06-24T10:36:34Z</time>
      </trkpt>
      <trkpt lat="50.08364" lon="3.76582">
        <ele>184</ele>
        <time>2018-06-24T10:36:35Z</time>
      </trkpt>
      <trkpt lat="50.08369" lon="3.76579">
        <ele>184</ele>
        <time>2018-06-24T10:36:36Z</time>
      </trkpt>
      <trkpt lat="50.08375" lon="3.76576">
        <ele>185</ele>
        <time>2018-06-24T10:36:37Z</time>
      </trkpt>
      <trkpt lat="50.08379" lon="3.76573">
        <ele>185</ele>
        <time>2018-06-24T10:36:38Z</time>
      </trkpt>
      <trkpt lat="50.08383" lon="3.76571">
        <ele>185</ele>
        <time>2018-06-24T10:36:39Z</time>
      </trkpt>
      <trkpt lat="50.08388" lon="3.76569">
        <ele>185</ele>
        <time>2018-06-24T10:36:40Z</time>
      </trkpt>
      <trkpt lat="50.08393" lon="3.76566">
        <ele>185</ele>
        <time>2018-06-24T10:36:41Z</time>
      </trkpt>
      <trkpt lat="50.08398" lon="3.76563">
        <ele>185</ele>
        <time>2018-06-24T10:36:42Z</time>
      </trkpt>
      <trkpt lat="50.08403" lon="3.76559">
        <ele>185</ele>
        <time>2018-06-24T10:36:43Z</time>
      </trkpt>
      <trkpt lat="50.08409" lon="3.76558">
        <ele>185</ele>
        <time>2018-06-24T10:36:44Z</time>
      </trkpt>
      <trkpt lat="50.08413" lon="3.76556">
        <ele>185</ele>
        <time>2018-06-24T10:36:45Z</time>
      </trkpt>
      <trkpt lat="50.08418" lon="3.76554">
        <ele>186</ele>
        <time>2018-06-24T10:36:46Z</time>
      </trkpt>
      <trkpt lat="50.08423" lon="3.76552">
        <ele>186</ele>
        <time>2018-06-24T10:36:47Z</time>
      </trkpt>
      <trkpt lat="50.08428" lon="3.76551">
        <ele>186</ele>
        <time>2018-06-24T10:36:48Z</time>
      </trkpt>
      <trkpt lat="50.08433" lon="3.76548">
        <ele>186</ele>
        <time>2018-06-24T10:36:49Z</time>
      </trkpt>
      <trkpt lat="50.08438" lon="3.76546">
        <ele>186</ele>
        <time>2018-06-24T10:36:50Z</time>
      </trkpt>
      <trkpt lat="50.08442" lon="3.76543">
        <ele>186</ele>
        <time>2018-06-24T10:36:51Z</time>
      </trkpt>
      <trkpt lat="50.08447" lon="3.7654">
        <ele>186</ele>
        <time>2018-06-24T10:36:52Z</time>
      </trkpt>
      <trkpt lat="50.08452" lon="3.76538">
        <ele>186</ele>
        <time>2018-06-24T10:36:53Z</time>
      </trkpt>
      <trkpt lat="50.08458" lon="3.76535">
        <ele>186</ele>
        <time>2018-06-24T10:36:54Z</time>
      </trkpt>
      <trkpt lat="50.08463" lon="3.76533">
        <ele>186</ele>
        <time>2018-06-24T10:36:55Z</time>
      </trkpt>
      <trkpt lat="50.08469" lon="3.7653">
        <ele>186</ele>
        <time>2018-06-24T10:36:56Z</time>
      </trkpt>
      <trkpt lat="50.08475" lon="3.76527">
        <ele>186</ele>
        <time>2018-06-24T10:36:57Z</time>
      </trkpt>
      <trkpt lat="50.0848" lon="3.76523">
        <ele>186</ele>
        <time>2018-06-24T10:36:58Z</time>
      </trkpt>
      <trkpt lat="50.08486" lon="3.76519">
        <ele>186</ele>
        <time>2018-06-24T10:36:59Z</time>
      </trkpt>
      <trkpt lat="50.08491" lon="3.76515">
        <ele>186</ele>
        <time>2018-06-24T10:37:00Z</time>
      </trkpt>
      <trkpt lat="50.08497" lon="3.7651">
        <ele>186</ele>
        <time>2018-06-24T10:37:01Z</time>
      </trkpt>
      <trkpt lat="50.08503" lon="3.76505">
        <ele>186</ele>
        <time>2018-06-24T10:37:02Z</time>
      </trkpt>
      <trkpt lat="50.08509" lon="3.76499">
        <ele>186</ele>
        <time>2018-06-24T10:37:03Z</time>
      </trkpt>
      <trkpt lat="50.08515" lon="3.76494">
        <ele>186</ele>
        <time>2018-06-24T10:37:04Z</time>
      </trkpt>
      <trkpt lat="50.08521" lon="3.76489">
        <ele>186</ele>
        <time>2018-06-24T10:37:05Z</time>
      </trkpt>
      <trkpt lat="50.08526" lon="3.76483">
        <ele>186</ele>
        <time>2018-06-24T10:37:06Z</time>
      </trkpt>
      <trkpt lat="50.08531" lon="3.76476">
        <ele>186</ele>
        <time>2018-06-24T10:37:07Z</time>
      </trkpt>
      <trkpt lat="50.08537" lon="3.7647">
        <ele>186</ele>
        <time>2018-06-24T10:37:08Z</time>
      </trkpt>
      <trkpt lat="50.08541" lon="3.76464">
        <ele>186</ele>
        <time>2018-06-24T10:37:09Z</time>
      </trkpt>
      <trkpt lat="50.08546" lon="3.76457">
        <ele>186</ele>
        <time>2018-06-24T10:37:10Z</time>
      </trkpt>
      <trkpt lat="50.08551" lon="3.7645">
        <ele>186</ele>
        <time>2018-06-24T10:37:11Z</time>
      </trkpt>
      <trkpt lat="50.08556" lon="3.76443">
        <ele>186</ele>
        <time>2018-06-24T10:37:12Z</time>
      </trkpt>
      <trkpt lat="50.08561" lon="3.76436">
        <ele>186</ele>
        <time>2018-06-24T10:37:13Z</time>
      </trkpt>
      <trkpt lat="50.08567" lon="3.76428">
        <ele>187</ele>
        <time>2018-06-24T10:37:14Z</time>
      </trkpt>
      <trkpt lat="50.08571" lon="3.76422">
        <ele>187</ele>
        <time>2018-06-24T10:37:15Z</time>
      </trkpt>
      <trkpt lat="50.08577" lon="3.76415">
        <ele>186</ele>
        <time>2018-06-24T10:37:16Z</time>
      </trkpt>
      <trkpt lat="50.08582" lon="3.76408">
        <ele>186</ele>
        <time>2018-06-24T10:37:17Z</time>
      </trkpt>
      <trkpt lat="50.08588" lon="3.76403">
        <ele>187</ele>
        <time>2018-06-24T10:37:18Z</time>
      </trkpt>
      <trkpt lat="50.08594" lon="3.76399">
        <ele>187</ele>
        <time>2018-06-24T10:37:19Z</time>
      </trkpt>
      <trkpt lat="50.08601" lon="3.76397">
        <ele>187</ele>
        <time>2018-06-24T10:37:20Z</time>
      </trkpt>
      <trkpt lat="50.08608" lon="3.76396">
        <ele>187</ele>
        <time>2018-06-24T10:37:21Z</time>
      </trkpt>
      <trkpt lat="50.08615" lon="3.76396">
        <ele>187</ele>
        <time>2018-06-24T10:37:22Z</time>
      </trkpt>
      <trkpt lat="50.08621" lon="3.76395">
        <ele>187</ele>
        <time>2018-06-24T10:37:23Z</time>
      </trkpt>
      <trkpt lat="50.08628" lon="3.76395">
        <ele>187</ele>
        <time>2018-06-24T10:37:24Z</time>
      </trkpt>
      <trkpt lat="50.08634" lon="3.76395">
        <ele>187</ele>
        <time>2018-06-24T10:37:25Z</time>
      </trkpt>
      <trkpt lat="50.08641" lon="3.76394">
        <ele>187</ele>
        <time>2018-06-24T10:37:26Z</time>
      </trkpt>
      <trkpt lat="50.08647" lon="3.76394">
        <ele>187</ele>
        <time>2018-06-24T10:37:27Z</time>
      </trkpt>
      <trkpt lat="50.08654" lon="3.76393">
        <ele>188</ele>
        <time>2018-06-24T10:37:28Z</time>
      </trkpt>
      <trkpt lat="50.0866" lon="3.76392">
        <ele>188</ele>
        <time>2018-06-24T10:37:29Z</time>
      </trkpt>
      <trkpt lat="50.08667" lon="3.76391">
        <ele>189</ele>
        <time>2018-06-24T10:37:30Z</time>
      </trkpt>
      <trkpt lat="50.08674" lon="3.76389">
        <ele>189</ele>
        <time>2018-06-24T10:37:31Z</time>
      </trkpt>
      <trkpt lat="50.08679" lon="3.76388">
        <ele>189</ele>
        <time>2018-06-24T10:37:32Z</time>
      </trkpt>
      <trkpt lat="50.08685" lon="3.76386">
        <ele>189</ele>
        <time>2018-06-24T10:37:33Z</time>
      </trkpt>
      <trkpt lat="50.08692" lon="3.76384">
        <ele>189</ele>
        <time>2018-06-24T10:37:34Z</time>
      </trkpt>
      <trkpt lat="50.08698" lon="3.76383">
        <ele>189</ele>
        <time>2018-06-24T10:37:35Z</time>
      </trkpt>
      <trkpt lat="50.08704" lon="3.76381">
        <ele>189</ele>
        <time>2018-06-24T10:37:36Z</time>
      </trkpt>
      <trkpt lat="50.0871" lon="3.76379">
        <ele>189</ele>
        <time>2018-06-24T10:37:37Z</time>
      </trkpt>
      <trkpt lat="50.08716" lon="3.76378">
        <ele>189</ele>
        <time>2018-06-24T10:37:38Z</time>
      </trkpt>
      <trkpt lat="50.08722" lon="3.76376">
        <ele>189</ele>
        <time>2018-06-24T10:37:39Z</time>
      </trkpt>
      <trkpt lat="50.08728" lon="3.76376">
        <ele>189</ele>
        <time>2018-06-24T10:37:40Z</time>
      </trkpt>
      <trkpt lat="50.08734" lon="3.76375">
        <ele>189</ele>
        <time>2018-06-24T10:37:41Z</time>
      </trkpt>
      <trkpt lat="50.08739" lon="3.76375">
        <ele>189</ele>
        <time>2018-06-24T10:37:42Z</time>
      </trkpt>
      <trkpt lat="50.08745" lon="3.76374">
        <ele>189</ele>
        <time>2018-06-24T10:37:43Z</time>
      </trkpt>
      <trkpt lat="50.08751" lon="3.76374">
        <ele>191</ele>
        <time>2018-06-24T10:37:44Z</time>
      </trkpt>
      <trkpt lat="50.08758" lon="3.76375">
        <ele>191</ele>
        <time>2018-06-24T10:37:45Z</time>
      </trkpt>
      <trkpt lat="50.08764" lon="3.76375">
        <ele>191</ele>
        <time>2018-06-24T10:37:46Z</time>
      </trkpt>
      <trkpt lat="50.0877" lon="3.76376">
        <ele>191</ele>
        <time>2018-06-24T10:37:47Z</time>
      </trkpt>
      <trkpt lat="50.08777" lon="3.76376">
        <ele>191</ele>
        <time>2018-06-24T10:37:48Z</time>
      </trkpt>
      <trkpt lat="50.08783" lon="3.76376">
        <ele>191</ele>
        <time>2018-06-24T10:37:49Z</time>
      </trkpt>
      <trkpt lat="50.08789" lon="3.76377">
        <ele>191</ele>
        <time>2018-06-24T10:37:50Z</time>
      </trkpt>
      <trkpt lat="50.08794" lon="3.76377">
        <ele>191</ele>
        <time>2018-06-24T10:37:51Z</time>
      </trkpt>
      <trkpt lat="50.08799" lon="3.76378">
        <ele>191</ele>
        <time>2018-06-24T10:37:52Z</time>
      </trkpt>
      <trkpt lat="50.08806" lon="3.76378">
        <ele>191</ele>
        <time>2018-06-24T10:37:53Z</time>
      </trkpt>
      <trkpt lat="50.08812" lon="3.76378">
        <ele>191</ele>
        <time>2018-06-24T10:37:54Z</time>
      </trkpt>
      <trkpt lat="50.08817" lon="3.76378">
        <ele>191</ele>
        <time>2018-06-24T10:37:55Z</time>
      </trkpt>
      <trkpt lat="50.08823" lon="3.76378">
        <ele>191</ele>
        <time>2018-06-24T10:37:56Z</time>
      </trkpt>
      <trkpt lat="50.08829" lon="3.76379">
        <ele>191</ele>
        <time>2018-06-24T10:37:57Z</time>
      </trkpt>
      <trkpt lat="50.08834" lon="3.7638">
        <ele>193</ele>
        <time>2018-06-24T10:37:58Z</time>
      </trkpt>
      <trkpt lat="50.08839" lon="3.76381">
        <ele>193</ele>
        <time>2018-06-24T10:37:59Z</time>
      </trkpt>
      <trkpt lat="50.08844" lon="3.76382">
        <ele>193</ele>
        <time>2018-06-24T10:38:00Z</time>
      </trkpt>
      <trkpt lat="50.08853" lon="3.76383">
        <ele>193</ele>
        <time>2018-06-24T10:38:01Z</time>
      </trkpt>
      <trkpt lat="50.08859" lon="3.76383">
        <ele>193</ele>
        <time>2018-06-24T10:38:02Z</time>
      </trkpt>
      <trkpt lat="50.08865" lon="3.76383">
        <ele>193</ele>
        <time>2018-06-24T10:38:03Z</time>
      </trkpt>
      <trkpt lat="50.08871" lon="3.76382">
        <ele>193</ele>
        <time>2018-06-24T10:38:04Z</time>
      </trkpt>
      <trkpt lat="50.08876" lon="3.76382">
        <ele>194</ele>
        <time>2018-06-24T10:38:05Z</time>
      </trkpt>
      <trkpt lat="50.08882" lon="3.76381">
        <ele>194</ele>
        <time>2018-06-24T10:38:06Z</time>
      </trkpt>
      <trkpt lat="50.08888" lon="3.76381">
        <ele>194</ele>
        <time>2018-06-24T10:38:07Z</time>
      </trkpt>
      <trkpt lat="50.08893" lon="3.7638">
        <ele>194</ele>
        <time>2018-06-24T10:38:08Z</time>
      </trkpt>
      <trkpt lat="50.08899" lon="3.76378">
        <ele>194</ele>
        <time>2018-06-24T10:38:09Z</time>
      </trkpt>
      <trkpt lat="50.08904" lon="3.76377">
        <ele>194</ele>
        <time>2018-06-24T10:38:10Z</time>
      </trkpt>
      <trkpt lat="50.0891" lon="3.76374">
        <ele>194</ele>
        <time>2018-06-24T10:38:11Z</time>
      </trkpt>
      <trkpt lat="50.08915" lon="3.76371">
        <ele>194</ele>
        <time>2018-06-24T10:38:12Z</time>
      </trkpt>
      <trkpt lat="50.08921" lon="3.76369">
        <ele>195</ele>
        <time>2018-06-24T10:38:13Z</time>
      </trkpt>
      <trkpt lat="50.08926" lon="3.76367">
        <ele>195</ele>
        <time>2018-06-24T10:38:14Z</time>
      </trkpt>
      <trkpt lat="50.08931" lon="3.76365">
        <ele>195</ele>
        <time>2018-06-24T10:38:15Z</time>
      </trkpt>
      <trkpt lat="50.08936" lon="3.76362">
        <ele>195</ele>
        <time>2018-06-24T10:38:16Z</time>
      </trkpt>
      <trkpt lat="50.08942" lon="3.76359">
        <ele>195</ele>
        <time>2018-06-24T10:38:17Z</time>
      </trkpt>
      <trkpt lat="50.08948" lon="3.76356">
        <ele>195</ele>
        <time>2018-06-24T10:38:18Z</time>
      </trkpt>
      <trkpt lat="50.08954" lon="3.76353">
        <ele>195</ele>
        <time>2018-06-24T10:38:19Z</time>
      </trkpt>
      <trkpt lat="50.0896" lon="3.7635">
        <ele>195</ele>
        <time>2018-06-24T10:38:20Z</time>
      </trkpt>
      <trkpt lat="50.08965" lon="3.76348">
        <ele>195</ele>
        <time>2018-06-24T10:38:21Z</time>
      </trkpt>
      <trkpt lat="50.08971" lon="3.76346">
        <ele>195</ele>
        <time>2018-06-24T10:38:22Z</time>
      </trkpt>
      <trkpt lat="50.08976" lon="3.76345">
        <ele>195</ele>
        <time>2018-06-24T10:38:23Z</time>
      </trkpt>
      <trkpt lat="50.08982" lon="3.76343">
        <ele>195</ele>
        <time>2018-06-24T10:38:24Z</time>
      </trkpt>
      <trkpt lat="50.08987" lon="3.76341">
        <ele>195</ele>
        <time>2018-06-24T10:38:25Z</time>
      </trkpt>
      <trkpt lat="50.08993" lon="3.76338">
        <ele>195</ele>
        <time>2018-06-24T10:38:26Z</time>
      </trkpt>
      <trkpt lat="50.08998" lon="3.76335">
        <ele>195</ele>
        <time>2018-06-24T10:38:27Z</time>
      </trkpt>
      <trkpt lat="50.09005" lon="3.76333">
        <ele>195</ele>
        <time>2018-06-24T10:38:28Z</time>
      </trkpt>
      <trkpt lat="50.09011" lon="3.76331">
        <ele>195</ele>
        <time>2018-06-24T10:38:29Z</time>
      </trkpt>
      <trkpt lat="50.09018" lon="3.76329">
        <ele>195</ele>
        <time>2018-06-24T10:38:30Z</time>
      </trkpt>
      <trkpt lat="50.09024" lon="3.76327">
        <ele>195</ele>
        <time>2018-06-24T10:38:31Z</time>
      </trkpt>
      <trkpt lat="50.0903" lon="3.76326">
        <ele>195</ele>
        <time>2018-06-24T10:38:32Z</time>
      </trkpt>
      <trkpt lat="50.09036" lon="3.76324">
        <ele>195</ele>
        <time>2018-06-24T10:38:33Z</time>
      </trkpt>
      <trkpt lat="50.09043" lon="3.76323">
        <ele>195</ele>
        <time>2018-06-24T10:38:34Z</time>
      </trkpt>
      <trkpt lat="50.09048" lon="3.76321">
        <ele>195</ele>
        <time>2018-06-24T10:38:35Z</time>
      </trkpt>
      <trkpt lat="50.09054" lon="3.7632">
        <ele>195</ele>
        <time>2018-06-24T10:38:36Z</time>
      </trkpt>
      <trkpt lat="50.0906" lon="3.76319">
        <ele>195</ele>
        <time>2018-06-24T10:38:37Z</time>
      </trkpt>
      <trkpt lat="50.09066" lon="3.76319">
        <ele>195</ele>
        <time>2018-06-24T10:38:38Z</time>
      </trkpt>
      <trkpt lat="50.09072" lon="3.76317">
        <ele>195</ele>
        <time>2018-06-24T10:38:39Z</time>
      </trkpt>
      <trkpt lat="50.09078" lon="3.76317">
        <ele>195</ele>
        <time>2018-06-24T10:38:40Z</time>
      </trkpt>
      <trkpt lat="50.09084" lon="3.76316">
        <ele>195</ele>
        <time>2018-06-24T10:38:41Z</time>
      </trkpt>
      <trkpt lat="50.09091" lon="3.76315">
        <ele>195</ele>
        <time>2018-06-24T10:38:42Z</time>
      </trkpt>
      <trkpt lat="50.09097" lon="3.76314">
        <ele>195</ele>
        <time>2018-06-24T10:38:43Z</time>
      </trkpt>
      <trkpt lat="50.09104" lon="3.76313">
        <ele>195</ele>
        <time>2018-06-24T10:38:44Z</time>
      </trkpt>
      <trkpt lat="50.09111" lon="3.76312">
        <ele>195</ele>
        <time>2018-06-24T10:38:45Z</time>
      </trkpt>
      <trkpt lat="50.09117" lon="3.76311">
        <ele>195</ele>
        <time>2018-06-24T10:38:46Z</time>
      </trkpt>
      <trkpt lat="50.09124" lon="3.7631">
        <ele>195</ele>
        <time>2018-06-24T10:38:47Z</time>
      </trkpt>
      <trkpt lat="50.09132" lon="3.76309">
        <ele>195</ele>
        <time>2018-06-24T10:38:48Z</time>
      </trkpt>
      <trkpt lat="50.09139" lon="3.76308">
        <ele>195</ele>
        <time>2018-06-24T10:38:49Z</time>
      </trkpt>
      <trkpt lat="50.09146" lon="3.76307">
        <ele>195</ele>
        <time>2018-06-24T10:38:50Z</time>
      </trkpt>
      <trkpt lat="50.09153" lon="3.76307">
        <ele>195</ele>
        <time>2018-06-24T10:38:51Z</time>
      </trkpt>
      <trkpt lat="50.0916" lon="3.76305">
        <ele>194</ele>
        <time>2018-06-24T10:38:52Z</time>
      </trkpt>
      <trkpt lat="50.09167" lon="3.76304">
        <ele>193</ele>
        <time>2018-06-24T10:38:53Z</time>
      </trkpt>
      <trkpt lat="50.09174" lon="3.76303">
        <ele>193</ele>
        <time>2018-06-24T10:38:54Z</time>
      </trkpt>
      <trkpt lat="50.09182" lon="3.76303">
        <ele>193</ele>
        <time>2018-06-24T10:38:55Z</time>
      </trkpt>
      <trkpt lat="50.0919" lon="3.76302">
        <ele>193</ele>
        <time>2018-06-24T10:38:56Z</time>
      </trkpt>
      <trkpt lat="50.09197" lon="3.76301">
        <ele>193</ele>
        <time>2018-06-24T10:38:57Z</time>
      </trkpt>
      <trkpt lat="50.09205" lon="3.763">
        <ele>193</ele>
        <time>2018-06-24T10:38:58Z</time>
      </trkpt>
      <trkpt lat="50.09213" lon="3.76299">
        <ele>193</ele>
        <time>2018-06-24T10:38:59Z</time>
      </trkpt>
      <trkpt lat="50.0922" lon="3.76298">
        <ele>193</ele>
        <time>2018-06-24T10:39:00Z</time>
      </trkpt>
      <trkpt lat="50.09228" lon="3.76297">
        <ele>192</ele>
        <time>2018-06-24T10:39:01Z</time>
      </trkpt>
      <trkpt lat="50.09236" lon="3.76296">
        <ele>192</ele>
        <time>2018-06-24T10:39:02Z</time>
      </trkpt>
      <trkpt lat="50.09244" lon="3.76296">
        <ele>192</ele>
        <time>2018-06-24T10:39:03Z</time>
      </trkpt>
      <trkpt lat="50.09252" lon="3.76295">
        <ele>191</ele>
        <time>2018-06-24T10:39:04Z</time>
      </trkpt>
      <trkpt lat="50.0926" lon="3.76294">
        <ele>191</ele>
        <time>2018-06-24T10:39:05Z</time>
      </trkpt>
      <trkpt lat="50.09267" lon="3.76293">
        <ele>191</ele>
        <time>2018-06-24T10:39:06Z</time>
      </trkpt>
      <trkpt lat="50.09275" lon="3.76292">
        <ele>191</ele>
        <time>2018-06-24T10:39:07Z</time>
      </trkpt>
      <trkpt lat="50.09282" lon="3.76291">
        <ele>191</ele>
        <time>2018-06-24T10:39:08Z</time>
      </trkpt>
      <trkpt lat="50.0929" lon="3.76291">
        <ele>191</ele>
        <time>2018-06-24T10:39:09Z</time>
      </trkpt>
      <trkpt lat="50.09297" lon="3.7629">
        <ele>190</ele>
        <time>2018-06-24T10:39:10Z</time>
      </trkpt>
      <trkpt lat="50.09305" lon="3.76289">
        <ele>190</ele>
        <time>2018-06-24T10:39:11Z</time>
      </trkpt>
      <trkpt lat="50.09312" lon="3.76288">
        <ele>190</ele>
        <time>2018-06-24T10:39:12Z</time>
      </trkpt>
      <trkpt lat="50.09319" lon="3.76286">
        <ele>190</ele>
        <time>2018-06-24T10:39:13Z</time>
      </trkpt>
      <trkpt lat="50.09327" lon="3.76285">
        <ele>190</ele>
        <time>2018-06-24T10:39:14Z</time>
      </trkpt>
      <trkpt lat="50.09334" lon="3.76284">
        <ele>190</ele>
        <time>2018-06-24T10:39:15Z</time>
      </trkpt>
      <trkpt lat="50.09341" lon="3.76283">
        <ele>190</ele>
        <time>2018-06-24T10:39:16Z</time>
      </trkpt>
      <trkpt lat="50.09348" lon="3.76283">
        <ele>190</ele>
        <time>2018-06-24T10:39:17Z</time>
      </trkpt>
      <trkpt lat="50.09356" lon="3.76283">
        <ele>190</ele>
        <time>2018-06-24T10:39:18Z</time>
      </trkpt>
      <trkpt lat="50.09363" lon="3.76282">
        <ele>190</ele>
        <time>2018-06-24T10:39:19Z</time>
      </trkpt>
      <trkpt lat="50.0937" lon="3.76281">
        <ele>190</ele>
        <time>2018-06-24T10:39:20Z</time>
      </trkpt>
      <trkpt lat="50.09376" lon="3.7628">
        <ele>189</ele>
        <time>2018-06-24T10:39:21Z</time>
      </trkpt>
      <trkpt lat="50.09383" lon="3.76279">
        <ele>189</ele>
        <time>2018-06-24T10:39:22Z</time>
      </trkpt>
      <trkpt lat="50.0939" lon="3.76278">
        <ele>189</ele>
        <time>2018-06-24T10:39:23Z</time>
      </trkpt>
      <trkpt lat="50.09398" lon="3.76277">
        <ele>189</ele>
        <time>2018-06-24T10:39:24Z</time>
      </trkpt>
      <trkpt lat="50.09405" lon="3.76276">
        <ele>189</ele>
        <time>2018-06-24T10:39:25Z</time>
      </trkpt>
      <trkpt lat="50.09411" lon="3.76276">
        <ele>189</ele>
        <time>2018-06-24T10:39:26Z</time>
      </trkpt>
      <trkpt lat="50.09418" lon="3.76275">
        <ele>190</ele>
        <time>2018-06-24T10:39:27Z</time>
      </trkpt>
      <trkpt lat="50.09425" lon="3.76275">
        <ele>190</ele>
        <time>2018-06-24T10:39:28Z</time>
      </trkpt>
      <trkpt lat="50.09432" lon="3.76274">
        <ele>190</ele>
        <time>2018-06-24T10:39:29Z</time>
      </trkpt>
      <trkpt lat="50.09439" lon="3.76273">
        <ele>190</ele>
        <time>2018-06-24T10:39:30Z</time>
      </trkpt>
      <trkpt lat="50.09446" lon="3.76273">
        <ele>190</ele>
        <time>2018-06-24T10:39:31Z</time>
      </trkpt>
      <trkpt lat="50.09453" lon="3.76272">
        <ele>190</ele>
        <time>2018-06-24T10:39:32Z</time>
      </trkpt>
      <trkpt lat="50.0946" lon="3.76271">
        <ele>190</ele>
        <time>2018-06-24T10:39:33Z</time>
      </trkpt>
      <trkpt lat="50.09467" lon="3.76271">
        <ele>190</ele>
        <time>2018-06-24T10:39:34Z</time>
      </trkpt>
      <trkpt lat="50.09474" lon="3.76271">
        <ele>190</ele>
        <time>2018-06-24T10:39:35Z</time>
      </trkpt>
      <trkpt lat="50.0948" lon="3.7627">
        <ele>190</ele>
        <time>2018-06-24T10:39:36Z</time>
      </trkpt>
      <trkpt lat="50.09487" lon="3.76269">
        <ele>190</ele>
        <time>2018-06-24T10:39:37Z</time>
      </trkpt>
      <trkpt lat="50.09494" lon="3.76268">
        <ele>190</ele>
        <time>2018-06-24T10:39:38Z</time>
      </trkpt>
      <trkpt lat="50.095" lon="3.76267">
        <ele>190</ele>
        <time>2018-06-24T10:39:39Z</time>
      </trkpt>
      <trkpt lat="50.09507" lon="3.76266">
        <ele>190</ele>
        <time>2018-06-24T10:39:40Z</time>
      </trkpt>
      <trkpt lat="50.09514" lon="3.76264">
        <ele>190</ele>
        <time>2018-06-24T10:39:41Z</time>
      </trkpt>
      <trkpt lat="50.09521" lon="3.76264">
        <ele>190</ele>
        <time>2018-06-24T10:39:42Z</time>
      </trkpt>
      <trkpt lat="50.09527" lon="3.76263">
        <ele>190</ele>
        <time>2018-06-24T10:39:43Z</time>
      </trkpt>
      <trkpt lat="50.09534" lon="3.76262">
        <ele>190</ele>
        <time>2018-06-24T10:39:44Z</time>
      </trkpt>
      <trkpt lat="50.09541" lon="3.76262">
        <ele>190</ele>
        <time>2018-06-24T10:39:45Z</time>
      </trkpt>
      <trkpt lat="50.09547" lon="3.76262">
        <ele>190</ele>
        <time>2018-06-24T10:39:46Z</time>
      </trkpt>
      <trkpt lat="50.09554" lon="3.76262">
        <ele>190</ele>
        <time>2018-06-24T10:39:47Z</time>
      </trkpt>
      <trkpt lat="50.0956" lon="3.76262">
        <ele>190</ele>
        <time>2018-06-24T10:39:48Z</time>
      </trkpt>
      <trkpt lat="50.09567" lon="3.76262">
        <ele>190</ele>
        <time>2018-06-24T10:39:49Z</time>
      </trkpt>
      <trkpt lat="50.09573" lon="3.76262">
        <ele>190</ele>
        <time>2018-06-24T10:39:50Z</time>
      </trkpt>
      <trkpt lat="50.09579" lon="3.76262">
        <ele>190</ele>
        <time>2018-06-24T10:39:51Z</time>
      </trkpt>
      <trkpt lat="50.09586" lon="3.76262">
        <ele>190</ele>
        <time>2018-06-24T10:39:52Z</time>
      </trkpt>
      <trkpt lat="50.09592" lon="3.76262">
        <ele>190</ele>
        <time>2018-06-24T10:39:53Z</time>
      </trkpt>
      <trkpt lat="50.09599" lon="3.76262">
        <ele>190</ele>
        <time>2018-06-24T10:39:54Z</time>
      </trkpt>
      <trkpt lat="50.09605" lon="3.76263">
        <ele>190</ele>
        <time>2018-06-24T10:39:55Z</time>
      </trkpt>
      <trkpt lat="50.09611" lon="3.76263">
        <ele>190</ele>
        <time>2018-06-24T10:39:56Z</time>
      </trkpt>
      <trkpt lat="50.09618" lon="3.76264">
        <ele>190</ele>
        <time>2018-06-24T10:39:57Z</time>
      </trkpt>
      <trkpt lat="50.09625" lon="3.76264">
        <ele>190</ele>
        <time>2018-06-24T10:39:58Z</time>
      </trkpt>
      <trkpt lat="50.09631" lon="3.76265">
        <ele>190</ele>
        <time>2018-06-24T10:39:59Z</time>
      </trkpt>
      <trkpt lat="50.09638" lon="3.76266">
        <ele>190</ele>
        <time>2018-06-24T10:40:00Z</time>
      </trkpt>
      <trkpt lat="50.09644" lon="3.76267">
        <ele>190</ele>
        <time>2018-06-24T10:40:01Z</time>
      </trkpt>
      <trkpt lat="50.09651" lon="3.76267">
        <ele>190</ele>
        <time>2018-06-24T10:40:02Z</time>
      </trkpt>
      <trkpt lat="50.09657" lon="3.76268">
        <ele>190</ele>
        <time>2018-06-24T10:40:03Z</time>
      </trkpt>
      <trkpt lat="50.09664" lon="3.76268">
        <ele>190</ele>
        <time>2018-06-24T10:40:04Z</time>
      </trkpt>
      <trkpt lat="50.0967" lon="3.76268">
        <ele>190</ele>
        <time>2018-06-24T10:40:05Z</time>
      </trkpt>
      <trkpt lat="50.09677" lon="3.76268">
        <ele>190</ele>
        <time>2018-06-24T10:40:06Z</time>
      </trkpt>
      <trkpt lat="50.09684" lon="3.7627">
        <ele>190</ele>
        <time>2018-06-24T10:40:07Z</time>
      </trkpt>
      <trkpt lat="50.09691" lon="3.7627">
        <ele>190</ele>
        <time>2018-06-24T10:40:08Z</time>
      </trkpt>
      <trkpt lat="50.09698" lon="3.76271">
        <ele>190</ele>
        <time>2018-06-24T10:40:09Z</time>
      </trkpt>
      <trkpt lat="50.09704" lon="3.76272">
        <ele>190</ele>
        <time>2018-06-24T10:40:10Z</time>
      </trkpt>
      <trkpt lat="50.09711" lon="3.76274">
        <ele>190</ele>
        <time>2018-06-24T10:40:11Z</time>
      </trkpt>
      <trkpt lat="50.09717" lon="3.76275">
        <ele>190</ele>
        <time>2018-06-24T10:40:12Z</time>
      </trkpt>
      <trkpt lat="50.09723" lon="3.76277">
        <ele>190</ele>
        <time>2018-06-24T10:40:13Z</time>
      </trkpt>
      <trkpt lat="50.0973" lon="3.76278">
        <ele>190</ele>
        <time>2018-06-24T10:40:14Z</time>
      </trkpt>
      <trkpt lat="50.09736" lon="3.76281">
        <ele>190</ele>
        <time>2018-06-24T10:40:15Z</time>
      </trkpt>
      <trkpt lat="50.09743" lon="3.76283">
        <ele>190</ele>
        <time>2018-06-24T10:40:16Z</time>
      </trkpt>
      <trkpt lat="50.09749" lon="3.76285">
        <ele>190</ele>
        <time>2018-06-24T10:40:17Z</time>
      </trkpt>
      <trkpt lat="50.09757" lon="3.76287">
        <ele>189</ele>
        <time>2018-06-24T10:40:18Z</time>
      </trkpt>
      <trkpt lat="50.09764" lon="3.76291">
        <ele>189</ele>
        <time>2018-06-24T10:40:19Z</time>
      </trkpt>
      <trkpt lat="50.0977" lon="3.76294">
        <ele>189</ele>
        <time>2018-06-24T10:40:20Z</time>
      </trkpt>
      <trkpt lat="50.09777" lon="3.76295">
        <ele>189</ele>
        <time>2018-06-24T10:40:21Z</time>
      </trkpt>
      <trkpt lat="50.09784" lon="3.76297">
        <ele>189</ele>
        <time>2018-06-24T10:40:22Z</time>
      </trkpt>
      <trkpt lat="50.0979" lon="3.76298">
        <ele>188</ele>
        <time>2018-06-24T10:40:23Z</time>
      </trkpt>
      <trkpt lat="50.09797" lon="3.76301">
        <ele>188</ele>
        <time>2018-06-24T10:40:24Z</time>
      </trkpt>
      <trkpt lat="50.09804" lon="3.76304">
        <ele>188</ele>
        <time>2018-06-24T10:40:25Z</time>
      </trkpt>
      <trkpt lat="50.09811" lon="3.76307">
        <ele>188</ele>
        <time>2018-06-24T10:40:26Z</time>
      </trkpt>
      <trkpt lat="50.09819" lon="3.76308">
        <ele>188</ele>
        <time>2018-06-24T10:40:27Z</time>
      </trkpt>
      <trkpt lat="50.09827" lon="3.7631">
        <ele>188</ele>
        <time>2018-06-24T10:40:28Z</time>
      </trkpt>
      <trkpt lat="50.09835" lon="3.76312">
        <ele>187</ele>
        <time>2018-06-24T10:40:29Z</time>
      </trkpt>
      <trkpt lat="50.09842" lon="3.76314">
        <ele>187</ele>
        <time>2018-06-24T10:40:30Z</time>
      </trkpt>
      <trkpt lat="50.09849" lon="3.76315">
        <ele>187</ele>
        <time>2018-06-24T10:40:31Z</time>
      </trkpt>
      <trkpt lat="50.09857" lon="3.76317">
        <ele>187</ele>
        <time>2018-06-24T10:40:32Z</time>
      </trkpt>
      <trkpt lat="50.09864" lon="3.76319">
        <ele>187</ele>
        <time>2018-06-24T10:40:33Z</time>
      </trkpt>
      <trkpt lat="50.09871" lon="3.76321">
        <ele>187</ele>
        <time>2018-06-24T10:40:34Z</time>
      </trkpt>
      <trkpt lat="50.09878" lon="3.76323">
        <ele>187</ele>
        <time>2018-06-24T10:40:35Z</time>
      </trkpt>
      <trkpt lat="50.09885" lon="3.76325">
        <ele>187</ele>
        <time>2018-06-24T10:40:36Z</time>
      </trkpt>
      <trkpt lat="50.09893" lon="3.76327">
        <ele>186</ele>
        <time>2018-06-24T10:40:37Z</time>
      </trkpt>
      <trkpt lat="50.09901" lon="3.76329">
        <ele>186</ele>
        <time>2018-06-24T10:40:38Z</time>
      </trkpt>
      <trkpt lat="50.09908" lon="3.7633">
        <ele>186</ele>
        <time>2018-06-24T10:40:39Z</time>
      </trkpt>
      <trkpt lat="50.09916" lon="3.76332">
        <ele>186</ele>
        <time>2018-06-24T10:40:40Z</time>
      </trkpt>
      <trkpt lat="50.09924" lon="3.76334">
        <ele>185</ele>
        <time>2018-06-24T10:40:41Z</time>
      </trkpt>
      <trkpt lat="50.09932" lon="3.76335">
        <ele>185</ele>
        <time>2018-06-24T10:40:42Z</time>
      </trkpt>
      <trkpt lat="50.09939" lon="3.76339">
        <ele>185</ele>
        <time>2018-06-24T10:40:43Z</time>
      </trkpt>
      <trkpt lat="50.09948" lon="3.76341">
        <ele>184</ele>
        <time>2018-06-24T10:40:44Z</time>
      </trkpt>
      <trkpt lat="50.09955" lon="3.76344">
        <ele>184</ele>
        <time>2018-06-24T10:40:45Z</time>
      </trkpt>
      <trkpt lat="50.09963" lon="3.76346">
        <ele>184</ele>
        <time>2018-06-24T10:40:46Z</time>
      </trkpt>
      <trkpt lat="50.09971" lon="3.76348">
        <ele>183</ele>
        <time>2018-06-24T10:40:47Z</time>
      </trkpt>
      <trkpt lat="50.09978" lon="3.76351">
        <ele>183</ele>
        <time>2018-06-24T10:40:48Z</time>
      </trkpt>
      <trkpt lat="50.09986" lon="3.76353">
        <ele>183</ele>
        <time>2018-06-24T10:40:49Z</time>
      </trkpt>
      <trkpt lat="50.09994" lon="3.76356">
        <ele>183</ele>
        <time>2018-06-24T10:40:50Z</time>
      </trkpt>
      <trkpt lat="50.10001" lon="3.76358">
        <ele>182</ele>
        <time>2018-06-24T10:40:51Z</time>
      </trkpt>
      <trkpt lat="50.10008" lon="3.76361">
        <ele>182</ele>
        <time>2018-06-24T10:40:52Z</time>
      </trkpt>
      <trkpt lat="50.10016" lon="3.76363">
        <ele>182</ele>
        <time>2018-06-24T10:40:53Z</time>
      </trkpt>
      <trkpt lat="50.10023" lon="3.76365">
        <ele>182</ele>
        <time>2018-06-24T10:40:54Z</time>
      </trkpt>
      <trkpt lat="50.1003" lon="3.76366">
        <ele>182</ele>
        <time>2018-06-24T10:40:55Z</time>
      </trkpt>
      <trkpt lat="50.10037" lon="3.76367">
        <ele>182</ele>
        <time>2018-06-24T10:40:56Z</time>
      </trkpt>
      <trkpt lat="50.10045" lon="3.7637">
        <ele>181</ele>
        <time>2018-06-24T10:40:57Z</time>
      </trkpt>
      <trkpt lat="50.10052" lon="3.76371">
        <ele>181</ele>
        <time>2018-06-24T10:40:58Z</time>
      </trkpt>
      <trkpt lat="50.10059" lon="3.76371">
        <ele>181</ele>
        <time>2018-06-24T10:40:59Z</time>
      </trkpt>
      <trkpt lat="50.10067" lon="3.76371">
        <ele>181</ele>
        <time>2018-06-24T10:41:00Z</time>
      </trkpt>
      <trkpt lat="50.10074" lon="3.76371">
        <ele>181</ele>
        <time>2018-06-24T10:41:01Z</time>
      </trkpt>
      <trkpt lat="50.10082" lon="3.76371">
        <ele>181</ele>
        <time>2018-06-24T10:41:02Z</time>
      </trkpt>
      <trkpt lat="50.10089" lon="3.76371">
        <ele>181</ele>
        <time>2018-06-24T10:41:03Z</time>
      </trkpt>
      <trkpt lat="50.10096" lon="3.7637">
        <ele>181</ele>
        <time>2018-06-24T10:41:04Z</time>
      </trkpt>
      <trkpt lat="50.10104" lon="3.7637">
        <ele>181</ele>
        <time>2018-06-24T10:41:05Z</time>
      </trkpt>
      <trkpt lat="50.10111" lon="3.7637">
        <ele>181</ele>
        <time>2018-06-24T10:41:06Z</time>
      </trkpt>
      <trkpt lat="50.10118" lon="3.7637">
        <ele>181</ele>
        <time>2018-06-24T10:41:07Z</time>
      </trkpt>
      <trkpt lat="50.10125" lon="3.7637">
        <ele>181</ele>
        <time>2018-06-24T10:41:08Z</time>
      </trkpt>
      <trkpt lat="50.10132" lon="3.7637">
        <ele>181</ele>
        <time>2018-06-24T10:41:09Z</time>
      </trkpt>
      <trkpt lat="50.10139" lon="3.7637">
        <ele>181</ele>
        <time>2018-06-24T10:41:10Z</time>
      </trkpt>
      <trkpt lat="50.10146" lon="3.76369">
        <ele>181</ele>
        <time>2018-06-24T10:41:11Z</time>
      </trkpt>
      <trkpt lat="50.10153" lon="3.76369">
        <ele>181</ele>
        <time>2018-06-24T10:41:12Z</time>
      </trkpt>
      <trkpt lat="50.1016" lon="3.76369">
        <ele>181</ele>
        <time>2018-06-24T10:41:13Z</time>
      </trkpt>
      <trkpt lat="50.10167" lon="3.76368">
        <ele>180</ele>
        <time>2018-06-24T10:41:14Z</time>
      </trkpt>
      <trkpt lat="50.10175" lon="3.76368">
        <ele>180</ele>
        <time>2018-06-24T10:41:15Z</time>
      </trkpt>
      <trkpt lat="50.10182" lon="3.76368">
        <ele>180</ele>
        <time>2018-06-24T10:41:16Z</time>
      </trkpt>
      <trkpt lat="50.10189" lon="3.76368">
        <ele>179</ele>
        <time>2018-06-24T10:41:17Z</time>
      </trkpt>
      <trkpt lat="50.10196" lon="3.76368">
        <ele>179</ele>
        <time>2018-06-24T10:41:18Z</time>
      </trkpt>
      <trkpt lat="50.10204" lon="3.76367">
        <ele>179</ele>
        <time>2018-06-24T10:41:19Z</time>
      </trkpt>
      <trkpt lat="50.10211" lon="3.76368">
        <ele>179</ele>
        <time>2018-06-24T10:41:20Z</time>
      </trkpt>
      <trkpt lat="50.10219" lon="3.76368">
        <ele>179</ele>
        <time>2018-06-24T10:41:21Z</time>
      </trkpt>
      <trkpt lat="50.10226" lon="3.76368">
        <ele>179</ele>
        <time>2018-06-24T10:41:22Z</time>
      </trkpt>
      <trkpt lat="50.10234" lon="3.76368">
        <ele>179</ele>
        <time>2018-06-24T10:41:23Z</time>
      </trkpt>
      <trkpt lat="50.10242" lon="3.76368">
        <ele>179</ele>
        <time>2018-06-24T10:41:24Z</time>
      </trkpt>
      <trkpt lat="50.1025" lon="3.76367">
        <ele>176</ele>
        <time>2018-06-24T10:41:25Z</time>
      </trkpt>
      <trkpt lat="50.10259" lon="3.76368">
        <ele>176</ele>
        <time>2018-06-24T10:41:26Z</time>
      </trkpt>
      <trkpt lat="50.10267" lon="3.76369">
        <ele>176</ele>
        <time>2018-06-24T10:41:27Z</time>
      </trkpt>
      <trkpt lat="50.10275" lon="3.76369">
        <ele>176</ele>
        <time>2018-06-24T10:41:28Z</time>
      </trkpt>
      <trkpt lat="50.10282" lon="3.7637">
        <ele>176</ele>
        <time>2018-06-24T10:41:29Z</time>
      </trkpt>
      <trkpt lat="50.1029" lon="3.7637">
        <ele>175</ele>
        <time>2018-06-24T10:41:30Z</time>
      </trkpt>
      <trkpt lat="50.10298" lon="3.7637">
        <ele>175</ele>
        <time>2018-06-24T10:41:31Z</time>
      </trkpt>
      <trkpt lat="50.10307" lon="3.7637">
        <ele>175</ele>
        <time>2018-06-24T10:41:32Z</time>
      </trkpt>
      <trkpt lat="50.10315" lon="3.7637">
        <ele>175</ele>
        <time>2018-06-24T10:41:33Z</time>
      </trkpt>
      <trkpt lat="50.10324" lon="3.76371">
        <ele>175</ele>
        <time>2018-06-24T10:41:34Z</time>
      </trkpt>
      <trkpt lat="50.10333" lon="3.76371">
        <ele>174</ele>
        <time>2018-06-24T10:41:35Z</time>
      </trkpt>
      <trkpt lat="50.10342" lon="3.76372">
        <ele>173</ele>
        <time>2018-06-24T10:41:36Z</time>
      </trkpt>
      <trkpt lat="50.10351" lon="3.76372">
        <ele>172</ele>
        <time>2018-06-24T10:41:37Z</time>
      </trkpt>
      <trkpt lat="50.10359" lon="3.76372">
        <ele>172</ele>
        <time>2018-06-24T10:41:38Z</time>
      </trkpt>
      <trkpt lat="50.10368" lon="3.76373">
        <ele>172</ele>
        <time>2018-06-24T10:41:39Z</time>
      </trkpt>
      <trkpt lat="50.10377" lon="3.76374">
        <ele>172</ele>
        <time>2018-06-24T10:41:40Z</time>
      </trkpt>
      <trkpt lat="50.10387" lon="3.76375">
        <ele>172</ele>
        <time>2018-06-24T10:41:41Z</time>
      </trkpt>
      <trkpt lat="50.10396" lon="3.76376">
        <ele>172</ele>
        <time>2018-06-24T10:41:42Z</time>
      </trkpt>
      <trkpt lat="50.10406" lon="3.76377">
        <ele>172</ele>
        <time>2018-06-24T10:41:43Z</time>
      </trkpt>
      <trkpt lat="50.10416" lon="3.76377">
        <ele>172</ele>
        <time>2018-06-24T10:41:44Z</time>
      </trkpt>
      <trkpt lat="50.10425" lon="3.76378">
        <ele>171</ele>
        <time>2018-06-24T10:41:45Z</time>
      </trkpt>
      <trkpt lat="50.10435" lon="3.7638">
        <ele>171</ele>
        <time>2018-06-24T10:41:46Z</time>
      </trkpt>
      <trkpt lat="50.10445" lon="3.7638">
        <ele>171</ele>
        <time>2018-06-24T10:41:47Z</time>
      </trkpt>
      <trkpt lat="50.10455" lon="3.76381">
        <ele>171</ele>
        <time>2018-06-24T10:41:48Z</time>
      </trkpt>
      <trkpt lat="50.10465" lon="3.76381">
        <ele>170</ele>
        <time>2018-06-24T10:41:49Z</time>
      </trkpt>
      <trkpt lat="50.10475" lon="3.76381">
        <ele>170</ele>
        <time>2018-06-24T10:41:50Z</time>
      </trkpt>
      <trkpt lat="50.10484" lon="3.76381">
        <ele>170</ele>
        <time>2018-06-24T10:41:51Z</time>
      </trkpt>
      <trkpt lat="50.10494" lon="3.76378">
        <ele>170</ele>
        <time>2018-06-24T10:41:52Z</time>
      </trkpt>
      <trkpt lat="50.10503" lon="3.76377">
        <ele>169</ele>
        <time>2018-06-24T10:41:53Z</time>
      </trkpt>
      <trkpt lat="50.10512" lon="3.76375">
        <ele>169</ele>
        <time>2018-06-24T10:41:54Z</time>
      </trkpt>
      <trkpt lat="50.10522" lon="3.76372">
        <ele>169</ele>
        <time>2018-06-24T10:41:55Z</time>
      </trkpt>
      <trkpt lat="50.10531" lon="3.76366">
        <ele>169</ele>
        <time>2018-06-24T10:41:56Z</time>
      </trkpt>
      <trkpt lat="50.10539" lon="3.76358">
        <ele>169</ele>
        <time>2018-06-24T10:41:57Z</time>
      </trkpt>
      <trkpt lat="50.10547" lon="3.76351">
        <ele>169</ele>
        <time>2018-06-24T10:41:58Z</time>
      </trkpt>
      <trkpt lat="50.10554" lon="3.76345">
        <ele>169</ele>
        <time>2018-06-24T10:41:59Z</time>
      </trkpt>
      <trkpt lat="50.10562" lon="3.76339">
        <ele>169</ele>
        <time>2018-06-24T10:42:00Z</time>
      </trkpt>
      <trkpt lat="50.1057" lon="3.76333">
        <ele>170</ele>
        <time>2018-06-24T10:42:01Z</time>
      </trkpt>
      <trkpt lat="50.10577" lon="3.76327">
        <ele>169</ele>
        <time>2018-06-24T10:42:02Z</time>
      </trkpt>
      <trkpt lat="50.10584" lon="3.76321">
        <ele>169</ele>
        <time>2018-06-24T10:42:03Z</time>
      </trkpt>
      <trkpt lat="50.10591" lon="3.76317">
        <ele>169</ele>
        <time>2018-06-24T10:42:04Z</time>
      </trkpt>
      <trkpt lat="50.10598" lon="3.76314">
        <ele>169</ele>
        <time>2018-06-24T10:42:05Z</time>
      </trkpt>
      <trkpt lat="50.10605" lon="3.76311">
        <ele>168</ele>
        <time>2018-06-24T10:42:06Z</time>
      </trkpt>
      <trkpt lat="50.10612" lon="3.76307">
        <ele>168</ele>
        <time>2018-06-24T10:42:07Z</time>
      </trkpt>
      <trkpt lat="50.1062" lon="3.76304">
        <ele>168</ele>
        <time>2018-06-24T10:42:08Z</time>
      </trkpt>
      <trkpt lat="50.10627" lon="3.763">
        <ele>168</ele>
        <time>2018-06-24T10:42:09Z</time>
      </trkpt>
      <trkpt lat="50.10635" lon="3.76298">
        <ele>168</ele>
        <time>2018-06-24T10:42:10Z</time>
      </trkpt>
      <trkpt lat="50.10643" lon="3.76295">
        <ele>168</ele>
        <time>2018-06-24T10:42:11Z</time>
      </trkpt>
      <trkpt lat="50.1065" lon="3.7629">
        <ele>168</ele>
        <time>2018-06-24T10:42:12Z</time>
      </trkpt>
      <trkpt lat="50.10658" lon="3.76287">
        <ele>168</ele>
        <time>2018-06-24T10:42:13Z</time>
      </trkpt>
      <trkpt lat="50.10666" lon="3.76283">
        <ele>168</ele>
        <time>2018-06-24T10:42:14Z</time>
      </trkpt>
      <trkpt lat="50.10674" lon="3.76281">
        <ele>167</ele>
        <time>2018-06-24T10:42:15Z</time>
      </trkpt>
      <trkpt lat="50.10682" lon="3.76278">
        <ele>167</ele>
        <time>2018-06-24T10:42:16Z</time>
      </trkpt>
      <trkpt lat="50.1069" lon="3.76274">
        <ele>167</ele>
        <time>2018-06-24T10:42:17Z</time>
      </trkpt>
      <trkpt lat="50.10698" lon="3.76271">
        <ele>167</ele>
        <time>2018-06-24T10:42:18Z</time>
      </trkpt>
      <trkpt lat="50.10706" lon="3.76267">
        <ele>167</ele>
        <time>2018-06-24T10:42:19Z</time>
      </trkpt>
      <trkpt lat="50.10714" lon="3.76265">
        <ele>167</ele>
        <time>2018-06-24T10:42:20Z</time>
      </trkpt>
      <trkpt lat="50.10722" lon="3.76264">
        <ele>167</ele>
        <time>2018-06-24T10:42:21Z</time>
      </trkpt>
      <trkpt lat="50.1073" lon="3.76264">
        <ele>167</ele>
        <time>2018-06-24T10:42:22Z</time>
      </trkpt>
      <trkpt lat="50.10737" lon="3.76266">
        <ele>167</ele>
        <time>2018-06-24T10:42:23Z</time>
      </trkpt>
      <trkpt lat="50.10744" lon="3.76268">
        <ele>167</ele>
        <time>2018-06-24T10:42:24Z</time>
      </trkpt>
      <trkpt lat="50.10751" lon="3.76269">
        <ele>168</ele>
        <time>2018-06-24T10:42:25Z</time>
      </trkpt>
      <trkpt lat="50.10758" lon="3.7627">
        <ele>168</ele>
        <time>2018-06-24T10:42:26Z</time>
      </trkpt>
      <trkpt lat="50.10765" lon="3.76273">
        <ele>168</ele>
        <time>2018-06-24T10:42:27Z</time>
      </trkpt>
      <trkpt lat="50.10771" lon="3.76276">
        <ele>168</ele>
        <time>2018-06-24T10:42:28Z</time>
      </trkpt>
      <trkpt lat="50.10778" lon="3.76278">
        <ele>168</ele>
        <time>2018-06-24T10:42:29Z</time>
      </trkpt>
      <trkpt lat="50.10785" lon="3.7628">
        <ele>168</ele>
        <time>2018-06-24T10:42:30Z</time>
      </trkpt>
      <trkpt lat="50.10792" lon="3.76281">
        <ele>168</ele>
        <time>2018-06-24T10:42:31Z</time>
      </trkpt>
      <trkpt lat="50.10799" lon="3.76282">
        <ele>168</ele>
        <time>2018-06-24T10:42:32Z</time>
      </trkpt>
      <trkpt lat="50.10805" lon="3.76283">
        <ele>168</ele>
        <time>2018-06-24T10:42:33Z</time>
      </trkpt>
      <trkpt lat="50.10812" lon="3.76285">
        <ele>168</ele>
        <time>2018-06-24T10:42:34Z</time>
      </trkpt>
      <trkpt lat="50.10818" lon="3.76285">
        <ele>168</ele>
        <time>2018-06-24T10:42:35Z</time>
      </trkpt>
      <trkpt lat="50.10824" lon="3.76286">
        <ele>168</ele>
        <time>2018-06-24T10:42:36Z</time>
      </trkpt>
      <trkpt lat="50.1083" lon="3.76286">
        <ele>168</ele>
        <time>2018-06-24T10:42:37Z</time>
      </trkpt>
      <trkpt lat="50.10837" lon="3.76286">
        <ele>168</ele>
        <time>2018-06-24T10:42:38Z</time>
      </trkpt>
      <trkpt lat="50.10844" lon="3.76287">
        <ele>168</ele>
        <time>2018-06-24T10:42:39Z</time>
      </trkpt>
      <trkpt lat="50.10851" lon="3.76288">
        <ele>168</ele>
        <time>2018-06-24T10:42:40Z</time>
      </trkpt>
      <trkpt lat="50.10858" lon="3.76289">
        <ele>168</ele>
        <time>2018-06-24T10:42:41Z</time>
      </trkpt>
      <trkpt lat="50.10866" lon="3.76291">
        <ele>168</ele>
        <time>2018-06-24T10:42:42Z</time>
      </trkpt>
      <trkpt lat="50.10873" lon="3.76293">
        <ele>168</ele>
        <time>2018-06-24T10:42:43Z</time>
      </trkpt>
      <trkpt lat="50.10879" lon="3.76294">
        <ele>167</ele>
        <time>2018-06-24T10:42:44Z</time>
      </trkpt>
      <trkpt lat="50.10887" lon="3.76295">
        <ele>167</ele>
        <time>2018-06-24T10:42:45Z</time>
      </trkpt>
      <trkpt lat="50.10894" lon="3.76296">
        <ele>167</ele>
        <time>2018-06-24T10:42:46Z</time>
      </trkpt>
      <trkpt lat="50.10901" lon="3.76297">
        <ele>167</ele>
        <time>2018-06-24T10:42:47Z</time>
      </trkpt>
      <trkpt lat="50.10909" lon="3.76297">
        <ele>167</ele>
        <time>2018-06-24T10:42:48Z</time>
      </trkpt>
      <trkpt lat="50.10916" lon="3.76298">
        <ele>167</ele>
        <time>2018-06-24T10:42:49Z</time>
      </trkpt>
      <trkpt lat="50.10924" lon="3.76299">
        <ele>167</ele>
        <time>2018-06-24T10:42:50Z</time>
      </trkpt>
      <trkpt lat="50.10931" lon="3.76299">
        <ele>167</ele>
        <time>2018-06-24T10:42:51Z</time>
      </trkpt>
      <trkpt lat="50.10938" lon="3.763">
        <ele>167</ele>
        <time>2018-06-24T10:42:52Z</time>
      </trkpt>
      <trkpt lat="50.10945" lon="3.76299">
        <ele>168</ele>
        <time>2018-06-24T10:42:53Z</time>
      </trkpt>
      <trkpt lat="50.10952" lon="3.76297">
        <ele>168</ele>
        <time>2018-06-24T10:42:54Z</time>
      </trkpt>
      <trkpt lat="50.1096" lon="3.76294">
        <ele>168</ele>
        <time>2018-06-24T10:42:55Z</time>
      </trkpt>
      <trkpt lat="50.10967" lon="3.76291">
        <ele>168</ele>
        <time>2018-06-24T10:42:56Z</time>
      </trkpt>
      <trkpt lat="50.10974" lon="3.76286">
        <ele>168</ele>
        <time>2018-06-24T10:42:57Z</time>
      </trkpt>
      <trkpt lat="50.1098" lon="3.76283">
        <ele>169</ele>
        <time>2018-06-24T10:42:58Z</time>
      </trkpt>
      <trkpt lat="50.10987" lon="3.76279">
        <ele>169</ele>
        <time>2018-06-24T10:42:59Z</time>
      </trkpt>
      <trkpt lat="50.10993" lon="3.76275">
        <ele>169</ele>
        <time>2018-06-24T10:43:00Z</time>
      </trkpt>
      <trkpt lat="50.10998" lon="3.76272">
        <ele>169</ele>
        <time>2018-06-24T10:43:01Z</time>
      </trkpt>
      <trkpt lat="50.11004" lon="3.76267">
        <ele>170</ele>
        <time>2018-06-24T10:43:02Z</time>
      </trkpt>
      <trkpt lat="50.1101" lon="3.76264">
        <ele>170</ele>
        <time>2018-06-24T10:43:03Z</time>
      </trkpt>
      <trkpt lat="50.11016" lon="3.7626">
        <ele>170</ele>
        <time>2018-06-24T10:43:04Z</time>
      </trkpt>
      <trkpt lat="50.11022" lon="3.76256">
        <ele>170</ele>
        <time>2018-06-24T10:43:05Z</time>
      </trkpt>
      <trkpt lat="50.11028" lon="3.76252">
        <ele>170</ele>
        <time>2018-06-24T10:43:06Z</time>
      </trkpt>
      <trkpt lat="50.11034" lon="3.76246">
        <ele>171</ele>
        <time>2018-06-24T10:43:07Z</time>
      </trkpt>
      <trkpt lat="50.1104" lon="3.76241">
        <ele>171</ele>
        <time>2018-06-24T10:43:08Z</time>
      </trkpt>
      <trkpt lat="50.11046" lon="3.76237">
        <ele>171</ele>
        <time>2018-06-24T10:43:09Z</time>
      </trkpt>
      <trkpt lat="50.11051" lon="3.76232">
        <ele>171</ele>
        <time>2018-06-24T10:43:10Z</time>
      </trkpt>
      <trkpt lat="50.11057" lon="3.76228">
        <ele>171</ele>
        <time>2018-06-24T10:43:11Z</time>
      </trkpt>
      <trkpt lat="50.11063" lon="3.76224">
        <ele>171</ele>
        <time>2018-06-24T10:43:12Z</time>
      </trkpt>
      <trkpt lat="50.11069" lon="3.76221">
        <ele>171</ele>
        <time>2018-06-24T10:43:13Z</time>
      </trkpt>
      <trkpt lat="50.11074" lon="3.76216">
        <ele>171</ele>
        <time>2018-06-24T10:43:14Z</time>
      </trkpt>
      <trkpt lat="50.1108" lon="3.76212">
        <ele>171</ele>
        <time>2018-06-24T10:43:15Z</time>
      </trkpt>
      <trkpt lat="50.11086" lon="3.76206">
        <ele>170</ele>
        <time>2018-06-24T10:43:16Z</time>
      </trkpt>
      <trkpt lat="50.11091" lon="3.76202">
        <ele>170</ele>
        <time>2018-06-24T10:43:17Z</time>
      </trkpt>
      <trkpt lat="50.11096" lon="3.76197">
        <ele>170</ele>
        <time>2018-06-24T10:43:18Z</time>
      </trkpt>
      <trkpt lat="50.11101" lon="3.76191">
        <ele>170</ele>
        <time>2018-06-24T10:43:19Z</time>
      </trkpt>
      <trkpt lat="50.11106" lon="3.76187">
        <ele>169</ele>
        <time>2018-06-24T10:43:20Z</time>
      </trkpt>
      <trkpt lat="50.11112" lon="3.76181">
        <ele>169</ele>
        <time>2018-06-24T10:43:21Z</time>
      </trkpt>
      <trkpt lat="50.11117" lon="3.76176">
        <ele>169</ele>
        <time>2018-06-24T10:43:22Z</time>
      </trkpt>
      <trkpt lat="50.11123" lon="3.76172">
        <ele>169</ele>
        <time>2018-06-24T10:43:23Z</time>
      </trkpt>
      <trkpt lat="50.11129" lon="3.76167">
        <ele>169</ele>
        <time>2018-06-24T10:43:24Z</time>
      </trkpt>
      <trkpt lat="50.11135" lon="3.76163">
        <ele>170</ele>
        <time>2018-06-24T10:43:25Z</time>
      </trkpt>
      <trkpt lat="50.11142" lon="3.76158">
        <ele>170</ele>
        <time>2018-06-24T10:43:26Z</time>
      </trkpt>
      <trkpt lat="50.11148" lon="3.76153">
        <ele>170</ele>
        <time>2018-06-24T10:43:27Z</time>
      </trkpt>
      <trkpt lat="50.11155" lon="3.76149">
        <ele>170</ele>
        <time>2018-06-24T10:43:28Z</time>
      </trkpt>
      <trkpt lat="50.11161" lon="3.76145">
        <ele>170</ele>
        <time>2018-06-24T10:43:29Z</time>
      </trkpt>
      <trkpt lat="50.11168" lon="3.76141">
        <ele>169</ele>
        <time>2018-06-24T10:43:30Z</time>
      </trkpt>
      <trkpt lat="50.11175" lon="3.76138">
        <ele>169</ele>
        <time>2018-06-24T10:43:31Z</time>
      </trkpt>
      <trkpt lat="50.11182" lon="3.76134">
        <ele>170</ele>
        <time>2018-06-24T10:43:32Z</time>
      </trkpt>
      <trkpt lat="50.11189" lon="3.76131">
        <ele>170</ele>
        <time>2018-06-24T10:43:33Z</time>
      </trkpt>
      <trkpt lat="50.11196" lon="3.76127">
        <ele>170</ele>
        <time>2018-06-24T10:43:34Z</time>
      </trkpt>
      <trkpt lat="50.11203" lon="3.76125">
        <ele>170</ele>
        <time>2018-06-24T10:43:35Z</time>
      </trkpt>
      <trkpt lat="50.11209" lon="3.76121">
        <ele>170</ele>
        <time>2018-06-24T10:43:36Z</time>
      </trkpt>
      <trkpt lat="50.11216" lon="3.76118">
        <ele>170</ele>
        <time>2018-06-24T10:43:37Z</time>
      </trkpt>
      <trkpt lat="50.11222" lon="3.76115">
        <ele>170</ele>
        <time>2018-06-24T10:43:38Z</time>
      </trkpt>
      <trkpt lat="50.11229" lon="3.76111">
        <ele>170</ele>
        <time>2018-06-24T10:43:39Z</time>
      </trkpt>
      <trkpt lat="50.11236" lon="3.76108">
        <ele>170</ele>
        <time>2018-06-24T10:43:40Z</time>
      </trkpt>
      <trkpt lat="50.11244" lon="3.76104">
        <ele>170</ele>
        <time>2018-06-24T10:43:41Z</time>
      </trkpt>
      <trkpt lat="50.11251" lon="3.76101">
        <ele>169</ele>
        <time>2018-06-24T10:43:42Z</time>
      </trkpt>
      <trkpt lat="50.11258" lon="3.76097">
        <ele>169</ele>
        <time>2018-06-24T10:43:43Z</time>
      </trkpt>
      <trkpt lat="50.11265" lon="3.76094">
        <ele>169</ele>
        <time>2018-06-24T10:43:44Z</time>
      </trkpt>
      <trkpt lat="50.11273" lon="3.7609">
        <ele>168</ele>
        <time>2018-06-24T10:43:45Z</time>
      </trkpt>
      <trkpt lat="50.11281" lon="3.76086">
        <ele>168</ele>
        <time>2018-06-24T10:43:46Z</time>
      </trkpt>
      <trkpt lat="50.11288" lon="3.76083">
        <ele>169</ele>
        <time>2018-06-24T10:43:47Z</time>
      </trkpt>
      <trkpt lat="50.11296" lon="3.76079">
        <ele>169</ele>
        <time>2018-06-24T10:43:48Z</time>
      </trkpt>
      <trkpt lat="50.11305" lon="3.76075">
        <ele>169</ele>
        <time>2018-06-24T10:43:49Z</time>
      </trkpt>
      <trkpt lat="50.11313" lon="3.76073">
        <ele>168</ele>
        <time>2018-06-24T10:43:50Z</time>
      </trkpt>
      <trkpt lat="50.11321" lon="3.76071">
        <ele>168</ele>
        <time>2018-06-24T10:43:51Z</time>
      </trkpt>
      <trkpt lat="50.11329" lon="3.7607">
        <ele>168</ele>
        <time>2018-06-24T10:43:52Z</time>
      </trkpt>
      <trkpt lat="50.11336" lon="3.7607">
        <ele>167</ele>
        <time>2018-06-24T10:43:53Z</time>
      </trkpt>
      <trkpt lat="50.11344" lon="3.7607">
        <ele>167</ele>
        <time>2018-06-24T10:43:54Z</time>
      </trkpt>
      <trkpt lat="50.11351" lon="3.76071">
        <ele>166</ele>
        <time>2018-06-24T10:43:55Z</time>
      </trkpt>
      <trkpt lat="50.11359" lon="3.76072">
        <ele>166</ele>
        <time>2018-06-24T10:43:56Z</time>
      </trkpt>
      <trkpt lat="50.11367" lon="3.76074">
        <ele>166</ele>
        <time>2018-06-24T10:43:57Z</time>
      </trkpt>
      <trkpt lat="50.11375" lon="3.76076">
        <ele>166</ele>
        <time>2018-06-24T10:43:58Z</time>
      </trkpt>
      <trkpt lat="50.11382" lon="3.76078">
        <ele>166</ele>
        <time>2018-06-24T10:43:59Z</time>
      </trkpt>
      <trkpt lat="50.1139" lon="3.76079">
        <ele>165</ele>
        <time>2018-06-24T10:44:00Z</time>
      </trkpt>
      <trkpt lat="50.11398" lon="3.76081">
        <ele>165</ele>
        <time>2018-06-24T10:44:01Z</time>
      </trkpt>
      <trkpt lat="50.11406" lon="3.76083">
        <ele>165</ele>
        <time>2018-06-24T10:44:02Z</time>
      </trkpt>
      <trkpt lat="50.11414" lon="3.76084">
        <ele>164</ele>
        <time>2018-06-24T10:44:03Z</time>
      </trkpt>
      <trkpt lat="50.11423" lon="3.76084">
        <ele>164</ele>
        <time>2018-06-24T10:44:04Z</time>
      </trkpt>
      <trkpt lat="50.11431" lon="3.76084">
        <ele>163</ele>
        <time>2018-06-24T10:44:05Z</time>
      </trkpt>
      <trkpt lat="50.11439" lon="3.76084">
        <ele>163</ele>
        <time>2018-06-24T10:44:06Z</time>
      </trkpt>
      <trkpt lat="50.11447" lon="3.76083">
        <ele>164</ele>
        <time>2018-06-24T10:44:07Z</time>
      </trkpt>
      <trkpt lat="50.11455" lon="3.76083">
        <ele>163</ele>
        <time>2018-06-24T10:44:08Z</time>
      </trkpt>
      <trkpt lat="50.11463" lon="3.76083">
        <ele>163</ele>
        <time>2018-06-24T10:44:09Z</time>
      </trkpt>
      <trkpt lat="50.11472" lon="3.76082">
        <ele>163</ele>
        <time>2018-06-24T10:44:10Z</time>
      </trkpt>
      <trkpt lat="50.1148" lon="3.76081">
        <ele>163</ele>
        <time>2018-06-24T10:44:11Z</time>
      </trkpt>
      <trkpt lat="50.11489" lon="3.7608">
        <ele>163</ele>
        <time>2018-06-24T10:44:12Z</time>
      </trkpt>
      <trkpt lat="50.11498" lon="3.7608">
        <ele>162</ele>
        <time>2018-06-24T10:44:13Z</time>
      </trkpt>
      <trkpt lat="50.11507" lon="3.76077">
        <ele>162</ele>
        <time>2018-06-24T10:44:14Z</time>
      </trkpt>
      <trkpt lat="50.11515" lon="3.76075">
        <ele>161</ele>
        <time>2018-06-24T10:44:15Z</time>
      </trkpt>
      <trkpt lat="50.11523" lon="3.76072">
        <ele>161</ele>
        <time>2018-06-24T10:44:16Z</time>
      </trkpt>
      <trkpt lat="50.11532" lon="3.7607">
        <ele>161</ele>
        <time>2018-06-24T10:44:17Z</time>
      </trkpt>
      <trkpt lat="50.11541" lon="3.76067">
        <ele>160</ele>
        <time>2018-06-24T10:44:18Z</time>
      </trkpt>
      <trkpt lat="50.1155" lon="3.76065">
        <ele>160</ele>
        <time>2018-06-24T10:44:19Z</time>
      </trkpt>
      <trkpt lat="50.11559" lon="3.76062">
        <ele>160</ele>
        <time>2018-06-24T10:44:20Z</time>
      </trkpt>
      <trkpt lat="50.11568" lon="3.76058">
        <ele>160</ele>
        <time>2018-06-24T10:44:21Z</time>
      </trkpt>
      <trkpt lat="50.11577" lon="3.76055">
        <ele>160</ele>
        <time>2018-06-24T10:44:22Z</time>
      </trkpt>
      <trkpt lat="50.11587" lon="3.76052">
        <ele>157</ele>
        <time>2018-06-24T10:44:23Z</time>
      </trkpt>
      <trkpt lat="50.11597" lon="3.76049">
        <ele>157</ele>
        <time>2018-06-24T10:44:24Z</time>
      </trkpt>
      <trkpt lat="50.11608" lon="3.76049">
        <ele>157</ele>
        <time>2018-06-24T10:44:25Z</time>
      </trkpt>
      <trkpt lat="50.11618" lon="3.76049">
        <ele>156</ele>
        <time>2018-06-24T10:44:26Z</time>
      </trkpt>
      <trkpt lat="50.11629" lon="3.7605">
        <ele>156</ele>
        <time>2018-06-24T10:44:27Z</time>
      </trkpt>
      <trkpt lat="50.11639" lon="3.76053">
        <ele>156</ele>
        <time>2018-06-24T10:44:28Z</time>
      </trkpt>
      <trkpt lat="50.11649" lon="3.76056">
        <ele>156</ele>
        <time>2018-06-24T10:44:29Z</time>
      </trkpt>
      <trkpt lat="50.11659" lon="3.7606">
        <ele>155</ele>
        <time>2018-06-24T10:44:30Z</time>
      </trkpt>
      <trkpt lat="50.11668" lon="3.76066">
        <ele>153</ele>
        <time>2018-06-24T10:44:31Z</time>
      </trkpt>
      <trkpt lat="50.11677" lon="3.76074">
        <ele>153</ele>
        <time>2018-06-24T10:44:32Z</time>
      </trkpt>
      <trkpt lat="50.11687" lon="3.7608">
        <ele>153</ele>
        <time>2018-06-24T10:44:33Z</time>
      </trkpt>
      <trkpt lat="50.11696" lon="3.76087">
        <ele>153</ele>
        <time>2018-06-24T10:44:34Z</time>
      </trkpt>
      <trkpt lat="50.11706" lon="3.76094">
        <ele>152</ele>
        <time>2018-06-24T10:44:35Z</time>
      </trkpt>
      <trkpt lat="50.11715" lon="3.76101">
        <ele>152</ele>
        <time>2018-06-24T10:44:36Z</time>
      </trkpt>
      <trkpt lat="50.11725" lon="3.76107">
        <ele>152</ele>
        <time>2018-06-24T10:44:37Z</time>
      </trkpt>
      <trkpt lat="50.11734" lon="3.76113">
        <ele>152</ele>
        <time>2018-06-24T10:44:38Z</time>
      </trkpt>
      <trkpt lat="50.11743" lon="3.76119">
        <ele>152</ele>
        <time>2018-06-24T10:44:39Z</time>
      </trkpt>
      <trkpt lat="50.11753" lon="3.76124">
        <ele>149</ele>
        <time>2018-06-24T10:44:40Z</time>
      </trkpt>
      <trkpt lat="50.11762" lon="3.76129">
        <ele>149</ele>
        <time>2018-06-24T10:44:41Z</time>
      </trkpt>
      <trkpt lat="50.11771" lon="3.76135">
        <ele>149</ele>
        <time>2018-06-24T10:44:42Z</time>
      </trkpt>
      <trkpt lat="50.11781" lon="3.76139">
        <ele>149</ele>
        <time>2018-06-24T10:44:43Z</time>
      </trkpt>
      <trkpt lat="50.11791" lon="3.76144">
        <ele>149</ele>
        <time>2018-06-24T10:44:44Z</time>
      </trkpt>
      <trkpt lat="50.118" lon="3.76149">
        <ele>148</ele>
        <time>2018-06-24T10:44:45Z</time>
      </trkpt>
      <trkpt lat="50.1181" lon="3.76154">
        <ele>148</ele>
        <time>2018-06-24T10:44:46Z</time>
      </trkpt>
      <trkpt lat="50.1182" lon="3.7616">
        <ele>147</ele>
        <time>2018-06-24T10:44:47Z</time>
      </trkpt>
      <trkpt lat="50.1183" lon="3.76165">
        <ele>146</ele>
        <time>2018-06-24T10:44:48Z</time>
      </trkpt>
      <trkpt lat="50.1184" lon="3.76171">
        <ele>145</ele>
        <time>2018-06-24T10:44:49Z</time>
      </trkpt>
      <trkpt lat="50.11849" lon="3.76177">
        <ele>145</ele>
        <time>2018-06-24T10:44:50Z</time>
      </trkpt>
      <trkpt lat="50.11858" lon="3.76182">
        <ele>144</ele>
        <time>2018-06-24T10:44:51Z</time>
      </trkpt>
      <trkpt lat="50.11868" lon="3.76188">
        <ele>144</ele>
        <time>2018-06-24T10:44:52Z</time>
      </trkpt>
      <trkpt lat="50.11877" lon="3.76194">
        <ele>144</ele>
        <time>2018-06-24T10:44:53Z</time>
      </trkpt>
      <trkpt lat="50.11885" lon="3.762">
        <ele>144</ele>
        <time>2018-06-24T10:44:54Z</time>
      </trkpt>
      <trkpt lat="50.11894" lon="3.76206">
        <ele>143</ele>
        <time>2018-06-24T10:44:55Z</time>
      </trkpt>
      <trkpt lat="50.11903" lon="3.7621">
        <ele>143</ele>
        <time>2018-06-24T10:44:56Z</time>
      </trkpt>
      <trkpt lat="50.11912" lon="3.76211">
        <ele>143</ele>
        <time>2018-06-24T10:44:57Z</time>
      </trkpt>
      <trkpt lat="50.1192" lon="3.76207">
        <ele>142</ele>
        <time>2018-06-24T10:44:58Z</time>
      </trkpt>
      <trkpt lat="50.11928" lon="3.76199">
        <ele>142</ele>
        <time>2018-06-24T10:44:59Z</time>
      </trkpt>
      <trkpt lat="50.11934" lon="3.76189">
        <ele>142</ele>
        <time>2018-06-24T10:45:00Z</time>
      </trkpt>
      <trkpt lat="50.1194" lon="3.76179">
        <ele>142</ele>
        <time>2018-06-24T10:45:01Z</time>
      </trkpt>
      <trkpt lat="50.11946" lon="3.76167">
        <ele>142</ele>
        <time>2018-06-24T10:45:02Z</time>
      </trkpt>
      <trkpt lat="50.11953" lon="3.7616">
        <ele>143</ele>
        <time>2018-06-24T10:45:03Z</time>
      </trkpt>
      <trkpt lat="50.1196" lon="3.76151">
        <ele>143</ele>
        <time>2018-06-24T10:45:04Z</time>
      </trkpt>
      <trkpt lat="50.11969" lon="3.76146">
        <ele>143</ele>
        <time>2018-06-24T10:45:05Z</time>
      </trkpt>
      <trkpt lat="50.11978" lon="3.76142">
        <ele>143</ele>
        <time>2018-06-24T10:45:06Z</time>
      </trkpt>
      <trkpt lat="50.11986" lon="3.76137">
        <ele>143</ele>
        <time>2018-06-24T10:45:07Z</time>
      </trkpt>
      <trkpt lat="50.11994" lon="3.76131">
        <ele>143</ele>
        <time>2018-06-24T10:45:08Z</time>
      </trkpt>
      <trkpt lat="50.12001" lon="3.76126">
        <ele>141</ele>
        <time>2018-06-24T10:45:09Z</time>
      </trkpt>
      <trkpt lat="50.12008" lon="3.7612">
        <ele>141</ele>
        <time>2018-06-24T10:45:10Z</time>
      </trkpt>
      <trkpt lat="50.12016" lon="3.76114">
        <ele>141</ele>
        <time>2018-06-24T10:45:11Z</time>
      </trkpt>
      <trkpt lat="50.12023" lon="3.76108">
        <ele>141</ele>
        <time>2018-06-24T10:45:12Z</time>
      </trkpt>
      <trkpt lat="50.1203" lon="3.76101">
        <ele>141</ele>
        <time>2018-06-24T10:45:13Z</time>
      </trkpt>
      <trkpt lat="50.12037" lon="3.76095">
        <ele>141</ele>
        <time>2018-06-24T10:45:14Z</time>
      </trkpt>
      <trkpt lat="50.12044" lon="3.76086">
        <ele>141</ele>
        <time>2018-06-24T10:45:15Z</time>
      </trkpt>
      <trkpt lat="50.12051" lon="3.76077">
        <ele>141</ele>
        <time>2018-06-24T10:45:16Z</time>
      </trkpt>
      <trkpt lat="50.12058" lon="3.76069">
        <ele>140</ele>
        <time>2018-06-24T10:45:17Z</time>
      </trkpt>
      <trkpt lat="50.12064" lon="3.7606">
        <ele>140</ele>
        <time>2018-06-24T10:45:18Z</time>
      </trkpt>
      <trkpt lat="50.1207" lon="3.76049">
        <ele>140</ele>
        <time>2018-06-24T10:45:19Z</time>
      </trkpt>
      <trkpt lat="50.12074" lon="3.76039">
        <ele>140</ele>
        <time>2018-06-24T10:45:20Z</time>
      </trkpt>
      <trkpt lat="50.12079" lon="3.76028">
        <ele>140</ele>
        <time>2018-06-24T10:45:21Z</time>
      </trkpt>
      <trkpt lat="50.12083" lon="3.76017">
        <ele>139</ele>
        <time>2018-06-24T10:45:22Z</time>
      </trkpt>
      <trkpt lat="50.12087" lon="3.76005">
        <ele>138</ele>
        <time>2018-06-24T10:45:23Z</time>
      </trkpt>
      <trkpt lat="50.12091" lon="3.75995">
        <ele>139</ele>
        <time>2018-06-24T10:45:24Z</time>
      </trkpt>
      <trkpt lat="50.12094" lon="3.75984">
        <ele>139</ele>
        <time>2018-06-24T10:45:25Z</time>
      </trkpt>
      <trkpt lat="50.12099" lon="3.75973">
        <ele>140</ele>
        <time>2018-06-24T10:45:26Z</time>
      </trkpt>
      <trkpt lat="50.12102" lon="3.75963">
        <ele>140</ele>
        <time>2018-06-24T10:45:27Z</time>
      </trkpt>
      <trkpt lat="50.12105" lon="3.75953">
        <ele>140</ele>
        <time>2018-06-24T10:45:28Z</time>
      </trkpt>
      <trkpt lat="50.12109" lon="3.75944">
        <ele>140</ele>
        <time>2018-06-24T10:45:29Z</time>
      </trkpt>
      <trkpt lat="50.12113" lon="3.75935">
        <ele>140</ele>
        <time>2018-06-24T10:45:30Z</time>
      </trkpt>
      <trkpt lat="50.12117" lon="3.75927">
        <ele>141</ele>
        <time>2018-06-24T10:45:31Z</time>
      </trkpt>
      <trkpt lat="50.12122" lon="3.75919">
        <ele>141</ele>
        <time>2018-06-24T10:45:32Z</time>
      </trkpt>
      <trkpt lat="50.12126" lon="3.7591">
        <ele>142</ele>
        <time>2018-06-24T10:45:33Z</time>
      </trkpt>
      <trkpt lat="50.12131" lon="3.75902">
        <ele>142</ele>
        <time>2018-06-24T10:45:34Z</time>
      </trkpt>
      <trkpt lat="50.12135" lon="3.75894">
        <ele>142</ele>
        <time>2018-06-24T10:45:35Z</time>
      </trkpt>
      <trkpt lat="50.12141" lon="3.75887">
        <ele>142</ele>
        <time>2018-06-24T10:45:36Z</time>
      </trkpt>
      <trkpt lat="50.12146" lon="3.75879">
        <ele>142</ele>
        <time>2018-06-24T10:45:37Z</time>
      </trkpt>
      <trkpt lat="50.12151" lon="3.75871">
        <ele>143</ele>
        <time>2018-06-24T10:45:38Z</time>
      </trkpt>
      <trkpt lat="50.12156" lon="3.75864">
        <ele>143</ele>
        <time>2018-06-24T10:45:39Z</time>
      </trkpt>
      <trkpt lat="50.12161" lon="3.75857">
        <ele>143</ele>
        <time>2018-06-24T10:45:40Z</time>
      </trkpt>
      <trkpt lat="50.12166" lon="3.75849">
        <ele>143</ele>
        <time>2018-06-24T10:45:41Z</time>
      </trkpt>
      <trkpt lat="50.12171" lon="3.75841">
        <ele>143</ele>
        <time>2018-06-24T10:45:42Z</time>
      </trkpt>
      <trkpt lat="50.12175" lon="3.75833">
        <ele>143</ele>
        <time>2018-06-24T10:45:43Z</time>
      </trkpt>
      <trkpt lat="50.1218" lon="3.75825">
        <ele>143</ele>
        <time>2018-06-24T10:45:44Z</time>
      </trkpt>
      <trkpt lat="50.12185" lon="3.75817">
        <ele>143</ele>
        <time>2018-06-24T10:45:45Z</time>
      </trkpt>
      <trkpt lat="50.12189" lon="3.75808">
        <ele>142</ele>
        <time>2018-06-24T10:45:46Z</time>
      </trkpt>
      <trkpt lat="50.12193" lon="3.75799">
        <ele>142</ele>
        <time>2018-06-24T10:45:47Z</time>
      </trkpt>
      <trkpt lat="50.12198" lon="3.75789">
        <ele>142</ele>
        <time>2018-06-24T10:45:48Z</time>
      </trkpt>
      <trkpt lat="50.12202" lon="3.7578">
        <ele>142</ele>
        <time>2018-06-24T10:45:49Z</time>
      </trkpt>
      <trkpt lat="50.12206" lon="3.7577">
        <ele>142</ele>
        <time>2018-06-24T10:45:50Z</time>
      </trkpt>
      <trkpt lat="50.1221" lon="3.7576">
        <ele>142</ele>
        <time>2018-06-24T10:45:51Z</time>
      </trkpt>
      <trkpt lat="50.12215" lon="3.7575">
        <ele>142</ele>
        <time>2018-06-24T10:45:52Z</time>
      </trkpt>
      <trkpt lat="50.1222" lon="3.7574">
        <ele>142</ele>
        <time>2018-06-24T10:45:53Z</time>
      </trkpt>
      <trkpt lat="50.12224" lon="3.75731">
        <ele>142</ele>
        <time>2018-06-24T10:45:54Z</time>
      </trkpt>
      <trkpt lat="50.12229" lon="3.75721">
        <ele>141</ele>
        <time>2018-06-24T10:45:55Z</time>
      </trkpt>
      <trkpt lat="50.12235" lon="3.75711">
        <ele>141</ele>
        <time>2018-06-24T10:45:56Z</time>
      </trkpt>
      <trkpt lat="50.12241" lon="3.75701">
        <ele>141</ele>
        <time>2018-06-24T10:45:57Z</time>
      </trkpt>
      <trkpt lat="50.12247" lon="3.75688">
        <ele>141</ele>
        <time>2018-06-24T10:45:58Z</time>
      </trkpt>
      <trkpt lat="50.12252" lon="3.75677">
        <ele>140</ele>
        <time>2018-06-24T10:45:59Z</time>
      </trkpt>
      <trkpt lat="50.12258" lon="3.75667">
        <ele>140</ele>
        <time>2018-06-24T10:46:00Z</time>
      </trkpt>
      <trkpt lat="50.12264" lon="3.75658">
        <ele>139</ele>
        <time>2018-06-24T10:46:01Z</time>
      </trkpt>
      <trkpt lat="50.12271" lon="3.75653">
        <ele>139</ele>
        <time>2018-06-24T10:46:02Z</time>
      </trkpt>
      <trkpt lat="50.1228" lon="3.75655">
        <ele>139</ele>
        <time>2018-06-24T10:46:03Z</time>
      </trkpt>
      <trkpt lat="50.12287" lon="3.75666">
        <ele>139</ele>
        <time>2018-06-24T10:46:04Z</time>
      </trkpt>
      <trkpt lat="50.12293" lon="3.75677">
        <ele>139</ele>
        <time>2018-06-24T10:46:05Z</time>
      </trkpt>
      <trkpt lat="50.12299" lon="3.75686">
        <ele>139</ele>
        <time>2018-06-24T10:46:06Z</time>
      </trkpt>
      <trkpt lat="50.12305" lon="3.75697">
        <ele>139</ele>
        <time>2018-06-24T10:46:07Z</time>
      </trkpt>
      <trkpt lat="50.1231" lon="3.75706">
        <ele>139</ele>
        <time>2018-06-24T10:46:08Z</time>
      </trkpt>
      <trkpt lat="50.12316" lon="3.75716">
        <ele>139</ele>
        <time>2018-06-24T10:46:09Z</time>
      </trkpt>
      <trkpt lat="50.12322" lon="3.75725">
        <ele>139</ele>
        <time>2018-06-24T10:46:10Z</time>
      </trkpt>
      <trkpt lat="50.12328" lon="3.75735">
        <ele>139</ele>
        <time>2018-06-24T10:46:11Z</time>
      </trkpt>
      <trkpt lat="50.12335" lon="3.75742">
        <ele>139</ele>
        <time>2018-06-24T10:46:12Z</time>
      </trkpt>
      <trkpt lat="50.12341" lon="3.75751">
        <ele>139</ele>
        <time>2018-06-24T10:46:13Z</time>
      </trkpt>
      <trkpt lat="50.12348" lon="3.7576">
        <ele>139</ele>
        <time>2018-06-24T10:46:14Z</time>
      </trkpt>
      <trkpt lat="50.12354" lon="3.75768">
        <ele>139</ele>
        <time>2018-06-24T10:46:15Z</time>
      </trkpt>
      <trkpt lat="50.12361" lon="3.75775">
        <ele>139</ele>
        <time>2018-06-24T10:46:16Z</time>
      </trkpt>
      <trkpt lat="50.12368" lon="3.75782">
        <ele>139</ele>
        <time>2018-06-24T10:46:17Z</time>
      </trkpt>
      <trkpt lat="50.12374" lon="3.75789">
        <ele>139</ele>
        <time>2018-06-24T10:46:18Z</time>
      </trkpt>
      <trkpt lat="50.12381" lon="3.75795">
        <ele>139</ele>
        <time>2018-06-24T10:46:19Z</time>
      </trkpt>
      <trkpt lat="50.12388" lon="3.75801">
        <ele>139</ele>
        <time>2018-06-24T10:46:20Z</time>
      </trkpt>
      <trkpt lat="50.12395" lon="3.75808">
        <ele>139</ele>
        <time>2018-06-24T10:46:21Z</time>
      </trkpt>
      <trkpt lat="50.12401" lon="3.75814">
        <ele>139</ele>
        <time>2018-06-24T10:46:22Z</time>
      </trkpt>
      <trkpt lat="50.12408" lon="3.7582">
        <ele>139</ele>
        <time>2018-06-24T10:46:23Z</time>
      </trkpt>
      <trkpt lat="50.12416" lon="3.75825">
        <ele>138</ele>
        <time>2018-06-24T10:46:24Z</time>
      </trkpt>
      <trkpt lat="50.12423" lon="3.75829">
        <ele>138</ele>
        <time>2018-06-24T10:46:25Z</time>
      </trkpt>
      <trkpt lat="50.12431" lon="3.75834">
        <ele>138</ele>
        <time>2018-06-24T10:46:26Z</time>
      </trkpt>
      <trkpt lat="50.12438" lon="3.75839">
        <ele>138</ele>
        <time>2018-06-24T10:46:27Z</time>
      </trkpt>
      <trkpt lat="50.12445" lon="3.75844">
        <ele>138</ele>
        <time>2018-06-24T10:46:28Z</time>
      </trkpt>
      <trkpt lat="50.12453" lon="3.75849">
        <ele>137</ele>
        <time>2018-06-24T10:46:29Z</time>
      </trkpt>
      <trkpt lat="50.1246" lon="3.75852">
        <ele>137</ele>
        <time>2018-06-24T10:46:30Z</time>
      </trkpt>
      <trkpt lat="50.12468" lon="3.75855">
        <ele>137</ele>
        <time>2018-06-24T10:46:31Z</time>
      </trkpt>
      <trkpt lat="50.12475" lon="3.75858">
        <ele>137</ele>
        <time>2018-06-24T10:46:32Z</time>
      </trkpt>
      <trkpt lat="50.12482" lon="3.7586">
        <ele>137</ele>
        <time>2018-06-24T10:46:33Z</time>
      </trkpt>
      <trkpt lat="50.1249" lon="3.75861">
        <ele>137</ele>
        <time>2018-06-24T10:46:34Z</time>
      </trkpt>
      <trkpt lat="50.12497" lon="3.75863">
        <ele>137</ele>
        <time>2018-06-24T10:46:35Z</time>
      </trkpt>
      <trkpt lat="50.12504" lon="3.75865">
        <ele>137</ele>
        <time>2018-06-24T10:46:36Z</time>
      </trkpt>
      <trkpt lat="50.12511" lon="3.75867">
        <ele>137</ele>
        <time>2018-06-24T10:46:37Z</time>
      </trkpt>
      <trkpt lat="50.12519" lon="3.75869">
        <ele>137</ele>
        <time>2018-06-24T10:46:38Z</time>
      </trkpt>
      <trkpt lat="50.12527" lon="3.75871">
        <ele>137</ele>
        <time>2018-06-24T10:46:39Z</time>
      </trkpt>
      <trkpt lat="50.12535" lon="3.75873">
        <ele>137</ele>
        <time>2018-06-24T10:46:40Z</time>
      </trkpt>
      <trkpt lat="50.12542" lon="3.75876">
        <ele>137</ele>
        <time>2018-06-24T10:46:41Z</time>
      </trkpt>
      <trkpt lat="50.1255" lon="3.75878">
        <ele>137</ele>
        <time>2018-06-24T10:46:42Z</time>
      </trkpt>
      <trkpt lat="50.12557" lon="3.75882">
        <ele>137</ele>
        <time>2018-06-24T10:46:43Z</time>
      </trkpt>
      <trkpt lat="50.12563" lon="3.7589">
        <ele>137</ele>
        <time>2018-06-24T10:46:44Z</time>
      </trkpt>
      <trkpt lat="50.1257" lon="3.75896">
        <ele>137</ele>
        <time>2018-06-24T10:46:45Z</time>
      </trkpt>
      <trkpt lat="50.12576" lon="3.75901">
        <ele>137</ele>
        <time>2018-06-24T10:46:46Z</time>
      </trkpt>
      <trkpt lat="50.12582" lon="3.75906">
        <ele>137</ele>
        <time>2018-06-24T10:46:47Z</time>
      </trkpt>
      <trkpt lat="50.12589" lon="3.75907">
        <ele>137</ele>
        <time>2018-06-24T10:46:48Z</time>
      </trkpt>
      <trkpt lat="50.12597" lon="3.75906">
        <ele>136</ele>
        <time>2018-06-24T10:46:49Z</time>
      </trkpt>
      <trkpt lat="50.12605" lon="3.75904">
        <ele>136</ele>
        <time>2018-06-24T10:46:50Z</time>
      </trkpt>
      <trkpt lat="50.12612" lon="3.75902">
        <ele>136</ele>
        <time>2018-06-24T10:46:51Z</time>
      </trkpt>
      <trkpt lat="50.1262" lon="3.759">
        <ele>136</ele>
        <time>2018-06-24T10:46:52Z</time>
      </trkpt>
      <trkpt lat="50.12628" lon="3.75899">
        <ele>136</ele>
        <time>2018-06-24T10:46:53Z</time>
      </trkpt>
      <trkpt lat="50.12635" lon="3.75897">
        <ele>136</ele>
        <time>2018-06-24T10:46:54Z</time>
      </trkpt>
      <trkpt lat="50.12643" lon="3.75895">
        <ele>136</ele>
        <time>2018-06-24T10:46:55Z</time>
      </trkpt>
      <trkpt lat="50.12651" lon="3.75894">
        <ele>136</ele>
        <time>2018-06-24T10:46:56Z</time>
      </trkpt>
      <trkpt lat="50.12659" lon="3.75892">
        <ele>136</ele>
        <time>2018-06-24T10:46:57Z</time>
      </trkpt>
      <trkpt lat="50.12668" lon="3.75891">
        <ele>135</ele>
        <time>2018-06-24T10:46:58Z</time>
      </trkpt>
      <trkpt lat="50.12675" lon="3.7589">
        <ele>135</ele>
        <time>2018-06-24T10:46:59Z</time>
      </trkpt>
      <trkpt lat="50.12683" lon="3.75889">
        <ele>135</ele>
        <time>2018-06-24T10:47:00Z</time>
      </trkpt>
      <trkpt lat="50.12691" lon="3.75886">
        <ele>135</ele>
        <time>2018-06-24T10:47:01Z</time>
      </trkpt>
      <trkpt lat="50.12699" lon="3.75884">
        <ele>135</ele>
        <time>2018-06-24T10:47:02Z</time>
      </trkpt>
      <trkpt lat="50.12707" lon="3.7588">
        <ele>135</ele>
        <time>2018-06-24T10:47:03Z</time>
      </trkpt>
      <trkpt lat="50.12715" lon="3.75877">
        <ele>135</ele>
        <time>2018-06-24T10:47:04Z</time>
      </trkpt>
      <trkpt lat="50.12723" lon="3.75875">
        <ele>135</ele>
        <time>2018-06-24T10:47:05Z</time>
      </trkpt>
      <trkpt lat="50.12731" lon="3.75874">
        <ele>135</ele>
        <time>2018-06-24T10:47:06Z</time>
      </trkpt>
      <trkpt lat="50.12738" lon="3.75872">
        <ele>135</ele>
        <time>2018-06-24T10:47:07Z</time>
      </trkpt>
      <trkpt lat="50.12746" lon="3.75871">
        <ele>135</ele>
        <time>2018-06-24T10:47:08Z</time>
      </trkpt>
      <trkpt lat="50.12754" lon="3.75871">
        <ele>135</ele>
        <time>2018-06-24T10:47:09Z</time>
      </trkpt>
      <trkpt lat="50.12761" lon="3.75873">
        <ele>135</ele>
        <time>2018-06-24T10:47:10Z</time>
      </trkpt>
      <trkpt lat="50.12769" lon="3.75878">
        <ele>135</ele>
        <time>2018-06-24T10:47:11Z</time>
      </trkpt>
      <trkpt lat="50.12775" lon="3.75886">
        <ele>135</ele>
        <time>2018-06-24T10:47:12Z</time>
      </trkpt>
      <trkpt lat="50.12782" lon="3.75894">
        <ele>135</ele>
        <time>2018-06-24T10:47:13Z</time>
      </trkpt>
      <trkpt lat="50.12788" lon="3.75902">
        <ele>135</ele>
        <time>2018-06-24T10:47:14Z</time>
      </trkpt>
      <trkpt lat="50.12793" lon="3.75909">
        <ele>135</ele>
        <time>2018-06-24T10:47:15Z</time>
      </trkpt>
      <trkpt lat="50.12799" lon="3.75916">
        <ele>135</ele>
        <time>2018-06-24T10:47:16Z</time>
      </trkpt>
      <trkpt lat="50.12805" lon="3.75923">
        <ele>135</ele>
        <time>2018-06-24T10:47:17Z</time>
      </trkpt>
      <trkpt lat="50.1281" lon="3.75931">
        <ele>135</ele>
        <time>2018-06-24T10:47:18Z</time>
      </trkpt>
      <trkpt lat="50.12815" lon="3.7594">
        <ele>135</ele>
        <time>2018-06-24T10:47:19Z</time>
      </trkpt>
      <trkpt lat="50.1282" lon="3.75948">
        <ele>135</ele>
        <time>2018-06-24T10:47:20Z</time>
      </trkpt>
      <trkpt lat="50.12826" lon="3.75955">
        <ele>135</ele>
        <time>2018-06-24T10:47:21Z</time>
      </trkpt>
      <trkpt lat="50.12832" lon="3.75963">
        <ele>135</ele>
        <time>2018-06-24T10:47:22Z</time>
      </trkpt>
      <trkpt lat="50.12837" lon="3.7597">
        <ele>135</ele>
        <time>2018-06-24T10:47:23Z</time>
      </trkpt>
      <trkpt lat="50.12843" lon="3.75975">
        <ele>135</ele>
        <time>2018-06-24T10:47:24Z</time>
      </trkpt>
      <trkpt lat="50.12849" lon="3.7598">
        <ele>135</ele>
        <time>2018-06-24T10:47:25Z</time>
      </trkpt>
      <trkpt lat="50.12855" lon="3.75986">
        <ele>135</ele>
        <time>2018-06-24T10:47:26Z</time>
      </trkpt>
      <trkpt lat="50.12862" lon="3.75989">
        <ele>135</ele>
        <time>2018-06-24T10:47:27Z</time>
      </trkpt>
      <trkpt lat="50.12868" lon="3.75993">
        <ele>135</ele>
        <time>2018-06-24T10:47:28Z</time>
      </trkpt>
      <trkpt lat="50.12875" lon="3.75997">
        <ele>135</ele>
        <time>2018-06-24T10:47:29Z</time>
      </trkpt>
      <trkpt lat="50.12881" lon="3.75999">
        <ele>135</ele>
        <time>2018-06-24T10:47:30Z</time>
      </trkpt>
      <trkpt lat="50.12888" lon="3.76001">
        <ele>135</ele>
        <time>2018-06-24T10:47:31Z</time>
      </trkpt>
      <trkpt lat="50.12894" lon="3.76003">
        <ele>135</ele>
        <time>2018-06-24T10:47:32Z</time>
      </trkpt>
      <trkpt lat="50.12902" lon="3.76004">
        <ele>134</ele>
        <time>2018-06-24T10:47:33Z</time>
      </trkpt>
      <trkpt lat="50.12908" lon="3.76005">
        <ele>134</ele>
        <time>2018-06-24T10:47:34Z</time>
      </trkpt>
      <trkpt lat="50.12915" lon="3.76006">
        <ele>134</ele>
        <time>2018-06-24T10:47:35Z</time>
      </trkpt>
      <trkpt lat="50.12922" lon="3.76007">
        <ele>134</ele>
        <time>2018-06-24T10:47:36Z</time>
      </trkpt>
      <trkpt lat="50.1293" lon="3.76009">
        <ele>134</ele>
        <time>2018-06-24T10:47:37Z</time>
      </trkpt>
      <trkpt lat="50.12937" lon="3.76009">
        <ele>134</ele>
        <time>2018-06-24T10:47:38Z</time>
      </trkpt>
      <trkpt lat="50.12944" lon="3.7601">
        <ele>134</ele>
        <time>2018-06-24T10:47:39Z</time>
      </trkpt>
      <trkpt lat="50.12952" lon="3.7601">
        <ele>134</ele>
        <time>2018-06-24T10:47:40Z</time>
      </trkpt>
      <trkpt lat="50.12959" lon="3.76004">
        <ele>134</ele>
        <time>2018-06-24T10:47:41Z</time>
      </trkpt>
      <trkpt lat="50.12963" lon="3.75993">
        <ele>134</ele>
        <time>2018-06-24T10:47:42Z</time>
      </trkpt>
      <trkpt lat="50.12967" lon="3.75982">
        <ele>134</ele>
        <time>2018-06-24T10:47:43Z</time>
      </trkpt>
      <trkpt lat="50.12969" lon="3.7597">
        <ele>134</ele>
        <time>2018-06-24T10:47:44Z</time>
      </trkpt>
      <trkpt lat="50.1297" lon="3.75959">
        <ele>134</ele>
        <time>2018-06-24T10:47:45Z</time>
      </trkpt>
      <trkpt lat="50.12972" lon="3.75949">
        <ele>134</ele>
        <time>2018-06-24T10:47:46Z</time>
      </trkpt>
      <trkpt lat="50.12974" lon="3.75938">
        <ele>134</ele>
        <time>2018-06-24T10:47:47Z</time>
      </trkpt>
      <trkpt lat="50.12977" lon="3.75928">
        <ele>134</ele>
        <time>2018-06-24T10:47:48Z</time>
      </trkpt>
      <trkpt lat="50.1298" lon="3.75916">
        <ele>134</ele>
        <time>2018-06-24T10:47:49Z</time>
      </trkpt>
      <trkpt lat="50.12983" lon="3.75904">
        <ele>134</ele>
        <time>2018-06-24T10:47:50Z</time>
      </trkpt>
      <trkpt lat="50.12985" lon="3.75893">
        <ele>134</ele>
        <time>2018-06-24T10:47:51Z</time>
      </trkpt>
      <trkpt lat="50.12988" lon="3.75883">
        <ele>134</ele>
        <time>2018-06-24T10:47:52Z</time>
      </trkpt>
      <trkpt lat="50.1299" lon="3.75873">
        <ele>134</ele>
        <time>2018-06-24T10:47:53Z</time>
      </trkpt>
      <trkpt lat="50.12993" lon="3.75864">
        <ele>134</ele>
        <time>2018-06-24T10:47:54Z</time>
      </trkpt>
      <trkpt lat="50.12995" lon="3.75853">
        <ele>134</ele>
        <time>2018-06-24T10:47:55Z</time>
      </trkpt>
      <trkpt lat="50.12997" lon="3.75844">
        <ele>133</ele>
        <time>2018-06-24T10:47:56Z</time>
      </trkpt>
      <trkpt lat="50.12999" lon="3.75836">
        <ele>133</ele>
        <time>2018-06-24T10:47:57Z</time>
      </trkpt>
      <trkpt lat="50.13001" lon="3.75827">
        <ele>133</ele>
        <time>2018-06-24T10:47:58Z</time>
      </trkpt>
      <trkpt lat="50.13003" lon="3.75818">
        <ele>133</ele>
        <time>2018-06-24T10:47:59Z</time>
      </trkpt>
      <trkpt lat="50.13005" lon="3.75808">
        <ele>134</ele>
        <time>2018-06-24T10:48:00Z</time>
      </trkpt>
      <trkpt lat="50.13007" lon="3.75798">
        <ele>134</ele>
        <time>2018-06-24T10:48:01Z</time>
      </trkpt>
      <trkpt lat="50.13008" lon="3.75788">
        <ele>134</ele>
        <time>2018-06-24T10:48:02Z</time>
      </trkpt>
      <trkpt lat="50.13009" lon="3.75778">
        <ele>134</ele>
        <time>2018-06-24T10:48:03Z</time>
      </trkpt>
      <trkpt lat="50.1301" lon="3.75768">
        <ele>134</ele>
        <time>2018-06-24T10:48:04Z</time>
      </trkpt>
      <trkpt lat="50.13011" lon="3.75759">
        <ele>134</ele>
        <time>2018-06-24T10:48:05Z</time>
      </trkpt>
      <trkpt lat="50.13011" lon="3.75749">
        <ele>134</ele>
        <time>2018-06-24T10:48:06Z</time>
      </trkpt>
      <trkpt lat="50.13012" lon="3.75739">
        <ele>134</ele>
        <time>2018-06-24T10:48:07Z</time>
      </trkpt>
      <trkpt lat="50.13013" lon="3.7573">
        <ele>134</ele>
        <time>2018-06-24T10:48:08Z</time>
      </trkpt>
      <trkpt lat="50.13014" lon="3.7572">
        <ele>134</ele>
        <time>2018-06-24T10:48:09Z</time>
      </trkpt>
      <trkpt lat="50.13016" lon="3.7571">
        <ele>134</ele>
        <time>2018-06-24T10:48:10Z</time>
      </trkpt>
      <trkpt lat="50.13017" lon="3.757">
        <ele>134</ele>
        <time>2018-06-24T10:48:11Z</time>
      </trkpt>
      <trkpt lat="50.13018" lon="3.75691">
        <ele>134</ele>
        <time>2018-06-24T10:48:12Z</time>
      </trkpt>
      <trkpt lat="50.13019" lon="3.75681">
        <ele>134</ele>
        <time>2018-06-24T10:48:13Z</time>
      </trkpt>
      <trkpt lat="50.1302" lon="3.7567">
        <ele>134</ele>
        <time>2018-06-24T10:48:14Z</time>
      </trkpt>
      <trkpt lat="50.1302" lon="3.75661">
        <ele>134</ele>
        <time>2018-06-24T10:48:15Z</time>
      </trkpt>
      <trkpt lat="50.13021" lon="3.7565">
        <ele>134</ele>
        <time>2018-06-24T10:48:16Z</time>
      </trkpt>
      <trkpt lat="50.13022" lon="3.75641">
        <ele>134</ele>
        <time>2018-06-24T10:48:17Z</time>
      </trkpt>
      <trkpt lat="50.13023" lon="3.75634">
        <ele>134</ele>
        <time>2018-06-24T10:48:18Z</time>
      </trkpt>
      <trkpt lat="50.13025" lon="3.75625">
        <ele>134</ele>
        <time>2018-06-24T10:48:19Z</time>
      </trkpt>
      <trkpt lat="50.13028" lon="3.75618">
        <ele>134</ele>
        <time>2018-06-24T10:48:20Z</time>
      </trkpt>
      <trkpt lat="50.13033" lon="3.75615">
        <ele>134</ele>
        <time>2018-06-24T10:48:21Z</time>
      </trkpt>
      <trkpt lat="50.13037" lon="3.75615">
        <ele>134</ele>
        <time>2018-06-24T10:48:22Z</time>
      </trkpt>
      <trkpt lat="50.1304" lon="3.75618">
        <ele>134</ele>
        <time>2018-06-24T10:48:23Z</time>
      </trkpt>
      <trkpt lat="50.13044" lon="3.75622">
        <ele>134</ele>
        <time>2018-06-24T10:48:25Z</time>
      </trkpt>
      <trkpt lat="50.13047" lon="3.75623">
        <ele>134</ele>
        <time>2018-06-24T10:48:28Z</time>
      </trkpt>
      <trkpt lat="50.13048" lon="3.75628">
        <ele>134</ele>
        <time>2018-06-24T10:48:39Z</time>
      </trkpt>
      <trkpt lat="50.1305" lon="3.75635">
        <ele>134</ele>
        <time>2018-06-24T10:48:41Z</time>
      </trkpt>
      <trkpt lat="50.13051" lon="3.75639">
        <ele>134</ele>
        <time>2018-06-24T10:48:42Z</time>
      </trkpt>
      <trkpt lat="50.13052" lon="3.75645">
        <ele>134</ele>
        <time>2018-06-24T10:48:43Z</time>
      </trkpt>
      <trkpt lat="50.13054" lon="3.75652">
        <ele>134</ele>
        <time>2018-06-24T10:48:44Z</time>
      </trkpt>
      <trkpt lat="50.13056" lon="3.7566">
        <ele>134</ele>
        <time>2018-06-24T10:48:45Z</time>
      </trkpt>
      <trkpt lat="50.13058" lon="3.75667">
        <ele>133</ele>
        <time>2018-06-24T10:48:46Z</time>
      </trkpt>
      <trkpt lat="50.13061" lon="3.75676">
        <ele>133</ele>
        <time>2018-06-24T10:48:47Z</time>
      </trkpt>
      <trkpt lat="50.13063" lon="3.75683">
        <ele>134</ele>
        <time>2018-06-24T10:48:48Z</time>
      </trkpt>
      <trkpt lat="50.13065" lon="3.7569">
        <ele>134</ele>
        <time>2018-06-24T10:48:49Z</time>
      </trkpt>
      <trkpt lat="50.13068" lon="3.75696">
        <ele>134</ele>
        <time>2018-06-24T10:48:50Z</time>
      </trkpt>
      <trkpt lat="50.13071" lon="3.75702">
        <ele>134</ele>
        <time>2018-06-24T10:48:51Z</time>
      </trkpt>
      <trkpt lat="50.13076" lon="3.75708">
        <ele>134</ele>
        <time>2018-06-24T10:48:52Z</time>
      </trkpt>
      <trkpt lat="50.13081" lon="3.75714">
        <ele>134</ele>
        <time>2018-06-24T10:48:53Z</time>
      </trkpt>
      <trkpt lat="50.13087" lon="3.7572">
        <ele>134</ele>
        <time>2018-06-24T10:48:54Z</time>
      </trkpt>
      <trkpt lat="50.13092" lon="3.75725">
        <ele>134</ele>
        <time>2018-06-24T10:48:55Z</time>
      </trkpt>
      <trkpt lat="50.13098" lon="3.7573">
        <ele>134</ele>
        <time>2018-06-24T10:48:56Z</time>
      </trkpt>
      <trkpt lat="50.13104" lon="3.75734">
        <ele>134</ele>
        <time>2018-06-24T10:48:57Z</time>
      </trkpt>
      <trkpt lat="50.1311" lon="3.75736">
        <ele>134</ele>
        <time>2018-06-24T10:48:58Z</time>
      </trkpt>
      <trkpt lat="50.13116" lon="3.75739">
        <ele>134</ele>
        <time>2018-06-24T10:48:59Z</time>
      </trkpt>
      <trkpt lat="50.13123" lon="3.75741">
        <ele>134</ele>
        <time>2018-06-24T10:49:00Z</time>
      </trkpt>
      <trkpt lat="50.13129" lon="3.75741">
        <ele>134</ele>
        <time>2018-06-24T10:49:01Z</time>
      </trkpt>
      <trkpt lat="50.13135" lon="3.75741">
        <ele>134</ele>
        <time>2018-06-24T10:49:02Z</time>
      </trkpt>
      <trkpt lat="50.13142" lon="3.7574">
        <ele>134</ele>
        <time>2018-06-24T10:49:03Z</time>
      </trkpt>
      <trkpt lat="50.13148" lon="3.7574">
        <ele>134</ele>
        <time>2018-06-24T10:49:04Z</time>
      </trkpt>
      <trkpt lat="50.13156" lon="3.75739">
        <ele>134</ele>
        <time>2018-06-24T10:49:05Z</time>
      </trkpt>
      <trkpt lat="50.13163" lon="3.75738">
        <ele>134</ele>
        <time>2018-06-24T10:49:06Z</time>
      </trkpt>
      <trkpt lat="50.1317" lon="3.75737">
        <ele>134</ele>
        <time>2018-06-24T10:49:07Z</time>
      </trkpt>
      <trkpt lat="50.13176" lon="3.75737">
        <ele>134</ele>
        <time>2018-06-24T10:49:08Z</time>
      </trkpt>
      <trkpt lat="50.13183" lon="3.75737">
        <ele>134</ele>
        <time>2018-06-24T10:49:09Z</time>
      </trkpt>
      <trkpt lat="50.13189" lon="3.75736">
        <ele>134</ele>
        <time>2018-06-24T10:49:10Z</time>
      </trkpt>
      <trkpt lat="50.13195" lon="3.75736">
        <ele>134</ele>
        <time>2018-06-24T10:49:11Z</time>
      </trkpt>
      <trkpt lat="50.13202" lon="3.75735">
        <ele>134</ele>
        <time>2018-06-24T10:49:12Z</time>
      </trkpt>
      <trkpt lat="50.13209" lon="3.75735">
        <ele>135</ele>
        <time>2018-06-24T10:49:13Z</time>
      </trkpt>
      <trkpt lat="50.13215" lon="3.75734">
        <ele>135</ele>
        <time>2018-06-24T10:49:14Z</time>
      </trkpt>
      <trkpt lat="50.13222" lon="3.75734">
        <ele>135</ele>
        <time>2018-06-24T10:49:15Z</time>
      </trkpt>
      <trkpt lat="50.13229" lon="3.75734">
        <ele>135</ele>
        <time>2018-06-24T10:49:16Z</time>
      </trkpt>
      <trkpt lat="50.13236" lon="3.75734">
        <ele>135</ele>
        <time>2018-06-24T10:49:17Z</time>
      </trkpt>
      <trkpt lat="50.13244" lon="3.75733">
        <ele>135</ele>
        <time>2018-06-24T10:49:18Z</time>
      </trkpt>
      <trkpt lat="50.13251" lon="3.75733">
        <ele>136</ele>
        <time>2018-06-24T10:49:19Z</time>
      </trkpt>
      <trkpt lat="50.13257" lon="3.75733">
        <ele>136</ele>
        <time>2018-06-24T10:49:20Z</time>
      </trkpt>
      <trkpt lat="50.13263" lon="3.75732">
        <ele>136</ele>
        <time>2018-06-24T10:49:21Z</time>
      </trkpt>
      <trkpt lat="50.1327" lon="3.75733">
        <ele>136</ele>
        <time>2018-06-24T10:49:22Z</time>
      </trkpt>
      <trkpt lat="50.13277" lon="3.75733">
        <ele>136</ele>
        <time>2018-06-24T10:49:23Z</time>
      </trkpt>
      <trkpt lat="50.13284" lon="3.75734">
        <ele>136</ele>
        <time>2018-06-24T10:49:24Z</time>
      </trkpt>
      <trkpt lat="50.13291" lon="3.75734">
        <ele>136</ele>
        <time>2018-06-24T10:49:25Z</time>
      </trkpt>
      <trkpt lat="50.13298" lon="3.75735">
        <ele>136</ele>
        <time>2018-06-24T10:49:26Z</time>
      </trkpt>
      <trkpt lat="50.13305" lon="3.75737">
        <ele>137</ele>
        <time>2018-06-24T10:49:27Z</time>
      </trkpt>
      <trkpt lat="50.13312" lon="3.7574">
        <ele>137</ele>
        <time>2018-06-24T10:49:28Z</time>
      </trkpt>
      <trkpt lat="50.13319" lon="3.75744">
        <ele>137</ele>
        <time>2018-06-24T10:49:29Z</time>
      </trkpt>
      <trkpt lat="50.13326" lon="3.75749">
        <ele>138</ele>
        <time>2018-06-24T10:49:30Z</time>
      </trkpt>
      <trkpt lat="50.13331" lon="3.75754">
        <ele>138</ele>
        <time>2018-06-24T10:49:31Z</time>
      </trkpt>
      <trkpt lat="50.13337" lon="3.7576">
        <ele>139</ele>
        <time>2018-06-24T10:49:32Z</time>
      </trkpt>
      <trkpt lat="50.13342" lon="3.75766">
        <ele>139</ele>
        <time>2018-06-24T10:49:33Z</time>
      </trkpt>
      <trkpt lat="50.13348" lon="3.75773">
        <ele>139</ele>
        <time>2018-06-24T10:49:34Z</time>
      </trkpt>
      <trkpt lat="50.13354" lon="3.7578">
        <ele>139</ele>
        <time>2018-06-24T10:49:35Z</time>
      </trkpt>
      <trkpt lat="50.13359" lon="3.75787">
        <ele>140</ele>
        <time>2018-06-24T10:49:36Z</time>
      </trkpt>
      <trkpt lat="50.13365" lon="3.75793">
        <ele>140</ele>
        <time>2018-06-24T10:49:37Z</time>
      </trkpt>
      <trkpt lat="50.1337" lon="3.75801">
        <ele>140</ele>
        <time>2018-06-24T10:49:38Z</time>
      </trkpt>
      <trkpt lat="50.13374" lon="3.75807">
        <ele>140</ele>
        <time>2018-06-24T10:49:39Z</time>
      </trkpt>
      <trkpt lat="50.13379" lon="3.75814">
        <ele>140</ele>
        <time>2018-06-24T10:49:40Z</time>
      </trkpt>
      <trkpt lat="50.13383" lon="3.75821">
        <ele>141</ele>
        <time>2018-06-24T10:49:41Z</time>
      </trkpt>
      <trkpt lat="50.13386" lon="3.75827">
        <ele>141</ele>
        <time>2018-06-24T10:49:42Z</time>
      </trkpt>
      <trkpt lat="50.13388" lon="3.75833">
        <ele>141</ele>
        <time>2018-06-24T10:49:43Z</time>
      </trkpt>
      <trkpt lat="50.1339" lon="3.75842">
        <ele>142</ele>
        <time>2018-06-24T10:49:44Z</time>
      </trkpt>
      <trkpt lat="50.13391" lon="3.75851">
        <ele>142</ele>
        <time>2018-06-24T10:49:45Z</time>
      </trkpt>
      <trkpt lat="50.13392" lon="3.75861">
        <ele>142</ele>
        <time>2018-06-24T10:49:46Z</time>
      </trkpt>
      <trkpt lat="50.13393" lon="3.7587">
        <ele>142</ele>
        <time>2018-06-24T10:49:47Z</time>
      </trkpt>
      <trkpt lat="50.13393" lon="3.7588">
        <ele>142</ele>
        <time>2018-06-24T10:49:48Z</time>
      </trkpt>
      <trkpt lat="50.13393" lon="3.75888">
        <ele>143</ele>
        <time>2018-06-24T10:49:49Z</time>
      </trkpt>
      <trkpt lat="50.13393" lon="3.75896">
        <ele>143</ele>
        <time>2018-06-24T10:49:50Z</time>
      </trkpt>
      <trkpt lat="50.13393" lon="3.75903">
        <ele>143</ele>
        <time>2018-06-24T10:49:51Z</time>
      </trkpt>
      <trkpt lat="50.13393" lon="3.7591">
        <ele>143</ele>
        <time>2018-06-24T10:49:52Z</time>
      </trkpt>
      <trkpt lat="50.13394" lon="3.75918">
        <ele>144</ele>
        <time>2018-06-24T10:49:53Z</time>
      </trkpt>
      <trkpt lat="50.13394" lon="3.75926">
        <ele>145</ele>
        <time>2018-06-24T10:49:54Z</time>
      </trkpt>
      <trkpt lat="50.13394" lon="3.75934">
        <ele>145</ele>
        <time>2018-06-24T10:49:55Z</time>
      </trkpt>
      <trkpt lat="50.13395" lon="3.75943">
        <ele>145</ele>
        <time>2018-06-24T10:49:56Z</time>
      </trkpt>
      <trkpt lat="50.13396" lon="3.75952">
        <ele>145</ele>
        <time>2018-06-24T10:49:57Z</time>
      </trkpt>
      <trkpt lat="50.13396" lon="3.75959">
        <ele>145</ele>
        <time>2018-06-24T10:49:58Z</time>
      </trkpt>
      <trkpt lat="50.13396" lon="3.75966">
        <ele>145</ele>
        <time>2018-06-24T10:49:59Z</time>
      </trkpt>
      <trkpt lat="50.13398" lon="3.75976">
        <ele>146</ele>
        <time>2018-06-24T10:50:00Z</time>
      </trkpt>
      <trkpt lat="50.13399" lon="3.75983">
        <ele>146</ele>
        <time>2018-06-24T10:50:01Z</time>
      </trkpt>
      <trkpt lat="50.13401" lon="3.75991">
        <ele>146</ele>
        <time>2018-06-24T10:50:02Z</time>
      </trkpt>
      <trkpt lat="50.13402" lon="3.75998">
        <ele>146</ele>
        <time>2018-06-24T10:50:03Z</time>
      </trkpt>
      <trkpt lat="50.13404" lon="3.76006">
        <ele>147</ele>
        <time>2018-06-24T10:50:04Z</time>
      </trkpt>
      <trkpt lat="50.13406" lon="3.76013">
        <ele>147</ele>
        <time>2018-06-24T10:50:05Z</time>
      </trkpt>
      <trkpt lat="50.13409" lon="3.76017">
        <ele>147</ele>
        <time>2018-06-24T10:50:06Z</time>
      </trkpt>
      <trkpt lat="50.13412" lon="3.76023">
        <ele>147</ele>
        <time>2018-06-24T10:50:07Z</time>
      </trkpt>
      <trkpt lat="50.13416" lon="3.76028">
        <ele>147</ele>
        <time>2018-06-24T10:50:08Z</time>
      </trkpt>
      <trkpt lat="50.1342" lon="3.76031">
        <ele>149</ele>
        <time>2018-06-24T10:50:09Z</time>
      </trkpt>
      <trkpt lat="50.13423" lon="3.76036">
        <ele>149</ele>
        <time>2018-06-24T10:50:10Z</time>
      </trkpt>
      <trkpt lat="50.13428" lon="3.76041">
        <ele>149</ele>
        <time>2018-06-24T10:50:11Z</time>
      </trkpt>
      <trkpt lat="50.13435" lon="3.76043">
        <ele>149</ele>
        <time>2018-06-24T10:50:12Z</time>
      </trkpt>
      <trkpt lat="50.13441" lon="3.76047">
        <ele>149</ele>
        <time>2018-06-24T10:50:13Z</time>
      </trkpt>
      <trkpt lat="50.13446" lon="3.7605">
        <ele>149</ele>
        <time>2018-06-24T10:50:14Z</time>
      </trkpt>
      <trkpt lat="50.13451" lon="3.76053">
        <ele>149</ele>
        <time>2018-06-24T10:50:15Z</time>
      </trkpt>
      <trkpt lat="50.13456" lon="3.76058">
        <ele>149</ele>
        <time>2018-06-24T10:50:16Z</time>
      </trkpt>
      <trkpt lat="50.1346" lon="3.76061">
        <ele>149</ele>
        <time>2018-06-24T10:50:17Z</time>
      </trkpt>
      <trkpt lat="50.13465" lon="3.76064">
        <ele>150</ele>
        <time>2018-06-24T10:50:18Z</time>
      </trkpt>
      <trkpt lat="50.13469" lon="3.76066">
        <ele>150</ele>
        <time>2018-06-24T10:50:19Z</time>
      </trkpt>
      <trkpt lat="50.13474" lon="3.76069">
        <ele>150</ele>
        <time>2018-06-24T10:50:20Z</time>
      </trkpt>
      <trkpt lat="50.13479" lon="3.76071">
        <ele>150</ele>
        <time>2018-06-24T10:50:21Z</time>
      </trkpt>
      <trkpt lat="50.13484" lon="3.76073">
        <ele>150</ele>
        <time>2018-06-24T10:50:22Z</time>
      </trkpt>
      <trkpt lat="50.13488" lon="3.76076">
        <ele>150</ele>
        <time>2018-06-24T10:50:23Z</time>
      </trkpt>
      <trkpt lat="50.13493" lon="3.76078">
        <ele>150</ele>
        <time>2018-06-24T10:50:24Z</time>
      </trkpt>
      <trkpt lat="50.13498" lon="3.7608">
        <ele>151</ele>
        <time>2018-06-24T10:50:25Z</time>
      </trkpt>
      <trkpt lat="50.13503" lon="3.76084">
        <ele>151</ele>
        <time>2018-06-24T10:50:26Z</time>
      </trkpt>
      <trkpt lat="50.13508" lon="3.76087">
        <ele>151</ele>
        <time>2018-06-24T10:50:27Z</time>
      </trkpt>
      <trkpt lat="50.13512" lon="3.76092">
        <ele>152</ele>
        <time>2018-06-24T10:50:28Z</time>
      </trkpt>
      <trkpt lat="50.13517" lon="3.76097">
        <ele>152</ele>
        <time>2018-06-24T10:50:29Z</time>
      </trkpt>
      <trkpt lat="50.13521" lon="3.76104">
        <ele>152</ele>
        <time>2018-06-24T10:50:30Z</time>
      </trkpt>
      <trkpt lat="50.13525" lon="3.76113">
        <ele>152</ele>
        <time>2018-06-24T10:50:31Z</time>
      </trkpt>
      <trkpt lat="50.13528" lon="3.76121">
        <ele>153</ele>
        <time>2018-06-24T10:50:32Z</time>
      </trkpt>
      <trkpt lat="50.13531" lon="3.7613">
        <ele>153</ele>
        <time>2018-06-24T10:50:33Z</time>
      </trkpt>
      <trkpt lat="50.13534" lon="3.76137">
        <ele>153</ele>
        <time>2018-06-24T10:50:34Z</time>
      </trkpt>
      <trkpt lat="50.13536" lon="3.76145">
        <ele>153</ele>
        <time>2018-06-24T10:50:35Z</time>
      </trkpt>
      <trkpt lat="50.13536" lon="3.76154">
        <ele>153</ele>
        <time>2018-06-24T10:50:36Z</time>
      </trkpt>
      <trkpt lat="50.13537" lon="3.76165">
        <ele>153</ele>
        <time>2018-06-24T10:50:37Z</time>
      </trkpt>
      <trkpt lat="50.13537" lon="3.76175">
        <ele>154</ele>
        <time>2018-06-24T10:50:38Z</time>
      </trkpt>
      <trkpt lat="50.13536" lon="3.76184">
        <ele>154</ele>
        <time>2018-06-24T10:50:39Z</time>
      </trkpt>
      <trkpt lat="50.13535" lon="3.76194">
        <ele>154</ele>
        <time>2018-06-24T10:50:40Z</time>
      </trkpt>
      <trkpt lat="50.13534" lon="3.76202">
        <ele>154</ele>
        <time>2018-06-24T10:50:41Z</time>
      </trkpt>
      <trkpt lat="50.13534" lon="3.7621">
        <ele>154</ele>
        <time>2018-06-24T10:50:42Z</time>
      </trkpt>
      <trkpt lat="50.13532" lon="3.76218">
        <ele>154</ele>
        <time>2018-06-24T10:50:43Z</time>
      </trkpt>
      <trkpt lat="50.13531" lon="3.76227">
        <ele>154</ele>
        <time>2018-06-24T10:50:44Z</time>
      </trkpt>
      <trkpt lat="50.1353" lon="3.76237">
        <ele>154</ele>
        <time>2018-06-24T10:50:45Z</time>
      </trkpt>
      <trkpt lat="50.13528" lon="3.76246">
        <ele>154</ele>
        <time>2018-06-24T10:50:46Z</time>
      </trkpt>
      <trkpt lat="50.13526" lon="3.76255">
        <ele>155</ele>
        <time>2018-06-24T10:50:47Z</time>
      </trkpt>
      <trkpt lat="50.13524" lon="3.76264">
        <ele>155</ele>
        <time>2018-06-24T10:50:48Z</time>
      </trkpt>
      <trkpt lat="50.13521" lon="3.76272">
        <ele>155</ele>
        <time>2018-06-24T10:50:49Z</time>
      </trkpt>
      <trkpt lat="50.13519" lon="3.76281">
        <ele>156</ele>
        <time>2018-06-24T10:50:50Z</time>
      </trkpt>
      <trkpt lat="50.13517" lon="3.76291">
        <ele>156</ele>
        <time>2018-06-24T10:50:51Z</time>
      </trkpt>
      <trkpt lat="50.13515" lon="3.763">
        <ele>156</ele>
        <time>2018-06-24T10:50:52Z</time>
      </trkpt>
      <trkpt lat="50.13514" lon="3.76309">
        <ele>156</ele>
        <time>2018-06-24T10:50:53Z</time>
      </trkpt>
      <trkpt lat="50.13512" lon="3.76317">
        <ele>156</ele>
        <time>2018-06-24T10:50:54Z</time>
      </trkpt>
      <trkpt lat="50.13511" lon="3.76327">
        <ele>156</ele>
        <time>2018-06-24T10:50:55Z</time>
      </trkpt>
      <trkpt lat="50.13509" lon="3.76336">
        <ele>157</ele>
        <time>2018-06-24T10:50:56Z</time>
      </trkpt>
      <trkpt lat="50.13508" lon="3.76345">
        <ele>157</ele>
        <time>2018-06-24T10:50:57Z</time>
      </trkpt>
      <trkpt lat="50.13507" lon="3.76354">
        <ele>157</ele>
        <time>2018-06-24T10:50:58Z</time>
      </trkpt>
      <trkpt lat="50.13505" lon="3.76364">
        <ele>158</ele>
        <time>2018-06-24T10:50:59Z</time>
      </trkpt>
      <trkpt lat="50.13504" lon="3.76373">
        <ele>158</ele>
        <time>2018-06-24T10:51:00Z</time>
      </trkpt>
      <trkpt lat="50.13502" lon="3.76382">
        <ele>158</ele>
        <time>2018-06-24T10:51:01Z</time>
      </trkpt>
      <trkpt lat="50.13501" lon="3.7639">
        <ele>158</ele>
        <time>2018-06-24T10:51:02Z</time>
      </trkpt>
      <trkpt lat="50.13499" lon="3.76398">
        <ele>158</ele>
        <time>2018-06-24T10:51:03Z</time>
      </trkpt>
      <trkpt lat="50.13498" lon="3.76406">
        <ele>158</ele>
        <time>2018-06-24T10:51:04Z</time>
      </trkpt>
      <trkpt lat="50.13497" lon="3.76415">
        <ele>159</ele>
        <time>2018-06-24T10:51:05Z</time>
      </trkpt>
      <trkpt lat="50.13495" lon="3.76423">
        <ele>159</ele>
        <time>2018-06-24T10:51:06Z</time>
      </trkpt>
      <trkpt lat="50.13495" lon="3.76432">
        <ele>159</ele>
        <time>2018-06-24T10:51:07Z</time>
      </trkpt>
      <trkpt lat="50.13494" lon="3.76441">
        <ele>159</ele>
        <time>2018-06-24T10:51:08Z</time>
      </trkpt>
      <trkpt lat="50.13493" lon="3.76449">
        <ele>160</ele>
        <time>2018-06-24T10:51:09Z</time>
      </trkpt>
      <trkpt lat="50.13491" lon="3.76458">
        <ele>160</ele>
        <time>2018-06-24T10:51:10Z</time>
      </trkpt>
      <trkpt lat="50.1349" lon="3.76466">
        <ele>160</ele>
        <time>2018-06-24T10:51:11Z</time>
      </trkpt>
      <trkpt lat="50.1349" lon="3.76474">
        <ele>160</ele>
        <time>2018-06-24T10:51:12Z</time>
      </trkpt>
      <trkpt lat="50.1349" lon="3.76482">
        <ele>161</ele>
        <time>2018-06-24T10:51:13Z</time>
      </trkpt>
      <trkpt lat="50.1349" lon="3.7649">
        <ele>161</ele>
        <time>2018-06-24T10:51:14Z</time>
      </trkpt>
      <trkpt lat="50.1349" lon="3.76498">
        <ele>161</ele>
        <time>2018-06-24T10:51:15Z</time>
      </trkpt>
      <trkpt lat="50.13489" lon="3.76507">
        <ele>162</ele>
        <time>2018-06-24T10:51:16Z</time>
      </trkpt>
      <trkpt lat="50.1349" lon="3.76518">
        <ele>162</ele>
        <time>2018-06-24T10:51:17Z</time>
      </trkpt>
      <trkpt lat="50.13489" lon="3.76526">
        <ele>162</ele>
        <time>2018-06-24T10:51:18Z</time>
      </trkpt>
      <trkpt lat="50.13489" lon="3.76533">
        <ele>162</ele>
        <time>2018-06-24T10:51:19Z</time>
      </trkpt>
      <trkpt lat="50.13489" lon="3.76542">
        <ele>162</ele>
        <time>2018-06-24T10:51:20Z</time>
      </trkpt>
      <trkpt lat="50.13488" lon="3.76551">
        <ele>162</ele>
        <time>2018-06-24T10:51:21Z</time>
      </trkpt>
      <trkpt lat="50.13487" lon="3.76559">
        <ele>162</ele>
        <time>2018-06-24T10:51:22Z</time>
      </trkpt>
      <trkpt lat="50.13487" lon="3.76571">
        <ele>163</ele>
        <time>2018-06-24T10:51:23Z</time>
      </trkpt>
      <trkpt lat="50.13487" lon="3.76577">
        <ele>163</ele>
        <time>2018-06-24T10:51:24Z</time>
      </trkpt>
      <trkpt lat="50.13486" lon="3.76585">
        <ele>163</ele>
        <time>2018-06-24T10:51:25Z</time>
      </trkpt>
      <trkpt lat="50.13486" lon="3.76595">
        <ele>164</ele>
        <time>2018-06-24T10:51:26Z</time>
      </trkpt>
      <trkpt lat="50.13485" lon="3.76604">
        <ele>164</ele>
        <time>2018-06-24T10:51:27Z</time>
      </trkpt>
      <trkpt lat="50.13485" lon="3.76613">
        <ele>164</ele>
        <time>2018-06-24T10:51:28Z</time>
      </trkpt>
      <trkpt lat="50.13485" lon="3.76622">
        <ele>164</ele>
        <time>2018-06-24T10:51:29Z</time>
      </trkpt>
      <trkpt lat="50.13485" lon="3.76631">
        <ele>164</ele>
        <time>2018-06-24T10:51:30Z</time>
      </trkpt>
      <trkpt lat="50.13485" lon="3.7664">
        <ele>164</ele>
        <time>2018-06-24T10:51:31Z</time>
      </trkpt>
      <trkpt lat="50.13485" lon="3.76649">
        <ele>164</ele>
        <time>2018-06-24T10:51:32Z</time>
      </trkpt>
      <trkpt lat="50.13485" lon="3.76659">
        <ele>164</ele>
        <time>2018-06-24T10:51:33Z</time>
      </trkpt>
      <trkpt lat="50.13484" lon="3.76668">
        <ele>165</ele>
        <time>2018-06-24T10:51:34Z</time>
      </trkpt>
      <trkpt lat="50.13484" lon="3.76678">
        <ele>165</ele>
        <time>2018-06-24T10:51:35Z</time>
      </trkpt>
      <trkpt lat="50.13484" lon="3.76688">
        <ele>165</ele>
        <time>2018-06-24T10:51:36Z</time>
      </trkpt>
      <trkpt lat="50.13483" lon="3.76697">
        <ele>165</ele>
        <time>2018-06-24T10:51:37Z</time>
      </trkpt>
      <trkpt lat="50.13483" lon="3.76706">
        <ele>165</ele>
        <time>2018-06-24T10:51:38Z</time>
      </trkpt>
      <trkpt lat="50.13482" lon="3.76713">
        <ele>165</ele>
        <time>2018-06-24T10:51:39Z</time>
      </trkpt>
      <trkpt lat="50.13482" lon="3.76721">
        <ele>165</ele>
        <time>2018-06-24T10:51:40Z</time>
      </trkpt>
      <trkpt lat="50.13482" lon="3.76732">
        <ele>165</ele>
        <time>2018-06-24T10:51:41Z</time>
      </trkpt>
      <trkpt lat="50.13482" lon="3.7674">
        <ele>165</ele>
        <time>2018-06-24T10:51:42Z</time>
      </trkpt>
      <trkpt lat="50.13482" lon="3.76748">
        <ele>165</ele>
        <time>2018-06-24T10:51:43Z</time>
      </trkpt>
      <trkpt lat="50.13482" lon="3.76756">
        <ele>165</ele>
        <time>2018-06-24T10:51:44Z</time>
      </trkpt>
      <trkpt lat="50.13482" lon="3.76764">
        <ele>165</ele>
        <time>2018-06-24T10:51:45Z</time>
      </trkpt>
      <trkpt lat="50.13483" lon="3.76771">
        <ele>165</ele>
        <time>2018-06-24T10:51:46Z</time>
      </trkpt>
      <trkpt lat="50.13482" lon="3.76779">
        <ele>165</ele>
        <time>2018-06-24T10:51:47Z</time>
      </trkpt>
      <trkpt lat="50.13482" lon="3.76787">
        <ele>165</ele>
        <time>2018-06-24T10:51:48Z</time>
      </trkpt>
      <trkpt lat="50.1348" lon="3.76796">
        <ele>166</ele>
        <time>2018-06-24T10:51:49Z</time>
      </trkpt>
      <trkpt lat="50.13477" lon="3.76804">
        <ele>166</ele>
        <time>2018-06-24T10:51:50Z</time>
      </trkpt>
      <trkpt lat="50.13475" lon="3.76813">
        <ele>166</ele>
        <time>2018-06-24T10:51:51Z</time>
      </trkpt>
      <trkpt lat="50.13473" lon="3.7682">
        <ele>166</ele>
        <time>2018-06-24T10:51:52Z</time>
      </trkpt>
      <trkpt lat="50.1347" lon="3.7683">
        <ele>166</ele>
        <time>2018-06-24T10:51:53Z</time>
      </trkpt>
      <trkpt lat="50.13468" lon="3.76839">
        <ele>166</ele>
        <time>2018-06-24T10:51:54Z</time>
      </trkpt>
      <trkpt lat="50.13465" lon="3.76849">
        <ele>166</ele>
        <time>2018-06-24T10:51:55Z</time>
      </trkpt>
      <trkpt lat="50.13463" lon="3.76859">
        <ele>166</ele>
        <time>2018-06-24T10:51:56Z</time>
      </trkpt>
      <trkpt lat="50.13461" lon="3.76867">
        <ele>166</ele>
        <time>2018-06-24T10:51:57Z</time>
      </trkpt>
      <trkpt lat="50.13459" lon="3.76875">
        <ele>166</ele>
        <time>2018-06-24T10:51:58Z</time>
      </trkpt>
      <trkpt lat="50.13458" lon="3.76881">
        <ele>166</ele>
        <time>2018-06-24T10:51:59Z</time>
      </trkpt>
      <trkpt lat="50.13456" lon="3.76888">
        <ele>166</ele>
        <time>2018-06-24T10:52:00Z</time>
      </trkpt>
      <trkpt lat="50.13455" lon="3.76895">
        <ele>166</ele>
        <time>2018-06-24T10:52:01Z</time>
      </trkpt>
      <trkpt lat="50.13453" lon="3.76905">
        <ele>166</ele>
        <time>2018-06-24T10:52:02Z</time>
      </trkpt>
      <trkpt lat="50.13451" lon="3.76914">
        <ele>166</ele>
        <time>2018-06-24T10:52:03Z</time>
      </trkpt>
      <trkpt lat="50.1345" lon="3.76922">
        <ele>167</ele>
        <time>2018-06-24T10:52:04Z</time>
      </trkpt>
      <trkpt lat="50.13449" lon="3.76933">
        <ele>167</ele>
        <time>2018-06-24T10:52:05Z</time>
      </trkpt>
      <trkpt lat="50.13448" lon="3.76941">
        <ele>167</ele>
        <time>2018-06-24T10:52:06Z</time>
      </trkpt>
      <trkpt lat="50.13451" lon="3.76948">
        <ele>167</ele>
        <time>2018-06-24T10:52:07Z</time>
      </trkpt>
      <trkpt lat="50.13453" lon="3.76956">
        <ele>167</ele>
        <time>2018-06-24T10:52:08Z</time>
      </trkpt>
      <trkpt lat="50.13455" lon="3.76966">
        <ele>167</ele>
        <time>2018-06-24T10:52:09Z</time>
      </trkpt>
      <trkpt lat="50.13457" lon="3.76975">
        <ele>167</ele>
        <time>2018-06-24T10:52:10Z</time>
      </trkpt>
      <trkpt lat="50.13458" lon="3.76984">
        <ele>167</ele>
        <time>2018-06-24T10:52:11Z</time>
      </trkpt>
      <trkpt lat="50.1346" lon="3.76993">
        <ele>168</ele>
        <time>2018-06-24T10:52:12Z</time>
      </trkpt>
      <trkpt lat="50.13461" lon="3.77001">
        <ele>169</ele>
        <time>2018-06-24T10:52:13Z</time>
      </trkpt>
      <trkpt lat="50.13461" lon="3.77011">
        <ele>169</ele>
        <time>2018-06-24T10:52:14Z</time>
      </trkpt>
      <trkpt lat="50.13462" lon="3.77021">
        <ele>169</ele>
        <time>2018-06-24T10:52:15Z</time>
      </trkpt>
      <trkpt lat="50.13462" lon="3.77031">
        <ele>169</ele>
        <time>2018-06-24T10:52:16Z</time>
      </trkpt>
      <trkpt lat="50.13461" lon="3.77043">
        <ele>169</ele>
        <time>2018-06-24T10:52:17Z</time>
      </trkpt>
      <trkpt lat="50.1346" lon="3.77053">
        <ele>169</ele>
        <time>2018-06-24T10:52:18Z</time>
      </trkpt>
      <trkpt lat="50.13459" lon="3.77059">
        <ele>169</ele>
        <time>2018-06-24T10:52:19Z</time>
      </trkpt>
      <trkpt lat="50.13457" lon="3.77067">
        <ele>169</ele>
        <time>2018-06-24T10:52:20Z</time>
      </trkpt>
      <trkpt lat="50.13456" lon="3.77076">
        <ele>169</ele>
        <time>2018-06-24T10:52:21Z</time>
      </trkpt>
      <trkpt lat="50.13455" lon="3.77085">
        <ele>171</ele>
        <time>2018-06-24T10:52:22Z</time>
      </trkpt>
      <trkpt lat="50.13454" lon="3.77093">
        <ele>171</ele>
        <time>2018-06-24T10:52:23Z</time>
      </trkpt>
      <trkpt lat="50.13455" lon="3.77102">
        <ele>171</ele>
        <time>2018-06-24T10:52:24Z</time>
      </trkpt>
      <trkpt lat="50.13455" lon="3.7711">
        <ele>171</ele>
        <time>2018-06-24T10:52:25Z</time>
      </trkpt>
      <trkpt lat="50.13455" lon="3.77119">
        <ele>171</ele>
        <time>2018-06-24T10:52:26Z</time>
      </trkpt>
      <trkpt lat="50.13455" lon="3.77127">
        <ele>171</ele>
        <time>2018-06-24T10:52:27Z</time>
      </trkpt>
      <trkpt lat="50.13455" lon="3.77136">
        <ele>171</ele>
        <time>2018-06-24T10:52:28Z</time>
      </trkpt>
      <trkpt lat="50.13455" lon="3.77145">
        <ele>171</ele>
        <time>2018-06-24T10:52:29Z</time>
      </trkpt>
      <trkpt lat="50.13455" lon="3.77153">
        <ele>171</ele>
        <time>2018-06-24T10:52:30Z</time>
      </trkpt>
      <trkpt lat="50.13455" lon="3.77161">
        <ele>171</ele>
        <time>2018-06-24T10:52:31Z</time>
      </trkpt>
      <trkpt lat="50.13454" lon="3.7717">
        <ele>172</ele>
        <time>2018-06-24T10:52:32Z</time>
      </trkpt>
      <trkpt lat="50.13453" lon="3.77178">
        <ele>172</ele>
        <time>2018-06-24T10:52:33Z</time>
      </trkpt>
      <trkpt lat="50.13453" lon="3.77185">
        <ele>172</ele>
        <time>2018-06-24T10:52:34Z</time>
      </trkpt>
      <trkpt lat="50.13452" lon="3.77193">
        <ele>173</ele>
        <time>2018-06-24T10:52:35Z</time>
      </trkpt>
      <trkpt lat="50.13451" lon="3.77201">
        <ele>173</ele>
        <time>2018-06-24T10:52:36Z</time>
      </trkpt>
      <trkpt lat="50.13451" lon="3.77209">
        <ele>173</ele>
        <time>2018-06-24T10:52:37Z</time>
      </trkpt>
      <trkpt lat="50.1345" lon="3.77218">
        <ele>173</ele>
        <time>2018-06-24T10:52:38Z</time>
      </trkpt>
      <trkpt lat="50.1345" lon="3.77227">
        <ele>173</ele>
        <time>2018-06-24T10:52:39Z</time>
      </trkpt>
      <trkpt lat="50.1345" lon="3.77238">
        <ele>173</ele>
        <time>2018-06-24T10:52:40Z</time>
      </trkpt>
      <trkpt lat="50.1345" lon="3.77247">
        <ele>173</ele>
        <time>2018-06-24T10:52:41Z</time>
      </trkpt>
      <trkpt lat="50.13449" lon="3.77254">
        <ele>174</ele>
        <time>2018-06-24T10:52:42Z</time>
      </trkpt>
      <trkpt lat="50.13448" lon="3.77261">
        <ele>174</ele>
        <time>2018-06-24T10:52:43Z</time>
      </trkpt>
      <trkpt lat="50.13448" lon="3.77269">
        <ele>174</ele>
        <time>2018-06-24T10:52:44Z</time>
      </trkpt>
      <trkpt lat="50.13447" lon="3.77277">
        <ele>174</ele>
        <time>2018-06-24T10:52:45Z</time>
      </trkpt>
      <trkpt lat="50.13446" lon="3.77285">
        <ele>174</ele>
        <time>2018-06-24T10:52:46Z</time>
      </trkpt>
      <trkpt lat="50.13445" lon="3.77294">
        <ele>174</ele>
        <time>2018-06-24T10:52:47Z</time>
      </trkpt>
      <trkpt lat="50.13444" lon="3.77303">
        <ele>174</ele>
        <time>2018-06-24T10:52:48Z</time>
      </trkpt>
      <trkpt lat="50.13443" lon="3.77311">
        <ele>174</ele>
        <time>2018-06-24T10:52:49Z</time>
      </trkpt>
      <trkpt lat="50.13443" lon="3.77319">
        <ele>174</ele>
        <time>2018-06-24T10:52:50Z</time>
      </trkpt>
      <trkpt lat="50.13442" lon="3.77327">
        <ele>175</ele>
        <time>2018-06-24T10:52:51Z</time>
      </trkpt>
      <trkpt lat="50.13441" lon="3.77334">
        <ele>175</ele>
        <time>2018-06-24T10:52:52Z</time>
      </trkpt>
      <trkpt lat="50.1344" lon="3.77342">
        <ele>175</ele>
        <time>2018-06-24T10:52:53Z</time>
      </trkpt>
      <trkpt lat="50.13439" lon="3.77351">
        <ele>175</ele>
        <time>2018-06-24T10:52:54Z</time>
      </trkpt>
      <trkpt lat="50.13438" lon="3.77359">
        <ele>175</ele>
        <time>2018-06-24T10:52:55Z</time>
      </trkpt>
      <trkpt lat="50.13437" lon="3.77367">
        <ele>175</ele>
        <time>2018-06-24T10:52:56Z</time>
      </trkpt>
      <trkpt lat="50.13437" lon="3.77376">
        <ele>175</ele>
        <time>2018-06-24T10:52:57Z</time>
      </trkpt>
      <trkpt lat="50.13436" lon="3.77383">
        <ele>175</ele>
        <time>2018-06-24T10:52:58Z</time>
      </trkpt>
      <trkpt lat="50.13436" lon="3.77392">
        <ele>175</ele>
        <time>2018-06-24T10:52:59Z</time>
      </trkpt>
      <trkpt lat="50.13434" lon="3.77399">
        <ele>175</ele>
        <time>2018-06-24T10:53:00Z</time>
      </trkpt>
      <trkpt lat="50.13434" lon="3.77406">
        <ele>175</ele>
        <time>2018-06-24T10:53:01Z</time>
      </trkpt>
      <trkpt lat="50.13432" lon="3.77415">
        <ele>175</ele>
        <time>2018-06-24T10:53:02Z</time>
      </trkpt>
      <trkpt lat="50.13431" lon="3.77423">
        <ele>175</ele>
        <time>2018-06-24T10:53:03Z</time>
      </trkpt>
      <trkpt lat="50.1343" lon="3.77431">
        <ele>176</ele>
        <time>2018-06-24T10:53:04Z</time>
      </trkpt>
      <trkpt lat="50.13429" lon="3.7744">
        <ele>176</ele>
        <time>2018-06-24T10:53:05Z</time>
      </trkpt>
      <trkpt lat="50.13428" lon="3.77448">
        <ele>176</ele>
        <time>2018-06-24T10:53:06Z</time>
      </trkpt>
      <trkpt lat="50.13428" lon="3.77456">
        <ele>176</ele>
        <time>2018-06-24T10:53:07Z</time>
      </trkpt>
      <trkpt lat="50.13428" lon="3.77465">
        <ele>176</ele>
        <time>2018-06-24T10:53:08Z</time>
      </trkpt>
      <trkpt lat="50.13429" lon="3.77472">
        <ele>176</ele>
        <time>2018-06-24T10:53:09Z</time>
      </trkpt>
      <trkpt lat="50.13432" lon="3.77479">
        <ele>176</ele>
        <time>2018-06-24T10:53:10Z</time>
      </trkpt>
      <trkpt lat="50.13434" lon="3.77487">
        <ele>176</ele>
        <time>2018-06-24T10:53:11Z</time>
      </trkpt>
      <trkpt lat="50.13435" lon="3.77495">
        <ele>176</ele>
        <time>2018-06-24T10:53:12Z</time>
      </trkpt>
      <trkpt lat="50.13437" lon="3.77502">
        <ele>176</ele>
        <time>2018-06-24T10:53:13Z</time>
      </trkpt>
      <trkpt lat="50.13439" lon="3.77509">
        <ele>176</ele>
        <time>2018-06-24T10:53:14Z</time>
      </trkpt>
      <trkpt lat="50.13442" lon="3.77517">
        <ele>176</ele>
        <time>2018-06-24T10:53:15Z</time>
      </trkpt>
      <trkpt lat="50.13444" lon="3.77527">
        <ele>176</ele>
        <time>2018-06-24T10:53:16Z</time>
      </trkpt>
      <trkpt lat="50.13445" lon="3.77535">
        <ele>176</ele>
        <time>2018-06-24T10:53:17Z</time>
      </trkpt>
      <trkpt lat="50.13446" lon="3.77543">
        <ele>176</ele>
        <time>2018-06-24T10:53:18Z</time>
      </trkpt>
      <trkpt lat="50.13446" lon="3.77551">
        <ele>176</ele>
        <time>2018-06-24T10:53:19Z</time>
      </trkpt>
      <trkpt lat="50.13445" lon="3.77558">
        <ele>176</ele>
        <time>2018-06-24T10:53:20Z</time>
      </trkpt>
      <trkpt lat="50.13444" lon="3.77569">
        <ele>176</ele>
        <time>2018-06-24T10:53:21Z</time>
      </trkpt>
      <trkpt lat="50.13442" lon="3.77577">
        <ele>176</ele>
        <time>2018-06-24T10:53:22Z</time>
      </trkpt>
      <trkpt lat="50.1344" lon="3.77586">
        <ele>177</ele>
        <time>2018-06-24T10:53:23Z</time>
      </trkpt>
      <trkpt lat="50.13438" lon="3.77594">
        <ele>177</ele>
        <time>2018-06-24T10:53:24Z</time>
      </trkpt>
      <trkpt lat="50.13435" lon="3.77604">
        <ele>177</ele>
        <time>2018-06-24T10:53:25Z</time>
      </trkpt>
      <trkpt lat="50.13433" lon="3.77612">
        <ele>177</ele>
        <time>2018-06-24T10:53:26Z</time>
      </trkpt>
      <trkpt lat="50.1343" lon="3.77624">
        <ele>177</ele>
        <time>2018-06-24T10:53:27Z</time>
      </trkpt>
      <trkpt lat="50.13428" lon="3.77633">
        <ele>177</ele>
        <time>2018-06-24T10:53:28Z</time>
      </trkpt>
      <trkpt lat="50.13426" lon="3.77641">
        <ele>177</ele>
        <time>2018-06-24T10:53:29Z</time>
      </trkpt>
      <trkpt lat="50.13424" lon="3.77649">
        <ele>177</ele>
        <time>2018-06-24T10:53:30Z</time>
      </trkpt>
      <trkpt lat="50.13421" lon="3.77658">
        <ele>177</ele>
        <time>2018-06-24T10:53:31Z</time>
      </trkpt>
      <trkpt lat="50.13419" lon="3.77667">
        <ele>177</ele>
        <time>2018-06-24T10:53:32Z</time>
      </trkpt>
      <trkpt lat="50.13417" lon="3.77675">
        <ele>177</ele>
        <time>2018-06-24T10:53:33Z</time>
      </trkpt>
      <trkpt lat="50.13417" lon="3.77686">
        <ele>177</ele>
        <time>2018-06-24T10:53:34Z</time>
      </trkpt>
      <trkpt lat="50.13415" lon="3.77695">
        <ele>177</ele>
        <time>2018-06-24T10:53:35Z</time>
      </trkpt>
      <trkpt lat="50.13414" lon="3.77704">
        <ele>177</ele>
        <time>2018-06-24T10:53:36Z</time>
      </trkpt>
      <trkpt lat="50.13414" lon="3.77709">
        <ele>177</ele>
        <time>2018-06-24T10:53:37Z</time>
      </trkpt>
      <trkpt lat="50.13412" lon="3.77718">
        <ele>177</ele>
        <time>2018-06-24T10:53:38Z</time>
      </trkpt>
    </trkseg>
  </trk>
</gpx>